<?xml version="1.0" encoding="UTF-8" standalone="no" ?>
<gpx xmlns="http://www.topografix.com/GPX/1/1" xmlns:xsi="http://www.w3.org/2001/XMLSchema-instance" xsi:schemaLocation="http://www.topografix.com/GPX/1/1 http://www.topografix.com/GPX/1/1/gpx.xsd" version="1.1" creator="VisuGPX - https://www.visugpx.com">
  <metadata>
    <name>DÉCOUVERTE DE LA MALEPERE  </name>
    <desc><![CDATA[DECOUVERTE DE LA MALEPERE TRACE TRES LUDIQUE EST TRES AGREABLE AU PROGRAMME SINGLES CHEMIN EN SOUS BOIS ET VIGNES TRAVERSER DE PLUSIEURS VILLAGE AVEC VU SUR LE PYRENEES ]]></desc>
  </metadata>
  <wpt lat="43.16313" lon="2.27198">
    <ele>222.824326</ele>
    <name><![CDATA[002]]></name>
    <type><![CDATA[user]]></type>
  </wpt>
  <wpt lat="43.16313" lon="2.27198">
    <ele>222.472717</ele>
    <name><![CDATA[003]]></name>
    <type><![CDATA[user]]></type>
  </wpt>
  <wpt lat="43.32706" lon="2.5254">
    <ele>95.936333</ele>
    <name><![CDATA[004]]></name>
    <type><![CDATA[user]]></type>
  </wpt>
  <wpt lat="43.31242" lon="2.88152">
    <ele>174.4897</ele>
    <name><![CDATA[005]]></name>
    <type><![CDATA[user]]></type>
  </wpt>
  <wpt lat="43.16317" lon="2.27214">
    <ele>282.944855</ele>
    <name><![CDATA[006]]></name>
    <type><![CDATA[user]]></type>
  </wpt>
  <wpt lat="43.16999" lon="2.3872">
    <ele>178.596069</ele>
    <name><![CDATA[010]]></name>
    <type><![CDATA[user]]></type>
  </wpt>
  <wpt lat="43.40095" lon="2.44256">
    <ele>790.947815</ele>
    <name><![CDATA[011]]></name>
    <type><![CDATA[user]]></type>
  </wpt>
  <wpt lat="43.10781" lon="2.23653">
    <ele>242.982849</ele>
    <name><![CDATA[012]]></name>
    <type><![CDATA[user]]></type>
  </wpt>
  <trk>
    <name><![CDATA[2015-07-07 18:43:44 Chronomètre]]></name>
    <trkseg>
      <trkpt lat="43.16318" lon="2.27203">
        <ele>227.97</ele>
        <time>2015-07-07T17:43:44Z</time>
      </trkpt>
    </trkseg>
  </trk>
  <trk>
    <name><![CDATA[BOUCLE EN MALEPERE 48 KM]]></name>
    <trkseg>
      <trkpt lat="43.16335" lon="2.27205">
        <ele>168.85</ele>
        <time>2015-07-18T08:18:03Z</time>
      </trkpt>
      <trkpt lat="43.16336" lon="2.27204">
        <ele>168.85</ele>
        <time>2015-07-18T08:18:04Z</time>
      </trkpt>
      <trkpt lat="43.16333" lon="2.2721">
        <ele>172.69</ele>
        <time>2015-07-18T08:18:07Z</time>
      </trkpt>
      <trkpt lat="43.16331" lon="2.27212">
        <ele>176.54</ele>
        <time>2015-07-18T08:18:09Z</time>
      </trkpt>
      <trkpt lat="43.16331" lon="2.27214">
        <ele>179.42</ele>
        <time>2015-07-18T08:18:11Z</time>
      </trkpt>
      <trkpt lat="43.16331" lon="2.27215">
        <ele>182.79</ele>
        <time>2015-07-18T08:18:13Z</time>
      </trkpt>
      <trkpt lat="43.1633" lon="2.27215">
        <ele>188.08</ele>
        <time>2015-07-18T08:18:16Z</time>
      </trkpt>
      <trkpt lat="43.1633" lon="2.27215">
        <ele>188.08</ele>
        <time>2015-07-18T08:18:17Z</time>
      </trkpt>
      <trkpt lat="43.1633" lon="2.27214">
        <ele>191.44</ele>
        <time>2015-07-18T08:18:20Z</time>
      </trkpt>
      <trkpt lat="43.1633" lon="2.27214">
        <ele>194.8</ele>
        <time>2015-07-18T08:18:23Z</time>
      </trkpt>
      <trkpt lat="43.1633" lon="2.27214">
        <ele>198.65</ele>
        <time>2015-07-18T08:18:27Z</time>
      </trkpt>
      <trkpt lat="43.1633" lon="2.27213">
        <ele>202.01</ele>
        <time>2015-07-18T08:18:31Z</time>
      </trkpt>
      <trkpt lat="43.1633" lon="2.27213">
        <ele>205.86</ele>
        <time>2015-07-18T08:18:36Z</time>
      </trkpt>
      <trkpt lat="43.16329" lon="2.27213">
        <ele>209.22</ele>
        <time>2015-07-18T08:18:41Z</time>
      </trkpt>
      <trkpt lat="43.16327" lon="2.27213">
        <ele>212.59</ele>
        <time>2015-07-18T08:18:48Z</time>
      </trkpt>
      <trkpt lat="43.16326" lon="2.27213">
        <ele>215.47</ele>
        <time>2015-07-18T08:18:55Z</time>
      </trkpt>
      <trkpt lat="43.16326" lon="2.27213">
        <ele>218.36</ele>
        <time>2015-07-18T08:19:04Z</time>
      </trkpt>
      <trkpt lat="43.16326" lon="2.27214">
        <ele>221.24</ele>
        <time>2015-07-18T08:19:16Z</time>
      </trkpt>
      <trkpt lat="43.1633" lon="2.2722">
        <ele>221.72</ele>
        <time>2015-07-18T08:19:19Z</time>
      </trkpt>
      <trkpt lat="43.16332" lon="2.2722">
        <ele>222.2</ele>
        <time>2015-07-18T08:19:20Z</time>
      </trkpt>
      <trkpt lat="43.16334" lon="2.27219">
        <ele>222.2</ele>
        <time>2015-07-18T08:19:21Z</time>
      </trkpt>
      <trkpt lat="43.16335" lon="2.27217">
        <ele>222.2</ele>
        <time>2015-07-18T08:19:22Z</time>
      </trkpt>
      <trkpt lat="43.16336" lon="2.27215">
        <ele>222.2</ele>
        <time>2015-07-18T08:19:23Z</time>
      </trkpt>
      <trkpt lat="43.16337" lon="2.27214">
        <ele>222.68</ele>
        <time>2015-07-18T08:19:24Z</time>
      </trkpt>
      <trkpt lat="43.16338" lon="2.27213">
        <ele>222.68</ele>
        <time>2015-07-18T08:19:25Z</time>
      </trkpt>
      <trkpt lat="43.16339" lon="2.27212">
        <ele>222.68</ele>
        <time>2015-07-18T08:19:26Z</time>
      </trkpt>
      <trkpt lat="43.16341" lon="2.27211">
        <ele>222.68</ele>
        <time>2015-07-18T08:19:27Z</time>
      </trkpt>
      <trkpt lat="43.16342" lon="2.2721">
        <ele>223.16</ele>
        <time>2015-07-18T08:19:28Z</time>
      </trkpt>
      <trkpt lat="43.16343" lon="2.27208">
        <ele>223.16</ele>
        <time>2015-07-18T08:19:29Z</time>
      </trkpt>
      <trkpt lat="43.16343" lon="2.27206">
        <ele>223.16</ele>
        <time>2015-07-18T08:19:30Z</time>
      </trkpt>
      <trkpt lat="43.16342" lon="2.27205">
        <ele>223.16</ele>
        <time>2015-07-18T08:19:31Z</time>
      </trkpt>
      <trkpt lat="43.16342" lon="2.27203">
        <ele>223.64</ele>
        <time>2015-07-18T08:19:32Z</time>
      </trkpt>
      <trkpt lat="43.16343" lon="2.27204">
        <ele>224.12</ele>
        <time>2015-07-18T08:19:47Z</time>
      </trkpt>
      <trkpt lat="43.16344" lon="2.27205">
        <ele>225.57</ele>
        <time>2015-07-18T08:20:19Z</time>
      </trkpt>
      <trkpt lat="43.16346" lon="2.27203">
        <ele>225.57</ele>
        <time>2015-07-18T08:20:23Z</time>
      </trkpt>
      <trkpt lat="43.16348" lon="2.27202">
        <ele>225.57</ele>
        <time>2015-07-18T08:20:24Z</time>
      </trkpt>
      <trkpt lat="43.16375" lon="2.27173">
        <ele>225.09</ele>
        <time>2015-07-18T08:20:38Z</time>
      </trkpt>
      <trkpt lat="43.1638" lon="2.27166">
        <ele>224.12</ele>
        <time>2015-07-18T08:20:40Z</time>
      </trkpt>
      <trkpt lat="43.1641" lon="2.27131">
        <ele>225.09</ele>
        <time>2015-07-18T08:20:52Z</time>
      </trkpt>
      <trkpt lat="43.16425" lon="2.2709">
        <ele>226.53</ele>
        <time>2015-07-18T08:21:06Z</time>
      </trkpt>
      <trkpt lat="43.16422" lon="2.27053">
        <ele>226.05</ele>
        <time>2015-07-18T08:21:18Z</time>
      </trkpt>
      <trkpt lat="43.16395" lon="2.27038">
        <ele>227.97</ele>
        <time>2015-07-18T08:21:32Z</time>
      </trkpt>
      <trkpt lat="43.16387" lon="2.2704">
        <ele>228.45</ele>
        <time>2015-07-18T08:21:36Z</time>
      </trkpt>
      <trkpt lat="43.16386" lon="2.2704">
        <ele>228.93</ele>
        <time>2015-07-18T08:21:37Z</time>
      </trkpt>
      <trkpt lat="43.16384" lon="2.2704">
        <ele>228.93</ele>
        <time>2015-07-18T08:21:38Z</time>
      </trkpt>
      <trkpt lat="43.16382" lon="2.2704">
        <ele>228.93</ele>
        <time>2015-07-18T08:21:39Z</time>
      </trkpt>
      <trkpt lat="43.16381" lon="2.2704">
        <ele>228.93</ele>
        <time>2015-07-18T08:21:40Z</time>
      </trkpt>
      <trkpt lat="43.16379" lon="2.27039">
        <ele>229.41</ele>
        <time>2015-07-18T08:21:41Z</time>
      </trkpt>
      <trkpt lat="43.16377" lon="2.2704">
        <ele>229.41</ele>
        <time>2015-07-18T08:21:42Z</time>
      </trkpt>
      <trkpt lat="43.16356" lon="2.27039">
        <ele>230.85</ele>
        <time>2015-07-18T08:21:54Z</time>
      </trkpt>
      <trkpt lat="43.16354" lon="2.27041">
        <ele>231.33</ele>
        <time>2015-07-18T08:21:55Z</time>
      </trkpt>
      <trkpt lat="43.16352" lon="2.27041">
        <ele>231.33</ele>
        <time>2015-07-18T08:21:56Z</time>
      </trkpt>
      <trkpt lat="43.16351" lon="2.27041">
        <ele>231.81</ele>
        <time>2015-07-18T08:21:57Z</time>
      </trkpt>
      <trkpt lat="43.16349" lon="2.27041">
        <ele>231.81</ele>
        <time>2015-07-18T08:21:58Z</time>
      </trkpt>
      <trkpt lat="43.16347" lon="2.27041">
        <ele>231.81</ele>
        <time>2015-07-18T08:21:59Z</time>
      </trkpt>
      <trkpt lat="43.16345" lon="2.2704">
        <ele>231.81</ele>
        <time>2015-07-18T08:22:00Z</time>
      </trkpt>
      <trkpt lat="43.16343" lon="2.27039">
        <ele>232.3</ele>
        <time>2015-07-18T08:22:01Z</time>
      </trkpt>
      <trkpt lat="43.16341" lon="2.27039">
        <ele>232.78</ele>
        <time>2015-07-18T08:22:02Z</time>
      </trkpt>
      <trkpt lat="43.16339" lon="2.27039">
        <ele>232.78</ele>
        <time>2015-07-18T08:22:03Z</time>
      </trkpt>
      <trkpt lat="43.16313" lon="2.27037">
        <ele>234.22</ele>
        <time>2015-07-18T08:22:16Z</time>
      </trkpt>
      <trkpt lat="43.16312" lon="2.27036">
        <ele>234.22</ele>
        <time>2015-07-18T08:22:17Z</time>
      </trkpt>
      <trkpt lat="43.16311" lon="2.27034">
        <ele>234.22</ele>
        <time>2015-07-18T08:22:18Z</time>
      </trkpt>
      <trkpt lat="43.16309" lon="2.27033">
        <ele>234.22</ele>
        <time>2015-07-18T08:22:19Z</time>
      </trkpt>
      <trkpt lat="43.16307" lon="2.27032">
        <ele>234.22</ele>
        <time>2015-07-18T08:22:20Z</time>
      </trkpt>
      <trkpt lat="43.16306" lon="2.27032">
        <ele>234.22</ele>
        <time>2015-07-18T08:22:21Z</time>
      </trkpt>
      <trkpt lat="43.16284" lon="2.27024">
        <ele>232.78</ele>
        <time>2015-07-18T08:22:29Z</time>
      </trkpt>
      <trkpt lat="43.16246" lon="2.27009">
        <ele>232.78</ele>
        <time>2015-07-18T08:22:41Z</time>
      </trkpt>
      <trkpt lat="43.16242" lon="2.27009">
        <ele>232.78</ele>
        <time>2015-07-18T08:22:42Z</time>
      </trkpt>
      <trkpt lat="43.16233" lon="2.27008">
        <ele>231.81</ele>
        <time>2015-07-18T08:22:44Z</time>
      </trkpt>
      <trkpt lat="43.16227" lon="2.27006">
        <ele>230.85</ele>
        <time>2015-07-18T08:22:45Z</time>
      </trkpt>
      <trkpt lat="43.16222" lon="2.27003">
        <ele>230.37</ele>
        <time>2015-07-18T08:22:46Z</time>
      </trkpt>
      <trkpt lat="43.16216" lon="2.26998">
        <ele>229.89</ele>
        <time>2015-07-18T08:22:47Z</time>
      </trkpt>
      <trkpt lat="43.16209" lon="2.26993">
        <ele>228.93</ele>
        <time>2015-07-18T08:22:48Z</time>
      </trkpt>
      <trkpt lat="43.16197" lon="2.26982">
        <ele>227.97</ele>
        <time>2015-07-18T08:22:50Z</time>
      </trkpt>
      <trkpt lat="43.16191" lon="2.26979">
        <ele>227.97</ele>
        <time>2015-07-18T08:22:51Z</time>
      </trkpt>
      <trkpt lat="43.16185" lon="2.26978">
        <ele>227.49</ele>
        <time>2015-07-18T08:22:52Z</time>
      </trkpt>
      <trkpt lat="43.16178" lon="2.26979">
        <ele>227.49</ele>
        <time>2015-07-18T08:22:53Z</time>
      </trkpt>
      <trkpt lat="43.16173" lon="2.26982">
        <ele>227.49</ele>
        <time>2015-07-18T08:22:54Z</time>
      </trkpt>
      <trkpt lat="43.16169" lon="2.26984">
        <ele>228.93</ele>
        <time>2015-07-18T08:22:55Z</time>
      </trkpt>
      <trkpt lat="43.16165" lon="2.26987">
        <ele>228.93</ele>
        <time>2015-07-18T08:22:56Z</time>
      </trkpt>
      <trkpt lat="43.16142" lon="2.2701">
        <ele>229.89</ele>
        <time>2015-07-18T08:23:06Z</time>
      </trkpt>
      <trkpt lat="43.16105" lon="2.27029">
        <ele>228.93</ele>
        <time>2015-07-18T08:23:17Z</time>
      </trkpt>
      <trkpt lat="43.161" lon="2.27028">
        <ele>228.93</ele>
        <time>2015-07-18T08:23:18Z</time>
      </trkpt>
      <trkpt lat="43.16072" lon="2.27027">
        <ele>225.57</ele>
        <time>2015-07-18T08:23:23Z</time>
      </trkpt>
      <trkpt lat="43.16065" lon="2.27026">
        <ele>224.61</ele>
        <time>2015-07-18T08:23:24Z</time>
      </trkpt>
      <trkpt lat="43.16057" lon="2.27024">
        <ele>223.64</ele>
        <time>2015-07-18T08:23:25Z</time>
      </trkpt>
      <trkpt lat="43.16049" lon="2.2702">
        <ele>222.68</ele>
        <time>2015-07-18T08:23:26Z</time>
      </trkpt>
      <trkpt lat="43.16041" lon="2.27015">
        <ele>221.24</ele>
        <time>2015-07-18T08:23:27Z</time>
      </trkpt>
      <trkpt lat="43.16032" lon="2.27009">
        <ele>219.8</ele>
        <time>2015-07-18T08:23:28Z</time>
      </trkpt>
      <trkpt lat="43.16022" lon="2.27001">
        <ele>217.88</ele>
        <time>2015-07-18T08:23:29Z</time>
      </trkpt>
      <trkpt lat="43.15991" lon="2.26975">
        <ele>217.4</ele>
        <time>2015-07-18T08:23:35Z</time>
      </trkpt>
      <trkpt lat="43.1599" lon="2.26976">
        <ele>217.4</ele>
        <time>2015-07-18T08:23:36Z</time>
      </trkpt>
      <trkpt lat="43.15984" lon="2.26982">
        <ele>218.84</ele>
        <time>2015-07-18T08:23:41Z</time>
      </trkpt>
      <trkpt lat="43.15981" lon="2.26977">
        <ele>221.72</ele>
        <time>2015-07-18T08:23:46Z</time>
      </trkpt>
      <trkpt lat="43.15968" lon="2.26971">
        <ele>225.09</ele>
        <time>2015-07-18T08:23:59Z</time>
      </trkpt>
      <trkpt lat="43.15966" lon="2.26981">
        <ele>228.45</ele>
        <time>2015-07-18T08:24:09Z</time>
      </trkpt>
      <trkpt lat="43.15964" lon="2.26982">
        <ele>228.93</ele>
        <time>2015-07-18T08:24:11Z</time>
      </trkpt>
      <trkpt lat="43.15961" lon="2.26991">
        <ele>229.89</ele>
        <time>2015-07-18T08:24:16Z</time>
      </trkpt>
      <trkpt lat="43.1596" lon="2.26997">
        <ele>230.85</ele>
        <time>2015-07-18T08:24:30Z</time>
      </trkpt>
      <trkpt lat="43.1596" lon="2.26997">
        <ele>230.85</ele>
        <time>2015-07-18T08:24:41Z</time>
      </trkpt>
      <trkpt lat="43.1596" lon="2.27017">
        <ele>232.78</ele>
        <time>2015-07-18T08:24:54Z</time>
      </trkpt>
      <trkpt lat="43.15959" lon="2.27032">
        <ele>234.22</ele>
        <time>2015-07-18T08:25:07Z</time>
      </trkpt>
      <trkpt lat="43.15957" lon="2.27041">
        <ele>234.22</ele>
        <time>2015-07-18T08:25:13Z</time>
      </trkpt>
      <trkpt lat="43.15957" lon="2.27046">
        <ele>234.22</ele>
        <time>2015-07-18T08:25:15Z</time>
      </trkpt>
      <trkpt lat="43.15957" lon="2.27049">
        <ele>234.22</ele>
        <time>2015-07-18T08:25:16Z</time>
      </trkpt>
      <trkpt lat="43.15958" lon="2.27052">
        <ele>234.22</ele>
        <time>2015-07-18T08:25:17Z</time>
      </trkpt>
      <trkpt lat="43.15957" lon="2.27055">
        <ele>234.22</ele>
        <time>2015-07-18T08:25:18Z</time>
      </trkpt>
      <trkpt lat="43.15957" lon="2.27058">
        <ele>234.22</ele>
        <time>2015-07-18T08:25:19Z</time>
      </trkpt>
      <trkpt lat="43.15956" lon="2.2706">
        <ele>234.22</ele>
        <time>2015-07-18T08:25:20Z</time>
      </trkpt>
      <trkpt lat="43.15955" lon="2.27062">
        <ele>234.22</ele>
        <time>2015-07-18T08:25:21Z</time>
      </trkpt>
      <trkpt lat="43.15954" lon="2.27064">
        <ele>234.22</ele>
        <time>2015-07-18T08:25:22Z</time>
      </trkpt>
      <trkpt lat="43.15952" lon="2.27066">
        <ele>234.22</ele>
        <time>2015-07-18T08:25:23Z</time>
      </trkpt>
      <trkpt lat="43.15951" lon="2.27069">
        <ele>234.22</ele>
        <time>2015-07-18T08:25:27Z</time>
      </trkpt>
      <trkpt lat="43.15944" lon="2.27088">
        <ele>234.7</ele>
        <time>2015-07-18T08:25:36Z</time>
      </trkpt>
      <trkpt lat="43.15934" lon="2.27113">
        <ele>233.74</ele>
        <time>2015-07-18T08:25:48Z</time>
      </trkpt>
      <trkpt lat="43.15934" lon="2.27114">
        <ele>233.74</ele>
        <time>2015-07-18T08:25:49Z</time>
      </trkpt>
      <trkpt lat="43.15931" lon="2.27123">
        <ele>234.7</ele>
        <time>2015-07-18T08:25:55Z</time>
      </trkpt>
      <trkpt lat="43.15931" lon="2.27125">
        <ele>234.7</ele>
        <time>2015-07-18T08:25:56Z</time>
      </trkpt>
      <trkpt lat="43.15931" lon="2.27126">
        <ele>234.7</ele>
        <time>2015-07-18T08:25:57Z</time>
      </trkpt>
      <trkpt lat="43.15932" lon="2.27128">
        <ele>233.74</ele>
        <time>2015-07-18T08:25:58Z</time>
      </trkpt>
      <trkpt lat="43.15933" lon="2.2713">
        <ele>233.74</ele>
        <time>2015-07-18T08:25:59Z</time>
      </trkpt>
      <trkpt lat="43.15934" lon="2.27132">
        <ele>233.26</ele>
        <time>2015-07-18T08:26:00Z</time>
      </trkpt>
      <trkpt lat="43.15935" lon="2.27141">
        <ele>233.26</ele>
        <time>2015-07-18T08:26:06Z</time>
      </trkpt>
      <trkpt lat="43.15935" lon="2.27144">
        <ele>232.3</ele>
        <time>2015-07-18T08:26:08Z</time>
      </trkpt>
      <trkpt lat="43.15937" lon="2.27154">
        <ele>231.81</ele>
        <time>2015-07-18T08:26:14Z</time>
      </trkpt>
      <trkpt lat="43.15937" lon="2.27155">
        <ele>231.81</ele>
        <time>2015-07-18T08:26:15Z</time>
      </trkpt>
      <trkpt lat="43.15937" lon="2.27157">
        <ele>231.81</ele>
        <time>2015-07-18T08:26:16Z</time>
      </trkpt>
      <trkpt lat="43.15937" lon="2.27159">
        <ele>231.81</ele>
        <time>2015-07-18T08:26:17Z</time>
      </trkpt>
      <trkpt lat="43.15938" lon="2.27167">
        <ele>232.3</ele>
        <time>2015-07-18T08:26:22Z</time>
      </trkpt>
      <trkpt lat="43.15939" lon="2.27172">
        <ele>232.3</ele>
        <time>2015-07-18T08:26:25Z</time>
      </trkpt>
      <trkpt lat="43.1594" lon="2.27174">
        <ele>232.3</ele>
        <time>2015-07-18T08:26:26Z</time>
      </trkpt>
      <trkpt lat="43.15942" lon="2.27177">
        <ele>231.33</ele>
        <time>2015-07-18T08:26:27Z</time>
      </trkpt>
      <trkpt lat="43.15943" lon="2.27181">
        <ele>230.37</ele>
        <time>2015-07-18T08:26:28Z</time>
      </trkpt>
      <trkpt lat="43.15943" lon="2.27183">
        <ele>230.37</ele>
        <time>2015-07-18T08:26:29Z</time>
      </trkpt>
      <trkpt lat="43.15941" lon="2.27212">
        <ele>231.33</ele>
        <time>2015-07-18T08:26:41Z</time>
      </trkpt>
      <trkpt lat="43.15941" lon="2.27234">
        <ele>231.33</ele>
        <time>2015-07-18T08:26:50Z</time>
      </trkpt>
      <trkpt lat="43.15954" lon="2.2725">
        <ele>229.89</ele>
        <time>2015-07-18T08:26:59Z</time>
      </trkpt>
      <trkpt lat="43.15965" lon="2.27256">
        <ele>229.89</ele>
        <time>2015-07-18T08:27:06Z</time>
      </trkpt>
      <trkpt lat="43.15969" lon="2.27258">
        <ele>229.89</ele>
        <time>2015-07-18T08:27:21Z</time>
      </trkpt>
      <trkpt lat="43.15971" lon="2.27259">
        <ele>229.89</ele>
        <time>2015-07-18T08:27:41Z</time>
      </trkpt>
      <trkpt lat="43.1599" lon="2.27257">
        <ele>229.41</ele>
        <time>2015-07-18T08:27:51Z</time>
      </trkpt>
      <trkpt lat="43.16001" lon="2.27264">
        <ele>228.45</ele>
        <time>2015-07-18T08:27:56Z</time>
      </trkpt>
      <trkpt lat="43.16011" lon="2.2727">
        <ele>227.01</ele>
        <time>2015-07-18T08:27:59Z</time>
      </trkpt>
      <trkpt lat="43.16021" lon="2.27256">
        <ele>223.64</ele>
        <time>2015-07-18T08:28:03Z</time>
      </trkpt>
      <trkpt lat="43.16027" lon="2.27247">
        <ele>219.8</ele>
        <time>2015-07-18T08:28:05Z</time>
      </trkpt>
      <trkpt lat="43.16039" lon="2.27239">
        <ele>217.4</ele>
        <time>2015-07-18T08:28:08Z</time>
      </trkpt>
      <trkpt lat="43.16056" lon="2.27237">
        <ele>212.59</ele>
        <time>2015-07-18T08:28:13Z</time>
      </trkpt>
      <trkpt lat="43.16071" lon="2.27239">
        <ele>209.7</ele>
        <time>2015-07-18T08:28:16Z</time>
      </trkpt>
      <trkpt lat="43.16076" lon="2.27238">
        <ele>209.22</ele>
        <time>2015-07-18T08:28:17Z</time>
      </trkpt>
      <trkpt lat="43.16086" lon="2.27244">
        <ele>209.22</ele>
        <time>2015-07-18T08:28:21Z</time>
      </trkpt>
      <trkpt lat="43.1609" lon="2.2726">
        <ele>213.55</ele>
        <time>2015-07-18T08:28:30Z</time>
      </trkpt>
      <trkpt lat="43.1609" lon="2.27261">
        <ele>213.55</ele>
        <time>2015-07-18T08:28:31Z</time>
      </trkpt>
      <trkpt lat="43.1609" lon="2.27265">
        <ele>214.03</ele>
        <time>2015-07-18T08:28:33Z</time>
      </trkpt>
      <trkpt lat="43.16101" lon="2.27263">
        <ele>212.59</ele>
        <time>2015-07-18T08:28:39Z</time>
      </trkpt>
      <trkpt lat="43.16105" lon="2.27253">
        <ele>210.67</ele>
        <time>2015-07-18T08:28:42Z</time>
      </trkpt>
      <trkpt lat="43.1611" lon="2.27244">
        <ele>208.26</ele>
        <time>2015-07-18T08:28:46Z</time>
      </trkpt>
      <trkpt lat="43.16117" lon="2.27245">
        <ele>206.34</ele>
        <time>2015-07-18T08:28:49Z</time>
      </trkpt>
      <trkpt lat="43.16123" lon="2.27238">
        <ele>202.01</ele>
        <time>2015-07-18T08:28:55Z</time>
      </trkpt>
      <trkpt lat="43.16125" lon="2.2724">
        <ele>201.53</ele>
        <time>2015-07-18T08:28:57Z</time>
      </trkpt>
      <trkpt lat="43.16126" lon="2.27251">
        <ele>201.05</ele>
        <time>2015-07-18T08:29:04Z</time>
      </trkpt>
      <trkpt lat="43.16134" lon="2.27262">
        <ele>201.53</ele>
        <time>2015-07-18T08:29:10Z</time>
      </trkpt>
      <trkpt lat="43.16136" lon="2.27274">
        <ele>201.53</ele>
        <time>2015-07-18T08:29:15Z</time>
      </trkpt>
      <trkpt lat="43.16137" lon="2.27279">
        <ele>202.98</ele>
        <time>2015-07-18T08:29:17Z</time>
      </trkpt>
      <trkpt lat="43.16138" lon="2.27283">
        <ele>203.46</ele>
        <time>2015-07-18T08:29:19Z</time>
      </trkpt>
      <trkpt lat="43.16138" lon="2.27291">
        <ele>203.46</ele>
        <time>2015-07-18T08:29:22Z</time>
      </trkpt>
      <trkpt lat="43.1614" lon="2.273">
        <ele>202.98</ele>
        <time>2015-07-18T08:29:26Z</time>
      </trkpt>
      <trkpt lat="43.16147" lon="2.27309">
        <ele>199.61</ele>
        <time>2015-07-18T08:29:30Z</time>
      </trkpt>
      <trkpt lat="43.16155" lon="2.27317">
        <ele>197.21</ele>
        <time>2015-07-18T08:29:33Z</time>
      </trkpt>
      <trkpt lat="43.16158" lon="2.2732">
        <ele>195.77</ele>
        <time>2015-07-18T08:29:34Z</time>
      </trkpt>
      <trkpt lat="43.16169" lon="2.27329">
        <ele>191.92</ele>
        <time>2015-07-18T08:29:39Z</time>
      </trkpt>
      <trkpt lat="43.16171" lon="2.27332">
        <ele>191.44</ele>
        <time>2015-07-18T08:29:41Z</time>
      </trkpt>
      <trkpt lat="43.1617" lon="2.27337">
        <ele>191.44</ele>
        <time>2015-07-18T08:29:43Z</time>
      </trkpt>
      <trkpt lat="43.16169" lon="2.27339">
        <ele>191.44</ele>
        <time>2015-07-18T08:29:44Z</time>
      </trkpt>
      <trkpt lat="43.16169" lon="2.27341">
        <ele>191.44</ele>
        <time>2015-07-18T08:29:45Z</time>
      </trkpt>
      <trkpt lat="43.16168" lon="2.27344">
        <ele>191.44</ele>
        <time>2015-07-18T08:29:46Z</time>
      </trkpt>
      <trkpt lat="43.16168" lon="2.27346">
        <ele>191.44</ele>
        <time>2015-07-18T08:29:47Z</time>
      </trkpt>
      <trkpt lat="43.16154" lon="2.27374">
        <ele>193.84</ele>
        <time>2015-07-18T08:30:03Z</time>
      </trkpt>
      <trkpt lat="43.16146" lon="2.27382">
        <ele>194.8</ele>
        <time>2015-07-18T08:30:10Z</time>
      </trkpt>
      <trkpt lat="43.16145" lon="2.27383">
        <ele>195.28</ele>
        <time>2015-07-18T08:30:11Z</time>
      </trkpt>
      <trkpt lat="43.16128" lon="2.27399">
        <ele>198.65</ele>
        <time>2015-07-18T08:30:23Z</time>
      </trkpt>
      <trkpt lat="43.16115" lon="2.27403">
        <ele>201.05</ele>
        <time>2015-07-18T08:30:31Z</time>
      </trkpt>
      <trkpt lat="43.16113" lon="2.27403">
        <ele>201.53</ele>
        <time>2015-07-18T08:30:32Z</time>
      </trkpt>
      <trkpt lat="43.16111" lon="2.27402">
        <ele>202.01</ele>
        <time>2015-07-18T08:30:33Z</time>
      </trkpt>
      <trkpt lat="43.16108" lon="2.27401">
        <ele>202.49</ele>
        <time>2015-07-18T08:30:36Z</time>
      </trkpt>
      <trkpt lat="43.16107" lon="2.27401">
        <ele>202.49</ele>
        <time>2015-07-18T08:30:37Z</time>
      </trkpt>
      <trkpt lat="43.16106" lon="2.27402">
        <ele>202.98</ele>
        <time>2015-07-18T08:30:38Z</time>
      </trkpt>
      <trkpt lat="43.16105" lon="2.27403">
        <ele>202.98</ele>
        <time>2015-07-18T08:30:39Z</time>
      </trkpt>
      <trkpt lat="43.16103" lon="2.27404">
        <ele>202.98</ele>
        <time>2015-07-18T08:30:40Z</time>
      </trkpt>
      <trkpt lat="43.16102" lon="2.27404">
        <ele>202.98</ele>
        <time>2015-07-18T08:30:41Z</time>
      </trkpt>
      <trkpt lat="43.161" lon="2.27404">
        <ele>202.98</ele>
        <time>2015-07-18T08:30:42Z</time>
      </trkpt>
      <trkpt lat="43.16099" lon="2.27405">
        <ele>202.98</ele>
        <time>2015-07-18T08:30:43Z</time>
      </trkpt>
      <trkpt lat="43.16098" lon="2.27406">
        <ele>202.98</ele>
        <time>2015-07-18T08:30:44Z</time>
      </trkpt>
      <trkpt lat="43.16079" lon="2.27417">
        <ele>205.38</ele>
        <time>2015-07-18T08:30:57Z</time>
      </trkpt>
      <trkpt lat="43.16059" lon="2.27431">
        <ele>207.78</ele>
        <time>2015-07-18T08:31:11Z</time>
      </trkpt>
      <trkpt lat="43.16021" lon="2.2744">
        <ele>207.78</ele>
        <time>2015-07-18T08:31:24Z</time>
      </trkpt>
      <trkpt lat="43.15985" lon="2.27454">
        <ele>204.42</ele>
        <time>2015-07-18T08:31:34Z</time>
      </trkpt>
      <trkpt lat="43.1597" lon="2.2746">
        <ele>203.46</ele>
        <time>2015-07-18T08:31:38Z</time>
      </trkpt>
      <trkpt lat="43.15924" lon="2.27468">
        <ele>200.57</ele>
        <time>2015-07-18T08:31:44Z</time>
      </trkpt>
      <trkpt lat="43.15918" lon="2.27472">
        <ele>200.09</ele>
        <time>2015-07-18T08:31:45Z</time>
      </trkpt>
      <trkpt lat="43.15913" lon="2.27479">
        <ele>200.57</ele>
        <time>2015-07-18T08:31:46Z</time>
      </trkpt>
      <trkpt lat="43.1591" lon="2.27487">
        <ele>200.09</ele>
        <time>2015-07-18T08:31:47Z</time>
      </trkpt>
      <trkpt lat="43.15909" lon="2.27495">
        <ele>200.09</ele>
        <time>2015-07-18T08:31:48Z</time>
      </trkpt>
      <trkpt lat="43.1591" lon="2.27503">
        <ele>200.09</ele>
        <time>2015-07-18T08:31:49Z</time>
      </trkpt>
      <trkpt lat="43.15911" lon="2.27512">
        <ele>200.09</ele>
        <time>2015-07-18T08:31:50Z</time>
      </trkpt>
      <trkpt lat="43.15912" lon="2.27521">
        <ele>199.61</ele>
        <time>2015-07-18T08:31:51Z</time>
      </trkpt>
      <trkpt lat="43.15913" lon="2.27529">
        <ele>199.61</ele>
        <time>2015-07-18T08:31:52Z</time>
      </trkpt>
      <trkpt lat="43.15915" lon="2.27536">
        <ele>199.61</ele>
        <time>2015-07-18T08:31:53Z</time>
      </trkpt>
      <trkpt lat="43.15915" lon="2.27542">
        <ele>199.61</ele>
        <time>2015-07-18T08:31:54Z</time>
      </trkpt>
      <trkpt lat="43.15915" lon="2.27547">
        <ele>201.05</ele>
        <time>2015-07-18T08:31:55Z</time>
      </trkpt>
      <trkpt lat="43.15915" lon="2.2755">
        <ele>201.05</ele>
        <time>2015-07-18T08:31:56Z</time>
      </trkpt>
      <trkpt lat="43.15915" lon="2.2756">
        <ele>202.49</ele>
        <time>2015-07-18T08:32:00Z</time>
      </trkpt>
      <trkpt lat="43.15915" lon="2.27562">
        <ele>202.98</ele>
        <time>2015-07-18T08:32:01Z</time>
      </trkpt>
      <trkpt lat="43.15915" lon="2.27565">
        <ele>202.98</ele>
        <time>2015-07-18T08:32:02Z</time>
      </trkpt>
      <trkpt lat="43.15912" lon="2.27595">
        <ele>205.86</ele>
        <time>2015-07-18T08:32:14Z</time>
      </trkpt>
      <trkpt lat="43.15897" lon="2.27615">
        <ele>207.78</ele>
        <time>2015-07-18T08:32:26Z</time>
      </trkpt>
      <trkpt lat="43.15876" lon="2.27637">
        <ele>211.15</ele>
        <time>2015-07-18T08:32:40Z</time>
      </trkpt>
      <trkpt lat="43.15875" lon="2.27638">
        <ele>211.15</ele>
        <time>2015-07-18T08:32:41Z</time>
      </trkpt>
      <trkpt lat="43.15874" lon="2.2764">
        <ele>211.15</ele>
        <time>2015-07-18T08:32:42Z</time>
      </trkpt>
      <trkpt lat="43.15872" lon="2.27641">
        <ele>211.63</ele>
        <time>2015-07-18T08:32:43Z</time>
      </trkpt>
      <trkpt lat="43.15871" lon="2.27643">
        <ele>211.63</ele>
        <time>2015-07-18T08:32:44Z</time>
      </trkpt>
      <trkpt lat="43.1587" lon="2.27645">
        <ele>212.11</ele>
        <time>2015-07-18T08:32:45Z</time>
      </trkpt>
      <trkpt lat="43.15869" lon="2.27647">
        <ele>212.11</ele>
        <time>2015-07-18T08:32:46Z</time>
      </trkpt>
      <trkpt lat="43.15869" lon="2.27649">
        <ele>212.11</ele>
        <time>2015-07-18T08:32:47Z</time>
      </trkpt>
      <trkpt lat="43.15868" lon="2.27651">
        <ele>212.59</ele>
        <time>2015-07-18T08:32:48Z</time>
      </trkpt>
      <trkpt lat="43.15853" lon="2.27666">
        <ele>214.51</ele>
        <time>2015-07-18T08:32:58Z</time>
      </trkpt>
      <trkpt lat="43.15833" lon="2.2768">
        <ele>217.4</ele>
        <time>2015-07-18T08:33:10Z</time>
      </trkpt>
      <trkpt lat="43.15804" lon="2.27694">
        <ele>219.8</ele>
        <time>2015-07-18T08:33:26Z</time>
      </trkpt>
      <trkpt lat="43.15798" lon="2.27699">
        <ele>220.28</ele>
        <time>2015-07-18T08:33:31Z</time>
      </trkpt>
      <trkpt lat="43.15797" lon="2.277">
        <ele>220.28</ele>
        <time>2015-07-18T08:33:32Z</time>
      </trkpt>
      <trkpt lat="43.15797" lon="2.27702">
        <ele>220.28</ele>
        <time>2015-07-18T08:33:33Z</time>
      </trkpt>
      <trkpt lat="43.15795" lon="2.27703">
        <ele>220.28</ele>
        <time>2015-07-18T08:33:34Z</time>
      </trkpt>
      <trkpt lat="43.15794" lon="2.27705">
        <ele>221.24</ele>
        <time>2015-07-18T08:33:35Z</time>
      </trkpt>
      <trkpt lat="43.15792" lon="2.27706">
        <ele>221.24</ele>
        <time>2015-07-18T08:33:36Z</time>
      </trkpt>
      <trkpt lat="43.15774" lon="2.27721">
        <ele>222.2</ele>
        <time>2015-07-18T08:33:47Z</time>
      </trkpt>
      <trkpt lat="43.15754" lon="2.27735">
        <ele>224.12</ele>
        <time>2015-07-18T08:34:00Z</time>
      </trkpt>
      <trkpt lat="43.15747" lon="2.27743">
        <ele>225.57</ele>
        <time>2015-07-18T08:34:05Z</time>
      </trkpt>
      <trkpt lat="43.15745" lon="2.27744">
        <ele>225.57</ele>
        <time>2015-07-18T08:34:06Z</time>
      </trkpt>
      <trkpt lat="43.15744" lon="2.27745">
        <ele>225.57</ele>
        <time>2015-07-18T08:34:07Z</time>
      </trkpt>
      <trkpt lat="43.15742" lon="2.27746">
        <ele>226.05</ele>
        <time>2015-07-18T08:34:08Z</time>
      </trkpt>
      <trkpt lat="43.1574" lon="2.27748">
        <ele>226.05</ele>
        <time>2015-07-18T08:34:09Z</time>
      </trkpt>
      <trkpt lat="43.15731" lon="2.27754">
        <ele>227.01</ele>
        <time>2015-07-18T08:34:15Z</time>
      </trkpt>
      <trkpt lat="43.15729" lon="2.27754">
        <ele>227.01</ele>
        <time>2015-07-18T08:34:16Z</time>
      </trkpt>
      <trkpt lat="43.15728" lon="2.27753">
        <ele>227.97</ele>
        <time>2015-07-18T08:34:17Z</time>
      </trkpt>
      <trkpt lat="43.15726" lon="2.27753">
        <ele>228.45</ele>
        <time>2015-07-18T08:34:18Z</time>
      </trkpt>
      <trkpt lat="43.15724" lon="2.27753">
        <ele>228.93</ele>
        <time>2015-07-18T08:34:19Z</time>
      </trkpt>
      <trkpt lat="43.15722" lon="2.27753">
        <ele>229.89</ele>
        <time>2015-07-18T08:34:20Z</time>
      </trkpt>
      <trkpt lat="43.1572" lon="2.27753">
        <ele>230.37</ele>
        <time>2015-07-18T08:34:21Z</time>
      </trkpt>
      <trkpt lat="43.15718" lon="2.27753">
        <ele>230.37</ele>
        <time>2015-07-18T08:34:22Z</time>
      </trkpt>
      <trkpt lat="43.15712" lon="2.27755">
        <ele>231.33</ele>
        <time>2015-07-18T08:34:26Z</time>
      </trkpt>
      <trkpt lat="43.1571" lon="2.27755">
        <ele>231.81</ele>
        <time>2015-07-18T08:34:27Z</time>
      </trkpt>
      <trkpt lat="43.15708" lon="2.27755">
        <ele>231.81</ele>
        <time>2015-07-18T08:34:28Z</time>
      </trkpt>
      <trkpt lat="43.15707" lon="2.27755">
        <ele>232.78</ele>
        <time>2015-07-18T08:34:29Z</time>
      </trkpt>
      <trkpt lat="43.15705" lon="2.27756">
        <ele>232.78</ele>
        <time>2015-07-18T08:34:30Z</time>
      </trkpt>
      <trkpt lat="43.15704" lon="2.27757">
        <ele>233.26</ele>
        <time>2015-07-18T08:34:31Z</time>
      </trkpt>
      <trkpt lat="43.15702" lon="2.27757">
        <ele>233.26</ele>
        <time>2015-07-18T08:34:32Z</time>
      </trkpt>
      <trkpt lat="43.15701" lon="2.27758">
        <ele>233.74</ele>
        <time>2015-07-18T08:34:33Z</time>
      </trkpt>
      <trkpt lat="43.15699" lon="2.27759">
        <ele>233.74</ele>
        <time>2015-07-18T08:34:34Z</time>
      </trkpt>
      <trkpt lat="43.15698" lon="2.27759">
        <ele>234.22</ele>
        <time>2015-07-18T08:34:35Z</time>
      </trkpt>
      <trkpt lat="43.15684" lon="2.2774">
        <ele>234.7</ele>
        <time>2015-07-18T08:34:45Z</time>
      </trkpt>
      <trkpt lat="43.1568" lon="2.27707">
        <ele>236.62</ele>
        <time>2015-07-18T08:35:00Z</time>
      </trkpt>
      <trkpt lat="43.15679" lon="2.27705">
        <ele>237.1</ele>
        <time>2015-07-18T08:35:01Z</time>
      </trkpt>
      <trkpt lat="43.15679" lon="2.27703">
        <ele>237.1</ele>
        <time>2015-07-18T08:35:02Z</time>
      </trkpt>
      <trkpt lat="43.15677" lon="2.2767">
        <ele>238.06</ele>
        <time>2015-07-18T08:35:17Z</time>
      </trkpt>
      <trkpt lat="43.15675" lon="2.27638">
        <ele>239.51</ele>
        <time>2015-07-18T08:35:31Z</time>
      </trkpt>
      <trkpt lat="43.15674" lon="2.27636">
        <ele>239.51</ele>
        <time>2015-07-18T08:35:32Z</time>
      </trkpt>
      <trkpt lat="43.15674" lon="2.27634">
        <ele>239.51</ele>
        <time>2015-07-18T08:35:33Z</time>
      </trkpt>
      <trkpt lat="43.15674" lon="2.27632">
        <ele>239.51</ele>
        <time>2015-07-18T08:35:34Z</time>
      </trkpt>
      <trkpt lat="43.15675" lon="2.2763">
        <ele>239.51</ele>
        <time>2015-07-18T08:35:35Z</time>
      </trkpt>
      <trkpt lat="43.15675" lon="2.27595">
        <ele>240.47</ele>
        <time>2015-07-18T08:35:48Z</time>
      </trkpt>
      <trkpt lat="43.15665" lon="2.27549">
        <ele>241.43</ele>
        <time>2015-07-18T08:36:03Z</time>
      </trkpt>
      <trkpt lat="43.15648" lon="2.27513">
        <ele>242.39</ele>
        <time>2015-07-18T08:36:17Z</time>
      </trkpt>
      <trkpt lat="43.15628" lon="2.27491">
        <ele>245.75</ele>
        <time>2015-07-18T08:36:30Z</time>
      </trkpt>
      <trkpt lat="43.15628" lon="2.27489">
        <ele>246.23</ele>
        <time>2015-07-18T08:36:31Z</time>
      </trkpt>
      <trkpt lat="43.15628" lon="2.27486">
        <ele>246.23</ele>
        <time>2015-07-18T08:36:32Z</time>
      </trkpt>
      <trkpt lat="43.15626" lon="2.27486">
        <ele>247.2</ele>
        <time>2015-07-18T08:36:35Z</time>
      </trkpt>
      <trkpt lat="43.15625" lon="2.27486">
        <ele>247.2</ele>
        <time>2015-07-18T08:36:36Z</time>
      </trkpt>
      <trkpt lat="43.15623" lon="2.27487">
        <ele>247.68</ele>
        <time>2015-07-18T08:36:37Z</time>
      </trkpt>
      <trkpt lat="43.15621" lon="2.27486">
        <ele>247.68</ele>
        <time>2015-07-18T08:36:38Z</time>
      </trkpt>
      <trkpt lat="43.1562" lon="2.27485">
        <ele>248.64</ele>
        <time>2015-07-18T08:36:39Z</time>
      </trkpt>
      <trkpt lat="43.15619" lon="2.27483">
        <ele>249.12</ele>
        <time>2015-07-18T08:36:40Z</time>
      </trkpt>
      <trkpt lat="43.15618" lon="2.27482">
        <ele>249.6</ele>
        <time>2015-07-18T08:36:41Z</time>
      </trkpt>
      <trkpt lat="43.15616" lon="2.27481">
        <ele>249.6</ele>
        <time>2015-07-18T08:36:42Z</time>
      </trkpt>
      <trkpt lat="43.15614" lon="2.27481">
        <ele>250.08</ele>
        <time>2015-07-18T08:36:43Z</time>
      </trkpt>
      <trkpt lat="43.15613" lon="2.2748">
        <ele>250.56</ele>
        <time>2015-07-18T08:36:44Z</time>
      </trkpt>
      <trkpt lat="43.15609" lon="2.2748">
        <ele>252</ele>
        <time>2015-07-18T08:36:47Z</time>
      </trkpt>
      <trkpt lat="43.15607" lon="2.27475">
        <ele>253.44</ele>
        <time>2015-07-18T08:36:50Z</time>
      </trkpt>
      <trkpt lat="43.15606" lon="2.2747">
        <ele>254.89</ele>
        <time>2015-07-18T08:36:53Z</time>
      </trkpt>
      <trkpt lat="43.15605" lon="2.27468">
        <ele>254.89</ele>
        <time>2015-07-18T08:36:54Z</time>
      </trkpt>
      <trkpt lat="43.15605" lon="2.27466">
        <ele>255.37</ele>
        <time>2015-07-18T08:36:55Z</time>
      </trkpt>
      <trkpt lat="43.15593" lon="2.27459">
        <ele>257.77</ele>
        <time>2015-07-18T08:37:01Z</time>
      </trkpt>
      <trkpt lat="43.15592" lon="2.2744">
        <ele>258.25</ele>
        <time>2015-07-18T08:37:10Z</time>
      </trkpt>
      <trkpt lat="43.15598" lon="2.27405">
        <ele>258.25</ele>
        <time>2015-07-18T08:37:24Z</time>
      </trkpt>
      <trkpt lat="43.15603" lon="2.27391">
        <ele>259.21</ele>
        <time>2015-07-18T08:37:31Z</time>
      </trkpt>
      <trkpt lat="43.15614" lon="2.27368">
        <ele>262.58</ele>
        <time>2015-07-18T08:37:42Z</time>
      </trkpt>
      <trkpt lat="43.15621" lon="2.27346">
        <ele>265.94</ele>
        <time>2015-07-18T08:37:52Z</time>
      </trkpt>
      <trkpt lat="43.15623" lon="2.27341">
        <ele>267.38</ele>
        <time>2015-07-18T08:37:55Z</time>
      </trkpt>
      <trkpt lat="43.15633" lon="2.27316">
        <ele>269.79</ele>
        <time>2015-07-18T08:38:10Z</time>
      </trkpt>
      <trkpt lat="43.15646" lon="2.27282">
        <ele>270.27</ele>
        <time>2015-07-18T08:38:25Z</time>
      </trkpt>
      <trkpt lat="43.15656" lon="2.27249">
        <ele>271.23</ele>
        <time>2015-07-18T08:38:39Z</time>
      </trkpt>
      <trkpt lat="43.15664" lon="2.27215">
        <ele>272.19</ele>
        <time>2015-07-18T08:38:52Z</time>
      </trkpt>
      <trkpt lat="43.15671" lon="2.27188">
        <ele>273.15</ele>
        <time>2015-07-18T08:39:05Z</time>
      </trkpt>
      <trkpt lat="43.1567" lon="2.27187">
        <ele>273.15</ele>
        <time>2015-07-18T08:39:06Z</time>
      </trkpt>
      <trkpt lat="43.15663" lon="2.27183">
        <ele>274.59</ele>
        <time>2015-07-18T08:39:14Z</time>
      </trkpt>
      <trkpt lat="43.15656" lon="2.27179">
        <ele>275.07</ele>
        <time>2015-07-18T08:39:20Z</time>
      </trkpt>
      <trkpt lat="43.15652" lon="2.27161">
        <ele>274.11</ele>
        <time>2015-07-18T08:39:28Z</time>
      </trkpt>
      <trkpt lat="43.1565" lon="2.27154">
        <ele>273.63</ele>
        <time>2015-07-18T08:39:31Z</time>
      </trkpt>
      <trkpt lat="43.15654" lon="2.27144">
        <ele>272.67</ele>
        <time>2015-07-18T08:39:37Z</time>
      </trkpt>
      <trkpt lat="43.15655" lon="2.27136">
        <ele>272.19</ele>
        <time>2015-07-18T08:39:39Z</time>
      </trkpt>
      <trkpt lat="43.15656" lon="2.27133">
        <ele>272.19</ele>
        <time>2015-07-18T08:39:40Z</time>
      </trkpt>
      <trkpt lat="43.15657" lon="2.27129">
        <ele>272.19</ele>
        <time>2015-07-18T08:39:41Z</time>
      </trkpt>
      <trkpt lat="43.15658" lon="2.27126">
        <ele>271.71</ele>
        <time>2015-07-18T08:39:42Z</time>
      </trkpt>
      <trkpt lat="43.15659" lon="2.27123">
        <ele>271.71</ele>
        <time>2015-07-18T08:39:43Z</time>
      </trkpt>
      <trkpt lat="43.1566" lon="2.27103">
        <ele>271.71</ele>
        <time>2015-07-18T08:39:51Z</time>
      </trkpt>
      <trkpt lat="43.15657" lon="2.27095">
        <ele>271.71</ele>
        <time>2015-07-18T08:39:55Z</time>
      </trkpt>
      <trkpt lat="43.15653" lon="2.27091">
        <ele>270.27</ele>
        <time>2015-07-18T08:39:59Z</time>
      </trkpt>
      <trkpt lat="43.15639" lon="2.27095">
        <ele>265.94</ele>
        <time>2015-07-18T08:40:06Z</time>
      </trkpt>
      <trkpt lat="43.15632" lon="2.27099">
        <ele>262.58</ele>
        <time>2015-07-18T08:40:08Z</time>
      </trkpt>
      <trkpt lat="43.15621" lon="2.27109">
        <ele>259.21</ele>
        <time>2015-07-18T08:40:13Z</time>
      </trkpt>
      <trkpt lat="43.15618" lon="2.27111">
        <ele>258.25</ele>
        <time>2015-07-18T08:40:14Z</time>
      </trkpt>
      <trkpt lat="43.15604" lon="2.27125">
        <ele>258.73</ele>
        <time>2015-07-18T08:40:19Z</time>
      </trkpt>
      <trkpt lat="43.15591" lon="2.27129">
        <ele>260.17</ele>
        <time>2015-07-18T08:40:30Z</time>
      </trkpt>
      <trkpt lat="43.15585" lon="2.27124">
        <ele>257.29</ele>
        <time>2015-07-18T08:40:33Z</time>
      </trkpt>
      <trkpt lat="43.15583" lon="2.27123">
        <ele>257.29</ele>
        <time>2015-07-18T08:40:34Z</time>
      </trkpt>
      <trkpt lat="43.15577" lon="2.27124">
        <ele>255.85</ele>
        <time>2015-07-18T08:40:45Z</time>
      </trkpt>
      <trkpt lat="43.15573" lon="2.27128">
        <ele>255.85</ele>
        <time>2015-07-18T08:40:48Z</time>
      </trkpt>
      <trkpt lat="43.15561" lon="2.27137">
        <ele>254.41</ele>
        <time>2015-07-18T08:40:54Z</time>
      </trkpt>
      <trkpt lat="43.15549" lon="2.27131">
        <ele>250.08</ele>
        <time>2015-07-18T08:40:59Z</time>
      </trkpt>
      <trkpt lat="43.15548" lon="2.27131">
        <ele>249.12</ele>
        <time>2015-07-18T08:41:11Z</time>
      </trkpt>
      <trkpt lat="43.1555" lon="2.2713">
        <ele>248.64</ele>
        <time>2015-07-18T08:41:21Z</time>
      </trkpt>
      <trkpt lat="43.1555" lon="2.27129">
        <ele>248.64</ele>
        <time>2015-07-18T08:41:40Z</time>
      </trkpt>
      <trkpt lat="43.15552" lon="2.27122">
        <ele>248.64</ele>
        <time>2015-07-18T08:41:44Z</time>
      </trkpt>
      <trkpt lat="43.15545" lon="2.27103">
        <ele>244.79</ele>
        <time>2015-07-18T08:41:50Z</time>
      </trkpt>
      <trkpt lat="43.15543" lon="2.27101">
        <ele>244.31</ele>
        <time>2015-07-18T08:41:51Z</time>
      </trkpt>
      <trkpt lat="43.15537" lon="2.27094">
        <ele>241.43</ele>
        <time>2015-07-18T08:41:55Z</time>
      </trkpt>
      <trkpt lat="43.15536" lon="2.27082">
        <ele>239.51</ele>
        <time>2015-07-18T08:41:59Z</time>
      </trkpt>
      <trkpt lat="43.15526" lon="2.27072">
        <ele>236.14</ele>
        <time>2015-07-18T08:42:05Z</time>
      </trkpt>
      <trkpt lat="43.15527" lon="2.27067">
        <ele>235.66</ele>
        <time>2015-07-18T08:42:07Z</time>
      </trkpt>
      <trkpt lat="43.15534" lon="2.27047">
        <ele>233.74</ele>
        <time>2015-07-18T08:42:14Z</time>
      </trkpt>
      <trkpt lat="43.15527" lon="2.27036">
        <ele>231.33</ele>
        <time>2015-07-18T08:42:19Z</time>
      </trkpt>
      <trkpt lat="43.15523" lon="2.27026">
        <ele>228.45</ele>
        <time>2015-07-18T08:42:24Z</time>
      </trkpt>
      <trkpt lat="43.15519" lon="2.27018">
        <ele>227.49</ele>
        <time>2015-07-18T08:42:26Z</time>
      </trkpt>
      <trkpt lat="43.15518" lon="2.27006">
        <ele>224.61</ele>
        <time>2015-07-18T08:42:29Z</time>
      </trkpt>
      <trkpt lat="43.15513" lon="2.26998">
        <ele>222.68</ele>
        <time>2015-07-18T08:42:34Z</time>
      </trkpt>
      <trkpt lat="43.15509" lon="2.26997">
        <ele>222.68</ele>
        <time>2015-07-18T08:42:38Z</time>
      </trkpt>
      <trkpt lat="43.15503" lon="2.26993">
        <ele>220.28</ele>
        <time>2015-07-18T08:42:41Z</time>
      </trkpt>
      <trkpt lat="43.15495" lon="2.26981">
        <ele>216.91</ele>
        <time>2015-07-18T08:42:48Z</time>
      </trkpt>
      <trkpt lat="43.1549" lon="2.2697">
        <ele>214.51</ele>
        <time>2015-07-18T08:42:53Z</time>
      </trkpt>
      <trkpt lat="43.15483" lon="2.26971">
        <ele>213.55</ele>
        <time>2015-07-18T08:42:56Z</time>
      </trkpt>
      <trkpt lat="43.15479" lon="2.26972">
        <ele>213.55</ele>
        <time>2015-07-18T08:42:59Z</time>
      </trkpt>
      <trkpt lat="43.1547" lon="2.26967">
        <ele>211.15</ele>
        <time>2015-07-18T08:43:04Z</time>
      </trkpt>
      <trkpt lat="43.1547" lon="2.26964">
        <ele>210.67</ele>
        <time>2015-07-18T08:43:05Z</time>
      </trkpt>
      <trkpt lat="43.15464" lon="2.26947">
        <ele>206.82</ele>
        <time>2015-07-18T08:43:12Z</time>
      </trkpt>
      <trkpt lat="43.1546" lon="2.26936">
        <ele>203.46</ele>
        <time>2015-07-18T08:43:17Z</time>
      </trkpt>
      <trkpt lat="43.15449" lon="2.26928">
        <ele>200.57</ele>
        <time>2015-07-18T08:43:22Z</time>
      </trkpt>
      <trkpt lat="43.15444" lon="2.26925">
        <ele>199.61</ele>
        <time>2015-07-18T08:43:24Z</time>
      </trkpt>
      <trkpt lat="43.15435" lon="2.26913">
        <ele>196.73</ele>
        <time>2015-07-18T08:43:29Z</time>
      </trkpt>
      <trkpt lat="43.15424" lon="2.26901">
        <ele>194.8</ele>
        <time>2015-07-18T08:43:36Z</time>
      </trkpt>
      <trkpt lat="43.15417" lon="2.26897">
        <ele>193.84</ele>
        <time>2015-07-18T08:43:44Z</time>
      </trkpt>
      <trkpt lat="43.1541" lon="2.26891">
        <ele>193.84</ele>
        <time>2015-07-18T08:43:57Z</time>
      </trkpt>
      <trkpt lat="43.15397" lon="2.26883">
        <ele>196.73</ele>
        <time>2015-07-18T08:44:06Z</time>
      </trkpt>
      <trkpt lat="43.15389" lon="2.26867">
        <ele>198.17</ele>
        <time>2015-07-18T08:44:12Z</time>
      </trkpt>
      <trkpt lat="43.15396" lon="2.26854">
        <ele>201.53</ele>
        <time>2015-07-18T08:44:21Z</time>
      </trkpt>
      <trkpt lat="43.154" lon="2.26848">
        <ele>202.98</ele>
        <time>2015-07-18T08:44:31Z</time>
      </trkpt>
      <trkpt lat="43.15398" lon="2.26849">
        <ele>202.98</ele>
        <time>2015-07-18T08:44:32Z</time>
      </trkpt>
      <trkpt lat="43.15391" lon="2.26853">
        <ele>201.05</ele>
        <time>2015-07-18T08:44:34Z</time>
      </trkpt>
      <trkpt lat="43.15383" lon="2.26856">
        <ele>199.61</ele>
        <time>2015-07-18T08:44:36Z</time>
      </trkpt>
      <trkpt lat="43.15379" lon="2.2686">
        <ele>199.13</ele>
        <time>2015-07-18T08:44:37Z</time>
      </trkpt>
      <trkpt lat="43.15377" lon="2.26865">
        <ele>198.17</ele>
        <time>2015-07-18T08:44:38Z</time>
      </trkpt>
      <trkpt lat="43.15377" lon="2.2687">
        <ele>197.69</ele>
        <time>2015-07-18T08:44:39Z</time>
      </trkpt>
      <trkpt lat="43.15377" lon="2.26874">
        <ele>196.25</ele>
        <time>2015-07-18T08:44:40Z</time>
      </trkpt>
      <trkpt lat="43.15379" lon="2.26875">
        <ele>195.77</ele>
        <time>2015-07-18T08:44:41Z</time>
      </trkpt>
      <trkpt lat="43.15381" lon="2.26876">
        <ele>194.8</ele>
        <time>2015-07-18T08:44:42Z</time>
      </trkpt>
      <trkpt lat="43.15383" lon="2.26876">
        <ele>194.32</ele>
        <time>2015-07-18T08:44:43Z</time>
      </trkpt>
      <trkpt lat="43.15385" lon="2.26876">
        <ele>194.32</ele>
        <time>2015-07-18T08:44:44Z</time>
      </trkpt>
      <trkpt lat="43.15387" lon="2.26879">
        <ele>194.32</ele>
        <time>2015-07-18T08:44:45Z</time>
      </trkpt>
      <trkpt lat="43.15391" lon="2.26883">
        <ele>194.32</ele>
        <time>2015-07-18T08:44:46Z</time>
      </trkpt>
      <trkpt lat="43.15392" lon="2.26894">
        <ele>193.84</ele>
        <time>2015-07-18T08:44:51Z</time>
      </trkpt>
      <trkpt lat="43.15388" lon="2.26909">
        <ele>195.28</ele>
        <time>2015-07-18T08:44:57Z</time>
      </trkpt>
      <trkpt lat="43.15388" lon="2.26912">
        <ele>195.28</ele>
        <time>2015-07-18T08:44:58Z</time>
      </trkpt>
      <trkpt lat="43.15388" lon="2.26915">
        <ele>196.25</ele>
        <time>2015-07-18T08:44:59Z</time>
      </trkpt>
      <trkpt lat="43.15387" lon="2.26918">
        <ele>196.73</ele>
        <time>2015-07-18T08:45:00Z</time>
      </trkpt>
      <trkpt lat="43.15386" lon="2.2692">
        <ele>197.21</ele>
        <time>2015-07-18T08:45:01Z</time>
      </trkpt>
      <trkpt lat="43.15385" lon="2.26922">
        <ele>197.21</ele>
        <time>2015-07-18T08:45:02Z</time>
      </trkpt>
      <trkpt lat="43.15384" lon="2.26925">
        <ele>197.69</ele>
        <time>2015-07-18T08:45:03Z</time>
      </trkpt>
      <trkpt lat="43.15381" lon="2.26931">
        <ele>198.17</ele>
        <time>2015-07-18T08:45:06Z</time>
      </trkpt>
      <trkpt lat="43.15377" lon="2.26933">
        <ele>198.65</ele>
        <time>2015-07-18T08:45:09Z</time>
      </trkpt>
      <trkpt lat="43.15375" lon="2.26933">
        <ele>198.65</ele>
        <time>2015-07-18T08:45:10Z</time>
      </trkpt>
      <trkpt lat="43.15352" lon="2.26951">
        <ele>195.77</ele>
        <time>2015-07-18T08:45:20Z</time>
      </trkpt>
      <trkpt lat="43.15337" lon="2.26959">
        <ele>193.84</ele>
        <time>2015-07-18T08:45:25Z</time>
      </trkpt>
      <trkpt lat="43.15323" lon="2.26966">
        <ele>192.88</ele>
        <time>2015-07-18T08:45:29Z</time>
      </trkpt>
      <trkpt lat="43.15313" lon="2.26979">
        <ele>190.48</ele>
        <time>2015-07-18T08:45:34Z</time>
      </trkpt>
      <trkpt lat="43.15295" lon="2.26997">
        <ele>187.11</ele>
        <time>2015-07-18T08:45:42Z</time>
      </trkpt>
      <trkpt lat="43.15292" lon="2.26999">
        <ele>187.11</ele>
        <time>2015-07-18T08:45:44Z</time>
      </trkpt>
      <trkpt lat="43.15287" lon="2.27004">
        <ele>187.11</ele>
        <time>2015-07-18T08:45:58Z</time>
      </trkpt>
      <trkpt lat="43.15284" lon="2.27009">
        <ele>187.11</ele>
        <time>2015-07-18T08:46:15Z</time>
      </trkpt>
      <trkpt lat="43.15268" lon="2.27033">
        <ele>187.11</ele>
        <time>2015-07-18T08:46:28Z</time>
      </trkpt>
      <trkpt lat="43.15263" lon="2.27042">
        <ele>187.11</ele>
        <time>2015-07-18T08:46:32Z</time>
      </trkpt>
      <trkpt lat="43.15262" lon="2.27044">
        <ele>187.11</ele>
        <time>2015-07-18T08:46:33Z</time>
      </trkpt>
      <trkpt lat="43.15261" lon="2.27046">
        <ele>187.11</ele>
        <time>2015-07-18T08:46:34Z</time>
      </trkpt>
      <trkpt lat="43.1526" lon="2.27048">
        <ele>187.11</ele>
        <time>2015-07-18T08:46:35Z</time>
      </trkpt>
      <trkpt lat="43.15259" lon="2.27049">
        <ele>187.11</ele>
        <time>2015-07-18T08:46:36Z</time>
      </trkpt>
      <trkpt lat="43.15255" lon="2.27062">
        <ele>187.11</ele>
        <time>2015-07-18T08:46:48Z</time>
      </trkpt>
      <trkpt lat="43.15246" lon="2.27084">
        <ele>187.11</ele>
        <time>2015-07-18T08:46:59Z</time>
      </trkpt>
      <trkpt lat="43.15231" lon="2.27101">
        <ele>187.11</ele>
        <time>2015-07-18T08:47:09Z</time>
      </trkpt>
      <trkpt lat="43.15208" lon="2.27112">
        <ele>189.04</ele>
        <time>2015-07-18T08:47:23Z</time>
      </trkpt>
      <trkpt lat="43.15186" lon="2.27127">
        <ele>191.44</ele>
        <time>2015-07-18T08:47:36Z</time>
      </trkpt>
      <trkpt lat="43.15177" lon="2.27144">
        <ele>191.44</ele>
        <time>2015-07-18T08:47:41Z</time>
      </trkpt>
      <trkpt lat="43.15164" lon="2.27165">
        <ele>189.52</ele>
        <time>2015-07-18T08:47:45Z</time>
      </trkpt>
      <trkpt lat="43.15161" lon="2.2717">
        <ele>188.56</ele>
        <time>2015-07-18T08:47:46Z</time>
      </trkpt>
      <trkpt lat="43.15157" lon="2.27177">
        <ele>188.56</ele>
        <time>2015-07-18T08:47:47Z</time>
      </trkpt>
      <trkpt lat="43.1515" lon="2.27189">
        <ele>188.56</ele>
        <time>2015-07-18T08:47:49Z</time>
      </trkpt>
      <trkpt lat="43.15138" lon="2.27219">
        <ele>186.63</ele>
        <time>2015-07-18T08:47:53Z</time>
      </trkpt>
      <trkpt lat="43.15133" lon="2.27234">
        <ele>186.15</ele>
        <time>2015-07-18T08:47:55Z</time>
      </trkpt>
      <trkpt lat="43.15131" lon="2.27242">
        <ele>185.67</ele>
        <time>2015-07-18T08:47:56Z</time>
      </trkpt>
      <trkpt lat="43.15123" lon="2.27281">
        <ele>185.19</ele>
        <time>2015-07-18T08:48:01Z</time>
      </trkpt>
      <trkpt lat="43.15119" lon="2.27294">
        <ele>184.71</ele>
        <time>2015-07-18T08:48:03Z</time>
      </trkpt>
      <trkpt lat="43.15116" lon="2.27301">
        <ele>184.71</ele>
        <time>2015-07-18T08:48:04Z</time>
      </trkpt>
      <trkpt lat="43.15113" lon="2.27306">
        <ele>184.71</ele>
        <time>2015-07-18T08:48:05Z</time>
      </trkpt>
      <trkpt lat="43.1511" lon="2.27312">
        <ele>184.71</ele>
        <time>2015-07-18T08:48:06Z</time>
      </trkpt>
      <trkpt lat="43.15106" lon="2.27319">
        <ele>184.71</ele>
        <time>2015-07-18T08:48:07Z</time>
      </trkpt>
      <trkpt lat="43.15084" lon="2.27359">
        <ele>180.38</ele>
        <time>2015-07-18T08:48:13Z</time>
      </trkpt>
      <trkpt lat="43.1508" lon="2.27365">
        <ele>180.38</ele>
        <time>2015-07-18T08:48:14Z</time>
      </trkpt>
      <trkpt lat="43.15054" lon="2.27408">
        <ele>177.98</ele>
        <time>2015-07-18T08:48:20Z</time>
      </trkpt>
      <trkpt lat="43.15009" lon="2.27499">
        <ele>175.58</ele>
        <time>2015-07-18T08:48:30Z</time>
      </trkpt>
      <trkpt lat="43.1499" lon="2.27527">
        <ele>175.1</ele>
        <time>2015-07-18T08:48:35Z</time>
      </trkpt>
      <trkpt lat="43.14964" lon="2.2756">
        <ele>176.06</ele>
        <time>2015-07-18T08:48:43Z</time>
      </trkpt>
      <trkpt lat="43.14921" lon="2.27609">
        <ele>177.98</ele>
        <time>2015-07-18T08:48:59Z</time>
      </trkpt>
      <trkpt lat="43.14913" lon="2.27615">
        <ele>177.98</ele>
        <time>2015-07-18T08:49:02Z</time>
      </trkpt>
      <trkpt lat="43.1491" lon="2.27615">
        <ele>177.98</ele>
        <time>2015-07-18T08:49:03Z</time>
      </trkpt>
      <trkpt lat="43.14908" lon="2.27612">
        <ele>177.98</ele>
        <time>2015-07-18T08:49:04Z</time>
      </trkpt>
      <trkpt lat="43.14906" lon="2.27609">
        <ele>177.98</ele>
        <time>2015-07-18T08:49:05Z</time>
      </trkpt>
      <trkpt lat="43.14906" lon="2.27605">
        <ele>177.98</ele>
        <time>2015-07-18T08:49:06Z</time>
      </trkpt>
      <trkpt lat="43.14906" lon="2.27602">
        <ele>177.98</ele>
        <time>2015-07-18T08:49:07Z</time>
      </trkpt>
      <trkpt lat="43.14903" lon="2.27586">
        <ele>179.42</ele>
        <time>2015-07-18T08:49:12Z</time>
      </trkpt>
      <trkpt lat="43.149" lon="2.27548">
        <ele>182.31</ele>
        <time>2015-07-18T08:49:24Z</time>
      </trkpt>
      <trkpt lat="43.14895" lon="2.27511">
        <ele>185.19</ele>
        <time>2015-07-18T08:49:36Z</time>
      </trkpt>
      <trkpt lat="43.14896" lon="2.27508">
        <ele>186.15</ele>
        <time>2015-07-18T08:49:37Z</time>
      </trkpt>
      <trkpt lat="43.14892" lon="2.27463">
        <ele>188.56</ele>
        <time>2015-07-18T08:49:51Z</time>
      </trkpt>
      <trkpt lat="43.14891" lon="2.27426">
        <ele>191.92</ele>
        <time>2015-07-18T08:50:03Z</time>
      </trkpt>
      <trkpt lat="43.14896" lon="2.27387">
        <ele>194.8</ele>
        <time>2015-07-18T08:50:17Z</time>
      </trkpt>
      <trkpt lat="43.14898" lon="2.27381">
        <ele>195.77</ele>
        <time>2015-07-18T08:50:20Z</time>
      </trkpt>
      <trkpt lat="43.14897" lon="2.27379">
        <ele>195.77</ele>
        <time>2015-07-18T08:50:21Z</time>
      </trkpt>
      <trkpt lat="43.14898" lon="2.27376">
        <ele>196.25</ele>
        <time>2015-07-18T08:50:22Z</time>
      </trkpt>
      <trkpt lat="43.14899" lon="2.27374">
        <ele>196.25</ele>
        <time>2015-07-18T08:50:23Z</time>
      </trkpt>
      <trkpt lat="43.14899" lon="2.27371">
        <ele>196.73</ele>
        <time>2015-07-18T08:50:24Z</time>
      </trkpt>
      <trkpt lat="43.14899" lon="2.27369">
        <ele>196.73</ele>
        <time>2015-07-18T08:50:25Z</time>
      </trkpt>
      <trkpt lat="43.14899" lon="2.27367">
        <ele>196.73</ele>
        <time>2015-07-18T08:50:26Z</time>
      </trkpt>
      <trkpt lat="43.14902" lon="2.27367">
        <ele>196.73</ele>
        <time>2015-07-18T08:50:37Z</time>
      </trkpt>
      <trkpt lat="43.14905" lon="2.27365">
        <ele>196.73</ele>
        <time>2015-07-18T08:51:09Z</time>
      </trkpt>
      <trkpt lat="43.14905" lon="2.27368">
        <ele>196.73</ele>
        <time>2015-07-18T08:51:54Z</time>
      </trkpt>
      <trkpt lat="43.14902" lon="2.27366">
        <ele>196.73</ele>
        <time>2015-07-18T08:52:07Z</time>
      </trkpt>
      <trkpt lat="43.14894" lon="2.27343">
        <ele>198.17</ele>
        <time>2015-07-18T08:52:17Z</time>
      </trkpt>
      <trkpt lat="43.1488" lon="2.27296">
        <ele>199.61</ele>
        <time>2015-07-18T08:52:33Z</time>
      </trkpt>
      <trkpt lat="43.1487" lon="2.27252">
        <ele>201.05</ele>
        <time>2015-07-18T08:52:47Z</time>
      </trkpt>
      <trkpt lat="43.1485" lon="2.27188">
        <ele>202.98</ele>
        <time>2015-07-18T08:53:06Z</time>
      </trkpt>
      <trkpt lat="43.14842" lon="2.27151">
        <ele>205.86</ele>
        <time>2015-07-18T08:53:18Z</time>
      </trkpt>
      <trkpt lat="43.14838" lon="2.27132">
        <ele>208.26</ele>
        <time>2015-07-18T08:53:25Z</time>
      </trkpt>
      <trkpt lat="43.14839" lon="2.27131">
        <ele>208.26</ele>
        <time>2015-07-18T08:53:26Z</time>
      </trkpt>
      <trkpt lat="43.14838" lon="2.27129">
        <ele>209.22</ele>
        <time>2015-07-18T08:53:42Z</time>
      </trkpt>
      <trkpt lat="43.14837" lon="2.27126">
        <ele>209.22</ele>
        <time>2015-07-18T08:53:46Z</time>
      </trkpt>
      <trkpt lat="43.14837" lon="2.27124">
        <ele>209.22</ele>
        <time>2015-07-18T08:53:47Z</time>
      </trkpt>
      <trkpt lat="43.14833" lon="2.27097">
        <ele>212.11</ele>
        <time>2015-07-18T08:54:00Z</time>
      </trkpt>
      <trkpt lat="43.14831" lon="2.27061">
        <ele>215.47</ele>
        <time>2015-07-18T08:54:13Z</time>
      </trkpt>
      <trkpt lat="43.14831" lon="2.27004">
        <ele>217.4</ele>
        <time>2015-07-18T08:54:31Z</time>
      </trkpt>
      <trkpt lat="43.14836" lon="2.26943">
        <ele>219.8</ele>
        <time>2015-07-18T08:54:48Z</time>
      </trkpt>
      <trkpt lat="43.14837" lon="2.2694">
        <ele>219.8</ele>
        <time>2015-07-18T08:54:49Z</time>
      </trkpt>
      <trkpt lat="43.14846" lon="2.26895">
        <ele>221.24</ele>
        <time>2015-07-18T08:55:03Z</time>
      </trkpt>
      <trkpt lat="43.14858" lon="2.26839">
        <ele>224.12</ele>
        <time>2015-07-18T08:55:20Z</time>
      </trkpt>
      <trkpt lat="43.14868" lon="2.26805">
        <ele>226.53</ele>
        <time>2015-07-18T08:55:31Z</time>
      </trkpt>
      <trkpt lat="43.14874" lon="2.2676">
        <ele>229.89</ele>
        <time>2015-07-18T08:55:44Z</time>
      </trkpt>
      <trkpt lat="43.14875" lon="2.2673">
        <ele>232.78</ele>
        <time>2015-07-18T08:55:53Z</time>
      </trkpt>
      <trkpt lat="43.14877" lon="2.26702">
        <ele>236.14</ele>
        <time>2015-07-18T08:56:02Z</time>
      </trkpt>
      <trkpt lat="43.14878" lon="2.267">
        <ele>236.62</ele>
        <time>2015-07-18T08:56:03Z</time>
      </trkpt>
      <trkpt lat="43.14878" lon="2.26697">
        <ele>236.62</ele>
        <time>2015-07-18T08:56:04Z</time>
      </trkpt>
      <trkpt lat="43.14879" lon="2.26695">
        <ele>237.1</ele>
        <time>2015-07-18T08:56:05Z</time>
      </trkpt>
      <trkpt lat="43.14879" lon="2.26692">
        <ele>237.1</ele>
        <time>2015-07-18T08:56:06Z</time>
      </trkpt>
      <trkpt lat="43.14879" lon="2.26689">
        <ele>237.58</ele>
        <time>2015-07-18T08:56:07Z</time>
      </trkpt>
      <trkpt lat="43.1488" lon="2.26686">
        <ele>237.58</ele>
        <time>2015-07-18T08:56:08Z</time>
      </trkpt>
      <trkpt lat="43.1488" lon="2.26684">
        <ele>238.06</ele>
        <time>2015-07-18T08:56:09Z</time>
      </trkpt>
      <trkpt lat="43.14886" lon="2.26661">
        <ele>241.43</ele>
        <time>2015-07-18T08:56:18Z</time>
      </trkpt>
      <trkpt lat="43.14892" lon="2.26627">
        <ele>244.31</ele>
        <time>2015-07-18T08:56:31Z</time>
      </trkpt>
      <trkpt lat="43.14898" lon="2.26598">
        <ele>245.75</ele>
        <time>2015-07-18T08:56:43Z</time>
      </trkpt>
      <trkpt lat="43.14897" lon="2.26596">
        <ele>245.75</ele>
        <time>2015-07-18T08:56:44Z</time>
      </trkpt>
      <trkpt lat="43.14894" lon="2.26596">
        <ele>246.23</ele>
        <time>2015-07-18T08:56:58Z</time>
      </trkpt>
      <trkpt lat="43.14896" lon="2.26597">
        <ele>246.72</ele>
        <time>2015-07-18T08:57:17Z</time>
      </trkpt>
      <trkpt lat="43.14893" lon="2.26595">
        <ele>247.2</ele>
        <time>2015-07-18T08:57:27Z</time>
      </trkpt>
      <trkpt lat="43.14892" lon="2.26595">
        <ele>247.2</ele>
        <time>2015-07-18T08:57:28Z</time>
      </trkpt>
      <trkpt lat="43.14892" lon="2.26593">
        <ele>247.2</ele>
        <time>2015-07-18T08:57:29Z</time>
      </trkpt>
      <trkpt lat="43.14892" lon="2.26591">
        <ele>247.2</ele>
        <time>2015-07-18T08:57:30Z</time>
      </trkpt>
      <trkpt lat="43.14893" lon="2.26588">
        <ele>247.68</ele>
        <time>2015-07-18T08:57:31Z</time>
      </trkpt>
      <trkpt lat="43.14894" lon="2.26587">
        <ele>248.16</ele>
        <time>2015-07-18T08:57:32Z</time>
      </trkpt>
      <trkpt lat="43.14895" lon="2.26585">
        <ele>248.16</ele>
        <time>2015-07-18T08:57:33Z</time>
      </trkpt>
      <trkpt lat="43.14896" lon="2.26583">
        <ele>248.64</ele>
        <time>2015-07-18T08:57:34Z</time>
      </trkpt>
      <trkpt lat="43.14898" lon="2.26581">
        <ele>248.64</ele>
        <time>2015-07-18T08:57:35Z</time>
      </trkpt>
      <trkpt lat="43.14899" lon="2.26579">
        <ele>248.64</ele>
        <time>2015-07-18T08:57:36Z</time>
      </trkpt>
      <trkpt lat="43.149" lon="2.26577">
        <ele>248.64</ele>
        <time>2015-07-18T08:57:37Z</time>
      </trkpt>
      <trkpt lat="43.14901" lon="2.26574">
        <ele>249.6</ele>
        <time>2015-07-18T08:57:38Z</time>
      </trkpt>
      <trkpt lat="43.14902" lon="2.26572">
        <ele>249.6</ele>
        <time>2015-07-18T08:57:39Z</time>
      </trkpt>
      <trkpt lat="43.1492" lon="2.26522">
        <ele>252</ele>
        <time>2015-07-18T08:57:57Z</time>
      </trkpt>
      <trkpt lat="43.14935" lon="2.2648">
        <ele>255.37</ele>
        <time>2015-07-18T08:58:13Z</time>
      </trkpt>
      <trkpt lat="43.14959" lon="2.26433">
        <ele>255.85</ele>
        <time>2015-07-18T08:58:30Z</time>
      </trkpt>
      <trkpt lat="43.14985" lon="2.26398">
        <ele>256.81</ele>
        <time>2015-07-18T08:58:46Z</time>
      </trkpt>
      <trkpt lat="43.15003" lon="2.26375">
        <ele>259.21</ele>
        <time>2015-07-18T08:58:59Z</time>
      </trkpt>
      <trkpt lat="43.15019" lon="2.26343">
        <ele>262.58</ele>
        <time>2015-07-18T08:59:13Z</time>
      </trkpt>
      <trkpt lat="43.15036" lon="2.26313">
        <ele>266.42</ele>
        <time>2015-07-18T08:59:27Z</time>
      </trkpt>
      <trkpt lat="43.15053" lon="2.26288">
        <ele>269.79</ele>
        <time>2015-07-18T08:59:40Z</time>
      </trkpt>
      <trkpt lat="43.15066" lon="2.26271">
        <ele>273.15</ele>
        <time>2015-07-18T08:59:50Z</time>
      </trkpt>
      <trkpt lat="43.15082" lon="2.26245">
        <ele>276.04</ele>
        <time>2015-07-18T09:00:04Z</time>
      </trkpt>
      <trkpt lat="43.15095" lon="2.26226">
        <ele>279.4</ele>
        <time>2015-07-18T09:00:16Z</time>
      </trkpt>
      <trkpt lat="43.15108" lon="2.26217">
        <ele>282.77</ele>
        <time>2015-07-18T09:00:25Z</time>
      </trkpt>
      <trkpt lat="43.15121" lon="2.26211">
        <ele>286.13</ele>
        <time>2015-07-18T09:00:34Z</time>
      </trkpt>
      <trkpt lat="43.15135" lon="2.26208">
        <ele>289.97</ele>
        <time>2015-07-18T09:00:42Z</time>
      </trkpt>
      <trkpt lat="43.15153" lon="2.26208">
        <ele>293.34</ele>
        <time>2015-07-18T09:00:54Z</time>
      </trkpt>
      <trkpt lat="43.15172" lon="2.26205">
        <ele>296.22</ele>
        <time>2015-07-18T09:01:07Z</time>
      </trkpt>
      <trkpt lat="43.15177" lon="2.26204">
        <ele>296.7</ele>
        <time>2015-07-18T09:01:11Z</time>
      </trkpt>
      <trkpt lat="43.15179" lon="2.26204">
        <ele>297.18</ele>
        <time>2015-07-18T09:01:13Z</time>
      </trkpt>
      <trkpt lat="43.15187" lon="2.26204">
        <ele>298.63</ele>
        <time>2015-07-18T09:01:19Z</time>
      </trkpt>
      <trkpt lat="43.15208" lon="2.26202">
        <ele>301.03</ele>
        <time>2015-07-18T09:01:35Z</time>
      </trkpt>
      <trkpt lat="43.15218" lon="2.26203">
        <ele>303.91</ele>
        <time>2015-07-18T09:01:43Z</time>
      </trkpt>
      <trkpt lat="43.15234" lon="2.26204">
        <ele>306.8</ele>
        <time>2015-07-18T09:01:55Z</time>
      </trkpt>
      <trkpt lat="43.15236" lon="2.26203">
        <ele>307.28</ele>
        <time>2015-07-18T09:01:56Z</time>
      </trkpt>
      <trkpt lat="43.15242" lon="2.26198">
        <ele>308.72</ele>
        <time>2015-07-18T09:02:02Z</time>
      </trkpt>
      <trkpt lat="43.15243" lon="2.26197">
        <ele>308.72</ele>
        <time>2015-07-18T09:02:03Z</time>
      </trkpt>
      <trkpt lat="43.15249" lon="2.26191">
        <ele>308.72</ele>
        <time>2015-07-18T09:02:09Z</time>
      </trkpt>
      <trkpt lat="43.15251" lon="2.2619">
        <ele>308.72</ele>
        <time>2015-07-18T09:02:12Z</time>
      </trkpt>
      <trkpt lat="43.15253" lon="2.26189">
        <ele>308.72</ele>
        <time>2015-07-18T09:02:13Z</time>
      </trkpt>
      <trkpt lat="43.15253" lon="2.26188">
        <ele>308.72</ele>
        <time>2015-07-18T09:02:14Z</time>
      </trkpt>
      <trkpt lat="43.15254" lon="2.26186">
        <ele>308.72</ele>
        <time>2015-07-18T09:02:15Z</time>
      </trkpt>
      <trkpt lat="43.15255" lon="2.26185">
        <ele>308.72</ele>
        <time>2015-07-18T09:02:16Z</time>
      </trkpt>
      <trkpt lat="43.15267" lon="2.26166">
        <ele>309.2</ele>
        <time>2015-07-18T09:02:30Z</time>
      </trkpt>
      <trkpt lat="43.15268" lon="2.26137">
        <ele>311.6</ele>
        <time>2015-07-18T09:02:44Z</time>
      </trkpt>
      <trkpt lat="43.15268" lon="2.26133">
        <ele>311.6</ele>
        <time>2015-07-18T09:02:45Z</time>
      </trkpt>
      <trkpt lat="43.15271" lon="2.26114">
        <ele>311.6</ele>
        <time>2015-07-18T09:02:53Z</time>
      </trkpt>
      <trkpt lat="43.15282" lon="2.26073">
        <ele>313.05</ele>
        <time>2015-07-18T09:03:12Z</time>
      </trkpt>
      <trkpt lat="43.15291" lon="2.2605">
        <ele>316.41</ele>
        <time>2015-07-18T09:03:24Z</time>
      </trkpt>
      <trkpt lat="43.15305" lon="2.26019">
        <ele>318.81</ele>
        <time>2015-07-18T09:03:40Z</time>
      </trkpt>
      <trkpt lat="43.15308" lon="2.26009">
        <ele>319.78</ele>
        <time>2015-07-18T09:03:45Z</time>
      </trkpt>
      <trkpt lat="43.15308" lon="2.26006">
        <ele>319.78</ele>
        <time>2015-07-18T09:03:46Z</time>
      </trkpt>
      <trkpt lat="43.15314" lon="2.25967">
        <ele>320.26</ele>
        <time>2015-07-18T09:04:01Z</time>
      </trkpt>
      <trkpt lat="43.15321" lon="2.25944">
        <ele>320.74</ele>
        <time>2015-07-18T09:04:10Z</time>
      </trkpt>
      <trkpt lat="43.15321" lon="2.25941">
        <ele>321.22</ele>
        <time>2015-07-18T09:04:11Z</time>
      </trkpt>
      <trkpt lat="43.15322" lon="2.25939">
        <ele>321.22</ele>
        <time>2015-07-18T09:04:12Z</time>
      </trkpt>
      <trkpt lat="43.15322" lon="2.25936">
        <ele>321.22</ele>
        <time>2015-07-18T09:04:13Z</time>
      </trkpt>
      <trkpt lat="43.15323" lon="2.25933">
        <ele>321.22</ele>
        <time>2015-07-18T09:04:14Z</time>
      </trkpt>
      <trkpt lat="43.15323" lon="2.2593">
        <ele>321.22</ele>
        <time>2015-07-18T09:04:15Z</time>
      </trkpt>
      <trkpt lat="43.15324" lon="2.25927">
        <ele>321.22</ele>
        <time>2015-07-18T09:04:16Z</time>
      </trkpt>
      <trkpt lat="43.15325" lon="2.25924">
        <ele>321.22</ele>
        <time>2015-07-18T09:04:17Z</time>
      </trkpt>
      <trkpt lat="43.15325" lon="2.25921">
        <ele>321.22</ele>
        <time>2015-07-18T09:04:18Z</time>
      </trkpt>
      <trkpt lat="43.15325" lon="2.25918">
        <ele>321.22</ele>
        <time>2015-07-18T09:04:19Z</time>
      </trkpt>
      <trkpt lat="43.15326" lon="2.25915">
        <ele>321.22</ele>
        <time>2015-07-18T09:04:20Z</time>
      </trkpt>
      <trkpt lat="43.15326" lon="2.25912">
        <ele>321.22</ele>
        <time>2015-07-18T09:04:21Z</time>
      </trkpt>
      <trkpt lat="43.15332" lon="2.25884">
        <ele>321.7</ele>
        <time>2015-07-18T09:04:32Z</time>
      </trkpt>
      <trkpt lat="43.15333" lon="2.25881">
        <ele>322.18</ele>
        <time>2015-07-18T09:04:33Z</time>
      </trkpt>
      <trkpt lat="43.15333" lon="2.25879">
        <ele>322.18</ele>
        <time>2015-07-18T09:04:34Z</time>
      </trkpt>
      <trkpt lat="43.15335" lon="2.25854">
        <ele>324.1</ele>
        <time>2015-07-18T09:04:43Z</time>
      </trkpt>
      <trkpt lat="43.15335" lon="2.25851">
        <ele>324.1</ele>
        <time>2015-07-18T09:04:44Z</time>
      </trkpt>
      <trkpt lat="43.15335" lon="2.25848">
        <ele>324.58</ele>
        <time>2015-07-18T09:04:45Z</time>
      </trkpt>
      <trkpt lat="43.15335" lon="2.25846">
        <ele>324.58</ele>
        <time>2015-07-18T09:04:46Z</time>
      </trkpt>
      <trkpt lat="43.15335" lon="2.25843">
        <ele>324.58</ele>
        <time>2015-07-18T09:04:47Z</time>
      </trkpt>
      <trkpt lat="43.15336" lon="2.25841">
        <ele>325.06</ele>
        <time>2015-07-18T09:04:48Z</time>
      </trkpt>
      <trkpt lat="43.15337" lon="2.25832">
        <ele>325.06</ele>
        <time>2015-07-18T09:04:51Z</time>
      </trkpt>
      <trkpt lat="43.15338" lon="2.2583">
        <ele>325.06</ele>
        <time>2015-07-18T09:04:52Z</time>
      </trkpt>
      <trkpt lat="43.15339" lon="2.25827">
        <ele>325.06</ele>
        <time>2015-07-18T09:04:53Z</time>
      </trkpt>
      <trkpt lat="43.1534" lon="2.25825">
        <ele>325.06</ele>
        <time>2015-07-18T09:04:54Z</time>
      </trkpt>
      <trkpt lat="43.1534" lon="2.25822">
        <ele>325.06</ele>
        <time>2015-07-18T09:04:55Z</time>
      </trkpt>
      <trkpt lat="43.15341" lon="2.25819">
        <ele>325.06</ele>
        <time>2015-07-18T09:04:56Z</time>
      </trkpt>
      <trkpt lat="43.15342" lon="2.25816">
        <ele>325.06</ele>
        <time>2015-07-18T09:04:57Z</time>
      </trkpt>
      <trkpt lat="43.15354" lon="2.25783">
        <ele>325.54</ele>
        <time>2015-07-18T09:05:09Z</time>
      </trkpt>
      <trkpt lat="43.15368" lon="2.25753">
        <ele>327.47</ele>
        <time>2015-07-18T09:05:22Z</time>
      </trkpt>
      <trkpt lat="43.15378" lon="2.25714">
        <ele>328.43</ele>
        <time>2015-07-18T09:05:37Z</time>
      </trkpt>
      <trkpt lat="43.15389" lon="2.25681">
        <ele>329.87</ele>
        <time>2015-07-18T09:05:50Z</time>
      </trkpt>
      <trkpt lat="43.15405" lon="2.25638">
        <ele>328.91</ele>
        <time>2015-07-18T09:06:04Z</time>
      </trkpt>
      <trkpt lat="43.15406" lon="2.25634">
        <ele>328.91</ele>
        <time>2015-07-18T09:06:05Z</time>
      </trkpt>
      <trkpt lat="43.15414" lon="2.25596">
        <ele>327.47</ele>
        <time>2015-07-18T09:06:15Z</time>
      </trkpt>
      <trkpt lat="43.15413" lon="2.25553">
        <ele>326.99</ele>
        <time>2015-07-18T09:06:24Z</time>
      </trkpt>
      <trkpt lat="43.15399" lon="2.25511">
        <ele>327.95</ele>
        <time>2015-07-18T09:06:35Z</time>
      </trkpt>
      <trkpt lat="43.15393" lon="2.25487">
        <ele>327.95</ele>
        <time>2015-07-18T09:06:41Z</time>
      </trkpt>
      <trkpt lat="43.15393" lon="2.25484">
        <ele>327.95</ele>
        <time>2015-07-18T09:06:42Z</time>
      </trkpt>
      <trkpt lat="43.15393" lon="2.2548">
        <ele>327.95</ele>
        <time>2015-07-18T09:06:43Z</time>
      </trkpt>
      <trkpt lat="43.15392" lon="2.25477">
        <ele>327.95</ele>
        <time>2015-07-18T09:06:44Z</time>
      </trkpt>
      <trkpt lat="43.15391" lon="2.25473">
        <ele>327.95</ele>
        <time>2015-07-18T09:06:45Z</time>
      </trkpt>
      <trkpt lat="43.15397" lon="2.25433">
        <ele>328.91</ele>
        <time>2015-07-18T09:06:56Z</time>
      </trkpt>
      <trkpt lat="43.15399" lon="2.25386">
        <ele>329.87</ele>
        <time>2015-07-18T09:07:09Z</time>
      </trkpt>
      <trkpt lat="43.15408" lon="2.25345">
        <ele>331.79</ele>
        <time>2015-07-18T09:07:21Z</time>
      </trkpt>
      <trkpt lat="43.15401" lon="2.25298">
        <ele>331.79</ele>
        <time>2015-07-18T09:07:33Z</time>
      </trkpt>
      <trkpt lat="43.15397" lon="2.25244">
        <ele>333.71</ele>
        <time>2015-07-18T09:07:48Z</time>
      </trkpt>
      <trkpt lat="43.15395" lon="2.2519">
        <ele>336.12</ele>
        <time>2015-07-18T09:08:03Z</time>
      </trkpt>
      <trkpt lat="43.15381" lon="2.25148">
        <ele>336.6</ele>
        <time>2015-07-18T09:08:14Z</time>
      </trkpt>
      <trkpt lat="43.1538" lon="2.25098">
        <ele>338.04</ele>
        <time>2015-07-18T09:08:26Z</time>
      </trkpt>
      <trkpt lat="43.15389" lon="2.25057">
        <ele>339</ele>
        <time>2015-07-18T09:08:37Z</time>
      </trkpt>
      <trkpt lat="43.1539" lon="2.25053">
        <ele>339</ele>
        <time>2015-07-18T09:08:38Z</time>
      </trkpt>
      <trkpt lat="43.15391" lon="2.25048">
        <ele>339</ele>
        <time>2015-07-18T09:08:39Z</time>
      </trkpt>
      <trkpt lat="43.15391" lon="2.25044">
        <ele>339.48</ele>
        <time>2015-07-18T09:08:40Z</time>
      </trkpt>
      <trkpt lat="43.15392" lon="2.25039">
        <ele>339.48</ele>
        <time>2015-07-18T09:08:41Z</time>
      </trkpt>
      <trkpt lat="43.15393" lon="2.25035">
        <ele>339.48</ele>
        <time>2015-07-18T09:08:42Z</time>
      </trkpt>
      <trkpt lat="43.15394" lon="2.25031">
        <ele>339.48</ele>
        <time>2015-07-18T09:08:43Z</time>
      </trkpt>
      <trkpt lat="43.15395" lon="2.25027">
        <ele>340.44</ele>
        <time>2015-07-18T09:08:44Z</time>
      </trkpt>
      <trkpt lat="43.15416" lon="2.24962">
        <ele>338.04</ele>
        <time>2015-07-18T09:08:56Z</time>
      </trkpt>
      <trkpt lat="43.15425" lon="2.24929">
        <ele>336.12</ele>
        <time>2015-07-18T09:09:00Z</time>
      </trkpt>
      <trkpt lat="43.15433" lon="2.24904">
        <ele>334.68</ele>
        <time>2015-07-18T09:09:03Z</time>
      </trkpt>
      <trkpt lat="43.15434" lon="2.24894">
        <ele>334.68</ele>
        <time>2015-07-18T09:09:04Z</time>
      </trkpt>
      <trkpt lat="43.15433" lon="2.24888">
        <ele>334.68</ele>
        <time>2015-07-18T09:09:05Z</time>
      </trkpt>
      <trkpt lat="43.15428" lon="2.24844">
        <ele>336.6</ele>
        <time>2015-07-18T09:09:12Z</time>
      </trkpt>
      <trkpt lat="43.15427" lon="2.24838">
        <ele>336.6</ele>
        <time>2015-07-18T09:09:13Z</time>
      </trkpt>
      <trkpt lat="43.15424" lon="2.24827">
        <ele>337.56</ele>
        <time>2015-07-18T09:09:15Z</time>
      </trkpt>
      <trkpt lat="43.15409" lon="2.2479">
        <ele>337.56</ele>
        <time>2015-07-18T09:09:22Z</time>
      </trkpt>
      <trkpt lat="43.15392" lon="2.2476">
        <ele>337.56</ele>
        <time>2015-07-18T09:09:28Z</time>
      </trkpt>
      <trkpt lat="43.15385" lon="2.24738">
        <ele>337.56</ele>
        <time>2015-07-18T09:09:32Z</time>
      </trkpt>
      <trkpt lat="43.15384" lon="2.24731">
        <ele>337.56</ele>
        <time>2015-07-18T09:09:33Z</time>
      </trkpt>
      <trkpt lat="43.15384" lon="2.24725">
        <ele>337.56</ele>
        <time>2015-07-18T09:09:34Z</time>
      </trkpt>
      <trkpt lat="43.15384" lon="2.24719">
        <ele>337.56</ele>
        <time>2015-07-18T09:09:35Z</time>
      </trkpt>
      <trkpt lat="43.15383" lon="2.24713">
        <ele>337.56</ele>
        <time>2015-07-18T09:09:36Z</time>
      </trkpt>
      <trkpt lat="43.15383" lon="2.24701">
        <ele>337.56</ele>
        <time>2015-07-18T09:09:38Z</time>
      </trkpt>
      <trkpt lat="43.15383" lon="2.24688">
        <ele>337.56</ele>
        <time>2015-07-18T09:09:40Z</time>
      </trkpt>
      <trkpt lat="43.15383" lon="2.24681">
        <ele>337.56</ele>
        <time>2015-07-18T09:09:41Z</time>
      </trkpt>
      <trkpt lat="43.15384" lon="2.24675">
        <ele>337.56</ele>
        <time>2015-07-18T09:09:42Z</time>
      </trkpt>
      <trkpt lat="43.15385" lon="2.2466">
        <ele>336.6</ele>
        <time>2015-07-18T09:09:44Z</time>
      </trkpt>
      <trkpt lat="43.15387" lon="2.24607">
        <ele>335.64</ele>
        <time>2015-07-18T09:09:51Z</time>
      </trkpt>
      <trkpt lat="43.15387" lon="2.246">
        <ele>335.64</ele>
        <time>2015-07-18T09:09:52Z</time>
      </trkpt>
      <trkpt lat="43.15388" lon="2.24578">
        <ele>334.68</ele>
        <time>2015-07-18T09:09:55Z</time>
      </trkpt>
      <trkpt lat="43.15386" lon="2.2457">
        <ele>334.68</ele>
        <time>2015-07-18T09:09:56Z</time>
      </trkpt>
      <trkpt lat="43.15379" lon="2.24541">
        <ele>333.71</ele>
        <time>2015-07-18T09:10:00Z</time>
      </trkpt>
      <trkpt lat="43.15376" lon="2.24534">
        <ele>333.71</ele>
        <time>2015-07-18T09:10:01Z</time>
      </trkpt>
      <trkpt lat="43.15374" lon="2.24527">
        <ele>332.75</ele>
        <time>2015-07-18T09:10:02Z</time>
      </trkpt>
      <trkpt lat="43.15372" lon="2.24519">
        <ele>332.75</ele>
        <time>2015-07-18T09:10:03Z</time>
      </trkpt>
      <trkpt lat="43.1537" lon="2.24511">
        <ele>332.75</ele>
        <time>2015-07-18T09:10:04Z</time>
      </trkpt>
      <trkpt lat="43.15369" lon="2.24504">
        <ele>332.75</ele>
        <time>2015-07-18T09:10:05Z</time>
      </trkpt>
      <trkpt lat="43.15368" lon="2.24497">
        <ele>332.75</ele>
        <time>2015-07-18T09:10:06Z</time>
      </trkpt>
      <trkpt lat="43.15366" lon="2.2449">
        <ele>332.75</ele>
        <time>2015-07-18T09:10:07Z</time>
      </trkpt>
      <trkpt lat="43.15365" lon="2.24483">
        <ele>332.75</ele>
        <time>2015-07-18T09:10:08Z</time>
      </trkpt>
      <trkpt lat="43.15364" lon="2.24477">
        <ele>332.75</ele>
        <time>2015-07-18T09:10:09Z</time>
      </trkpt>
      <trkpt lat="43.15363" lon="2.24471">
        <ele>332.75</ele>
        <time>2015-07-18T09:10:10Z</time>
      </trkpt>
      <trkpt lat="43.15361" lon="2.2445">
        <ele>334.2</ele>
        <time>2015-07-18T09:10:14Z</time>
      </trkpt>
      <trkpt lat="43.15351" lon="2.24385">
        <ele>335.64</ele>
        <time>2015-07-18T09:10:27Z</time>
      </trkpt>
      <trkpt lat="43.15341" lon="2.24321">
        <ele>337.56</ele>
        <time>2015-07-18T09:10:41Z</time>
      </trkpt>
      <trkpt lat="43.15331" lon="2.24297">
        <ele>337.56</ele>
        <time>2015-07-18T09:10:47Z</time>
      </trkpt>
      <trkpt lat="43.15331" lon="2.24293">
        <ele>337.56</ele>
        <time>2015-07-18T09:10:48Z</time>
      </trkpt>
      <trkpt lat="43.1533" lon="2.2429">
        <ele>337.56</ele>
        <time>2015-07-18T09:10:49Z</time>
      </trkpt>
      <trkpt lat="43.15328" lon="2.24286">
        <ele>337.56</ele>
        <time>2015-07-18T09:10:50Z</time>
      </trkpt>
      <trkpt lat="43.15326" lon="2.24282">
        <ele>337.56</ele>
        <time>2015-07-18T09:10:51Z</time>
      </trkpt>
      <trkpt lat="43.15299" lon="2.24241">
        <ele>339.48</ele>
        <time>2015-07-18T09:11:03Z</time>
      </trkpt>
      <trkpt lat="43.15264" lon="2.24246">
        <ele>342.37</ele>
        <time>2015-07-18T09:11:14Z</time>
      </trkpt>
      <trkpt lat="43.15227" lon="2.2424">
        <ele>344.77</ele>
        <time>2015-07-18T09:11:26Z</time>
      </trkpt>
      <trkpt lat="43.15205" lon="2.2428">
        <ele>345.73</ele>
        <time>2015-07-18T09:11:37Z</time>
      </trkpt>
      <trkpt lat="43.15184" lon="2.24322">
        <ele>346.69</ele>
        <time>2015-07-18T09:11:47Z</time>
      </trkpt>
      <trkpt lat="43.1515" lon="2.24361">
        <ele>346.69</ele>
        <time>2015-07-18T09:11:57Z</time>
      </trkpt>
      <trkpt lat="43.15141" lon="2.24368">
        <ele>345.73</ele>
        <time>2015-07-18T09:11:59Z</time>
      </trkpt>
      <trkpt lat="43.15127" lon="2.24381">
        <ele>344.29</ele>
        <time>2015-07-18T09:12:02Z</time>
      </trkpt>
      <trkpt lat="43.15122" lon="2.24386">
        <ele>344.29</ele>
        <time>2015-07-18T09:12:03Z</time>
      </trkpt>
      <trkpt lat="43.15112" lon="2.24396">
        <ele>343.81</ele>
        <time>2015-07-18T09:12:05Z</time>
      </trkpt>
      <trkpt lat="43.15106" lon="2.244">
        <ele>343.81</ele>
        <time>2015-07-18T09:12:06Z</time>
      </trkpt>
      <trkpt lat="43.151" lon="2.24403">
        <ele>343.33</ele>
        <time>2015-07-18T09:12:07Z</time>
      </trkpt>
      <trkpt lat="43.15093" lon="2.24402">
        <ele>342.85</ele>
        <time>2015-07-18T09:12:08Z</time>
      </trkpt>
      <trkpt lat="43.15085" lon="2.24398">
        <ele>341.89</ele>
        <time>2015-07-18T09:12:09Z</time>
      </trkpt>
      <trkpt lat="43.15079" lon="2.24393">
        <ele>341.41</ele>
        <time>2015-07-18T09:12:10Z</time>
      </trkpt>
      <trkpt lat="43.15072" lon="2.24389">
        <ele>341.41</ele>
        <time>2015-07-18T09:12:11Z</time>
      </trkpt>
      <trkpt lat="43.15065" lon="2.24386">
        <ele>340.92</ele>
        <time>2015-07-18T09:12:12Z</time>
      </trkpt>
      <trkpt lat="43.15056" lon="2.24385">
        <ele>339.48</ele>
        <time>2015-07-18T09:12:13Z</time>
      </trkpt>
      <trkpt lat="43.15049" lon="2.24385">
        <ele>339</ele>
        <time>2015-07-18T09:12:14Z</time>
      </trkpt>
      <trkpt lat="43.15041" lon="2.24387">
        <ele>339</ele>
        <time>2015-07-18T09:12:15Z</time>
      </trkpt>
      <trkpt lat="43.15034" lon="2.24392">
        <ele>339</ele>
        <time>2015-07-18T09:12:16Z</time>
      </trkpt>
      <trkpt lat="43.15028" lon="2.24399">
        <ele>339</ele>
        <time>2015-07-18T09:12:17Z</time>
      </trkpt>
      <trkpt lat="43.15023" lon="2.24406">
        <ele>339</ele>
        <time>2015-07-18T09:12:18Z</time>
      </trkpt>
      <trkpt lat="43.15019" lon="2.24413">
        <ele>339</ele>
        <time>2015-07-18T09:12:19Z</time>
      </trkpt>
      <trkpt lat="43.14991" lon="2.24457">
        <ele>339</ele>
        <time>2015-07-18T09:12:27Z</time>
      </trkpt>
      <trkpt lat="43.14989" lon="2.24463">
        <ele>339</ele>
        <time>2015-07-18T09:12:28Z</time>
      </trkpt>
      <trkpt lat="43.14983" lon="2.24473">
        <ele>340.44</ele>
        <time>2015-07-18T09:12:30Z</time>
      </trkpt>
      <trkpt lat="43.14968" lon="2.245">
        <ele>341.89</ele>
        <time>2015-07-18T09:12:36Z</time>
      </trkpt>
      <trkpt lat="43.14965" lon="2.24503">
        <ele>342.37</ele>
        <time>2015-07-18T09:12:37Z</time>
      </trkpt>
      <trkpt lat="43.14961" lon="2.24505">
        <ele>342.37</ele>
        <time>2015-07-18T09:12:38Z</time>
      </trkpt>
      <trkpt lat="43.14957" lon="2.24506">
        <ele>341.89</ele>
        <time>2015-07-18T09:12:39Z</time>
      </trkpt>
      <trkpt lat="43.14952" lon="2.24506">
        <ele>341.89</ele>
        <time>2015-07-18T09:12:40Z</time>
      </trkpt>
      <trkpt lat="43.14947" lon="2.24506">
        <ele>341.89</ele>
        <time>2015-07-18T09:12:41Z</time>
      </trkpt>
      <trkpt lat="43.14942" lon="2.24506">
        <ele>340.44</ele>
        <time>2015-07-18T09:12:42Z</time>
      </trkpt>
      <trkpt lat="43.14937" lon="2.24508">
        <ele>340.44</ele>
        <time>2015-07-18T09:12:43Z</time>
      </trkpt>
      <trkpt lat="43.14931" lon="2.2451">
        <ele>339.96</ele>
        <time>2015-07-18T09:12:44Z</time>
      </trkpt>
      <trkpt lat="43.14926" lon="2.24513">
        <ele>339.96</ele>
        <time>2015-07-18T09:12:45Z</time>
      </trkpt>
      <trkpt lat="43.14919" lon="2.24516">
        <ele>339</ele>
        <time>2015-07-18T09:12:46Z</time>
      </trkpt>
      <trkpt lat="43.14913" lon="2.2452">
        <ele>338.52</ele>
        <time>2015-07-18T09:12:47Z</time>
      </trkpt>
      <trkpt lat="43.14894" lon="2.24534">
        <ele>337.56</ele>
        <time>2015-07-18T09:12:50Z</time>
      </trkpt>
      <trkpt lat="43.14891" lon="2.24542">
        <ele>337.56</ele>
        <time>2015-07-18T09:12:51Z</time>
      </trkpt>
      <trkpt lat="43.14889" lon="2.24549">
        <ele>337.56</ele>
        <time>2015-07-18T09:12:52Z</time>
      </trkpt>
      <trkpt lat="43.14887" lon="2.24556">
        <ele>337.56</ele>
        <time>2015-07-18T09:12:53Z</time>
      </trkpt>
      <trkpt lat="43.14884" lon="2.24561">
        <ele>337.56</ele>
        <time>2015-07-18T09:12:54Z</time>
      </trkpt>
      <trkpt lat="43.1488" lon="2.24566">
        <ele>337.56</ele>
        <time>2015-07-18T09:12:55Z</time>
      </trkpt>
      <trkpt lat="43.14876" lon="2.2457">
        <ele>337.56</ele>
        <time>2015-07-18T09:12:56Z</time>
      </trkpt>
      <trkpt lat="43.14872" lon="2.24572">
        <ele>337.08</ele>
        <time>2015-07-18T09:12:57Z</time>
      </trkpt>
      <trkpt lat="43.14867" lon="2.24572">
        <ele>336.6</ele>
        <time>2015-07-18T09:12:58Z</time>
      </trkpt>
      <trkpt lat="43.14862" lon="2.24572">
        <ele>336.6</ele>
        <time>2015-07-18T09:12:59Z</time>
      </trkpt>
      <trkpt lat="43.14857" lon="2.24572">
        <ele>336.6</ele>
        <time>2015-07-18T09:13:00Z</time>
      </trkpt>
      <trkpt lat="43.14835" lon="2.24566">
        <ele>335.16</ele>
        <time>2015-07-18T09:13:04Z</time>
      </trkpt>
      <trkpt lat="43.14828" lon="2.24562">
        <ele>335.16</ele>
        <time>2015-07-18T09:13:05Z</time>
      </trkpt>
      <trkpt lat="43.14822" lon="2.24561">
        <ele>334.2</ele>
        <time>2015-07-18T09:13:06Z</time>
      </trkpt>
      <trkpt lat="43.14815" lon="2.24561">
        <ele>333.23</ele>
        <time>2015-07-18T09:13:07Z</time>
      </trkpt>
      <trkpt lat="43.14808" lon="2.24561">
        <ele>332.75</ele>
        <time>2015-07-18T09:13:08Z</time>
      </trkpt>
      <trkpt lat="43.14801" lon="2.24564">
        <ele>331.31</ele>
        <time>2015-07-18T09:13:09Z</time>
      </trkpt>
      <trkpt lat="43.14794" lon="2.24568">
        <ele>331.31</ele>
        <time>2015-07-18T09:13:10Z</time>
      </trkpt>
      <trkpt lat="43.14788" lon="2.24575">
        <ele>329.87</ele>
        <time>2015-07-18T09:13:11Z</time>
      </trkpt>
      <trkpt lat="43.14781" lon="2.24582">
        <ele>329.39</ele>
        <time>2015-07-18T09:13:12Z</time>
      </trkpt>
      <trkpt lat="43.14775" lon="2.2459">
        <ele>329.39</ele>
        <time>2015-07-18T09:13:13Z</time>
      </trkpt>
      <trkpt lat="43.14771" lon="2.24598">
        <ele>328.91</ele>
        <time>2015-07-18T09:13:14Z</time>
      </trkpt>
      <trkpt lat="43.14767" lon="2.24606">
        <ele>328.91</ele>
        <time>2015-07-18T09:13:15Z</time>
      </trkpt>
      <trkpt lat="43.14763" lon="2.2461">
        <ele>327.95</ele>
        <time>2015-07-18T09:13:16Z</time>
      </trkpt>
      <trkpt lat="43.1476" lon="2.24614">
        <ele>327.95</ele>
        <time>2015-07-18T09:13:17Z</time>
      </trkpt>
      <trkpt lat="43.14756" lon="2.24616">
        <ele>327.47</ele>
        <time>2015-07-18T09:13:18Z</time>
      </trkpt>
      <trkpt lat="43.14753" lon="2.24617">
        <ele>327.47</ele>
        <time>2015-07-18T09:13:19Z</time>
      </trkpt>
      <trkpt lat="43.14748" lon="2.24615">
        <ele>326.5</ele>
        <time>2015-07-18T09:13:20Z</time>
      </trkpt>
      <trkpt lat="43.14744" lon="2.24611">
        <ele>326.02</ele>
        <time>2015-07-18T09:13:21Z</time>
      </trkpt>
      <trkpt lat="43.14739" lon="2.24606">
        <ele>325.54</ele>
        <time>2015-07-18T09:13:22Z</time>
      </trkpt>
      <trkpt lat="43.14735" lon="2.24601">
        <ele>325.54</ele>
        <time>2015-07-18T09:13:23Z</time>
      </trkpt>
      <trkpt lat="43.1473" lon="2.24596">
        <ele>324.58</ele>
        <time>2015-07-18T09:13:24Z</time>
      </trkpt>
      <trkpt lat="43.14725" lon="2.24593">
        <ele>324.1</ele>
        <time>2015-07-18T09:13:25Z</time>
      </trkpt>
      <trkpt lat="43.14719" lon="2.24592">
        <ele>323.62</ele>
        <time>2015-07-18T09:13:26Z</time>
      </trkpt>
      <trkpt lat="43.14713" lon="2.24593">
        <ele>323.14</ele>
        <time>2015-07-18T09:13:27Z</time>
      </trkpt>
      <trkpt lat="43.14706" lon="2.24596">
        <ele>322.66</ele>
        <time>2015-07-18T09:13:28Z</time>
      </trkpt>
      <trkpt lat="43.147" lon="2.24601">
        <ele>322.66</ele>
        <time>2015-07-18T09:13:29Z</time>
      </trkpt>
      <trkpt lat="43.14695" lon="2.24606">
        <ele>323.14</ele>
        <time>2015-07-18T09:13:30Z</time>
      </trkpt>
      <trkpt lat="43.1468" lon="2.24618">
        <ele>323.14</ele>
        <time>2015-07-18T09:13:33Z</time>
      </trkpt>
      <trkpt lat="43.14675" lon="2.2462">
        <ele>323.14</ele>
        <time>2015-07-18T09:13:34Z</time>
      </trkpt>
      <trkpt lat="43.1467" lon="2.24622">
        <ele>323.14</ele>
        <time>2015-07-18T09:13:35Z</time>
      </trkpt>
      <trkpt lat="43.14665" lon="2.24623">
        <ele>323.14</ele>
        <time>2015-07-18T09:13:36Z</time>
      </trkpt>
      <trkpt lat="43.1466" lon="2.24623">
        <ele>323.14</ele>
        <time>2015-07-18T09:13:37Z</time>
      </trkpt>
      <trkpt lat="43.14636" lon="2.24624">
        <ele>326.02</ele>
        <time>2015-07-18T09:13:42Z</time>
      </trkpt>
      <trkpt lat="43.14632" lon="2.24625">
        <ele>326.02</ele>
        <time>2015-07-18T09:13:43Z</time>
      </trkpt>
      <trkpt lat="43.14627" lon="2.24627">
        <ele>326.02</ele>
        <time>2015-07-18T09:13:44Z</time>
      </trkpt>
      <trkpt lat="43.14602" lon="2.24642">
        <ele>326.99</ele>
        <time>2015-07-18T09:13:51Z</time>
      </trkpt>
      <trkpt lat="43.14599" lon="2.24647">
        <ele>326.99</ele>
        <time>2015-07-18T09:13:52Z</time>
      </trkpt>
      <trkpt lat="43.14595" lon="2.24652">
        <ele>326.99</ele>
        <time>2015-07-18T09:13:53Z</time>
      </trkpt>
      <trkpt lat="43.14593" lon="2.24657">
        <ele>326.99</ele>
        <time>2015-07-18T09:13:54Z</time>
      </trkpt>
      <trkpt lat="43.14591" lon="2.24663">
        <ele>326.99</ele>
        <time>2015-07-18T09:13:55Z</time>
      </trkpt>
      <trkpt lat="43.1459" lon="2.24669">
        <ele>326.99</ele>
        <time>2015-07-18T09:13:56Z</time>
      </trkpt>
      <trkpt lat="43.14587" lon="2.24684">
        <ele>327.47</ele>
        <time>2015-07-18T09:13:59Z</time>
      </trkpt>
      <trkpt lat="43.14585" lon="2.24689">
        <ele>327.47</ele>
        <time>2015-07-18T09:14:00Z</time>
      </trkpt>
      <trkpt lat="43.14583" lon="2.24694">
        <ele>327.47</ele>
        <time>2015-07-18T09:14:01Z</time>
      </trkpt>
      <trkpt lat="43.14576" lon="2.24703">
        <ele>327.47</ele>
        <time>2015-07-18T09:14:03Z</time>
      </trkpt>
      <trkpt lat="43.14568" lon="2.24713">
        <ele>326.02</ele>
        <time>2015-07-18T09:14:05Z</time>
      </trkpt>
      <trkpt lat="43.14554" lon="2.24727">
        <ele>325.06</ele>
        <time>2015-07-18T09:14:08Z</time>
      </trkpt>
      <trkpt lat="43.14548" lon="2.24731">
        <ele>325.06</ele>
        <time>2015-07-18T09:14:09Z</time>
      </trkpt>
      <trkpt lat="43.14542" lon="2.24733">
        <ele>324.58</ele>
        <time>2015-07-18T09:14:10Z</time>
      </trkpt>
      <trkpt lat="43.14535" lon="2.24733">
        <ele>324.58</ele>
        <time>2015-07-18T09:14:11Z</time>
      </trkpt>
      <trkpt lat="43.14527" lon="2.24732">
        <ele>323.62</ele>
        <time>2015-07-18T09:14:12Z</time>
      </trkpt>
      <trkpt lat="43.1452" lon="2.2473">
        <ele>322.66</ele>
        <time>2015-07-18T09:14:13Z</time>
      </trkpt>
      <trkpt lat="43.1451" lon="2.24727">
        <ele>321.7</ele>
        <time>2015-07-18T09:14:14Z</time>
      </trkpt>
      <trkpt lat="43.14502" lon="2.24724">
        <ele>320.74</ele>
        <time>2015-07-18T09:14:15Z</time>
      </trkpt>
      <trkpt lat="43.14493" lon="2.24722">
        <ele>320.74</ele>
        <time>2015-07-18T09:14:16Z</time>
      </trkpt>
      <trkpt lat="43.14465" lon="2.24716">
        <ele>318.81</ele>
        <time>2015-07-18T09:14:19Z</time>
      </trkpt>
      <trkpt lat="43.14439" lon="2.24713">
        <ele>315.45</ele>
        <time>2015-07-18T09:14:22Z</time>
      </trkpt>
      <trkpt lat="43.14416" lon="2.24714">
        <ele>312.09</ele>
        <time>2015-07-18T09:14:25Z</time>
      </trkpt>
      <trkpt lat="43.144" lon="2.24717">
        <ele>309.2</ele>
        <time>2015-07-18T09:14:28Z</time>
      </trkpt>
      <trkpt lat="43.14396" lon="2.24722">
        <ele>308.24</ele>
        <time>2015-07-18T09:14:29Z</time>
      </trkpt>
      <trkpt lat="43.14394" lon="2.24729">
        <ele>308.24</ele>
        <time>2015-07-18T09:14:30Z</time>
      </trkpt>
      <trkpt lat="43.14395" lon="2.24735">
        <ele>308.24</ele>
        <time>2015-07-18T09:14:31Z</time>
      </trkpt>
      <trkpt lat="43.14396" lon="2.24741">
        <ele>310.16</ele>
        <time>2015-07-18T09:14:32Z</time>
      </trkpt>
      <trkpt lat="43.14396" lon="2.24746">
        <ele>310.16</ele>
        <time>2015-07-18T09:14:33Z</time>
      </trkpt>
      <trkpt lat="43.14396" lon="2.24752">
        <ele>310.64</ele>
        <time>2015-07-18T09:14:34Z</time>
      </trkpt>
      <trkpt lat="43.14395" lon="2.24757">
        <ele>311.6</ele>
        <time>2015-07-18T09:14:35Z</time>
      </trkpt>
      <trkpt lat="43.14394" lon="2.24767">
        <ele>312.09</ele>
        <time>2015-07-18T09:14:37Z</time>
      </trkpt>
      <trkpt lat="43.14389" lon="2.24792">
        <ele>314.49</ele>
        <time>2015-07-18T09:14:42Z</time>
      </trkpt>
      <trkpt lat="43.14369" lon="2.24844">
        <ele>316.41</ele>
        <time>2015-07-18T09:14:56Z</time>
      </trkpt>
      <trkpt lat="43.14357" lon="2.24882">
        <ele>314.01</ele>
        <time>2015-07-18T09:15:04Z</time>
      </trkpt>
      <trkpt lat="43.14355" lon="2.2489">
        <ele>314.01</ele>
        <time>2015-07-18T09:15:05Z</time>
      </trkpt>
      <trkpt lat="43.14353" lon="2.24898">
        <ele>313.53</ele>
        <time>2015-07-18T09:15:06Z</time>
      </trkpt>
      <trkpt lat="43.14343" lon="2.24951">
        <ele>311.12</ele>
        <time>2015-07-18T09:15:12Z</time>
      </trkpt>
      <trkpt lat="43.14343" lon="2.24959">
        <ele>311.12</ele>
        <time>2015-07-18T09:15:13Z</time>
      </trkpt>
      <trkpt lat="43.14343" lon="2.24967">
        <ele>311.12</ele>
        <time>2015-07-18T09:15:14Z</time>
      </trkpt>
      <trkpt lat="43.14344" lon="2.24974">
        <ele>311.12</ele>
        <time>2015-07-18T09:15:15Z</time>
      </trkpt>
      <trkpt lat="43.14343" lon="2.24983">
        <ele>310.64</ele>
        <time>2015-07-18T09:15:16Z</time>
      </trkpt>
      <trkpt lat="43.14342" lon="2.24993">
        <ele>309.68</ele>
        <time>2015-07-18T09:15:17Z</time>
      </trkpt>
      <trkpt lat="43.1434" lon="2.25002">
        <ele>308.72</ele>
        <time>2015-07-18T09:15:18Z</time>
      </trkpt>
      <trkpt lat="43.14337" lon="2.25012">
        <ele>308.24</ele>
        <time>2015-07-18T09:15:19Z</time>
      </trkpt>
      <trkpt lat="43.14314" lon="2.25105">
        <ele>308.24</ele>
        <time>2015-07-18T09:15:31Z</time>
      </trkpt>
      <trkpt lat="43.14312" lon="2.2511">
        <ele>308.24</ele>
        <time>2015-07-18T09:15:32Z</time>
      </trkpt>
      <trkpt lat="43.14301" lon="2.25152">
        <ele>312.09</ele>
        <time>2015-07-18T09:15:42Z</time>
      </trkpt>
      <trkpt lat="43.143" lon="2.25156">
        <ele>312.09</ele>
        <time>2015-07-18T09:15:43Z</time>
      </trkpt>
      <trkpt lat="43.14282" lon="2.25194">
        <ele>314.01</ele>
        <time>2015-07-18T09:15:56Z</time>
      </trkpt>
      <trkpt lat="43.14266" lon="2.25215">
        <ele>313.05</ele>
        <time>2015-07-18T09:16:02Z</time>
      </trkpt>
      <trkpt lat="43.14263" lon="2.25218">
        <ele>313.05</ele>
        <time>2015-07-18T09:16:03Z</time>
      </trkpt>
      <trkpt lat="43.14249" lon="2.25237">
        <ele>311.6</ele>
        <time>2015-07-18T09:16:07Z</time>
      </trkpt>
      <trkpt lat="43.14246" lon="2.25243">
        <ele>310.64</ele>
        <time>2015-07-18T09:16:08Z</time>
      </trkpt>
      <trkpt lat="43.14243" lon="2.2525">
        <ele>310.64</ele>
        <time>2015-07-18T09:16:09Z</time>
      </trkpt>
      <trkpt lat="43.1424" lon="2.25258">
        <ele>310.64</ele>
        <time>2015-07-18T09:16:10Z</time>
      </trkpt>
      <trkpt lat="43.14237" lon="2.25266">
        <ele>309.68</ele>
        <time>2015-07-18T09:16:11Z</time>
      </trkpt>
      <trkpt lat="43.14221" lon="2.25327">
        <ele>306.32</ele>
        <time>2015-07-18T09:16:18Z</time>
      </trkpt>
      <trkpt lat="43.14219" lon="2.25336">
        <ele>306.32</ele>
        <time>2015-07-18T09:16:19Z</time>
      </trkpt>
      <trkpt lat="43.14217" lon="2.25347">
        <ele>305.84</ele>
        <time>2015-07-18T09:16:20Z</time>
      </trkpt>
      <trkpt lat="43.14205" lon="2.25385">
        <ele>303.91</ele>
        <time>2015-07-18T09:16:24Z</time>
      </trkpt>
      <trkpt lat="43.142" lon="2.25394">
        <ele>303.91</ele>
        <time>2015-07-18T09:16:25Z</time>
      </trkpt>
      <trkpt lat="43.14188" lon="2.25422">
        <ele>302.47</ele>
        <time>2015-07-18T09:16:28Z</time>
      </trkpt>
      <trkpt lat="43.14182" lon="2.2544">
        <ele>302.47</ele>
        <time>2015-07-18T09:16:30Z</time>
      </trkpt>
      <trkpt lat="43.14169" lon="2.25499">
        <ele>302.47</ele>
        <time>2015-07-18T09:16:39Z</time>
      </trkpt>
      <trkpt lat="43.14167" lon="2.25505">
        <ele>302.47</ele>
        <time>2015-07-18T09:16:40Z</time>
      </trkpt>
      <trkpt lat="43.14164" lon="2.2551">
        <ele>302.47</ele>
        <time>2015-07-18T09:16:41Z</time>
      </trkpt>
      <trkpt lat="43.14151" lon="2.25534">
        <ele>303.91</ele>
        <time>2015-07-18T09:16:46Z</time>
      </trkpt>
      <trkpt lat="43.14148" lon="2.25539">
        <ele>303.91</ele>
        <time>2015-07-18T09:16:47Z</time>
      </trkpt>
      <trkpt lat="43.14139" lon="2.25567">
        <ele>300.55</ele>
        <time>2015-07-18T09:16:51Z</time>
      </trkpt>
      <trkpt lat="43.14137" lon="2.25577">
        <ele>299.59</ele>
        <time>2015-07-18T09:16:52Z</time>
      </trkpt>
      <trkpt lat="43.14135" lon="2.25587">
        <ele>297.67</ele>
        <time>2015-07-18T09:16:53Z</time>
      </trkpt>
      <trkpt lat="43.14132" lon="2.2561">
        <ele>296.7</ele>
        <time>2015-07-18T09:16:55Z</time>
      </trkpt>
      <trkpt lat="43.14115" lon="2.25685">
        <ele>293.34</ele>
        <time>2015-07-18T09:17:02Z</time>
      </trkpt>
      <trkpt lat="43.1411" lon="2.25705">
        <ele>290.94</ele>
        <time>2015-07-18T09:17:04Z</time>
      </trkpt>
      <trkpt lat="43.14109" lon="2.25716">
        <ele>290.94</ele>
        <time>2015-07-18T09:17:05Z</time>
      </trkpt>
      <trkpt lat="43.14108" lon="2.25728">
        <ele>290.94</ele>
        <time>2015-07-18T09:17:06Z</time>
      </trkpt>
      <trkpt lat="43.14107" lon="2.25739">
        <ele>289.97</ele>
        <time>2015-07-18T09:17:07Z</time>
      </trkpt>
      <trkpt lat="43.14106" lon="2.2575">
        <ele>289.01</ele>
        <time>2015-07-18T09:17:08Z</time>
      </trkpt>
      <trkpt lat="43.14104" lon="2.25771">
        <ele>288.53</ele>
        <time>2015-07-18T09:17:10Z</time>
      </trkpt>
      <trkpt lat="43.14103" lon="2.25781">
        <ele>288.53</ele>
        <time>2015-07-18T09:17:11Z</time>
      </trkpt>
      <trkpt lat="43.14099" lon="2.258">
        <ele>287.57</ele>
        <time>2015-07-18T09:17:13Z</time>
      </trkpt>
      <trkpt lat="43.14095" lon="2.2583">
        <ele>287.09</ele>
        <time>2015-07-18T09:17:16Z</time>
      </trkpt>
      <trkpt lat="43.14077" lon="2.25932">
        <ele>286.61</ele>
        <time>2015-07-18T09:17:28Z</time>
      </trkpt>
      <trkpt lat="43.14065" lon="2.25982">
        <ele>288.53</ele>
        <time>2015-07-18T09:17:37Z</time>
      </trkpt>
      <trkpt lat="43.14057" lon="2.26002">
        <ele>288.53</ele>
        <time>2015-07-18T09:17:45Z</time>
      </trkpt>
      <trkpt lat="43.14055" lon="2.26002">
        <ele>288.53</ele>
        <time>2015-07-18T09:17:46Z</time>
      </trkpt>
      <trkpt lat="43.14053" lon="2.26001">
        <ele>288.53</ele>
        <time>2015-07-18T09:17:47Z</time>
      </trkpt>
      <trkpt lat="43.14049" lon="2.25998">
        <ele>287.09</ele>
        <time>2015-07-18T09:17:50Z</time>
      </trkpt>
      <trkpt lat="43.1405" lon="2.25998">
        <ele>286.61</ele>
        <time>2015-07-18T09:18:15Z</time>
      </trkpt>
      <trkpt lat="43.14049" lon="2.25996">
        <ele>286.61</ele>
        <time>2015-07-18T09:18:24Z</time>
      </trkpt>
      <trkpt lat="43.14038" lon="2.25978">
        <ele>282.77</ele>
        <time>2015-07-18T09:18:28Z</time>
      </trkpt>
      <trkpt lat="43.14032" lon="2.25968">
        <ele>280.36</ele>
        <time>2015-07-18T09:18:30Z</time>
      </trkpt>
      <trkpt lat="43.14025" lon="2.25955">
        <ele>277</ele>
        <time>2015-07-18T09:18:33Z</time>
      </trkpt>
      <trkpt lat="43.14015" lon="2.25943">
        <ele>274.11</ele>
        <time>2015-07-18T09:18:38Z</time>
      </trkpt>
      <trkpt lat="43.14013" lon="2.25939">
        <ele>273.63</ele>
        <time>2015-07-18T09:18:39Z</time>
      </trkpt>
      <trkpt lat="43.14011" lon="2.25932">
        <ele>272.19</ele>
        <time>2015-07-18T09:18:40Z</time>
      </trkpt>
      <trkpt lat="43.1401" lon="2.25926">
        <ele>272.19</ele>
        <time>2015-07-18T09:18:41Z</time>
      </trkpt>
      <trkpt lat="43.14009" lon="2.25909">
        <ele>270.75</ele>
        <time>2015-07-18T09:18:43Z</time>
      </trkpt>
      <trkpt lat="43.1401" lon="2.25899">
        <ele>269.31</ele>
        <time>2015-07-18T09:18:44Z</time>
      </trkpt>
      <trkpt lat="43.14013" lon="2.25881">
        <ele>267.38</ele>
        <time>2015-07-18T09:18:46Z</time>
      </trkpt>
      <trkpt lat="43.14014" lon="2.25871">
        <ele>266.42</ele>
        <time>2015-07-18T09:18:47Z</time>
      </trkpt>
      <trkpt lat="43.14012" lon="2.25848">
        <ele>264.5</ele>
        <time>2015-07-18T09:18:49Z</time>
      </trkpt>
      <trkpt lat="43.14004" lon="2.25797">
        <ele>260.65</ele>
        <time>2015-07-18T09:18:53Z</time>
      </trkpt>
      <trkpt lat="43.13992" lon="2.2573">
        <ele>257.29</ele>
        <time>2015-07-18T09:18:58Z</time>
      </trkpt>
      <trkpt lat="43.13984" lon="2.2568">
        <ele>256.33</ele>
        <time>2015-07-18T09:19:02Z</time>
      </trkpt>
      <trkpt lat="43.1398" lon="2.25669">
        <ele>256.33</ele>
        <time>2015-07-18T09:19:03Z</time>
      </trkpt>
      <trkpt lat="43.13973" lon="2.2565">
        <ele>255.85</ele>
        <time>2015-07-18T09:19:05Z</time>
      </trkpt>
      <trkpt lat="43.13968" lon="2.25643">
        <ele>255.85</ele>
        <time>2015-07-18T09:19:06Z</time>
      </trkpt>
      <trkpt lat="43.13962" lon="2.25638">
        <ele>255.85</ele>
        <time>2015-07-18T09:19:07Z</time>
      </trkpt>
      <trkpt lat="43.13938" lon="2.2562">
        <ele>255.37</ele>
        <time>2015-07-18T09:19:11Z</time>
      </trkpt>
      <trkpt lat="43.13931" lon="2.25619">
        <ele>255.37</ele>
        <time>2015-07-18T09:19:12Z</time>
      </trkpt>
      <trkpt lat="43.13924" lon="2.25621">
        <ele>255.37</ele>
        <time>2015-07-18T09:19:13Z</time>
      </trkpt>
      <trkpt lat="43.13918" lon="2.25624">
        <ele>254.41</ele>
        <time>2015-07-18T09:19:14Z</time>
      </trkpt>
      <trkpt lat="43.13912" lon="2.25628">
        <ele>254.41</ele>
        <time>2015-07-18T09:19:15Z</time>
      </trkpt>
      <trkpt lat="43.13906" lon="2.25631">
        <ele>254.41</ele>
        <time>2015-07-18T09:19:16Z</time>
      </trkpt>
      <trkpt lat="43.1389" lon="2.25638">
        <ele>254.41</ele>
        <time>2015-07-18T09:19:19Z</time>
      </trkpt>
      <trkpt lat="43.13886" lon="2.2564">
        <ele>254.41</ele>
        <time>2015-07-18T09:19:20Z</time>
      </trkpt>
      <trkpt lat="43.13866" lon="2.25645">
        <ele>255.85</ele>
        <time>2015-07-18T09:19:25Z</time>
      </trkpt>
      <trkpt lat="43.13841" lon="2.25641">
        <ele>259.21</ele>
        <time>2015-07-18T09:19:34Z</time>
      </trkpt>
      <trkpt lat="43.1381" lon="2.25626">
        <ele>261.14</ele>
        <time>2015-07-18T09:19:47Z</time>
      </trkpt>
      <trkpt lat="43.1378" lon="2.25604">
        <ele>263.54</ele>
        <time>2015-07-18T09:20:00Z</time>
      </trkpt>
      <trkpt lat="43.13755" lon="2.25578">
        <ele>265.94</ele>
        <time>2015-07-18T09:20:13Z</time>
      </trkpt>
      <trkpt lat="43.13728" lon="2.25564">
        <ele>269.31</ele>
        <time>2015-07-18T09:20:26Z</time>
      </trkpt>
      <trkpt lat="43.13703" lon="2.25553">
        <ele>272.67</ele>
        <time>2015-07-18T09:20:38Z</time>
      </trkpt>
      <trkpt lat="43.13681" lon="2.25532">
        <ele>273.63</ele>
        <time>2015-07-18T09:20:51Z</time>
      </trkpt>
      <trkpt lat="43.13675" lon="2.25523">
        <ele>272.19</ele>
        <time>2015-07-18T09:20:54Z</time>
      </trkpt>
      <trkpt lat="43.13665" lon="2.25508">
        <ele>269.31</ele>
        <time>2015-07-18T09:20:58Z</time>
      </trkpt>
      <trkpt lat="43.13662" lon="2.25503">
        <ele>268.83</ele>
        <time>2015-07-18T09:20:59Z</time>
      </trkpt>
      <trkpt lat="43.13659" lon="2.25498">
        <ele>267.38</ele>
        <time>2015-07-18T09:21:00Z</time>
      </trkpt>
      <trkpt lat="43.13655" lon="2.25493">
        <ele>266.42</ele>
        <time>2015-07-18T09:21:01Z</time>
      </trkpt>
      <trkpt lat="43.13651" lon="2.25489">
        <ele>265.46</ele>
        <time>2015-07-18T09:21:02Z</time>
      </trkpt>
      <trkpt lat="43.13647" lon="2.25483">
        <ele>264.02</ele>
        <time>2015-07-18T09:21:03Z</time>
      </trkpt>
      <trkpt lat="43.13644" lon="2.25477">
        <ele>263.54</ele>
        <time>2015-07-18T09:21:04Z</time>
      </trkpt>
      <trkpt lat="43.13641" lon="2.25469">
        <ele>262.58</ele>
        <time>2015-07-18T09:21:05Z</time>
      </trkpt>
      <trkpt lat="43.13639" lon="2.25462">
        <ele>262.1</ele>
        <time>2015-07-18T09:21:06Z</time>
      </trkpt>
      <trkpt lat="43.13637" lon="2.25455">
        <ele>261.14</ele>
        <time>2015-07-18T09:21:07Z</time>
      </trkpt>
      <trkpt lat="43.13631" lon="2.25432">
        <ele>259.69</ele>
        <time>2015-07-18T09:21:10Z</time>
      </trkpt>
      <trkpt lat="43.13627" lon="2.2541">
        <ele>256.81</ele>
        <time>2015-07-18T09:21:13Z</time>
      </trkpt>
      <trkpt lat="43.13622" lon="2.2539">
        <ele>254.41</ele>
        <time>2015-07-18T09:21:16Z</time>
      </trkpt>
      <trkpt lat="43.13623" lon="2.25383">
        <ele>253.93</ele>
        <time>2015-07-18T09:21:17Z</time>
      </trkpt>
      <trkpt lat="43.13626" lon="2.25375">
        <ele>252.48</ele>
        <time>2015-07-18T09:21:18Z</time>
      </trkpt>
      <trkpt lat="43.13637" lon="2.25352">
        <ele>250.56</ele>
        <time>2015-07-18T09:21:21Z</time>
      </trkpt>
      <trkpt lat="43.13639" lon="2.25342">
        <ele>249.6</ele>
        <time>2015-07-18T09:21:22Z</time>
      </trkpt>
      <trkpt lat="43.13641" lon="2.25332">
        <ele>248.64</ele>
        <time>2015-07-18T09:21:23Z</time>
      </trkpt>
      <trkpt lat="43.13642" lon="2.25321">
        <ele>248.16</ele>
        <time>2015-07-18T09:21:24Z</time>
      </trkpt>
      <trkpt lat="43.13642" lon="2.25311">
        <ele>247.2</ele>
        <time>2015-07-18T09:21:25Z</time>
      </trkpt>
      <trkpt lat="43.13641" lon="2.25302">
        <ele>246.23</ele>
        <time>2015-07-18T09:21:26Z</time>
      </trkpt>
      <trkpt lat="43.13641" lon="2.25285">
        <ele>244.79</ele>
        <time>2015-07-18T09:21:28Z</time>
      </trkpt>
      <trkpt lat="43.13642" lon="2.25262">
        <ele>241.43</ele>
        <time>2015-07-18T09:21:31Z</time>
      </trkpt>
      <trkpt lat="43.13643" lon="2.25244">
        <ele>239.02</ele>
        <time>2015-07-18T09:21:33Z</time>
      </trkpt>
      <trkpt lat="43.13643" lon="2.25238">
        <ele>238.06</ele>
        <time>2015-07-18T09:21:34Z</time>
      </trkpt>
      <trkpt lat="43.13641" lon="2.25216">
        <ele>235.18</ele>
        <time>2015-07-18T09:21:37Z</time>
      </trkpt>
      <trkpt lat="43.13643" lon="2.25209">
        <ele>235.18</ele>
        <time>2015-07-18T09:21:38Z</time>
      </trkpt>
      <trkpt lat="43.13648" lon="2.25204">
        <ele>234.7</ele>
        <time>2015-07-18T09:21:39Z</time>
      </trkpt>
      <trkpt lat="43.13653" lon="2.25198">
        <ele>233.74</ele>
        <time>2015-07-18T09:21:40Z</time>
      </trkpt>
      <trkpt lat="43.13658" lon="2.25193">
        <ele>233.74</ele>
        <time>2015-07-18T09:21:41Z</time>
      </trkpt>
      <trkpt lat="43.13663" lon="2.25188">
        <ele>233.74</ele>
        <time>2015-07-18T09:21:42Z</time>
      </trkpt>
      <trkpt lat="43.13668" lon="2.25181">
        <ele>232.78</ele>
        <time>2015-07-18T09:21:43Z</time>
      </trkpt>
      <trkpt lat="43.13673" lon="2.25173">
        <ele>232.3</ele>
        <time>2015-07-18T09:21:44Z</time>
      </trkpt>
      <trkpt lat="43.13677" lon="2.25166">
        <ele>231.81</ele>
        <time>2015-07-18T09:21:45Z</time>
      </trkpt>
      <trkpt lat="43.13683" lon="2.25149">
        <ele>231.33</ele>
        <time>2015-07-18T09:21:47Z</time>
      </trkpt>
      <trkpt lat="43.13683" lon="2.2514">
        <ele>231.33</ele>
        <time>2015-07-18T09:21:48Z</time>
      </trkpt>
      <trkpt lat="43.13681" lon="2.25132">
        <ele>231.33</ele>
        <time>2015-07-18T09:21:49Z</time>
      </trkpt>
      <trkpt lat="43.13678" lon="2.25124">
        <ele>231.33</ele>
        <time>2015-07-18T09:21:50Z</time>
      </trkpt>
      <trkpt lat="43.13673" lon="2.2512">
        <ele>231.81</ele>
        <time>2015-07-18T09:21:51Z</time>
      </trkpt>
      <trkpt lat="43.13667" lon="2.25118">
        <ele>231.81</ele>
        <time>2015-07-18T09:21:52Z</time>
      </trkpt>
      <trkpt lat="43.13662" lon="2.25118">
        <ele>231.81</ele>
        <time>2015-07-18T09:21:53Z</time>
      </trkpt>
      <trkpt lat="43.13657" lon="2.25118">
        <ele>231.81</ele>
        <time>2015-07-18T09:21:54Z</time>
      </trkpt>
      <trkpt lat="43.13653" lon="2.25119">
        <ele>232.78</ele>
        <time>2015-07-18T09:21:55Z</time>
      </trkpt>
      <trkpt lat="43.13649" lon="2.25121">
        <ele>232.78</ele>
        <time>2015-07-18T09:21:56Z</time>
      </trkpt>
      <trkpt lat="43.13646" lon="2.25123">
        <ele>233.26</ele>
        <time>2015-07-18T09:21:57Z</time>
      </trkpt>
      <trkpt lat="43.13643" lon="2.25125">
        <ele>233.26</ele>
        <time>2015-07-18T09:21:58Z</time>
      </trkpt>
      <trkpt lat="43.13639" lon="2.25127">
        <ele>233.74</ele>
        <time>2015-07-18T09:21:59Z</time>
      </trkpt>
      <trkpt lat="43.1361" lon="2.25141">
        <ele>236.14</ele>
        <time>2015-07-18T09:22:09Z</time>
      </trkpt>
      <trkpt lat="43.13607" lon="2.25141">
        <ele>236.14</ele>
        <time>2015-07-18T09:22:10Z</time>
      </trkpt>
      <trkpt lat="43.13561" lon="2.2514">
        <ele>239.51</ele>
        <time>2015-07-18T09:22:26Z</time>
      </trkpt>
      <trkpt lat="43.13535" lon="2.2511">
        <ele>241.43</ele>
        <time>2015-07-18T09:22:38Z</time>
      </trkpt>
      <trkpt lat="43.13523" lon="2.25047">
        <ele>244.31</ele>
        <time>2015-07-18T09:22:54Z</time>
      </trkpt>
      <trkpt lat="43.13499" lon="2.25026">
        <ele>246.72</ele>
        <time>2015-07-18T09:23:04Z</time>
      </trkpt>
      <trkpt lat="43.13455" lon="2.25034">
        <ele>249.12</ele>
        <time>2015-07-18T09:23:18Z</time>
      </trkpt>
      <trkpt lat="43.1344" lon="2.25016">
        <ele>250.56</ele>
        <time>2015-07-18T09:23:25Z</time>
      </trkpt>
      <trkpt lat="43.13438" lon="2.25013">
        <ele>250.56</ele>
        <time>2015-07-18T09:23:26Z</time>
      </trkpt>
      <trkpt lat="43.13437" lon="2.2501">
        <ele>251.52</ele>
        <time>2015-07-18T09:23:27Z</time>
      </trkpt>
      <trkpt lat="43.13435" lon="2.25006">
        <ele>252</ele>
        <time>2015-07-18T09:23:28Z</time>
      </trkpt>
      <trkpt lat="43.13434" lon="2.25003">
        <ele>252</ele>
        <time>2015-07-18T09:23:29Z</time>
      </trkpt>
      <trkpt lat="43.13433" lon="2.25">
        <ele>252</ele>
        <time>2015-07-18T09:23:30Z</time>
      </trkpt>
      <trkpt lat="43.13432" lon="2.24996">
        <ele>252.96</ele>
        <time>2015-07-18T09:23:31Z</time>
      </trkpt>
      <trkpt lat="43.13411" lon="2.24967">
        <ele>255.85</ele>
        <time>2015-07-18T09:23:42Z</time>
      </trkpt>
      <trkpt lat="43.13391" lon="2.24934">
        <ele>259.21</ele>
        <time>2015-07-18T09:23:54Z</time>
      </trkpt>
      <trkpt lat="43.13391" lon="2.24891">
        <ele>261.14</ele>
        <time>2015-07-18T09:24:05Z</time>
      </trkpt>
      <trkpt lat="43.13405" lon="2.24844">
        <ele>262.58</ele>
        <time>2015-07-18T09:24:18Z</time>
      </trkpt>
      <trkpt lat="43.13418" lon="2.24797">
        <ele>264.02</ele>
        <time>2015-07-18T09:24:31Z</time>
      </trkpt>
      <trkpt lat="43.1342" lon="2.24772">
        <ele>264.02</ele>
        <time>2015-07-18T09:24:38Z</time>
      </trkpt>
      <trkpt lat="43.13419" lon="2.24751">
        <ele>262.1</ele>
        <time>2015-07-18T09:24:41Z</time>
      </trkpt>
      <trkpt lat="43.13414" lon="2.24724">
        <ele>259.69</ele>
        <time>2015-07-18T09:24:44Z</time>
      </trkpt>
      <trkpt lat="43.1341" lon="2.24714">
        <ele>257.77</ele>
        <time>2015-07-18T09:24:45Z</time>
      </trkpt>
      <trkpt lat="43.13406" lon="2.24705">
        <ele>257.29</ele>
        <time>2015-07-18T09:24:46Z</time>
      </trkpt>
      <trkpt lat="43.134" lon="2.24696">
        <ele>255.85</ele>
        <time>2015-07-18T09:24:47Z</time>
      </trkpt>
      <trkpt lat="43.13394" lon="2.24689">
        <ele>254.89</ele>
        <time>2015-07-18T09:24:48Z</time>
      </trkpt>
      <trkpt lat="43.13386" lon="2.24683">
        <ele>253.44</ele>
        <time>2015-07-18T09:24:49Z</time>
      </trkpt>
      <trkpt lat="43.13376" lon="2.2468">
        <ele>252.48</ele>
        <time>2015-07-18T09:24:50Z</time>
      </trkpt>
      <trkpt lat="43.13367" lon="2.24679">
        <ele>251.04</ele>
        <time>2015-07-18T09:24:51Z</time>
      </trkpt>
      <trkpt lat="43.13357" lon="2.24678">
        <ele>249.12</ele>
        <time>2015-07-18T09:24:52Z</time>
      </trkpt>
      <trkpt lat="43.13335" lon="2.24674">
        <ele>247.68</ele>
        <time>2015-07-18T09:24:54Z</time>
      </trkpt>
      <trkpt lat="43.13324" lon="2.2467">
        <ele>246.23</ele>
        <time>2015-07-18T09:24:55Z</time>
      </trkpt>
      <trkpt lat="43.13313" lon="2.24664">
        <ele>245.75</ele>
        <time>2015-07-18T09:24:56Z</time>
      </trkpt>
      <trkpt lat="43.13303" lon="2.24655">
        <ele>244.79</ele>
        <time>2015-07-18T09:24:57Z</time>
      </trkpt>
      <trkpt lat="43.13294" lon="2.24645">
        <ele>243.35</ele>
        <time>2015-07-18T09:24:58Z</time>
      </trkpt>
      <trkpt lat="43.13284" lon="2.24634">
        <ele>241.91</ele>
        <time>2015-07-18T09:24:59Z</time>
      </trkpt>
      <trkpt lat="43.13276" lon="2.24625">
        <ele>241.91</ele>
        <time>2015-07-18T09:25:00Z</time>
      </trkpt>
      <trkpt lat="43.13267" lon="2.24618">
        <ele>241.91</ele>
        <time>2015-07-18T09:25:01Z</time>
      </trkpt>
      <trkpt lat="43.13258" lon="2.24613">
        <ele>241.43</ele>
        <time>2015-07-18T09:25:02Z</time>
      </trkpt>
      <trkpt lat="43.13248" lon="2.2461">
        <ele>240.95</ele>
        <time>2015-07-18T09:25:03Z</time>
      </trkpt>
      <trkpt lat="43.13238" lon="2.24608">
        <ele>239.99</ele>
        <time>2015-07-18T09:25:04Z</time>
      </trkpt>
      <trkpt lat="43.13228" lon="2.24603">
        <ele>238.54</ele>
        <time>2015-07-18T09:25:05Z</time>
      </trkpt>
      <trkpt lat="43.13221" lon="2.24595">
        <ele>236.62</ele>
        <time>2015-07-18T09:25:06Z</time>
      </trkpt>
      <trkpt lat="43.13216" lon="2.24585">
        <ele>236.62</ele>
        <time>2015-07-18T09:25:07Z</time>
      </trkpt>
      <trkpt lat="43.13209" lon="2.24578">
        <ele>235.66</ele>
        <time>2015-07-18T09:25:08Z</time>
      </trkpt>
      <trkpt lat="43.13199" lon="2.24575">
        <ele>234.7</ele>
        <time>2015-07-18T09:25:09Z</time>
      </trkpt>
      <trkpt lat="43.13189" lon="2.24576">
        <ele>233.26</ele>
        <time>2015-07-18T09:25:10Z</time>
      </trkpt>
      <trkpt lat="43.13178" lon="2.24577">
        <ele>232.3</ele>
        <time>2015-07-18T09:25:11Z</time>
      </trkpt>
      <trkpt lat="43.13167" lon="2.24574">
        <ele>229.89</ele>
        <time>2015-07-18T09:25:12Z</time>
      </trkpt>
      <trkpt lat="43.13156" lon="2.24568">
        <ele>228.45</ele>
        <time>2015-07-18T09:25:13Z</time>
      </trkpt>
      <trkpt lat="43.13146" lon="2.24562">
        <ele>227.49</ele>
        <time>2015-07-18T09:25:14Z</time>
      </trkpt>
      <trkpt lat="43.13136" lon="2.24558">
        <ele>226.05</ele>
        <time>2015-07-18T09:25:15Z</time>
      </trkpt>
      <trkpt lat="43.13125" lon="2.24557">
        <ele>225.09</ele>
        <time>2015-07-18T09:25:16Z</time>
      </trkpt>
      <trkpt lat="43.13115" lon="2.24559">
        <ele>223.64</ele>
        <time>2015-07-18T09:25:17Z</time>
      </trkpt>
      <trkpt lat="43.13106" lon="2.24563">
        <ele>222.68</ele>
        <time>2015-07-18T09:25:18Z</time>
      </trkpt>
      <trkpt lat="43.13099" lon="2.2457">
        <ele>221.72</ele>
        <time>2015-07-18T09:25:19Z</time>
      </trkpt>
      <trkpt lat="43.13093" lon="2.24579">
        <ele>220.28</ele>
        <time>2015-07-18T09:25:20Z</time>
      </trkpt>
      <trkpt lat="43.13089" lon="2.24591">
        <ele>218.84</ele>
        <time>2015-07-18T09:25:21Z</time>
      </trkpt>
      <trkpt lat="43.13085" lon="2.24601">
        <ele>218.84</ele>
        <time>2015-07-18T09:25:22Z</time>
      </trkpt>
      <trkpt lat="43.13081" lon="2.24609">
        <ele>217.88</ele>
        <time>2015-07-18T09:25:23Z</time>
      </trkpt>
      <trkpt lat="43.13075" lon="2.24613">
        <ele>217.4</ele>
        <time>2015-07-18T09:25:24Z</time>
      </trkpt>
      <trkpt lat="43.13069" lon="2.2461">
        <ele>216.91</ele>
        <time>2015-07-18T09:25:25Z</time>
      </trkpt>
      <trkpt lat="43.13066" lon="2.24604">
        <ele>217.4</ele>
        <time>2015-07-18T09:25:26Z</time>
      </trkpt>
      <trkpt lat="43.13064" lon="2.24594">
        <ele>216.43</ele>
        <time>2015-07-18T09:25:27Z</time>
      </trkpt>
      <trkpt lat="43.13063" lon="2.24584">
        <ele>215.47</ele>
        <time>2015-07-18T09:25:28Z</time>
      </trkpt>
      <trkpt lat="43.13062" lon="2.24573">
        <ele>214.03</ele>
        <time>2015-07-18T09:25:29Z</time>
      </trkpt>
      <trkpt lat="43.13061" lon="2.24562">
        <ele>213.07</ele>
        <time>2015-07-18T09:25:30Z</time>
      </trkpt>
      <trkpt lat="43.13062" lon="2.24552">
        <ele>212.59</ele>
        <time>2015-07-18T09:25:31Z</time>
      </trkpt>
      <trkpt lat="43.13064" lon="2.24542">
        <ele>211.63</ele>
        <time>2015-07-18T09:25:32Z</time>
      </trkpt>
      <trkpt lat="43.13067" lon="2.24533">
        <ele>210.67</ele>
        <time>2015-07-18T09:25:33Z</time>
      </trkpt>
      <trkpt lat="43.1307" lon="2.24525">
        <ele>210.19</ele>
        <time>2015-07-18T09:25:34Z</time>
      </trkpt>
      <trkpt lat="43.13072" lon="2.24518">
        <ele>209.7</ele>
        <time>2015-07-18T09:25:35Z</time>
      </trkpt>
      <trkpt lat="43.13073" lon="2.2451">
        <ele>208.74</ele>
        <time>2015-07-18T09:25:36Z</time>
      </trkpt>
      <trkpt lat="43.13071" lon="2.24502">
        <ele>207.78</ele>
        <time>2015-07-18T09:25:37Z</time>
      </trkpt>
      <trkpt lat="43.13067" lon="2.24494">
        <ele>206.34</ele>
        <time>2015-07-18T09:25:38Z</time>
      </trkpt>
      <trkpt lat="43.13061" lon="2.24486">
        <ele>205.86</ele>
        <time>2015-07-18T09:25:39Z</time>
      </trkpt>
      <trkpt lat="43.13057" lon="2.24478">
        <ele>205.38</ele>
        <time>2015-07-18T09:25:40Z</time>
      </trkpt>
      <trkpt lat="43.13053" lon="2.24469">
        <ele>204.42</ele>
        <time>2015-07-18T09:25:41Z</time>
      </trkpt>
      <trkpt lat="43.1305" lon="2.24459">
        <ele>203.94</ele>
        <time>2015-07-18T09:25:42Z</time>
      </trkpt>
      <trkpt lat="43.13048" lon="2.24449">
        <ele>202.98</ele>
        <time>2015-07-18T09:25:43Z</time>
      </trkpt>
      <trkpt lat="43.13046" lon="2.2444">
        <ele>202.01</ele>
        <time>2015-07-18T09:25:44Z</time>
      </trkpt>
      <trkpt lat="43.13043" lon="2.24434">
        <ele>202.01</ele>
        <time>2015-07-18T09:25:45Z</time>
      </trkpt>
      <trkpt lat="43.13038" lon="2.24424">
        <ele>202.01</ele>
        <time>2015-07-18T09:25:47Z</time>
      </trkpt>
      <trkpt lat="43.13037" lon="2.24419">
        <ele>201.53</ele>
        <time>2015-07-18T09:25:48Z</time>
      </trkpt>
      <trkpt lat="43.13035" lon="2.24414">
        <ele>201.53</ele>
        <time>2015-07-18T09:25:49Z</time>
      </trkpt>
      <trkpt lat="43.13034" lon="2.24408">
        <ele>201.53</ele>
        <time>2015-07-18T09:25:50Z</time>
      </trkpt>
      <trkpt lat="43.13032" lon="2.24403">
        <ele>201.05</ele>
        <time>2015-07-18T09:25:51Z</time>
      </trkpt>
      <trkpt lat="43.1303" lon="2.244">
        <ele>201.05</ele>
        <time>2015-07-18T09:25:52Z</time>
      </trkpt>
      <trkpt lat="43.13027" lon="2.24399">
        <ele>200.09</ele>
        <time>2015-07-18T09:25:53Z</time>
      </trkpt>
      <trkpt lat="43.13024" lon="2.244">
        <ele>199.61</ele>
        <time>2015-07-18T09:25:54Z</time>
      </trkpt>
      <trkpt lat="43.13021" lon="2.24404">
        <ele>199.61</ele>
        <time>2015-07-18T09:25:55Z</time>
      </trkpt>
      <trkpt lat="43.1302" lon="2.24409">
        <ele>199.61</ele>
        <time>2015-07-18T09:25:56Z</time>
      </trkpt>
      <trkpt lat="43.1302" lon="2.24415">
        <ele>199.61</ele>
        <time>2015-07-18T09:25:57Z</time>
      </trkpt>
      <trkpt lat="43.13021" lon="2.2442">
        <ele>200.09</ele>
        <time>2015-07-18T09:25:58Z</time>
      </trkpt>
      <trkpt lat="43.13022" lon="2.24428">
        <ele>201.53</ele>
        <time>2015-07-18T09:26:00Z</time>
      </trkpt>
      <trkpt lat="43.13023" lon="2.24437">
        <ele>202.49</ele>
        <time>2015-07-18T09:26:02Z</time>
      </trkpt>
      <trkpt lat="43.13013" lon="2.24481">
        <ele>204.42</ele>
        <time>2015-07-18T09:26:15Z</time>
      </trkpt>
      <trkpt lat="43.12996" lon="2.24498">
        <ele>207.78</ele>
        <time>2015-07-18T09:26:24Z</time>
      </trkpt>
      <trkpt lat="43.12978" lon="2.2451">
        <ele>210.19</ele>
        <time>2015-07-18T09:26:34Z</time>
      </trkpt>
      <trkpt lat="43.12957" lon="2.24535">
        <ele>212.11</ele>
        <time>2015-07-18T09:26:47Z</time>
      </trkpt>
      <trkpt lat="43.1295" lon="2.24552">
        <ele>212.11</ele>
        <time>2015-07-18T09:26:52Z</time>
      </trkpt>
      <trkpt lat="43.12948" lon="2.24558">
        <ele>212.11</ele>
        <time>2015-07-18T09:26:53Z</time>
      </trkpt>
      <trkpt lat="43.12946" lon="2.24563">
        <ele>210.67</ele>
        <time>2015-07-18T09:26:54Z</time>
      </trkpt>
      <trkpt lat="43.12943" lon="2.24569">
        <ele>210.67</ele>
        <time>2015-07-18T09:26:55Z</time>
      </trkpt>
      <trkpt lat="43.1293" lon="2.24595">
        <ele>210.67</ele>
        <time>2015-07-18T09:27:02Z</time>
      </trkpt>
      <trkpt lat="43.12929" lon="2.24597">
        <ele>212.11</ele>
        <time>2015-07-18T09:27:04Z</time>
      </trkpt>
      <trkpt lat="43.12931" lon="2.24599">
        <ele>211.63</ele>
        <time>2015-07-18T09:27:20Z</time>
      </trkpt>
      <trkpt lat="43.12934" lon="2.24594">
        <ele>211.63</ele>
        <time>2015-07-18T09:27:59Z</time>
      </trkpt>
      <trkpt lat="43.12932" lon="2.24595">
        <ele>211.63</ele>
        <time>2015-07-18T09:28:33Z</time>
      </trkpt>
      <trkpt lat="43.12933" lon="2.24598">
        <ele>212.11</ele>
        <time>2015-07-18T09:28:56Z</time>
      </trkpt>
      <trkpt lat="43.1293" lon="2.24598">
        <ele>212.11</ele>
        <time>2015-07-18T09:29:09Z</time>
      </trkpt>
      <trkpt lat="43.12929" lon="2.24598">
        <ele>212.11</ele>
        <time>2015-07-18T09:29:10Z</time>
      </trkpt>
      <trkpt lat="43.12927" lon="2.24598">
        <ele>212.11</ele>
        <time>2015-07-18T09:29:11Z</time>
      </trkpt>
      <trkpt lat="43.12925" lon="2.24599">
        <ele>212.11</ele>
        <time>2015-07-18T09:29:12Z</time>
      </trkpt>
      <trkpt lat="43.12924" lon="2.246">
        <ele>212.11</ele>
        <time>2015-07-18T09:29:13Z</time>
      </trkpt>
      <trkpt lat="43.12905" lon="2.24604">
        <ele>214.99</ele>
        <time>2015-07-18T09:29:24Z</time>
      </trkpt>
      <trkpt lat="43.12903" lon="2.24603">
        <ele>215.47</ele>
        <time>2015-07-18T09:29:25Z</time>
      </trkpt>
      <trkpt lat="43.12902" lon="2.24603">
        <ele>215.47</ele>
        <time>2015-07-18T09:29:26Z</time>
      </trkpt>
      <trkpt lat="43.129" lon="2.24603">
        <ele>215.47</ele>
        <time>2015-07-18T09:29:27Z</time>
      </trkpt>
      <trkpt lat="43.12898" lon="2.24603">
        <ele>215.95</ele>
        <time>2015-07-18T09:29:28Z</time>
      </trkpt>
      <trkpt lat="43.12896" lon="2.24602">
        <ele>215.95</ele>
        <time>2015-07-18T09:29:29Z</time>
      </trkpt>
      <trkpt lat="43.12895" lon="2.24602">
        <ele>216.43</ele>
        <time>2015-07-18T09:29:30Z</time>
      </trkpt>
      <trkpt lat="43.12893" lon="2.24602">
        <ele>216.43</ele>
        <time>2015-07-18T09:29:31Z</time>
      </trkpt>
      <trkpt lat="43.12891" lon="2.24602">
        <ele>217.4</ele>
        <time>2015-07-18T09:29:32Z</time>
      </trkpt>
      <trkpt lat="43.12889" lon="2.24601">
        <ele>217.88</ele>
        <time>2015-07-18T09:29:33Z</time>
      </trkpt>
      <trkpt lat="43.12888" lon="2.24601">
        <ele>218.36</ele>
        <time>2015-07-18T09:29:34Z</time>
      </trkpt>
      <trkpt lat="43.12886" lon="2.246">
        <ele>218.36</ele>
        <time>2015-07-18T09:29:35Z</time>
      </trkpt>
      <trkpt lat="43.12885" lon="2.24599">
        <ele>218.84</ele>
        <time>2015-07-18T09:29:36Z</time>
      </trkpt>
      <trkpt lat="43.12882" lon="2.24598">
        <ele>219.8</ele>
        <time>2015-07-18T09:29:38Z</time>
      </trkpt>
      <trkpt lat="43.1288" lon="2.24597">
        <ele>219.8</ele>
        <time>2015-07-18T09:29:39Z</time>
      </trkpt>
      <trkpt lat="43.12879" lon="2.24597">
        <ele>220.28</ele>
        <time>2015-07-18T09:29:40Z</time>
      </trkpt>
      <trkpt lat="43.12878" lon="2.24596">
        <ele>220.28</ele>
        <time>2015-07-18T09:29:41Z</time>
      </trkpt>
      <trkpt lat="43.12877" lon="2.24595">
        <ele>220.76</ele>
        <time>2015-07-18T09:29:42Z</time>
      </trkpt>
      <trkpt lat="43.12875" lon="2.24595">
        <ele>220.76</ele>
        <time>2015-07-18T09:29:43Z</time>
      </trkpt>
      <trkpt lat="43.12874" lon="2.24595">
        <ele>221.72</ele>
        <time>2015-07-18T09:29:44Z</time>
      </trkpt>
      <trkpt lat="43.12865" lon="2.24595">
        <ele>223.64</ele>
        <time>2015-07-18T09:29:50Z</time>
      </trkpt>
      <trkpt lat="43.12863" lon="2.24597">
        <ele>223.64</ele>
        <time>2015-07-18T09:29:51Z</time>
      </trkpt>
      <trkpt lat="43.12862" lon="2.24598">
        <ele>223.64</ele>
        <time>2015-07-18T09:29:52Z</time>
      </trkpt>
      <trkpt lat="43.12857" lon="2.246">
        <ele>224.61</ele>
        <time>2015-07-18T09:29:56Z</time>
      </trkpt>
      <trkpt lat="43.12855" lon="2.24599">
        <ele>225.09</ele>
        <time>2015-07-18T09:29:57Z</time>
      </trkpt>
      <trkpt lat="43.12854" lon="2.24599">
        <ele>225.09</ele>
        <time>2015-07-18T09:29:58Z</time>
      </trkpt>
      <trkpt lat="43.12852" lon="2.24598">
        <ele>225.09</ele>
        <time>2015-07-18T09:29:59Z</time>
      </trkpt>
      <trkpt lat="43.12851" lon="2.24598">
        <ele>226.05</ele>
        <time>2015-07-18T09:30:00Z</time>
      </trkpt>
      <trkpt lat="43.12849" lon="2.24597">
        <ele>226.05</ele>
        <time>2015-07-18T09:30:01Z</time>
      </trkpt>
      <trkpt lat="43.12848" lon="2.24597">
        <ele>226.53</ele>
        <time>2015-07-18T09:30:02Z</time>
      </trkpt>
      <trkpt lat="43.12847" lon="2.24596">
        <ele>226.53</ele>
        <time>2015-07-18T09:30:03Z</time>
      </trkpt>
      <trkpt lat="43.12831" lon="2.24588">
        <ele>229.89</ele>
        <time>2015-07-18T09:30:14Z</time>
      </trkpt>
      <trkpt lat="43.12814" lon="2.24586">
        <ele>233.26</ele>
        <time>2015-07-18T09:30:26Z</time>
      </trkpt>
      <trkpt lat="43.12795" lon="2.24582">
        <ele>235.66</ele>
        <time>2015-07-18T09:30:40Z</time>
      </trkpt>
      <trkpt lat="43.12779" lon="2.24572">
        <ele>237.58</ele>
        <time>2015-07-18T09:30:53Z</time>
      </trkpt>
      <trkpt lat="43.12759" lon="2.2457">
        <ele>239.99</ele>
        <time>2015-07-18T09:31:07Z</time>
      </trkpt>
      <trkpt lat="43.1274" lon="2.24576">
        <ele>242.39</ele>
        <time>2015-07-18T09:31:20Z</time>
      </trkpt>
      <trkpt lat="43.12739" lon="2.24577">
        <ele>243.35</ele>
        <time>2015-07-18T09:31:21Z</time>
      </trkpt>
      <trkpt lat="43.12738" lon="2.24578">
        <ele>243.35</ele>
        <time>2015-07-18T09:31:22Z</time>
      </trkpt>
      <trkpt lat="43.12732" lon="2.24581">
        <ele>244.31</ele>
        <time>2015-07-18T09:31:26Z</time>
      </trkpt>
      <trkpt lat="43.12731" lon="2.24582">
        <ele>244.31</ele>
        <time>2015-07-18T09:31:27Z</time>
      </trkpt>
      <trkpt lat="43.12706" lon="2.24597">
        <ele>247.2</ele>
        <time>2015-07-18T09:31:43Z</time>
      </trkpt>
      <trkpt lat="43.12686" lon="2.24605">
        <ele>249.6</ele>
        <time>2015-07-18T09:31:56Z</time>
      </trkpt>
      <trkpt lat="43.12658" lon="2.24618">
        <ele>252</ele>
        <time>2015-07-18T09:32:13Z</time>
      </trkpt>
      <trkpt lat="43.12636" lon="2.24636">
        <ele>254.89</ele>
        <time>2015-07-18T09:32:29Z</time>
      </trkpt>
      <trkpt lat="43.1263" lon="2.24643">
        <ele>256.33</ele>
        <time>2015-07-18T09:32:35Z</time>
      </trkpt>
      <trkpt lat="43.12629" lon="2.24645">
        <ele>256.81</ele>
        <time>2015-07-18T09:32:36Z</time>
      </trkpt>
      <trkpt lat="43.12628" lon="2.24646">
        <ele>257.29</ele>
        <time>2015-07-18T09:32:37Z</time>
      </trkpt>
      <trkpt lat="43.12623" lon="2.24652">
        <ele>258.73</ele>
        <time>2015-07-18T09:32:41Z</time>
      </trkpt>
      <trkpt lat="43.12615" lon="2.24659">
        <ele>260.17</ele>
        <time>2015-07-18T09:32:47Z</time>
      </trkpt>
      <trkpt lat="43.12585" lon="2.24671">
        <ele>262.58</ele>
        <time>2015-07-18T09:33:04Z</time>
      </trkpt>
      <trkpt lat="43.12564" lon="2.24678">
        <ele>265.46</ele>
        <time>2015-07-18T09:33:15Z</time>
      </trkpt>
      <trkpt lat="43.12543" lon="2.24681">
        <ele>269.31</ele>
        <time>2015-07-18T09:33:28Z</time>
      </trkpt>
      <trkpt lat="43.12533" lon="2.24677">
        <ele>271.23</ele>
        <time>2015-07-18T09:33:35Z</time>
      </trkpt>
      <trkpt lat="43.12526" lon="2.24641">
        <ele>274.59</ele>
        <time>2015-07-18T09:33:52Z</time>
      </trkpt>
      <trkpt lat="43.12524" lon="2.24632">
        <ele>275.56</ele>
        <time>2015-07-18T09:33:56Z</time>
      </trkpt>
      <trkpt lat="43.12523" lon="2.2463">
        <ele>276.04</ele>
        <time>2015-07-18T09:33:57Z</time>
      </trkpt>
      <trkpt lat="43.12522" lon="2.24619">
        <ele>277.48</ele>
        <time>2015-07-18T09:34:02Z</time>
      </trkpt>
      <trkpt lat="43.12521" lon="2.24616">
        <ele>277.48</ele>
        <time>2015-07-18T09:34:03Z</time>
      </trkpt>
      <trkpt lat="43.12521" lon="2.24615">
        <ele>278.44</ele>
        <time>2015-07-18T09:34:04Z</time>
      </trkpt>
      <trkpt lat="43.1252" lon="2.24612">
        <ele>278.92</ele>
        <time>2015-07-18T09:34:05Z</time>
      </trkpt>
      <trkpt lat="43.1252" lon="2.2461">
        <ele>278.92</ele>
        <time>2015-07-18T09:34:06Z</time>
      </trkpt>
      <trkpt lat="43.12515" lon="2.24587">
        <ele>282.28</ele>
        <time>2015-07-18T09:34:16Z</time>
      </trkpt>
      <trkpt lat="43.1251" lon="2.24567">
        <ele>285.65</ele>
        <time>2015-07-18T09:34:25Z</time>
      </trkpt>
      <trkpt lat="43.12507" lon="2.24558">
        <ele>287.57</ele>
        <time>2015-07-18T09:34:30Z</time>
      </trkpt>
      <trkpt lat="43.12506" lon="2.24556">
        <ele>288.05</ele>
        <time>2015-07-18T09:34:31Z</time>
      </trkpt>
      <trkpt lat="43.12505" lon="2.24554">
        <ele>288.05</ele>
        <time>2015-07-18T09:34:32Z</time>
      </trkpt>
      <trkpt lat="43.12505" lon="2.24553">
        <ele>288.53</ele>
        <time>2015-07-18T09:34:33Z</time>
      </trkpt>
      <trkpt lat="43.12504" lon="2.24551">
        <ele>288.53</ele>
        <time>2015-07-18T09:34:34Z</time>
      </trkpt>
      <trkpt lat="43.12503" lon="2.24549">
        <ele>289.49</ele>
        <time>2015-07-18T09:34:35Z</time>
      </trkpt>
      <trkpt lat="43.12503" lon="2.24547">
        <ele>289.49</ele>
        <time>2015-07-18T09:34:36Z</time>
      </trkpt>
      <trkpt lat="43.12502" lon="2.24545">
        <ele>289.97</ele>
        <time>2015-07-18T09:34:37Z</time>
      </trkpt>
      <trkpt lat="43.125" lon="2.24536">
        <ele>290.94</ele>
        <time>2015-07-18T09:34:42Z</time>
      </trkpt>
      <trkpt lat="43.12499" lon="2.24534">
        <ele>291.42</ele>
        <time>2015-07-18T09:34:43Z</time>
      </trkpt>
      <trkpt lat="43.12498" lon="2.24533">
        <ele>291.9</ele>
        <time>2015-07-18T09:34:44Z</time>
      </trkpt>
      <trkpt lat="43.12497" lon="2.24531">
        <ele>291.9</ele>
        <time>2015-07-18T09:34:45Z</time>
      </trkpt>
      <trkpt lat="43.12496" lon="2.2453">
        <ele>291.9</ele>
        <time>2015-07-18T09:34:46Z</time>
      </trkpt>
      <trkpt lat="43.12494" lon="2.24528">
        <ele>291.9</ele>
        <time>2015-07-18T09:34:47Z</time>
      </trkpt>
      <trkpt lat="43.12493" lon="2.24526">
        <ele>292.38</ele>
        <time>2015-07-18T09:34:48Z</time>
      </trkpt>
      <trkpt lat="43.12479" lon="2.245">
        <ele>295.26</ele>
        <time>2015-07-18T09:35:02Z</time>
      </trkpt>
      <trkpt lat="43.12469" lon="2.24474">
        <ele>296.7</ele>
        <time>2015-07-18T09:35:17Z</time>
      </trkpt>
      <trkpt lat="43.12459" lon="2.24449">
        <ele>298.15</ele>
        <time>2015-07-18T09:35:30Z</time>
      </trkpt>
      <trkpt lat="43.1245" lon="2.24434">
        <ele>301.51</ele>
        <time>2015-07-18T09:35:39Z</time>
      </trkpt>
      <trkpt lat="43.12429" lon="2.24412">
        <ele>303.91</ele>
        <time>2015-07-18T09:35:53Z</time>
      </trkpt>
      <trkpt lat="43.12389" lon="2.24365">
        <ele>304.88</ele>
        <time>2015-07-18T09:36:11Z</time>
      </trkpt>
      <trkpt lat="43.12366" lon="2.24321">
        <ele>303.43</ele>
        <time>2015-07-18T09:36:21Z</time>
      </trkpt>
      <trkpt lat="43.12363" lon="2.24316">
        <ele>303.43</ele>
        <time>2015-07-18T09:36:22Z</time>
      </trkpt>
      <trkpt lat="43.12347" lon="2.243">
        <ele>304.88</ele>
        <time>2015-07-18T09:36:29Z</time>
      </trkpt>
      <trkpt lat="43.12345" lon="2.24299">
        <ele>304.88</ele>
        <time>2015-07-18T09:36:30Z</time>
      </trkpt>
      <trkpt lat="43.12345" lon="2.24296">
        <ele>305.36</ele>
        <time>2015-07-18T09:36:31Z</time>
      </trkpt>
      <trkpt lat="43.12344" lon="2.24293">
        <ele>305.36</ele>
        <time>2015-07-18T09:36:32Z</time>
      </trkpt>
      <trkpt lat="43.12343" lon="2.2429">
        <ele>305.84</ele>
        <time>2015-07-18T09:36:33Z</time>
      </trkpt>
      <trkpt lat="43.12342" lon="2.24288">
        <ele>305.84</ele>
        <time>2015-07-18T09:36:34Z</time>
      </trkpt>
      <trkpt lat="43.12342" lon="2.24285">
        <ele>306.32</ele>
        <time>2015-07-18T09:36:35Z</time>
      </trkpt>
      <trkpt lat="43.12342" lon="2.24282">
        <ele>306.32</ele>
        <time>2015-07-18T09:36:36Z</time>
      </trkpt>
      <trkpt lat="43.12341" lon="2.24279">
        <ele>306.8</ele>
        <time>2015-07-18T09:36:37Z</time>
      </trkpt>
      <trkpt lat="43.12319" lon="2.24246">
        <ele>309.2</ele>
        <time>2015-07-18T09:36:52Z</time>
      </trkpt>
      <trkpt lat="43.12297" lon="2.24256">
        <ele>310.64</ele>
        <time>2015-07-18T09:37:02Z</time>
      </trkpt>
      <trkpt lat="43.12296" lon="2.24259">
        <ele>310.64</ele>
        <time>2015-07-18T09:37:03Z</time>
      </trkpt>
      <trkpt lat="43.12295" lon="2.24262">
        <ele>311.12</ele>
        <time>2015-07-18T09:37:04Z</time>
      </trkpt>
      <trkpt lat="43.12295" lon="2.24265">
        <ele>311.12</ele>
        <time>2015-07-18T09:37:05Z</time>
      </trkpt>
      <trkpt lat="43.12295" lon="2.24268">
        <ele>311.6</ele>
        <time>2015-07-18T09:37:06Z</time>
      </trkpt>
      <trkpt lat="43.12296" lon="2.24271">
        <ele>311.6</ele>
        <time>2015-07-18T09:37:07Z</time>
      </trkpt>
      <trkpt lat="43.12296" lon="2.24274">
        <ele>311.6</ele>
        <time>2015-07-18T09:37:08Z</time>
      </trkpt>
      <trkpt lat="43.12296" lon="2.24278">
        <ele>312.09</ele>
        <time>2015-07-18T09:37:09Z</time>
      </trkpt>
      <trkpt lat="43.12295" lon="2.24282">
        <ele>312.09</ele>
        <time>2015-07-18T09:37:10Z</time>
      </trkpt>
      <trkpt lat="43.12294" lon="2.24284">
        <ele>312.09</ele>
        <time>2015-07-18T09:37:11Z</time>
      </trkpt>
      <trkpt lat="43.12292" lon="2.24287">
        <ele>312.09</ele>
        <time>2015-07-18T09:37:12Z</time>
      </trkpt>
      <trkpt lat="43.12289" lon="2.24289">
        <ele>312.09</ele>
        <time>2015-07-18T09:37:13Z</time>
      </trkpt>
      <trkpt lat="43.12279" lon="2.24294">
        <ele>312.57</ele>
        <time>2015-07-18T09:37:17Z</time>
      </trkpt>
      <trkpt lat="43.12277" lon="2.24293">
        <ele>313.05</ele>
        <time>2015-07-18T09:37:18Z</time>
      </trkpt>
      <trkpt lat="43.12276" lon="2.24291">
        <ele>313.05</ele>
        <time>2015-07-18T09:37:19Z</time>
      </trkpt>
      <trkpt lat="43.12274" lon="2.24289">
        <ele>313.53</ele>
        <time>2015-07-18T09:37:20Z</time>
      </trkpt>
      <trkpt lat="43.12273" lon="2.24287">
        <ele>313.53</ele>
        <time>2015-07-18T09:37:21Z</time>
      </trkpt>
      <trkpt lat="43.12272" lon="2.24284">
        <ele>313.53</ele>
        <time>2015-07-18T09:37:22Z</time>
      </trkpt>
      <trkpt lat="43.1227" lon="2.24282">
        <ele>313.53</ele>
        <time>2015-07-18T09:37:23Z</time>
      </trkpt>
      <trkpt lat="43.12269" lon="2.2428">
        <ele>313.53</ele>
        <time>2015-07-18T09:37:24Z</time>
      </trkpt>
      <trkpt lat="43.12249" lon="2.24256">
        <ele>315.93</ele>
        <time>2015-07-18T09:37:36Z</time>
      </trkpt>
      <trkpt lat="43.12218" lon="2.24252">
        <ele>319.3</ele>
        <time>2015-07-18T09:37:48Z</time>
      </trkpt>
      <trkpt lat="43.12189" lon="2.24266">
        <ele>320.74</ele>
        <time>2015-07-18T09:38:01Z</time>
      </trkpt>
      <trkpt lat="43.12156" lon="2.24271">
        <ele>322.18</ele>
        <time>2015-07-18T09:38:13Z</time>
      </trkpt>
      <trkpt lat="43.12136" lon="2.24261">
        <ele>325.54</ele>
        <time>2015-07-18T09:38:22Z</time>
      </trkpt>
      <trkpt lat="43.12121" lon="2.24257">
        <ele>327.47</ele>
        <time>2015-07-18T09:38:35Z</time>
      </trkpt>
      <trkpt lat="43.12121" lon="2.2426">
        <ele>327.47</ele>
        <time>2015-07-18T09:38:43Z</time>
      </trkpt>
      <trkpt lat="43.12122" lon="2.24262">
        <ele>327.47</ele>
        <time>2015-07-18T09:38:44Z</time>
      </trkpt>
      <trkpt lat="43.12123" lon="2.24264">
        <ele>327.47</ele>
        <time>2015-07-18T09:38:45Z</time>
      </trkpt>
      <trkpt lat="43.12123" lon="2.24267">
        <ele>327.47</ele>
        <time>2015-07-18T09:38:46Z</time>
      </trkpt>
      <trkpt lat="43.12123" lon="2.24269">
        <ele>327.47</ele>
        <time>2015-07-18T09:38:47Z</time>
      </trkpt>
      <trkpt lat="43.12123" lon="2.24272">
        <ele>327.47</ele>
        <time>2015-07-18T09:38:48Z</time>
      </trkpt>
      <trkpt lat="43.12122" lon="2.24275">
        <ele>327.47</ele>
        <time>2015-07-18T09:38:49Z</time>
      </trkpt>
      <trkpt lat="43.12121" lon="2.24278">
        <ele>327.47</ele>
        <time>2015-07-18T09:38:50Z</time>
      </trkpt>
      <trkpt lat="43.1212" lon="2.24281">
        <ele>327.47</ele>
        <time>2015-07-18T09:38:51Z</time>
      </trkpt>
      <trkpt lat="43.12119" lon="2.24284">
        <ele>328.43</ele>
        <time>2015-07-18T09:38:52Z</time>
      </trkpt>
      <trkpt lat="43.12118" lon="2.24287">
        <ele>328.43</ele>
        <time>2015-07-18T09:38:53Z</time>
      </trkpt>
      <trkpt lat="43.12117" lon="2.2429">
        <ele>328.43</ele>
        <time>2015-07-18T09:38:54Z</time>
      </trkpt>
      <trkpt lat="43.12117" lon="2.24292">
        <ele>328.43</ele>
        <time>2015-07-18T09:38:55Z</time>
      </trkpt>
      <trkpt lat="43.12117" lon="2.24295">
        <ele>328.43</ele>
        <time>2015-07-18T09:38:56Z</time>
      </trkpt>
      <trkpt lat="43.12121" lon="2.2432">
        <ele>331.79</ele>
        <time>2015-07-18T09:39:04Z</time>
      </trkpt>
      <trkpt lat="43.12115" lon="2.24354">
        <ele>332.75</ele>
        <time>2015-07-18T09:39:16Z</time>
      </trkpt>
      <trkpt lat="43.12111" lon="2.24403">
        <ele>334.2</ele>
        <time>2015-07-18T09:39:30Z</time>
      </trkpt>
      <trkpt lat="43.1211" lon="2.24452">
        <ele>336.12</ele>
        <time>2015-07-18T09:39:44Z</time>
      </trkpt>
      <trkpt lat="43.12111" lon="2.24511">
        <ele>336.6</ele>
        <time>2015-07-18T09:39:59Z</time>
      </trkpt>
      <trkpt lat="43.12099" lon="2.24562">
        <ele>337.56</ele>
        <time>2015-07-18T09:40:11Z</time>
      </trkpt>
      <trkpt lat="43.12094" lon="2.24576">
        <ele>336.12</ele>
        <time>2015-07-18T09:40:14Z</time>
      </trkpt>
      <trkpt lat="43.12084" lon="2.24609">
        <ele>337.56</ele>
        <time>2015-07-18T09:40:22Z</time>
      </trkpt>
      <trkpt lat="43.12077" lon="2.24647">
        <ele>340.92</ele>
        <time>2015-07-18T09:40:32Z</time>
      </trkpt>
      <trkpt lat="43.12077" lon="2.24706">
        <ele>341.41</ele>
        <time>2015-07-18T09:40:45Z</time>
      </trkpt>
      <trkpt lat="43.12076" lon="2.24745">
        <ele>341.41</ele>
        <time>2015-07-18T09:40:57Z</time>
      </trkpt>
      <trkpt lat="43.12077" lon="2.24754">
        <ele>340.92</ele>
        <time>2015-07-18T09:41:09Z</time>
      </trkpt>
      <trkpt lat="43.12076" lon="2.2477">
        <ele>339.96</ele>
        <time>2015-07-18T09:41:32Z</time>
      </trkpt>
      <trkpt lat="43.12074" lon="2.24784">
        <ele>337.56</ele>
        <time>2015-07-18T09:41:34Z</time>
      </trkpt>
      <trkpt lat="43.12074" lon="2.24792">
        <ele>336.6</ele>
        <time>2015-07-18T09:41:35Z</time>
      </trkpt>
      <trkpt lat="43.12072" lon="2.24802">
        <ele>335.16</ele>
        <time>2015-07-18T09:41:36Z</time>
      </trkpt>
      <trkpt lat="43.1207" lon="2.24812">
        <ele>333.23</ele>
        <time>2015-07-18T09:41:37Z</time>
      </trkpt>
      <trkpt lat="43.12067" lon="2.24823">
        <ele>332.27</ele>
        <time>2015-07-18T09:41:38Z</time>
      </trkpt>
      <trkpt lat="43.12065" lon="2.24832">
        <ele>331.31</ele>
        <time>2015-07-18T09:41:39Z</time>
      </trkpt>
      <trkpt lat="43.12065" lon="2.2484">
        <ele>330.83</ele>
        <time>2015-07-18T09:41:40Z</time>
      </trkpt>
      <trkpt lat="43.12065" lon="2.24848">
        <ele>329.87</ele>
        <time>2015-07-18T09:41:41Z</time>
      </trkpt>
      <trkpt lat="43.12072" lon="2.24868">
        <ele>325.54</ele>
        <time>2015-07-18T09:41:43Z</time>
      </trkpt>
      <trkpt lat="43.12075" lon="2.24879">
        <ele>324.58</ele>
        <time>2015-07-18T09:41:44Z</time>
      </trkpt>
      <trkpt lat="43.12084" lon="2.24907">
        <ele>321.22</ele>
        <time>2015-07-18T09:41:47Z</time>
      </trkpt>
      <trkpt lat="43.1208" lon="2.24952">
        <ele>315.93</ele>
        <time>2015-07-18T09:41:51Z</time>
      </trkpt>
      <trkpt lat="43.12075" lon="2.24971">
        <ele>314.01</ele>
        <time>2015-07-18T09:41:53Z</time>
      </trkpt>
      <trkpt lat="43.12071" lon="2.25007">
        <ele>310.16</ele>
        <time>2015-07-18T09:41:57Z</time>
      </trkpt>
      <trkpt lat="43.12068" lon="2.2502">
        <ele>308.72</ele>
        <time>2015-07-18T09:41:59Z</time>
      </trkpt>
      <trkpt lat="43.12066" lon="2.25026">
        <ele>307.28</ele>
        <time>2015-07-18T09:42:00Z</time>
      </trkpt>
      <trkpt lat="43.12066" lon="2.25032">
        <ele>306.8</ele>
        <time>2015-07-18T09:42:01Z</time>
      </trkpt>
      <trkpt lat="43.12066" lon="2.25036">
        <ele>307.28</ele>
        <time>2015-07-18T09:42:02Z</time>
      </trkpt>
      <trkpt lat="43.12067" lon="2.2504">
        <ele>307.28</ele>
        <time>2015-07-18T09:42:13Z</time>
      </trkpt>
      <trkpt lat="43.1207" lon="2.25062">
        <ele>304.88</ele>
        <time>2015-07-18T09:42:20Z</time>
      </trkpt>
      <trkpt lat="43.12069" lon="2.25068">
        <ele>304.39</ele>
        <time>2015-07-18T09:42:21Z</time>
      </trkpt>
      <trkpt lat="43.12069" lon="2.25106">
        <ele>308.24</ele>
        <time>2015-07-18T09:42:30Z</time>
      </trkpt>
      <trkpt lat="43.12074" lon="2.25146">
        <ele>311.12</ele>
        <time>2015-07-18T09:42:42Z</time>
      </trkpt>
      <trkpt lat="43.12087" lon="2.25197">
        <ele>312.57</ele>
        <time>2015-07-18T09:42:54Z</time>
      </trkpt>
      <trkpt lat="43.12086" lon="2.25204">
        <ele>310.64</ele>
        <time>2015-07-18T09:42:55Z</time>
      </trkpt>
      <trkpt lat="43.12085" lon="2.25212">
        <ele>310.64</ele>
        <time>2015-07-18T09:42:56Z</time>
      </trkpt>
      <trkpt lat="43.12083" lon="2.25227">
        <ele>310.64</ele>
        <time>2015-07-18T09:42:58Z</time>
      </trkpt>
      <trkpt lat="43.12082" lon="2.25235">
        <ele>310.64</ele>
        <time>2015-07-18T09:42:59Z</time>
      </trkpt>
      <trkpt lat="43.12078" lon="2.2525">
        <ele>310.16</ele>
        <time>2015-07-18T09:43:01Z</time>
      </trkpt>
      <trkpt lat="43.12074" lon="2.25257">
        <ele>309.68</ele>
        <time>2015-07-18T09:43:02Z</time>
      </trkpt>
      <trkpt lat="43.1207" lon="2.25264">
        <ele>308.72</ele>
        <time>2015-07-18T09:43:03Z</time>
      </trkpt>
      <trkpt lat="43.1205" lon="2.25295">
        <ele>306.32</ele>
        <time>2015-07-18T09:43:07Z</time>
      </trkpt>
      <trkpt lat="43.12041" lon="2.25312">
        <ele>305.84</ele>
        <time>2015-07-18T09:43:09Z</time>
      </trkpt>
      <trkpt lat="43.12019" lon="2.25368">
        <ele>308.24</ele>
        <time>2015-07-18T09:43:19Z</time>
      </trkpt>
      <trkpt lat="43.12013" lon="2.25377">
        <ele>310.16</ele>
        <time>2015-07-18T09:43:22Z</time>
      </trkpt>
      <trkpt lat="43.12003" lon="2.25391">
        <ele>311.12</ele>
        <time>2015-07-18T09:43:27Z</time>
      </trkpt>
      <trkpt lat="43.11981" lon="2.2542">
        <ele>313.05</ele>
        <time>2015-07-18T09:43:40Z</time>
      </trkpt>
      <trkpt lat="43.1198" lon="2.25424">
        <ele>313.53</ele>
        <time>2015-07-18T09:43:53Z</time>
      </trkpt>
      <trkpt lat="43.11981" lon="2.25422">
        <ele>313.05</ele>
        <time>2015-07-18T09:44:20Z</time>
      </trkpt>
      <trkpt lat="43.11979" lon="2.25415">
        <ele>314.49</ele>
        <time>2015-07-18T09:44:23Z</time>
      </trkpt>
      <trkpt lat="43.11977" lon="2.25414">
        <ele>314.49</ele>
        <time>2015-07-18T09:44:24Z</time>
      </trkpt>
      <trkpt lat="43.11974" lon="2.25413">
        <ele>314.49</ele>
        <time>2015-07-18T09:44:25Z</time>
      </trkpt>
      <trkpt lat="43.11972" lon="2.25412">
        <ele>314.49</ele>
        <time>2015-07-18T09:44:26Z</time>
      </trkpt>
      <trkpt lat="43.11959" lon="2.25411">
        <ele>314.49</ele>
        <time>2015-07-18T09:44:31Z</time>
      </trkpt>
      <trkpt lat="43.11956" lon="2.25409">
        <ele>314.49</ele>
        <time>2015-07-18T09:44:32Z</time>
      </trkpt>
      <trkpt lat="43.11954" lon="2.25406">
        <ele>314.49</ele>
        <time>2015-07-18T09:44:33Z</time>
      </trkpt>
      <trkpt lat="43.11952" lon="2.25403">
        <ele>313.05</ele>
        <time>2015-07-18T09:44:34Z</time>
      </trkpt>
      <trkpt lat="43.11951" lon="2.25401">
        <ele>313.05</ele>
        <time>2015-07-18T09:44:35Z</time>
      </trkpt>
      <trkpt lat="43.11947" lon="2.25394">
        <ele>311.6</ele>
        <time>2015-07-18T09:44:48Z</time>
      </trkpt>
      <trkpt lat="43.11946" lon="2.25395">
        <ele>311.12</ele>
        <time>2015-07-18T09:45:24Z</time>
      </trkpt>
      <trkpt lat="43.11946" lon="2.25394">
        <ele>311.12</ele>
        <time>2015-07-18T09:45:25Z</time>
      </trkpt>
      <trkpt lat="43.11944" lon="2.25391">
        <ele>311.12</ele>
        <time>2015-07-18T09:45:26Z</time>
      </trkpt>
      <trkpt lat="43.11939" lon="2.25382">
        <ele>309.2</ele>
        <time>2015-07-18T09:45:28Z</time>
      </trkpt>
      <trkpt lat="43.11935" lon="2.25377">
        <ele>308.72</ele>
        <time>2015-07-18T09:45:29Z</time>
      </trkpt>
      <trkpt lat="43.1193" lon="2.25372">
        <ele>307.28</ele>
        <time>2015-07-18T09:45:30Z</time>
      </trkpt>
      <trkpt lat="43.11924" lon="2.25368">
        <ele>306.32</ele>
        <time>2015-07-18T09:45:31Z</time>
      </trkpt>
      <trkpt lat="43.11917" lon="2.25363">
        <ele>305.84</ele>
        <time>2015-07-18T09:45:32Z</time>
      </trkpt>
      <trkpt lat="43.1191" lon="2.25358">
        <ele>304.39</ele>
        <time>2015-07-18T09:45:33Z</time>
      </trkpt>
      <trkpt lat="43.11879" lon="2.25338">
        <ele>303.91</ele>
        <time>2015-07-18T09:45:38Z</time>
      </trkpt>
      <trkpt lat="43.11875" lon="2.25337">
        <ele>303.91</ele>
        <time>2015-07-18T09:45:39Z</time>
      </trkpt>
      <trkpt lat="43.1187" lon="2.25335">
        <ele>303.91</ele>
        <time>2015-07-18T09:45:40Z</time>
      </trkpt>
      <trkpt lat="43.11866" lon="2.25334">
        <ele>302.95</ele>
        <time>2015-07-18T09:45:41Z</time>
      </trkpt>
      <trkpt lat="43.1186" lon="2.25335">
        <ele>301.99</ele>
        <time>2015-07-18T09:45:42Z</time>
      </trkpt>
      <trkpt lat="43.11854" lon="2.25338">
        <ele>300.55</ele>
        <time>2015-07-18T09:45:43Z</time>
      </trkpt>
      <trkpt lat="43.11846" lon="2.25343">
        <ele>298.63</ele>
        <time>2015-07-18T09:45:44Z</time>
      </trkpt>
      <trkpt lat="43.11839" lon="2.2535">
        <ele>298.15</ele>
        <time>2015-07-18T09:45:45Z</time>
      </trkpt>
      <trkpt lat="43.11825" lon="2.25359">
        <ele>296.7</ele>
        <time>2015-07-18T09:45:47Z</time>
      </trkpt>
      <trkpt lat="43.1182" lon="2.25361">
        <ele>296.22</ele>
        <time>2015-07-18T09:45:48Z</time>
      </trkpt>
      <trkpt lat="43.11808" lon="2.25363">
        <ele>295.74</ele>
        <time>2015-07-18T09:45:51Z</time>
      </trkpt>
      <trkpt lat="43.11802" lon="2.25362">
        <ele>294.3</ele>
        <time>2015-07-18T09:45:52Z</time>
      </trkpt>
      <trkpt lat="43.11787" lon="2.25356">
        <ele>290.94</ele>
        <time>2015-07-18T09:45:54Z</time>
      </trkpt>
      <trkpt lat="43.11778" lon="2.25354">
        <ele>288.05</ele>
        <time>2015-07-18T09:45:55Z</time>
      </trkpt>
      <trkpt lat="43.11759" lon="2.25351">
        <ele>283.73</ele>
        <time>2015-07-18T09:45:57Z</time>
      </trkpt>
      <trkpt lat="43.11736" lon="2.25348">
        <ele>279.88</ele>
        <time>2015-07-18T09:45:59Z</time>
      </trkpt>
      <trkpt lat="43.11725" lon="2.25348">
        <ele>278.92</ele>
        <time>2015-07-18T09:46:00Z</time>
      </trkpt>
      <trkpt lat="43.11702" lon="2.2535">
        <ele>276.04</ele>
        <time>2015-07-18T09:46:02Z</time>
      </trkpt>
      <trkpt lat="43.11692" lon="2.25352">
        <ele>276.04</ele>
        <time>2015-07-18T09:46:03Z</time>
      </trkpt>
      <trkpt lat="43.11682" lon="2.25353">
        <ele>277</ele>
        <time>2015-07-18T09:46:04Z</time>
      </trkpt>
      <trkpt lat="43.11673" lon="2.25353">
        <ele>277</ele>
        <time>2015-07-18T09:46:05Z</time>
      </trkpt>
      <trkpt lat="43.11654" lon="2.25351">
        <ele>277</ele>
        <time>2015-07-18T09:46:07Z</time>
      </trkpt>
      <trkpt lat="43.11645" lon="2.25348">
        <ele>275.07</ele>
        <time>2015-07-18T09:46:08Z</time>
      </trkpt>
      <trkpt lat="43.11636" lon="2.25346">
        <ele>275.07</ele>
        <time>2015-07-18T09:46:09Z</time>
      </trkpt>
      <trkpt lat="43.11627" lon="2.25346">
        <ele>275.07</ele>
        <time>2015-07-18T09:46:10Z</time>
      </trkpt>
      <trkpt lat="43.11619" lon="2.25349">
        <ele>275.07</ele>
        <time>2015-07-18T09:46:11Z</time>
      </trkpt>
      <trkpt lat="43.11611" lon="2.25353">
        <ele>275.07</ele>
        <time>2015-07-18T09:46:12Z</time>
      </trkpt>
      <trkpt lat="43.11604" lon="2.25357">
        <ele>275.07</ele>
        <time>2015-07-18T09:46:13Z</time>
      </trkpt>
      <trkpt lat="43.11598" lon="2.25362">
        <ele>274.59</ele>
        <time>2015-07-18T09:46:14Z</time>
      </trkpt>
      <trkpt lat="43.11569" lon="2.25385">
        <ele>270.75</ele>
        <time>2015-07-18T09:46:18Z</time>
      </trkpt>
      <trkpt lat="43.11545" lon="2.25405">
        <ele>266.9</ele>
        <time>2015-07-18T09:46:21Z</time>
      </trkpt>
      <trkpt lat="43.11509" lon="2.25427">
        <ele>263.54</ele>
        <time>2015-07-18T09:46:25Z</time>
      </trkpt>
      <trkpt lat="43.11501" lon="2.25433">
        <ele>263.54</ele>
        <time>2015-07-18T09:46:26Z</time>
      </trkpt>
      <trkpt lat="43.11458" lon="2.25463">
        <ele>260.65</ele>
        <time>2015-07-18T09:46:32Z</time>
      </trkpt>
      <trkpt lat="43.11454" lon="2.25467">
        <ele>259.69</ele>
        <time>2015-07-18T09:46:33Z</time>
      </trkpt>
      <trkpt lat="43.1145" lon="2.25472">
        <ele>258.73</ele>
        <time>2015-07-18T09:46:34Z</time>
      </trkpt>
      <trkpt lat="43.11446" lon="2.25477">
        <ele>258.25</ele>
        <time>2015-07-18T09:46:35Z</time>
      </trkpt>
      <trkpt lat="43.11444" lon="2.25482">
        <ele>257.77</ele>
        <time>2015-07-18T09:46:36Z</time>
      </trkpt>
      <trkpt lat="43.11441" lon="2.25485">
        <ele>256.81</ele>
        <time>2015-07-18T09:46:37Z</time>
      </trkpt>
      <trkpt lat="43.11437" lon="2.25489">
        <ele>256.33</ele>
        <time>2015-07-18T09:46:38Z</time>
      </trkpt>
      <trkpt lat="43.11432" lon="2.25492">
        <ele>254.89</ele>
        <time>2015-07-18T09:46:39Z</time>
      </trkpt>
      <trkpt lat="43.11426" lon="2.25496">
        <ele>253.44</ele>
        <time>2015-07-18T09:46:40Z</time>
      </trkpt>
      <trkpt lat="43.11419" lon="2.25498">
        <ele>252.96</ele>
        <time>2015-07-18T09:46:41Z</time>
      </trkpt>
      <trkpt lat="43.11412" lon="2.255">
        <ele>251.52</ele>
        <time>2015-07-18T09:46:42Z</time>
      </trkpt>
      <trkpt lat="43.11405" lon="2.255">
        <ele>249.6</ele>
        <time>2015-07-18T09:46:43Z</time>
      </trkpt>
      <trkpt lat="43.11398" lon="2.25499">
        <ele>248.64</ele>
        <time>2015-07-18T09:46:44Z</time>
      </trkpt>
      <trkpt lat="43.11392" lon="2.25497">
        <ele>247.68</ele>
        <time>2015-07-18T09:46:45Z</time>
      </trkpt>
      <trkpt lat="43.11386" lon="2.25493">
        <ele>247.68</ele>
        <time>2015-07-18T09:46:46Z</time>
      </trkpt>
      <trkpt lat="43.11381" lon="2.25487">
        <ele>246.23</ele>
        <time>2015-07-18T09:46:47Z</time>
      </trkpt>
      <trkpt lat="43.11376" lon="2.2548">
        <ele>246.23</ele>
        <time>2015-07-18T09:46:48Z</time>
      </trkpt>
      <trkpt lat="43.11372" lon="2.25472">
        <ele>246.72</ele>
        <time>2015-07-18T09:46:49Z</time>
      </trkpt>
      <trkpt lat="43.11369" lon="2.25464">
        <ele>246.72</ele>
        <time>2015-07-18T09:46:50Z</time>
      </trkpt>
      <trkpt lat="43.11365" lon="2.25456">
        <ele>245.75</ele>
        <time>2015-07-18T09:46:51Z</time>
      </trkpt>
      <trkpt lat="43.11352" lon="2.25419">
        <ele>243.83</ele>
        <time>2015-07-18T09:46:55Z</time>
      </trkpt>
      <trkpt lat="43.11337" lon="2.25382">
        <ele>240.47</ele>
        <time>2015-07-18T09:46:59Z</time>
      </trkpt>
      <trkpt lat="43.11318" lon="2.25338">
        <ele>237.58</ele>
        <time>2015-07-18T09:47:05Z</time>
      </trkpt>
      <trkpt lat="43.11302" lon="2.25305">
        <ele>234.22</ele>
        <time>2015-07-18T09:47:09Z</time>
      </trkpt>
      <trkpt lat="43.11298" lon="2.25298">
        <ele>234.22</ele>
        <time>2015-07-18T09:47:10Z</time>
      </trkpt>
      <trkpt lat="43.11292" lon="2.25284">
        <ele>233.26</ele>
        <time>2015-07-18T09:47:12Z</time>
      </trkpt>
      <trkpt lat="43.11291" lon="2.25277">
        <ele>233.26</ele>
        <time>2015-07-18T09:47:13Z</time>
      </trkpt>
      <trkpt lat="43.11291" lon="2.25269">
        <ele>232.78</ele>
        <time>2015-07-18T09:47:14Z</time>
      </trkpt>
      <trkpt lat="43.11291" lon="2.25261">
        <ele>232.3</ele>
        <time>2015-07-18T09:47:15Z</time>
      </trkpt>
      <trkpt lat="43.11292" lon="2.25253">
        <ele>231.81</ele>
        <time>2015-07-18T09:47:16Z</time>
      </trkpt>
      <trkpt lat="43.11296" lon="2.25229">
        <ele>228.93</ele>
        <time>2015-07-18T09:47:19Z</time>
      </trkpt>
      <trkpt lat="43.11298" lon="2.25222">
        <ele>227.97</ele>
        <time>2015-07-18T09:47:20Z</time>
      </trkpt>
      <trkpt lat="43.11304" lon="2.25196">
        <ele>225.09</ele>
        <time>2015-07-18T09:47:24Z</time>
      </trkpt>
      <trkpt lat="43.11306" lon="2.25174">
        <ele>222.2</ele>
        <time>2015-07-18T09:47:27Z</time>
      </trkpt>
      <trkpt lat="43.11305" lon="2.25167">
        <ele>221.24</ele>
        <time>2015-07-18T09:47:28Z</time>
      </trkpt>
      <trkpt lat="43.11303" lon="2.25161">
        <ele>220.28</ele>
        <time>2015-07-18T09:47:29Z</time>
      </trkpt>
      <trkpt lat="43.113" lon="2.25155">
        <ele>219.32</ele>
        <time>2015-07-18T09:47:30Z</time>
      </trkpt>
      <trkpt lat="43.11296" lon="2.25149">
        <ele>218.36</ele>
        <time>2015-07-18T09:47:31Z</time>
      </trkpt>
      <trkpt lat="43.11286" lon="2.25134">
        <ele>215.95</ele>
        <time>2015-07-18T09:47:34Z</time>
      </trkpt>
      <trkpt lat="43.11281" lon="2.25132">
        <ele>214.99</ele>
        <time>2015-07-18T09:47:35Z</time>
      </trkpt>
      <trkpt lat="43.11277" lon="2.25131">
        <ele>214.51</ele>
        <time>2015-07-18T09:47:36Z</time>
      </trkpt>
      <trkpt lat="43.11265" lon="2.25132">
        <ele>213.07</ele>
        <time>2015-07-18T09:47:38Z</time>
      </trkpt>
      <trkpt lat="43.11259" lon="2.25133">
        <ele>212.11</ele>
        <time>2015-07-18T09:47:39Z</time>
      </trkpt>
      <trkpt lat="43.11253" lon="2.25136">
        <ele>211.15</ele>
        <time>2015-07-18T09:47:40Z</time>
      </trkpt>
      <trkpt lat="43.11246" lon="2.25138">
        <ele>210.19</ele>
        <time>2015-07-18T09:47:41Z</time>
      </trkpt>
      <trkpt lat="43.11239" lon="2.25141">
        <ele>209.22</ele>
        <time>2015-07-18T09:47:42Z</time>
      </trkpt>
      <trkpt lat="43.11231" lon="2.25142">
        <ele>209.22</ele>
        <time>2015-07-18T09:47:43Z</time>
      </trkpt>
      <trkpt lat="43.11217" lon="2.25145">
        <ele>207.78</ele>
        <time>2015-07-18T09:47:45Z</time>
      </trkpt>
      <trkpt lat="43.11211" lon="2.25146">
        <ele>209.7</ele>
        <time>2015-07-18T09:47:46Z</time>
      </trkpt>
      <trkpt lat="43.11206" lon="2.25146">
        <ele>209.7</ele>
        <time>2015-07-18T09:47:47Z</time>
      </trkpt>
      <trkpt lat="43.11194" lon="2.25152">
        <ele>209.22</ele>
        <time>2015-07-18T09:47:51Z</time>
      </trkpt>
      <trkpt lat="43.1119" lon="2.25157">
        <ele>207.78</ele>
        <time>2015-07-18T09:47:52Z</time>
      </trkpt>
      <trkpt lat="43.11182" lon="2.25171">
        <ele>204.42</ele>
        <time>2015-07-18T09:47:55Z</time>
      </trkpt>
      <trkpt lat="43.11179" lon="2.25174">
        <ele>203.46</ele>
        <time>2015-07-18T09:47:56Z</time>
      </trkpt>
      <trkpt lat="43.11171" lon="2.25165">
        <ele>201.05</ele>
        <time>2015-07-18T09:48:00Z</time>
      </trkpt>
      <trkpt lat="43.11166" lon="2.25135">
        <ele>196.73</ele>
        <time>2015-07-18T09:48:05Z</time>
      </trkpt>
      <trkpt lat="43.11166" lon="2.25127">
        <ele>195.28</ele>
        <time>2015-07-18T09:48:06Z</time>
      </trkpt>
      <trkpt lat="43.11166" lon="2.25119">
        <ele>193.84</ele>
        <time>2015-07-18T09:48:07Z</time>
      </trkpt>
      <trkpt lat="43.11166" lon="2.2511">
        <ele>192.4</ele>
        <time>2015-07-18T09:48:08Z</time>
      </trkpt>
      <trkpt lat="43.11168" lon="2.25085">
        <ele>190.96</ele>
        <time>2015-07-18T09:48:11Z</time>
      </trkpt>
      <trkpt lat="43.11167" lon="2.2508">
        <ele>190.48</ele>
        <time>2015-07-18T09:48:12Z</time>
      </trkpt>
      <trkpt lat="43.11164" lon="2.25077">
        <ele>189.52</ele>
        <time>2015-07-18T09:48:13Z</time>
      </trkpt>
      <trkpt lat="43.11159" lon="2.25075">
        <ele>189.04</ele>
        <time>2015-07-18T09:48:14Z</time>
      </trkpt>
      <trkpt lat="43.11155" lon="2.25075">
        <ele>188.56</ele>
        <time>2015-07-18T09:48:15Z</time>
      </trkpt>
      <trkpt lat="43.1115" lon="2.25075">
        <ele>187.11</ele>
        <time>2015-07-18T09:48:16Z</time>
      </trkpt>
      <trkpt lat="43.11133" lon="2.25077">
        <ele>183.27</ele>
        <time>2015-07-18T09:48:19Z</time>
      </trkpt>
      <trkpt lat="43.11128" lon="2.25077">
        <ele>182.79</ele>
        <time>2015-07-18T09:48:20Z</time>
      </trkpt>
      <trkpt lat="43.11099" lon="2.25081">
        <ele>182.31</ele>
        <time>2015-07-18T09:48:29Z</time>
      </trkpt>
      <trkpt lat="43.11088" lon="2.25086">
        <ele>181.83</ele>
        <time>2015-07-18T09:48:37Z</time>
      </trkpt>
      <trkpt lat="43.11083" lon="2.2509">
        <ele>180.87</ele>
        <time>2015-07-18T09:48:57Z</time>
      </trkpt>
      <trkpt lat="43.11052" lon="2.25117">
        <ele>178.94</ele>
        <time>2015-07-18T09:49:09Z</time>
      </trkpt>
      <trkpt lat="43.11021" lon="2.25155">
        <ele>177.98</ele>
        <time>2015-07-18T09:49:20Z</time>
      </trkpt>
      <trkpt lat="43.10986" lon="2.2516">
        <ele>177.98</ele>
        <time>2015-07-18T09:49:32Z</time>
      </trkpt>
      <trkpt lat="43.10945" lon="2.25168">
        <ele>180.87</ele>
        <time>2015-07-18T09:49:48Z</time>
      </trkpt>
      <trkpt lat="43.10912" lon="2.25186">
        <ele>183.75</ele>
        <time>2015-07-18T09:50:03Z</time>
      </trkpt>
      <trkpt lat="43.1088" lon="2.25196">
        <ele>186.63</ele>
        <time>2015-07-18T09:50:16Z</time>
      </trkpt>
      <trkpt lat="43.10837" lon="2.25208">
        <ele>190</ele>
        <time>2015-07-18T09:50:32Z</time>
      </trkpt>
      <trkpt lat="43.10789" lon="2.25218">
        <ele>190.96</ele>
        <time>2015-07-18T09:50:50Z</time>
      </trkpt>
      <trkpt lat="43.10756" lon="2.25224">
        <ele>190.96</ele>
        <time>2015-07-18T09:51:01Z</time>
      </trkpt>
      <trkpt lat="43.10738" lon="2.25203">
        <ele>189.04</ele>
        <time>2015-07-18T09:51:10Z</time>
      </trkpt>
      <trkpt lat="43.10728" lon="2.25197">
        <ele>188.08</ele>
        <time>2015-07-18T09:51:23Z</time>
      </trkpt>
      <trkpt lat="43.10728" lon="2.25196">
        <ele>188.08</ele>
        <time>2015-07-18T09:51:25Z</time>
      </trkpt>
      <trkpt lat="43.10727" lon="2.25194">
        <ele>187.59</ele>
        <time>2015-07-18T09:51:26Z</time>
      </trkpt>
      <trkpt lat="43.10725" lon="2.25193">
        <ele>187.59</ele>
        <time>2015-07-18T09:51:27Z</time>
      </trkpt>
      <trkpt lat="43.10722" lon="2.25191">
        <ele>187.59</ele>
        <time>2015-07-18T09:51:28Z</time>
      </trkpt>
      <trkpt lat="43.10719" lon="2.25189">
        <ele>186.63</ele>
        <time>2015-07-18T09:51:29Z</time>
      </trkpt>
      <trkpt lat="43.10697" lon="2.25174">
        <ele>183.27</ele>
        <time>2015-07-18T09:51:33Z</time>
      </trkpt>
      <trkpt lat="43.10678" lon="2.25154">
        <ele>180.38</ele>
        <time>2015-07-18T09:51:36Z</time>
      </trkpt>
      <trkpt lat="43.10672" lon="2.25145">
        <ele>179.42</ele>
        <time>2015-07-18T09:51:37Z</time>
      </trkpt>
      <trkpt lat="43.10667" lon="2.25134">
        <ele>179.42</ele>
        <time>2015-07-18T09:51:38Z</time>
      </trkpt>
      <trkpt lat="43.10663" lon="2.25123">
        <ele>178.46</ele>
        <time>2015-07-18T09:51:39Z</time>
      </trkpt>
      <trkpt lat="43.1066" lon="2.25111">
        <ele>177.98</ele>
        <time>2015-07-18T09:51:40Z</time>
      </trkpt>
      <trkpt lat="43.10657" lon="2.25098">
        <ele>177.5</ele>
        <time>2015-07-18T09:51:41Z</time>
      </trkpt>
      <trkpt lat="43.10653" lon="2.25041">
        <ele>177.02</ele>
        <time>2015-07-18T09:51:46Z</time>
      </trkpt>
      <trkpt lat="43.10654" lon="2.25031">
        <ele>177.02</ele>
        <time>2015-07-18T09:51:47Z</time>
      </trkpt>
      <trkpt lat="43.10657" lon="2.25005">
        <ele>178.94</ele>
        <time>2015-07-18T09:51:50Z</time>
      </trkpt>
      <trkpt lat="43.10657" lon="2.24999">
        <ele>180.38</ele>
        <time>2015-07-18T09:51:51Z</time>
      </trkpt>
      <trkpt lat="43.10657" lon="2.24995">
        <ele>180.87</ele>
        <time>2015-07-18T09:51:52Z</time>
      </trkpt>
      <trkpt lat="43.10657" lon="2.2499">
        <ele>180.87</ele>
        <time>2015-07-18T09:51:53Z</time>
      </trkpt>
      <trkpt lat="43.10657" lon="2.24986">
        <ele>181.35</ele>
        <time>2015-07-18T09:51:54Z</time>
      </trkpt>
      <trkpt lat="43.10657" lon="2.24982">
        <ele>181.35</ele>
        <time>2015-07-18T09:51:55Z</time>
      </trkpt>
      <trkpt lat="43.10649" lon="2.24932">
        <ele>181.83</ele>
        <time>2015-07-18T09:52:06Z</time>
      </trkpt>
      <trkpt lat="43.10648" lon="2.24927">
        <ele>181.83</ele>
        <time>2015-07-18T09:52:07Z</time>
      </trkpt>
      <trkpt lat="43.10647" lon="2.2492">
        <ele>181.83</ele>
        <time>2015-07-18T09:52:08Z</time>
      </trkpt>
      <trkpt lat="43.10634" lon="2.24804">
        <ele>180.38</ele>
        <time>2015-07-18T09:52:25Z</time>
      </trkpt>
      <trkpt lat="43.10631" lon="2.2476">
        <ele>181.83</ele>
        <time>2015-07-18T09:52:32Z</time>
      </trkpt>
      <trkpt lat="43.1063" lon="2.24754">
        <ele>181.83</ele>
        <time>2015-07-18T09:52:33Z</time>
      </trkpt>
      <trkpt lat="43.10626" lon="2.2472">
        <ele>182.79</ele>
        <time>2015-07-18T09:52:39Z</time>
      </trkpt>
      <trkpt lat="43.10625" lon="2.24714">
        <ele>182.79</ele>
        <time>2015-07-18T09:52:40Z</time>
      </trkpt>
      <trkpt lat="43.10621" lon="2.24698">
        <ele>182.79</ele>
        <time>2015-07-18T09:52:43Z</time>
      </trkpt>
      <trkpt lat="43.10615" lon="2.24682">
        <ele>182.79</ele>
        <time>2015-07-18T09:52:46Z</time>
      </trkpt>
      <trkpt lat="43.10603" lon="2.24659">
        <ele>181.35</ele>
        <time>2015-07-18T09:52:50Z</time>
      </trkpt>
      <trkpt lat="43.10595" lon="2.24639">
        <ele>180.87</ele>
        <time>2015-07-18T09:52:53Z</time>
      </trkpt>
      <trkpt lat="43.10593" lon="2.24632">
        <ele>180.87</ele>
        <time>2015-07-18T09:52:54Z</time>
      </trkpt>
      <trkpt lat="43.1057" lon="2.2458">
        <ele>177.02</ele>
        <time>2015-07-18T09:53:01Z</time>
      </trkpt>
      <trkpt lat="43.10556" lon="2.24556">
        <ele>174.14</ele>
        <time>2015-07-18T09:53:04Z</time>
      </trkpt>
      <trkpt lat="43.10552" lon="2.24547">
        <ele>172.69</ele>
        <time>2015-07-18T09:53:05Z</time>
      </trkpt>
      <trkpt lat="43.10549" lon="2.24537">
        <ele>171.25</ele>
        <time>2015-07-18T09:53:06Z</time>
      </trkpt>
      <trkpt lat="43.10532" lon="2.2449">
        <ele>169.33</ele>
        <time>2015-07-18T09:53:11Z</time>
      </trkpt>
      <trkpt lat="43.10518" lon="2.24458">
        <ele>170.29</ele>
        <time>2015-07-18T09:53:15Z</time>
      </trkpt>
      <trkpt lat="43.10516" lon="2.2445">
        <ele>170.77</ele>
        <time>2015-07-18T09:53:16Z</time>
      </trkpt>
      <trkpt lat="43.10508" lon="2.24427">
        <ele>171.73</ele>
        <time>2015-07-18T09:53:19Z</time>
      </trkpt>
      <trkpt lat="43.10506" lon="2.24414">
        <ele>172.21</ele>
        <time>2015-07-18T09:53:21Z</time>
      </trkpt>
      <trkpt lat="43.10504" lon="2.24408">
        <ele>172.21</ele>
        <time>2015-07-18T09:53:22Z</time>
      </trkpt>
      <trkpt lat="43.10502" lon="2.24402">
        <ele>172.21</ele>
        <time>2015-07-18T09:53:23Z</time>
      </trkpt>
      <trkpt lat="43.10493" lon="2.24381">
        <ele>173.17</ele>
        <time>2015-07-18T09:53:27Z</time>
      </trkpt>
      <trkpt lat="43.10484" lon="2.24363">
        <ele>172.69</ele>
        <time>2015-07-18T09:53:30Z</time>
      </trkpt>
      <trkpt lat="43.10482" lon="2.24357">
        <ele>171.73</ele>
        <time>2015-07-18T09:53:31Z</time>
      </trkpt>
      <trkpt lat="43.1048" lon="2.24351">
        <ele>171.73</ele>
        <time>2015-07-18T09:53:32Z</time>
      </trkpt>
      <trkpt lat="43.10479" lon="2.24347">
        <ele>171.73</ele>
        <time>2015-07-18T09:53:33Z</time>
      </trkpt>
      <trkpt lat="43.10477" lon="2.24346">
        <ele>172.69</ele>
        <time>2015-07-18T09:53:44Z</time>
      </trkpt>
      <trkpt lat="43.10476" lon="2.24347">
        <ele>172.21</ele>
        <time>2015-07-18T09:54:15Z</time>
      </trkpt>
      <trkpt lat="43.10477" lon="2.24348">
        <ele>172.21</ele>
        <time>2015-07-18T09:54:16Z</time>
      </trkpt>
      <trkpt lat="43.10478" lon="2.24349">
        <ele>172.21</ele>
        <time>2015-07-18T09:54:17Z</time>
      </trkpt>
      <trkpt lat="43.1048" lon="2.24349">
        <ele>172.21</ele>
        <time>2015-07-18T09:54:18Z</time>
      </trkpt>
      <trkpt lat="43.10483" lon="2.24349">
        <ele>172.21</ele>
        <time>2015-07-18T09:54:19Z</time>
      </trkpt>
      <trkpt lat="43.10484" lon="2.24348">
        <ele>172.21</ele>
        <time>2015-07-18T09:54:20Z</time>
      </trkpt>
      <trkpt lat="43.10485" lon="2.24346">
        <ele>172.21</ele>
        <time>2015-07-18T09:54:21Z</time>
      </trkpt>
      <trkpt lat="43.10486" lon="2.24344">
        <ele>173.17</ele>
        <time>2015-07-18T09:54:22Z</time>
      </trkpt>
      <trkpt lat="43.10488" lon="2.24342">
        <ele>173.66</ele>
        <time>2015-07-18T09:54:23Z</time>
      </trkpt>
      <trkpt lat="43.1049" lon="2.24341">
        <ele>174.14</ele>
        <time>2015-07-18T09:54:24Z</time>
      </trkpt>
      <trkpt lat="43.10492" lon="2.2434">
        <ele>174.14</ele>
        <time>2015-07-18T09:54:25Z</time>
      </trkpt>
      <trkpt lat="43.10516" lon="2.2433">
        <ele>177.5</ele>
        <time>2015-07-18T09:54:37Z</time>
      </trkpt>
      <trkpt lat="43.10537" lon="2.24319">
        <ele>180.87</ele>
        <time>2015-07-18T09:54:49Z</time>
      </trkpt>
      <trkpt lat="43.1054" lon="2.24316">
        <ele>181.35</ele>
        <time>2015-07-18T09:54:51Z</time>
      </trkpt>
      <trkpt lat="43.10541" lon="2.24315">
        <ele>181.35</ele>
        <time>2015-07-18T09:55:05Z</time>
      </trkpt>
      <trkpt lat="43.10542" lon="2.24313">
        <ele>181.35</ele>
        <time>2015-07-18T09:55:20Z</time>
      </trkpt>
      <trkpt lat="43.10542" lon="2.24312">
        <ele>181.35</ele>
        <time>2015-07-18T09:55:21Z</time>
      </trkpt>
      <trkpt lat="43.10542" lon="2.2431">
        <ele>181.35</ele>
        <time>2015-07-18T09:55:22Z</time>
      </trkpt>
      <trkpt lat="43.10542" lon="2.24308">
        <ele>181.83</ele>
        <time>2015-07-18T09:55:23Z</time>
      </trkpt>
      <trkpt lat="43.10543" lon="2.24306">
        <ele>181.83</ele>
        <time>2015-07-18T09:55:24Z</time>
      </trkpt>
      <trkpt lat="43.10544" lon="2.24304">
        <ele>181.83</ele>
        <time>2015-07-18T09:55:25Z</time>
      </trkpt>
      <trkpt lat="43.10545" lon="2.24302">
        <ele>182.31</ele>
        <time>2015-07-18T09:55:26Z</time>
      </trkpt>
      <trkpt lat="43.10562" lon="2.24268">
        <ele>184.23</ele>
        <time>2015-07-18T09:55:42Z</time>
      </trkpt>
      <trkpt lat="43.10565" lon="2.24262">
        <ele>185.67</ele>
        <time>2015-07-18T09:55:45Z</time>
      </trkpt>
      <trkpt lat="43.10567" lon="2.24233">
        <ele>188.08</ele>
        <time>2015-07-18T09:55:56Z</time>
      </trkpt>
      <trkpt lat="43.10563" lon="2.2422">
        <ele>190</ele>
        <time>2015-07-18T09:56:01Z</time>
      </trkpt>
      <trkpt lat="43.10566" lon="2.24175">
        <ele>193.36</ele>
        <time>2015-07-18T09:56:17Z</time>
      </trkpt>
      <trkpt lat="43.10573" lon="2.24139">
        <ele>196.73</ele>
        <time>2015-07-18T09:56:30Z</time>
      </trkpt>
      <trkpt lat="43.10581" lon="2.2409">
        <ele>199.13</ele>
        <time>2015-07-18T09:56:48Z</time>
      </trkpt>
      <trkpt lat="43.10581" lon="2.24089">
        <ele>199.13</ele>
        <time>2015-07-18T09:56:49Z</time>
      </trkpt>
      <trkpt lat="43.10582" lon="2.24082">
        <ele>200.09</ele>
        <time>2015-07-18T09:56:54Z</time>
      </trkpt>
      <trkpt lat="43.10582" lon="2.24081">
        <ele>200.09</ele>
        <time>2015-07-18T09:56:55Z</time>
      </trkpt>
      <trkpt lat="43.10581" lon="2.24079">
        <ele>200.09</ele>
        <time>2015-07-18T09:56:56Z</time>
      </trkpt>
      <trkpt lat="43.10581" lon="2.24077">
        <ele>200.09</ele>
        <time>2015-07-18T09:56:57Z</time>
      </trkpt>
      <trkpt lat="43.10581" lon="2.24076">
        <ele>200.57</ele>
        <time>2015-07-18T09:56:58Z</time>
      </trkpt>
      <trkpt lat="43.10581" lon="2.24074">
        <ele>200.57</ele>
        <time>2015-07-18T09:56:59Z</time>
      </trkpt>
      <trkpt lat="43.10582" lon="2.24052">
        <ele>202.01</ele>
        <time>2015-07-18T09:57:07Z</time>
      </trkpt>
      <trkpt lat="43.10581" lon="2.24049">
        <ele>202.01</ele>
        <time>2015-07-18T09:57:08Z</time>
      </trkpt>
      <trkpt lat="43.10582" lon="2.24047">
        <ele>202.49</ele>
        <time>2015-07-18T09:57:09Z</time>
      </trkpt>
      <trkpt lat="43.10582" lon="2.24044">
        <ele>202.49</ele>
        <time>2015-07-18T09:57:10Z</time>
      </trkpt>
      <trkpt lat="43.10582" lon="2.24041">
        <ele>202.98</ele>
        <time>2015-07-18T09:57:11Z</time>
      </trkpt>
      <trkpt lat="43.10582" lon="2.24038">
        <ele>202.98</ele>
        <time>2015-07-18T09:57:12Z</time>
      </trkpt>
      <trkpt lat="43.10591" lon="2.23984">
        <ele>206.34</ele>
        <time>2015-07-18T09:57:29Z</time>
      </trkpt>
      <trkpt lat="43.1061" lon="2.23944">
        <ele>209.22</ele>
        <time>2015-07-18T09:57:44Z</time>
      </trkpt>
      <trkpt lat="43.10614" lon="2.23919">
        <ele>209.7</ele>
        <time>2015-07-18T09:57:54Z</time>
      </trkpt>
      <trkpt lat="43.10615" lon="2.23918">
        <ele>209.7</ele>
        <time>2015-07-18T09:57:55Z</time>
      </trkpt>
      <trkpt lat="43.10615" lon="2.23916">
        <ele>210.19</ele>
        <time>2015-07-18T09:57:56Z</time>
      </trkpt>
      <trkpt lat="43.10615" lon="2.23914">
        <ele>210.19</ele>
        <time>2015-07-18T09:57:57Z</time>
      </trkpt>
      <trkpt lat="43.10615" lon="2.23911">
        <ele>210.67</ele>
        <time>2015-07-18T09:57:58Z</time>
      </trkpt>
      <trkpt lat="43.10627" lon="2.2388">
        <ele>214.03</ele>
        <time>2015-07-18T09:58:10Z</time>
      </trkpt>
      <trkpt lat="43.10628" lon="2.23877">
        <ele>214.03</ele>
        <time>2015-07-18T09:58:11Z</time>
      </trkpt>
      <trkpt lat="43.10634" lon="2.23863">
        <ele>214.99</ele>
        <time>2015-07-18T09:58:24Z</time>
      </trkpt>
      <trkpt lat="43.10636" lon="2.23864">
        <ele>214.99</ele>
        <time>2015-07-18T09:59:00Z</time>
      </trkpt>
      <trkpt lat="43.10639" lon="2.23856">
        <ele>214.99</ele>
        <time>2015-07-18T09:59:18Z</time>
      </trkpt>
      <trkpt lat="43.1064" lon="2.23855">
        <ele>214.99</ele>
        <time>2015-07-18T09:59:19Z</time>
      </trkpt>
      <trkpt lat="43.10642" lon="2.23853">
        <ele>214.99</ele>
        <time>2015-07-18T09:59:20Z</time>
      </trkpt>
      <trkpt lat="43.10644" lon="2.23851">
        <ele>214.99</ele>
        <time>2015-07-18T09:59:21Z</time>
      </trkpt>
      <trkpt lat="43.10645" lon="2.23849">
        <ele>215.47</ele>
        <time>2015-07-18T09:59:22Z</time>
      </trkpt>
      <trkpt lat="43.10647" lon="2.23847">
        <ele>215.47</ele>
        <time>2015-07-18T09:59:23Z</time>
      </trkpt>
      <trkpt lat="43.10667" lon="2.23823">
        <ele>218.84</ele>
        <time>2015-07-18T09:59:36Z</time>
      </trkpt>
      <trkpt lat="43.10681" lon="2.23795">
        <ele>222.2</ele>
        <time>2015-07-18T09:59:48Z</time>
      </trkpt>
      <trkpt lat="43.10699" lon="2.23754">
        <ele>225.57</ele>
        <time>2015-07-18T10:00:05Z</time>
      </trkpt>
      <trkpt lat="43.1072" lon="2.2373">
        <ele>228.45</ele>
        <time>2015-07-18T10:00:19Z</time>
      </trkpt>
      <trkpt lat="43.10737" lon="2.23712">
        <ele>231.81</ele>
        <time>2015-07-18T10:00:31Z</time>
      </trkpt>
      <trkpt lat="43.1075" lon="2.23696">
        <ele>234.7</ele>
        <time>2015-07-18T10:00:42Z</time>
      </trkpt>
      <trkpt lat="43.10757" lon="2.23675">
        <ele>238.06</ele>
        <time>2015-07-18T10:00:52Z</time>
      </trkpt>
      <trkpt lat="43.10766" lon="2.2366">
        <ele>240.47</ele>
        <time>2015-07-18T10:01:00Z</time>
      </trkpt>
      <trkpt lat="43.10767" lon="2.23659">
        <ele>240.95</ele>
        <time>2015-07-18T10:01:01Z</time>
      </trkpt>
      <trkpt lat="43.10768" lon="2.23658">
        <ele>240.95</ele>
        <time>2015-07-18T10:01:02Z</time>
      </trkpt>
      <trkpt lat="43.10775" lon="2.23653">
        <ele>242.39</ele>
        <time>2015-07-18T10:01:07Z</time>
      </trkpt>
      <trkpt lat="43.10777" lon="2.23653">
        <ele>242.39</ele>
        <time>2015-07-18T10:01:08Z</time>
      </trkpt>
      <trkpt lat="43.10779" lon="2.23654">
        <ele>243.35</ele>
        <time>2015-07-18T10:01:18Z</time>
      </trkpt>
      <trkpt lat="43.10779" lon="2.23654">
        <ele>243.35</ele>
        <time>2015-07-18T10:01:36Z</time>
      </trkpt>
      <trkpt lat="43.10778" lon="2.23653">
        <ele>243.35</ele>
        <time>2015-07-18T10:01:53Z</time>
      </trkpt>
      <trkpt lat="43.10779" lon="2.23654">
        <ele>242.87</ele>
        <time>2015-07-18T10:02:22Z</time>
      </trkpt>
      <trkpt lat="43.10781" lon="2.23653">
        <ele>242.87</ele>
        <time>2015-07-18T10:02:23Z</time>
      </trkpt>
      <trkpt lat="43.10781" lon="2.23654">
        <ele>242.87</ele>
        <time>2015-07-18T10:02:57Z</time>
      </trkpt>
      <trkpt lat="43.10781" lon="2.2368">
        <ele>244.79</ele>
        <time>2015-07-18T10:03:08Z</time>
      </trkpt>
      <trkpt lat="43.10782" lon="2.23692">
        <ele>246.23</ele>
        <time>2015-07-18T10:03:13Z</time>
      </trkpt>
      <trkpt lat="43.10783" lon="2.23694">
        <ele>246.23</ele>
        <time>2015-07-18T10:03:14Z</time>
      </trkpt>
      <trkpt lat="43.10784" lon="2.23696">
        <ele>246.72</ele>
        <time>2015-07-18T10:03:15Z</time>
      </trkpt>
      <trkpt lat="43.10785" lon="2.23698">
        <ele>247.2</ele>
        <time>2015-07-18T10:03:16Z</time>
      </trkpt>
      <trkpt lat="43.10786" lon="2.23699">
        <ele>247.2</ele>
        <time>2015-07-18T10:03:17Z</time>
      </trkpt>
      <trkpt lat="43.10787" lon="2.23701">
        <ele>247.68</ele>
        <time>2015-07-18T10:03:18Z</time>
      </trkpt>
      <trkpt lat="43.10792" lon="2.23708">
        <ele>249.6</ele>
        <time>2015-07-18T10:03:23Z</time>
      </trkpt>
      <trkpt lat="43.10793" lon="2.23709">
        <ele>249.6</ele>
        <time>2015-07-18T10:03:24Z</time>
      </trkpt>
      <trkpt lat="43.10795" lon="2.2371">
        <ele>249.6</ele>
        <time>2015-07-18T10:03:25Z</time>
      </trkpt>
      <trkpt lat="43.10796" lon="2.23711">
        <ele>250.56</ele>
        <time>2015-07-18T10:03:26Z</time>
      </trkpt>
      <trkpt lat="43.10797" lon="2.23713">
        <ele>250.56</ele>
        <time>2015-07-18T10:03:27Z</time>
      </trkpt>
      <trkpt lat="43.10804" lon="2.2372">
        <ele>252</ele>
        <time>2015-07-18T10:03:33Z</time>
      </trkpt>
      <trkpt lat="43.10805" lon="2.2372">
        <ele>252.48</ele>
        <time>2015-07-18T10:03:34Z</time>
      </trkpt>
      <trkpt lat="43.10807" lon="2.2372">
        <ele>252.48</ele>
        <time>2015-07-18T10:03:35Z</time>
      </trkpt>
      <trkpt lat="43.10808" lon="2.23721">
        <ele>252.96</ele>
        <time>2015-07-18T10:03:36Z</time>
      </trkpt>
      <trkpt lat="43.1081" lon="2.23721">
        <ele>253.44</ele>
        <time>2015-07-18T10:03:37Z</time>
      </trkpt>
      <trkpt lat="43.10811" lon="2.23722">
        <ele>253.44</ele>
        <time>2015-07-18T10:03:38Z</time>
      </trkpt>
      <trkpt lat="43.10827" lon="2.23731">
        <ele>256.33</ele>
        <time>2015-07-18T10:03:49Z</time>
      </trkpt>
      <trkpt lat="43.10844" lon="2.23742">
        <ele>259.69</ele>
        <time>2015-07-18T10:04:01Z</time>
      </trkpt>
      <trkpt lat="43.10855" lon="2.2375">
        <ele>261.14</ele>
        <time>2015-07-18T10:04:16Z</time>
      </trkpt>
      <trkpt lat="43.10856" lon="2.23749">
        <ele>261.62</ele>
        <time>2015-07-18T10:04:51Z</time>
      </trkpt>
      <trkpt lat="43.10873" lon="2.23767">
        <ele>263.06</ele>
        <time>2015-07-18T10:05:03Z</time>
      </trkpt>
      <trkpt lat="43.10877" lon="2.23782">
        <ele>264.5</ele>
        <time>2015-07-18T10:05:09Z</time>
      </trkpt>
      <trkpt lat="43.10879" lon="2.23821">
        <ele>267.86</ele>
        <time>2015-07-18T10:05:25Z</time>
      </trkpt>
      <trkpt lat="43.10869" lon="2.23865">
        <ele>270.75</ele>
        <time>2015-07-18T10:05:42Z</time>
      </trkpt>
      <trkpt lat="43.10867" lon="2.23907">
        <ele>273.63</ele>
        <time>2015-07-18T10:05:57Z</time>
      </trkpt>
      <trkpt lat="43.10877" lon="2.2395">
        <ele>276.04</ele>
        <time>2015-07-18T10:06:13Z</time>
      </trkpt>
      <trkpt lat="43.10889" lon="2.23995">
        <ele>277.96</ele>
        <time>2015-07-18T10:06:28Z</time>
      </trkpt>
      <trkpt lat="43.10899" lon="2.24057">
        <ele>278.92</ele>
        <time>2015-07-18T10:06:46Z</time>
      </trkpt>
      <trkpt lat="43.10928" lon="2.24093">
        <ele>279.4</ele>
        <time>2015-07-18T10:06:59Z</time>
      </trkpt>
      <trkpt lat="43.10957" lon="2.24106">
        <ele>282.77</ele>
        <time>2015-07-18T10:07:11Z</time>
      </trkpt>
      <trkpt lat="43.10975" lon="2.24104">
        <ele>286.13</ele>
        <time>2015-07-18T10:07:19Z</time>
      </trkpt>
      <trkpt lat="43.1099" lon="2.24095">
        <ele>287.09</ele>
        <time>2015-07-18T10:07:29Z</time>
      </trkpt>
      <trkpt lat="43.1099" lon="2.24093">
        <ele>287.09</ele>
        <time>2015-07-18T10:07:30Z</time>
      </trkpt>
      <trkpt lat="43.1099" lon="2.2409">
        <ele>287.57</ele>
        <time>2015-07-18T10:07:31Z</time>
      </trkpt>
      <trkpt lat="43.1099" lon="2.24088">
        <ele>287.57</ele>
        <time>2015-07-18T10:07:32Z</time>
      </trkpt>
      <trkpt lat="43.10989" lon="2.24086">
        <ele>287.57</ele>
        <time>2015-07-18T10:07:33Z</time>
      </trkpt>
      <trkpt lat="43.10988" lon="2.24085">
        <ele>288.53</ele>
        <time>2015-07-18T10:07:34Z</time>
      </trkpt>
      <trkpt lat="43.10987" lon="2.24083">
        <ele>288.53</ele>
        <time>2015-07-18T10:07:35Z</time>
      </trkpt>
      <trkpt lat="43.10973" lon="2.24068">
        <ele>291.9</ele>
        <time>2015-07-18T10:07:46Z</time>
      </trkpt>
      <trkpt lat="43.10968" lon="2.24054">
        <ele>295.26</ele>
        <time>2015-07-18T10:07:53Z</time>
      </trkpt>
      <trkpt lat="43.10966" lon="2.24049">
        <ele>296.7</ele>
        <time>2015-07-18T10:07:56Z</time>
      </trkpt>
      <trkpt lat="43.10966" lon="2.24047">
        <ele>296.7</ele>
        <time>2015-07-18T10:07:57Z</time>
      </trkpt>
      <trkpt lat="43.10966" lon="2.24045">
        <ele>297.67</ele>
        <time>2015-07-18T10:07:58Z</time>
      </trkpt>
      <trkpt lat="43.10965" lon="2.24043">
        <ele>298.15</ele>
        <time>2015-07-18T10:07:59Z</time>
      </trkpt>
      <trkpt lat="43.10965" lon="2.24041">
        <ele>298.63</ele>
        <time>2015-07-18T10:08:00Z</time>
      </trkpt>
      <trkpt lat="43.10966" lon="2.24029">
        <ele>300.07</ele>
        <time>2015-07-18T10:08:10Z</time>
      </trkpt>
      <trkpt lat="43.10967" lon="2.2402">
        <ele>301.51</ele>
        <time>2015-07-18T10:08:16Z</time>
      </trkpt>
      <trkpt lat="43.10969" lon="2.24007">
        <ele>302.47</ele>
        <time>2015-07-18T10:08:27Z</time>
      </trkpt>
      <trkpt lat="43.10973" lon="2.23971">
        <ele>304.88</ele>
        <time>2015-07-18T10:08:41Z</time>
      </trkpt>
      <trkpt lat="43.10985" lon="2.23898">
        <ele>301.99</ele>
        <time>2015-07-18T10:08:56Z</time>
      </trkpt>
      <trkpt lat="43.10997" lon="2.23847">
        <ele>301.03</ele>
        <time>2015-07-18T10:09:03Z</time>
      </trkpt>
      <trkpt lat="43.10999" lon="2.2384">
        <ele>301.03</ele>
        <time>2015-07-18T10:09:04Z</time>
      </trkpt>
      <trkpt lat="43.11" lon="2.23833">
        <ele>300.55</ele>
        <time>2015-07-18T10:09:05Z</time>
      </trkpt>
      <trkpt lat="43.11021" lon="2.23752">
        <ele>296.7</ele>
        <time>2015-07-18T10:09:15Z</time>
      </trkpt>
      <trkpt lat="43.11023" lon="2.23742">
        <ele>296.22</ele>
        <time>2015-07-18T10:09:16Z</time>
      </trkpt>
      <trkpt lat="43.11025" lon="2.23692">
        <ele>294.78</ele>
        <time>2015-07-18T10:09:21Z</time>
      </trkpt>
      <trkpt lat="43.11027" lon="2.23683">
        <ele>294.3</ele>
        <time>2015-07-18T10:09:22Z</time>
      </trkpt>
      <trkpt lat="43.11032" lon="2.23656">
        <ele>296.22</ele>
        <time>2015-07-18T10:09:26Z</time>
      </trkpt>
      <trkpt lat="43.11036" lon="2.23639">
        <ele>297.18</ele>
        <time>2015-07-18T10:09:29Z</time>
      </trkpt>
      <trkpt lat="43.11038" lon="2.23633">
        <ele>297.18</ele>
        <time>2015-07-18T10:09:30Z</time>
      </trkpt>
      <trkpt lat="43.11041" lon="2.23618">
        <ele>298.15</ele>
        <time>2015-07-18T10:09:33Z</time>
      </trkpt>
      <trkpt lat="43.11043" lon="2.23613">
        <ele>298.15</ele>
        <time>2015-07-18T10:09:34Z</time>
      </trkpt>
      <trkpt lat="43.11045" lon="2.23609">
        <ele>298.63</ele>
        <time>2015-07-18T10:09:35Z</time>
      </trkpt>
      <trkpt lat="43.11047" lon="2.23604">
        <ele>298.63</ele>
        <time>2015-07-18T10:09:36Z</time>
      </trkpt>
      <trkpt lat="43.1105" lon="2.23601">
        <ele>299.11</ele>
        <time>2015-07-18T10:09:37Z</time>
      </trkpt>
      <trkpt lat="43.11053" lon="2.23597">
        <ele>299.11</ele>
        <time>2015-07-18T10:09:38Z</time>
      </trkpt>
      <trkpt lat="43.11055" lon="2.23593">
        <ele>299.11</ele>
        <time>2015-07-18T10:09:39Z</time>
      </trkpt>
      <trkpt lat="43.11058" lon="2.23589">
        <ele>299.11</ele>
        <time>2015-07-18T10:09:40Z</time>
      </trkpt>
      <trkpt lat="43.1106" lon="2.23585">
        <ele>299.11</ele>
        <time>2015-07-18T10:09:41Z</time>
      </trkpt>
      <trkpt lat="43.11076" lon="2.23569">
        <ele>299.59</ele>
        <time>2015-07-18T10:09:46Z</time>
      </trkpt>
      <trkpt lat="43.11094" lon="2.2356">
        <ele>298.15</ele>
        <time>2015-07-18T10:09:50Z</time>
      </trkpt>
      <trkpt lat="43.11098" lon="2.23556">
        <ele>297.67</ele>
        <time>2015-07-18T10:09:51Z</time>
      </trkpt>
      <trkpt lat="43.11102" lon="2.23551">
        <ele>297.18</ele>
        <time>2015-07-18T10:09:52Z</time>
      </trkpt>
      <trkpt lat="43.11105" lon="2.23545">
        <ele>297.18</ele>
        <time>2015-07-18T10:09:53Z</time>
      </trkpt>
      <trkpt lat="43.11107" lon="2.23539">
        <ele>297.18</ele>
        <time>2015-07-18T10:09:54Z</time>
      </trkpt>
      <trkpt lat="43.11109" lon="2.23533">
        <ele>296.7</ele>
        <time>2015-07-18T10:09:55Z</time>
      </trkpt>
      <trkpt lat="43.1111" lon="2.23526">
        <ele>296.7</ele>
        <time>2015-07-18T10:09:56Z</time>
      </trkpt>
      <trkpt lat="43.11117" lon="2.23497">
        <ele>293.34</ele>
        <time>2015-07-18T10:10:00Z</time>
      </trkpt>
      <trkpt lat="43.11124" lon="2.23466">
        <ele>290.94</ele>
        <time>2015-07-18T10:10:03Z</time>
      </trkpt>
      <trkpt lat="43.11124" lon="2.23455">
        <ele>290.94</ele>
        <time>2015-07-18T10:10:04Z</time>
      </trkpt>
      <trkpt lat="43.11122" lon="2.23444">
        <ele>290.46</ele>
        <time>2015-07-18T10:10:05Z</time>
      </trkpt>
      <trkpt lat="43.11117" lon="2.23426">
        <ele>290.46</ele>
        <time>2015-07-18T10:10:07Z</time>
      </trkpt>
      <trkpt lat="43.11118" lon="2.23417">
        <ele>290.46</ele>
        <time>2015-07-18T10:10:08Z</time>
      </trkpt>
      <trkpt lat="43.11119" lon="2.23408">
        <ele>290.46</ele>
        <time>2015-07-18T10:10:09Z</time>
      </trkpt>
      <trkpt lat="43.11122" lon="2.234">
        <ele>289.97</ele>
        <time>2015-07-18T10:10:10Z</time>
      </trkpt>
      <trkpt lat="43.11126" lon="2.23392">
        <ele>289.97</ele>
        <time>2015-07-18T10:10:11Z</time>
      </trkpt>
      <trkpt lat="43.11131" lon="2.23376">
        <ele>289.49</ele>
        <time>2015-07-18T10:10:13Z</time>
      </trkpt>
      <trkpt lat="43.11133" lon="2.23368">
        <ele>289.49</ele>
        <time>2015-07-18T10:10:14Z</time>
      </trkpt>
      <trkpt lat="43.11134" lon="2.23359">
        <ele>289.49</ele>
        <time>2015-07-18T10:10:15Z</time>
      </trkpt>
      <trkpt lat="43.11134" lon="2.23352">
        <ele>289.49</ele>
        <time>2015-07-18T10:10:16Z</time>
      </trkpt>
      <trkpt lat="43.11134" lon="2.23345">
        <ele>289.49</ele>
        <time>2015-07-18T10:10:17Z</time>
      </trkpt>
      <trkpt lat="43.11131" lon="2.2334">
        <ele>289.49</ele>
        <time>2015-07-18T10:10:18Z</time>
      </trkpt>
      <trkpt lat="43.11127" lon="2.23337">
        <ele>288.05</ele>
        <time>2015-07-18T10:10:19Z</time>
      </trkpt>
      <trkpt lat="43.11123" lon="2.23336">
        <ele>288.05</ele>
        <time>2015-07-18T10:10:20Z</time>
      </trkpt>
      <trkpt lat="43.1112" lon="2.23336">
        <ele>288.05</ele>
        <time>2015-07-18T10:10:21Z</time>
      </trkpt>
      <trkpt lat="43.11116" lon="2.23337">
        <ele>288.05</ele>
        <time>2015-07-18T10:10:22Z</time>
      </trkpt>
      <trkpt lat="43.11113" lon="2.23338">
        <ele>289.49</ele>
        <time>2015-07-18T10:10:23Z</time>
      </trkpt>
      <trkpt lat="43.11109" lon="2.23339">
        <ele>289.97</ele>
        <time>2015-07-18T10:10:24Z</time>
      </trkpt>
      <trkpt lat="43.11105" lon="2.23341">
        <ele>289.97</ele>
        <time>2015-07-18T10:10:25Z</time>
      </trkpt>
      <trkpt lat="43.11093" lon="2.23344">
        <ele>290.46</ele>
        <time>2015-07-18T10:10:28Z</time>
      </trkpt>
      <trkpt lat="43.11085" lon="2.23345">
        <ele>290.46</ele>
        <time>2015-07-18T10:10:30Z</time>
      </trkpt>
      <trkpt lat="43.11081" lon="2.23342">
        <ele>290.94</ele>
        <time>2015-07-18T10:10:31Z</time>
      </trkpt>
      <trkpt lat="43.11078" lon="2.23339">
        <ele>290.94</ele>
        <time>2015-07-18T10:10:32Z</time>
      </trkpt>
      <trkpt lat="43.11075" lon="2.23335">
        <ele>291.42</ele>
        <time>2015-07-18T10:10:33Z</time>
      </trkpt>
      <trkpt lat="43.11074" lon="2.23331">
        <ele>291.42</ele>
        <time>2015-07-18T10:10:34Z</time>
      </trkpt>
      <trkpt lat="43.11072" lon="2.23326">
        <ele>292.38</ele>
        <time>2015-07-18T10:10:35Z</time>
      </trkpt>
      <trkpt lat="43.11072" lon="2.23322">
        <ele>292.38</ele>
        <time>2015-07-18T10:10:36Z</time>
      </trkpt>
      <trkpt lat="43.11073" lon="2.23317">
        <ele>292.86</ele>
        <time>2015-07-18T10:10:37Z</time>
      </trkpt>
      <trkpt lat="43.11074" lon="2.23313">
        <ele>292.86</ele>
        <time>2015-07-18T10:10:38Z</time>
      </trkpt>
      <trkpt lat="43.11077" lon="2.23309">
        <ele>292.86</ele>
        <time>2015-07-18T10:10:39Z</time>
      </trkpt>
      <trkpt lat="43.1108" lon="2.23304">
        <ele>292.86</ele>
        <time>2015-07-18T10:10:40Z</time>
      </trkpt>
      <trkpt lat="43.11099" lon="2.23277">
        <ele>290.94</ele>
        <time>2015-07-18T10:10:45Z</time>
      </trkpt>
      <trkpt lat="43.11103" lon="2.23271">
        <ele>289.97</ele>
        <time>2015-07-18T10:10:46Z</time>
      </trkpt>
      <trkpt lat="43.11151" lon="2.23208">
        <ele>288.05</ele>
        <time>2015-07-18T10:10:58Z</time>
      </trkpt>
      <trkpt lat="43.11211" lon="2.23137">
        <ele>284.21</ele>
        <time>2015-07-18T10:11:12Z</time>
      </trkpt>
      <trkpt lat="43.11216" lon="2.23133">
        <ele>284.21</ele>
        <time>2015-07-18T10:11:13Z</time>
      </trkpt>
      <trkpt lat="43.11221" lon="2.23129">
        <ele>284.21</ele>
        <time>2015-07-18T10:11:14Z</time>
      </trkpt>
      <trkpt lat="43.11226" lon="2.23126">
        <ele>282.77</ele>
        <time>2015-07-18T10:11:15Z</time>
      </trkpt>
      <trkpt lat="43.11231" lon="2.23123">
        <ele>282.77</ele>
        <time>2015-07-18T10:11:16Z</time>
      </trkpt>
      <trkpt lat="43.11236" lon="2.23121">
        <ele>282.77</ele>
        <time>2015-07-18T10:11:17Z</time>
      </trkpt>
      <trkpt lat="43.11245" lon="2.23118">
        <ele>282.77</ele>
        <time>2015-07-18T10:11:19Z</time>
      </trkpt>
      <trkpt lat="43.11262" lon="2.2311">
        <ele>282.77</ele>
        <time>2015-07-18T10:11:23Z</time>
      </trkpt>
      <trkpt lat="43.11266" lon="2.23109">
        <ele>282.77</ele>
        <time>2015-07-18T10:11:24Z</time>
      </trkpt>
      <trkpt lat="43.11271" lon="2.23109">
        <ele>282.77</ele>
        <time>2015-07-18T10:11:25Z</time>
      </trkpt>
      <trkpt lat="43.11279" lon="2.23107">
        <ele>282.77</ele>
        <time>2015-07-18T10:11:27Z</time>
      </trkpt>
      <trkpt lat="43.11283" lon="2.23105">
        <ele>282.77</ele>
        <time>2015-07-18T10:11:28Z</time>
      </trkpt>
      <trkpt lat="43.11307" lon="2.23091">
        <ele>281.32</ele>
        <time>2015-07-18T10:11:34Z</time>
      </trkpt>
      <trkpt lat="43.11311" lon="2.23088">
        <ele>281.32</ele>
        <time>2015-07-18T10:11:35Z</time>
      </trkpt>
      <trkpt lat="43.11314" lon="2.23086">
        <ele>281.32</ele>
        <time>2015-07-18T10:11:36Z</time>
      </trkpt>
      <trkpt lat="43.11318" lon="2.23083">
        <ele>281.32</ele>
        <time>2015-07-18T10:11:37Z</time>
      </trkpt>
      <trkpt lat="43.11322" lon="2.2308">
        <ele>281.32</ele>
        <time>2015-07-18T10:11:38Z</time>
      </trkpt>
      <trkpt lat="43.11334" lon="2.23068">
        <ele>280.36</ele>
        <time>2015-07-18T10:11:41Z</time>
      </trkpt>
      <trkpt lat="43.11404" lon="2.2302">
        <ele>277.48</ele>
        <time>2015-07-18T10:11:54Z</time>
      </trkpt>
      <trkpt lat="43.11458" lon="2.22979">
        <ele>275.56</ele>
        <time>2015-07-18T10:12:04Z</time>
      </trkpt>
      <trkpt lat="43.11463" lon="2.22976">
        <ele>275.56</ele>
        <time>2015-07-18T10:12:05Z</time>
      </trkpt>
      <trkpt lat="43.11472" lon="2.2297">
        <ele>275.56</ele>
        <time>2015-07-18T10:12:07Z</time>
      </trkpt>
      <trkpt lat="43.11479" lon="2.22963">
        <ele>275.56</ele>
        <time>2015-07-18T10:12:09Z</time>
      </trkpt>
      <trkpt lat="43.11484" lon="2.22959">
        <ele>275.56</ele>
        <time>2015-07-18T10:12:10Z</time>
      </trkpt>
      <trkpt lat="43.11501" lon="2.22945">
        <ele>277.96</ele>
        <time>2015-07-18T10:12:14Z</time>
      </trkpt>
      <trkpt lat="43.11571" lon="2.229">
        <ele>277</ele>
        <time>2015-07-18T10:12:29Z</time>
      </trkpt>
      <trkpt lat="43.11575" lon="2.22897">
        <ele>277</ele>
        <time>2015-07-18T10:12:30Z</time>
      </trkpt>
      <trkpt lat="43.11592" lon="2.22886">
        <ele>277.96</ele>
        <time>2015-07-18T10:12:34Z</time>
      </trkpt>
      <trkpt lat="43.1166" lon="2.22844">
        <ele>278.92</ele>
        <time>2015-07-18T10:12:51Z</time>
      </trkpt>
      <trkpt lat="43.11708" lon="2.2281">
        <ele>280.36</ele>
        <time>2015-07-18T10:13:06Z</time>
      </trkpt>
      <trkpt lat="43.11753" lon="2.22786">
        <ele>281.32</ele>
        <time>2015-07-18T10:13:21Z</time>
      </trkpt>
      <trkpt lat="43.11816" lon="2.22751">
        <ele>281.8</ele>
        <time>2015-07-18T10:13:40Z</time>
      </trkpt>
      <trkpt lat="43.11859" lon="2.22736">
        <ele>282.28</ele>
        <time>2015-07-18T10:13:52Z</time>
      </trkpt>
      <trkpt lat="43.11909" lon="2.22727">
        <ele>284.21</ele>
        <time>2015-07-18T10:14:05Z</time>
      </trkpt>
      <trkpt lat="43.11964" lon="2.2272">
        <ele>286.13</ele>
        <time>2015-07-18T10:14:20Z</time>
      </trkpt>
      <trkpt lat="43.12021" lon="2.22714">
        <ele>288.53</ele>
        <time>2015-07-18T10:14:36Z</time>
      </trkpt>
      <trkpt lat="43.12057" lon="2.22697">
        <ele>290.94</ele>
        <time>2015-07-18T10:14:47Z</time>
      </trkpt>
      <trkpt lat="43.12097" lon="2.22676">
        <ele>292.86</ele>
        <time>2015-07-18T10:14:59Z</time>
      </trkpt>
      <trkpt lat="43.12145" lon="2.22665">
        <ele>295.74</ele>
        <time>2015-07-18T10:15:13Z</time>
      </trkpt>
      <trkpt lat="43.12178" lon="2.22649">
        <ele>298.63</ele>
        <time>2015-07-18T10:15:23Z</time>
      </trkpt>
      <trkpt lat="43.12197" lon="2.22645">
        <ele>297.18</ele>
        <time>2015-07-18T10:15:28Z</time>
      </trkpt>
      <trkpt lat="43.12201" lon="2.22645">
        <ele>297.18</ele>
        <time>2015-07-18T10:15:29Z</time>
      </trkpt>
      <trkpt lat="43.12205" lon="2.22645">
        <ele>297.18</ele>
        <time>2015-07-18T10:15:30Z</time>
      </trkpt>
      <trkpt lat="43.12209" lon="2.22643">
        <ele>297.18</ele>
        <time>2015-07-18T10:15:31Z</time>
      </trkpt>
      <trkpt lat="43.12228" lon="2.22635">
        <ele>297.18</ele>
        <time>2015-07-18T10:15:36Z</time>
      </trkpt>
      <trkpt lat="43.12245" lon="2.22625">
        <ele>297.67</ele>
        <time>2015-07-18T10:15:40Z</time>
      </trkpt>
      <trkpt lat="43.12249" lon="2.22623">
        <ele>297.67</ele>
        <time>2015-07-18T10:15:41Z</time>
      </trkpt>
      <trkpt lat="43.12303" lon="2.22599">
        <ele>297.18</ele>
        <time>2015-07-18T10:15:54Z</time>
      </trkpt>
      <trkpt lat="43.12316" lon="2.22593">
        <ele>298.63</ele>
        <time>2015-07-18T10:15:57Z</time>
      </trkpt>
      <trkpt lat="43.12379" lon="2.22565">
        <ele>300.55</ele>
        <time>2015-07-18T10:16:12Z</time>
      </trkpt>
      <trkpt lat="43.12446" lon="2.22535">
        <ele>302.47</ele>
        <time>2015-07-18T10:16:30Z</time>
      </trkpt>
      <trkpt lat="43.12455" lon="2.2253">
        <ele>303.91</ele>
        <time>2015-07-18T10:16:33Z</time>
      </trkpt>
      <trkpt lat="43.125" lon="2.22498">
        <ele>304.88</ele>
        <time>2015-07-18T10:16:46Z</time>
      </trkpt>
      <trkpt lat="43.12512" lon="2.22481">
        <ele>304.88</ele>
        <time>2015-07-18T10:16:50Z</time>
      </trkpt>
      <trkpt lat="43.12514" lon="2.22476">
        <ele>304.88</ele>
        <time>2015-07-18T10:16:51Z</time>
      </trkpt>
      <trkpt lat="43.12522" lon="2.22454">
        <ele>304.88</ele>
        <time>2015-07-18T10:16:55Z</time>
      </trkpt>
      <trkpt lat="43.12528" lon="2.22437">
        <ele>304.88</ele>
        <time>2015-07-18T10:16:58Z</time>
      </trkpt>
      <trkpt lat="43.12535" lon="2.2242">
        <ele>303.43</ele>
        <time>2015-07-18T10:17:01Z</time>
      </trkpt>
      <trkpt lat="43.12537" lon="2.22415">
        <ele>302.95</ele>
        <time>2015-07-18T10:17:02Z</time>
      </trkpt>
      <trkpt lat="43.1254" lon="2.22409">
        <ele>302.95</ele>
        <time>2015-07-18T10:17:03Z</time>
      </trkpt>
      <trkpt lat="43.12548" lon="2.22389">
        <ele>301.51</ele>
        <time>2015-07-18T10:17:06Z</time>
      </trkpt>
      <trkpt lat="43.12554" lon="2.22363">
        <ele>300.55</ele>
        <time>2015-07-18T10:17:09Z</time>
      </trkpt>
      <trkpt lat="43.12563" lon="2.22293">
        <ele>297.18</ele>
        <time>2015-07-18T10:17:16Z</time>
      </trkpt>
      <trkpt lat="43.12567" lon="2.22274">
        <ele>296.7</ele>
        <time>2015-07-18T10:17:18Z</time>
      </trkpt>
      <trkpt lat="43.1257" lon="2.22265">
        <ele>296.7</ele>
        <time>2015-07-18T10:17:19Z</time>
      </trkpt>
      <trkpt lat="43.1259" lon="2.22215">
        <ele>295.74</ele>
        <time>2015-07-18T10:17:25Z</time>
      </trkpt>
      <trkpt lat="43.12611" lon="2.22164">
        <ele>295.26</ele>
        <time>2015-07-18T10:17:32Z</time>
      </trkpt>
      <trkpt lat="43.12644" lon="2.22056">
        <ele>294.3</ele>
        <time>2015-07-18T10:17:46Z</time>
      </trkpt>
      <trkpt lat="43.12648" lon="2.22034">
        <ele>294.3</ele>
        <time>2015-07-18T10:17:49Z</time>
      </trkpt>
      <trkpt lat="43.12651" lon="2.22027">
        <ele>294.3</ele>
        <time>2015-07-18T10:17:50Z</time>
      </trkpt>
      <trkpt lat="43.1266" lon="2.22008">
        <ele>293.82</ele>
        <time>2015-07-18T10:17:53Z</time>
      </trkpt>
      <trkpt lat="43.12663" lon="2.22001">
        <ele>293.82</ele>
        <time>2015-07-18T10:17:54Z</time>
      </trkpt>
      <trkpt lat="43.12669" lon="2.21981">
        <ele>293.82</ele>
        <time>2015-07-18T10:17:57Z</time>
      </trkpt>
      <trkpt lat="43.12689" lon="2.21938">
        <ele>293.34</ele>
        <time>2015-07-18T10:18:04Z</time>
      </trkpt>
      <trkpt lat="43.12693" lon="2.21934">
        <ele>293.34</ele>
        <time>2015-07-18T10:18:05Z</time>
      </trkpt>
      <trkpt lat="43.12697" lon="2.2193">
        <ele>295.26</ele>
        <time>2015-07-18T10:18:06Z</time>
      </trkpt>
      <trkpt lat="43.12702" lon="2.21926">
        <ele>295.26</ele>
        <time>2015-07-18T10:18:07Z</time>
      </trkpt>
      <trkpt lat="43.12706" lon="2.21924">
        <ele>295.26</ele>
        <time>2015-07-18T10:18:08Z</time>
      </trkpt>
      <trkpt lat="43.1271" lon="2.21923">
        <ele>295.74</ele>
        <time>2015-07-18T10:18:09Z</time>
      </trkpt>
      <trkpt lat="43.12714" lon="2.21922">
        <ele>295.74</ele>
        <time>2015-07-18T10:18:10Z</time>
      </trkpt>
      <trkpt lat="43.12718" lon="2.21922">
        <ele>296.7</ele>
        <time>2015-07-18T10:18:11Z</time>
      </trkpt>
      <trkpt lat="43.12778" lon="2.21922">
        <ele>295.26</ele>
        <time>2015-07-18T10:18:24Z</time>
      </trkpt>
      <trkpt lat="43.12794" lon="2.21924">
        <ele>293.82</ele>
        <time>2015-07-18T10:18:27Z</time>
      </trkpt>
      <trkpt lat="43.12829" lon="2.21935">
        <ele>292.38</ele>
        <time>2015-07-18T10:18:33Z</time>
      </trkpt>
      <trkpt lat="43.12834" lon="2.21935">
        <ele>292.38</ele>
        <time>2015-07-18T10:18:34Z</time>
      </trkpt>
      <trkpt lat="43.12845" lon="2.21935">
        <ele>292.38</ele>
        <time>2015-07-18T10:18:36Z</time>
      </trkpt>
      <trkpt lat="43.1285" lon="2.21933">
        <ele>292.38</ele>
        <time>2015-07-18T10:18:37Z</time>
      </trkpt>
      <trkpt lat="43.12855" lon="2.21931">
        <ele>292.38</ele>
        <time>2015-07-18T10:18:38Z</time>
      </trkpt>
      <trkpt lat="43.12927" lon="2.21872">
        <ele>294.3</ele>
        <time>2015-07-18T10:18:54Z</time>
      </trkpt>
      <trkpt lat="43.13002" lon="2.21787">
        <ele>293.34</ele>
        <time>2015-07-18T10:19:11Z</time>
      </trkpt>
      <trkpt lat="43.13066" lon="2.21726">
        <ele>293.34</ele>
        <time>2015-07-18T10:19:26Z</time>
      </trkpt>
      <trkpt lat="43.13082" lon="2.21714">
        <ele>293.34</ele>
        <time>2015-07-18T10:19:30Z</time>
      </trkpt>
      <trkpt lat="43.13158" lon="2.21677">
        <ele>291.42</ele>
        <time>2015-07-18T10:19:45Z</time>
      </trkpt>
      <trkpt lat="43.13217" lon="2.21649">
        <ele>291.42</ele>
        <time>2015-07-18T10:19:56Z</time>
      </trkpt>
      <trkpt lat="43.13219" lon="2.21642">
        <ele>291.42</ele>
        <time>2015-07-18T10:19:57Z</time>
      </trkpt>
      <trkpt lat="43.13219" lon="2.21634">
        <ele>291.42</ele>
        <time>2015-07-18T10:19:58Z</time>
      </trkpt>
      <trkpt lat="43.13219" lon="2.21628">
        <ele>291.42</ele>
        <time>2015-07-18T10:19:59Z</time>
      </trkpt>
      <trkpt lat="43.13219" lon="2.21621">
        <ele>290.94</ele>
        <time>2015-07-18T10:20:00Z</time>
      </trkpt>
      <trkpt lat="43.13219" lon="2.21614">
        <ele>290.94</ele>
        <time>2015-07-18T10:20:01Z</time>
      </trkpt>
      <trkpt lat="43.1322" lon="2.21607">
        <ele>290.94</ele>
        <time>2015-07-18T10:20:02Z</time>
      </trkpt>
      <trkpt lat="43.13221" lon="2.216">
        <ele>290.46</ele>
        <time>2015-07-18T10:20:03Z</time>
      </trkpt>
      <trkpt lat="43.13227" lon="2.21526">
        <ele>286.61</ele>
        <time>2015-07-18T10:20:12Z</time>
      </trkpt>
      <trkpt lat="43.13227" lon="2.21517">
        <ele>286.61</ele>
        <time>2015-07-18T10:20:13Z</time>
      </trkpt>
      <trkpt lat="43.13229" lon="2.21464">
        <ele>283.73</ele>
        <time>2015-07-18T10:20:18Z</time>
      </trkpt>
      <trkpt lat="43.13232" lon="2.21383">
        <ele>279.4</ele>
        <time>2015-07-18T10:20:25Z</time>
      </trkpt>
      <trkpt lat="43.13235" lon="2.21328">
        <ele>276.04</ele>
        <time>2015-07-18T10:20:30Z</time>
      </trkpt>
      <trkpt lat="43.13239" lon="2.21295">
        <ele>272.19</ele>
        <time>2015-07-18T10:20:33Z</time>
      </trkpt>
      <trkpt lat="43.1324" lon="2.2126">
        <ele>268.35</ele>
        <time>2015-07-18T10:20:36Z</time>
      </trkpt>
      <trkpt lat="43.13241" lon="2.21251">
        <ele>266.9</ele>
        <time>2015-07-18T10:20:37Z</time>
      </trkpt>
      <trkpt lat="43.13242" lon="2.21242">
        <ele>265.46</ele>
        <time>2015-07-18T10:20:38Z</time>
      </trkpt>
      <trkpt lat="43.13245" lon="2.21234">
        <ele>263.54</ele>
        <time>2015-07-18T10:20:39Z</time>
      </trkpt>
      <trkpt lat="43.13249" lon="2.21226">
        <ele>262.1</ele>
        <time>2015-07-18T10:20:40Z</time>
      </trkpt>
      <trkpt lat="43.13254" lon="2.21219">
        <ele>261.14</ele>
        <time>2015-07-18T10:20:41Z</time>
      </trkpt>
      <trkpt lat="43.13259" lon="2.2121">
        <ele>260.17</ele>
        <time>2015-07-18T10:20:42Z</time>
      </trkpt>
      <trkpt lat="43.13263" lon="2.21201">
        <ele>257.77</ele>
        <time>2015-07-18T10:20:43Z</time>
      </trkpt>
      <trkpt lat="43.13274" lon="2.21179">
        <ele>253.44</ele>
        <time>2015-07-18T10:20:45Z</time>
      </trkpt>
      <trkpt lat="43.13287" lon="2.21152">
        <ele>250.08</ele>
        <time>2015-07-18T10:20:47Z</time>
      </trkpt>
      <trkpt lat="43.13308" lon="2.21119">
        <ele>245.75</ele>
        <time>2015-07-18T10:20:50Z</time>
      </trkpt>
      <trkpt lat="43.13318" lon="2.21109">
        <ele>244.31</ele>
        <time>2015-07-18T10:20:51Z</time>
      </trkpt>
      <trkpt lat="43.13329" lon="2.21101">
        <ele>244.31</ele>
        <time>2015-07-18T10:20:52Z</time>
      </trkpt>
      <trkpt lat="43.13353" lon="2.21083">
        <ele>248.64</ele>
        <time>2015-07-18T10:20:55Z</time>
      </trkpt>
      <trkpt lat="43.13359" lon="2.21078">
        <ele>249.6</ele>
        <time>2015-07-18T10:20:56Z</time>
      </trkpt>
      <trkpt lat="43.13363" lon="2.21073">
        <ele>250.56</ele>
        <time>2015-07-18T10:20:57Z</time>
      </trkpt>
      <trkpt lat="43.13376" lon="2.21055">
        <ele>253.93</ele>
        <time>2015-07-18T10:21:01Z</time>
      </trkpt>
      <trkpt lat="43.13385" lon="2.21039">
        <ele>256.33</ele>
        <time>2015-07-18T10:21:05Z</time>
      </trkpt>
      <trkpt lat="43.13401" lon="2.20985">
        <ele>255.85</ele>
        <time>2015-07-18T10:21:16Z</time>
      </trkpt>
      <trkpt lat="43.13413" lon="2.20954">
        <ele>252.48</ele>
        <time>2015-07-18T10:21:20Z</time>
      </trkpt>
      <trkpt lat="43.13418" lon="2.20946">
        <ele>251.52</ele>
        <time>2015-07-18T10:21:21Z</time>
      </trkpt>
      <trkpt lat="43.13424" lon="2.20938">
        <ele>251.52</ele>
        <time>2015-07-18T10:21:22Z</time>
      </trkpt>
      <trkpt lat="43.13442" lon="2.20913">
        <ele>249.12</ele>
        <time>2015-07-18T10:21:25Z</time>
      </trkpt>
      <trkpt lat="43.13448" lon="2.20906">
        <ele>248.16</ele>
        <time>2015-07-18T10:21:26Z</time>
      </trkpt>
      <trkpt lat="43.13456" lon="2.20902">
        <ele>247.2</ele>
        <time>2015-07-18T10:21:27Z</time>
      </trkpt>
      <trkpt lat="43.13465" lon="2.20902">
        <ele>246.23</ele>
        <time>2015-07-18T10:21:28Z</time>
      </trkpt>
      <trkpt lat="43.13474" lon="2.20901">
        <ele>245.75</ele>
        <time>2015-07-18T10:21:29Z</time>
      </trkpt>
      <trkpt lat="43.13482" lon="2.20899">
        <ele>244.79</ele>
        <time>2015-07-18T10:21:30Z</time>
      </trkpt>
      <trkpt lat="43.1349" lon="2.20895">
        <ele>244.79</ele>
        <time>2015-07-18T10:21:31Z</time>
      </trkpt>
      <trkpt lat="43.13496" lon="2.20891">
        <ele>244.79</ele>
        <time>2015-07-18T10:21:32Z</time>
      </trkpt>
      <trkpt lat="43.13502" lon="2.20888">
        <ele>246.23</ele>
        <time>2015-07-18T10:21:33Z</time>
      </trkpt>
      <trkpt lat="43.13508" lon="2.20886">
        <ele>247.68</ele>
        <time>2015-07-18T10:21:34Z</time>
      </trkpt>
      <trkpt lat="43.13512" lon="2.20884">
        <ele>247.68</ele>
        <time>2015-07-18T10:21:35Z</time>
      </trkpt>
      <trkpt lat="43.13522" lon="2.20882">
        <ele>248.64</ele>
        <time>2015-07-18T10:21:37Z</time>
      </trkpt>
      <trkpt lat="43.13526" lon="2.20883">
        <ele>249.12</ele>
        <time>2015-07-18T10:21:38Z</time>
      </trkpt>
      <trkpt lat="43.1355" lon="2.20888">
        <ele>250.08</ele>
        <time>2015-07-18T10:21:44Z</time>
      </trkpt>
      <trkpt lat="43.13554" lon="2.20888">
        <ele>250.08</ele>
        <time>2015-07-18T10:21:45Z</time>
      </trkpt>
      <trkpt lat="43.13558" lon="2.20888">
        <ele>250.08</ele>
        <time>2015-07-18T10:21:46Z</time>
      </trkpt>
      <trkpt lat="43.13562" lon="2.20886">
        <ele>250.08</ele>
        <time>2015-07-18T10:21:47Z</time>
      </trkpt>
      <trkpt lat="43.13565" lon="2.20884">
        <ele>250.08</ele>
        <time>2015-07-18T10:21:48Z</time>
      </trkpt>
      <trkpt lat="43.13577" lon="2.20881">
        <ele>247.2</ele>
        <time>2015-07-18T10:21:51Z</time>
      </trkpt>
      <trkpt lat="43.13582" lon="2.20881">
        <ele>246.23</ele>
        <time>2015-07-18T10:21:52Z</time>
      </trkpt>
      <trkpt lat="43.13588" lon="2.20878">
        <ele>245.27</ele>
        <time>2015-07-18T10:21:53Z</time>
      </trkpt>
      <trkpt lat="43.13594" lon="2.20877">
        <ele>244.31</ele>
        <time>2015-07-18T10:21:54Z</time>
      </trkpt>
      <trkpt lat="43.13601" lon="2.20876">
        <ele>242.87</ele>
        <time>2015-07-18T10:21:55Z</time>
      </trkpt>
      <trkpt lat="43.13609" lon="2.20878">
        <ele>242.39</ele>
        <time>2015-07-18T10:21:56Z</time>
      </trkpt>
      <trkpt lat="43.13615" lon="2.20883">
        <ele>242.39</ele>
        <time>2015-07-18T10:21:57Z</time>
      </trkpt>
      <trkpt lat="43.13622" lon="2.20888">
        <ele>241.91</ele>
        <time>2015-07-18T10:21:58Z</time>
      </trkpt>
      <trkpt lat="43.1363" lon="2.2089">
        <ele>241.91</ele>
        <time>2015-07-18T10:21:59Z</time>
      </trkpt>
      <trkpt lat="43.13636" lon="2.2089">
        <ele>244.31</ele>
        <time>2015-07-18T10:22:00Z</time>
      </trkpt>
      <trkpt lat="43.13642" lon="2.20889">
        <ele>245.27</ele>
        <time>2015-07-18T10:22:01Z</time>
      </trkpt>
      <trkpt lat="43.13648" lon="2.20886">
        <ele>246.23</ele>
        <time>2015-07-18T10:22:02Z</time>
      </trkpt>
      <trkpt lat="43.13652" lon="2.20883">
        <ele>246.72</ele>
        <time>2015-07-18T10:22:03Z</time>
      </trkpt>
      <trkpt lat="43.13656" lon="2.20878">
        <ele>246.72</ele>
        <time>2015-07-18T10:22:04Z</time>
      </trkpt>
      <trkpt lat="43.1366" lon="2.20874">
        <ele>247.2</ele>
        <time>2015-07-18T10:22:05Z</time>
      </trkpt>
      <trkpt lat="43.13701" lon="2.20807">
        <ele>247.2</ele>
        <time>2015-07-18T10:22:19Z</time>
      </trkpt>
      <trkpt lat="43.13709" lon="2.20797">
        <ele>246.23</ele>
        <time>2015-07-18T10:22:21Z</time>
      </trkpt>
      <trkpt lat="43.13714" lon="2.20793">
        <ele>246.23</ele>
        <time>2015-07-18T10:22:22Z</time>
      </trkpt>
      <trkpt lat="43.1372" lon="2.20789">
        <ele>245.27</ele>
        <time>2015-07-18T10:22:23Z</time>
      </trkpt>
      <trkpt lat="43.13726" lon="2.20788">
        <ele>245.27</ele>
        <time>2015-07-18T10:22:24Z</time>
      </trkpt>
      <trkpt lat="43.13732" lon="2.20786">
        <ele>244.79</ele>
        <time>2015-07-18T10:22:25Z</time>
      </trkpt>
      <trkpt lat="43.13739" lon="2.20782">
        <ele>244.79</ele>
        <time>2015-07-18T10:22:26Z</time>
      </trkpt>
      <trkpt lat="43.13744" lon="2.20779">
        <ele>244.31</ele>
        <time>2015-07-18T10:22:27Z</time>
      </trkpt>
      <trkpt lat="43.13749" lon="2.20773">
        <ele>243.35</ele>
        <time>2015-07-18T10:22:28Z</time>
      </trkpt>
      <trkpt lat="43.13752" lon="2.20766">
        <ele>242.87</ele>
        <time>2015-07-18T10:22:29Z</time>
      </trkpt>
      <trkpt lat="43.13754" lon="2.20758">
        <ele>242.87</ele>
        <time>2015-07-18T10:22:30Z</time>
      </trkpt>
      <trkpt lat="43.13757" lon="2.20752">
        <ele>242.87</ele>
        <time>2015-07-18T10:22:31Z</time>
      </trkpt>
      <trkpt lat="43.1376" lon="2.20746">
        <ele>242.87</ele>
        <time>2015-07-18T10:22:32Z</time>
      </trkpt>
      <trkpt lat="43.13764" lon="2.20741">
        <ele>243.83</ele>
        <time>2015-07-18T10:22:33Z</time>
      </trkpt>
      <trkpt lat="43.13768" lon="2.20739">
        <ele>244.31</ele>
        <time>2015-07-18T10:22:34Z</time>
      </trkpt>
      <trkpt lat="43.13771" lon="2.20737">
        <ele>244.31</ele>
        <time>2015-07-18T10:22:35Z</time>
      </trkpt>
      <trkpt lat="43.13773" lon="2.20734">
        <ele>245.27</ele>
        <time>2015-07-18T10:22:36Z</time>
      </trkpt>
      <trkpt lat="43.13773" lon="2.20732">
        <ele>245.75</ele>
        <time>2015-07-18T10:22:37Z</time>
      </trkpt>
      <trkpt lat="43.1377" lon="2.20731">
        <ele>246.23</ele>
        <time>2015-07-18T10:22:38Z</time>
      </trkpt>
      <trkpt lat="43.13767" lon="2.20732">
        <ele>246.23</ele>
        <time>2015-07-18T10:22:39Z</time>
      </trkpt>
      <trkpt lat="43.13764" lon="2.20733">
        <ele>246.23</ele>
        <time>2015-07-18T10:22:40Z</time>
      </trkpt>
      <trkpt lat="43.1376" lon="2.20734">
        <ele>246.23</ele>
        <time>2015-07-18T10:22:41Z</time>
      </trkpt>
      <trkpt lat="43.13734" lon="2.2074">
        <ele>246.23</ele>
        <time>2015-07-18T10:22:47Z</time>
      </trkpt>
      <trkpt lat="43.13685" lon="2.20746">
        <ele>246.72</ele>
        <time>2015-07-18T10:22:59Z</time>
      </trkpt>
      <trkpt lat="43.1368" lon="2.20745">
        <ele>246.72</ele>
        <time>2015-07-18T10:23:00Z</time>
      </trkpt>
      <trkpt lat="43.13676" lon="2.20741">
        <ele>246.72</ele>
        <time>2015-07-18T10:23:01Z</time>
      </trkpt>
      <trkpt lat="43.13673" lon="2.20735">
        <ele>246.72</ele>
        <time>2015-07-18T10:23:02Z</time>
      </trkpt>
      <trkpt lat="43.13671" lon="2.20731">
        <ele>247.2</ele>
        <time>2015-07-18T10:23:03Z</time>
      </trkpt>
      <trkpt lat="43.1367" lon="2.20726">
        <ele>247.2</ele>
        <time>2015-07-18T10:23:04Z</time>
      </trkpt>
      <trkpt lat="43.13668" lon="2.20722">
        <ele>247.2</ele>
        <time>2015-07-18T10:23:05Z</time>
      </trkpt>
      <trkpt lat="43.13663" lon="2.20674">
        <ele>250.56</ele>
        <time>2015-07-18T10:23:15Z</time>
      </trkpt>
      <trkpt lat="43.13646" lon="2.20634">
        <ele>253.93</ele>
        <time>2015-07-18T10:23:26Z</time>
      </trkpt>
      <trkpt lat="43.13612" lon="2.20582">
        <ele>256.81</ele>
        <time>2015-07-18T10:23:41Z</time>
      </trkpt>
      <trkpt lat="43.13563" lon="2.20528">
        <ele>257.77</ele>
        <time>2015-07-18T10:23:57Z</time>
      </trkpt>
      <trkpt lat="43.13537" lon="2.20497">
        <ele>256.33</ele>
        <time>2015-07-18T10:24:04Z</time>
      </trkpt>
      <trkpt lat="43.13483" lon="2.20419">
        <ele>255.85</ele>
        <time>2015-07-18T10:24:19Z</time>
      </trkpt>
      <trkpt lat="43.13463" lon="2.20385">
        <ele>257.29</ele>
        <time>2015-07-18T10:24:26Z</time>
      </trkpt>
      <trkpt lat="43.13442" lon="2.20345">
        <ele>258.73</ele>
        <time>2015-07-18T10:24:37Z</time>
      </trkpt>
      <trkpt lat="43.13442" lon="2.2034">
        <ele>257.77</ele>
        <time>2015-07-18T10:24:38Z</time>
      </trkpt>
      <trkpt lat="43.13444" lon="2.20335">
        <ele>257.29</ele>
        <time>2015-07-18T10:24:39Z</time>
      </trkpt>
      <trkpt lat="43.13446" lon="2.20331">
        <ele>256.33</ele>
        <time>2015-07-18T10:24:40Z</time>
      </trkpt>
      <trkpt lat="43.13447" lon="2.20326">
        <ele>255.85</ele>
        <time>2015-07-18T10:24:41Z</time>
      </trkpt>
      <trkpt lat="43.13448" lon="2.20321">
        <ele>255.37</ele>
        <time>2015-07-18T10:24:42Z</time>
      </trkpt>
      <trkpt lat="43.1345" lon="2.20316">
        <ele>254.89</ele>
        <time>2015-07-18T10:24:43Z</time>
      </trkpt>
      <trkpt lat="43.13451" lon="2.20311">
        <ele>253.44</ele>
        <time>2015-07-18T10:24:44Z</time>
      </trkpt>
      <trkpt lat="43.13454" lon="2.20299">
        <ele>251.04</ele>
        <time>2015-07-18T10:24:46Z</time>
      </trkpt>
      <trkpt lat="43.13457" lon="2.2028">
        <ele>247.2</ele>
        <time>2015-07-18T10:24:49Z</time>
      </trkpt>
      <trkpt lat="43.13458" lon="2.20272">
        <ele>245.27</ele>
        <time>2015-07-18T10:24:50Z</time>
      </trkpt>
      <trkpt lat="43.13458" lon="2.20264">
        <ele>243.83</ele>
        <time>2015-07-18T10:24:51Z</time>
      </trkpt>
      <trkpt lat="43.1346" lon="2.20257">
        <ele>242.87</ele>
        <time>2015-07-18T10:24:52Z</time>
      </trkpt>
      <trkpt lat="43.13464" lon="2.20251">
        <ele>241.43</ele>
        <time>2015-07-18T10:24:53Z</time>
      </trkpt>
      <trkpt lat="43.13469" lon="2.20245">
        <ele>240.47</ele>
        <time>2015-07-18T10:24:54Z</time>
      </trkpt>
      <trkpt lat="43.13473" lon="2.20239">
        <ele>238.54</ele>
        <time>2015-07-18T10:24:55Z</time>
      </trkpt>
      <trkpt lat="43.13476" lon="2.20233">
        <ele>237.58</ele>
        <time>2015-07-18T10:24:56Z</time>
      </trkpt>
      <trkpt lat="43.13481" lon="2.20223">
        <ele>234.7</ele>
        <time>2015-07-18T10:24:58Z</time>
      </trkpt>
      <trkpt lat="43.13482" lon="2.20217">
        <ele>233.26</ele>
        <time>2015-07-18T10:24:59Z</time>
      </trkpt>
      <trkpt lat="43.13484" lon="2.20211">
        <ele>231.81</ele>
        <time>2015-07-18T10:25:00Z</time>
      </trkpt>
      <trkpt lat="43.13487" lon="2.20196">
        <ele>229.41</ele>
        <time>2015-07-18T10:25:03Z</time>
      </trkpt>
      <trkpt lat="43.13485" lon="2.20194">
        <ele>228.93</ele>
        <time>2015-07-18T10:25:04Z</time>
      </trkpt>
      <trkpt lat="43.13481" lon="2.20193">
        <ele>228.45</ele>
        <time>2015-07-18T10:25:05Z</time>
      </trkpt>
      <trkpt lat="43.13479" lon="2.20194">
        <ele>228.45</ele>
        <time>2015-07-18T10:25:06Z</time>
      </trkpt>
      <trkpt lat="43.13476" lon="2.20197">
        <ele>228.45</ele>
        <time>2015-07-18T10:25:07Z</time>
      </trkpt>
      <trkpt lat="43.13472" lon="2.20201">
        <ele>227.49</ele>
        <time>2015-07-18T10:25:08Z</time>
      </trkpt>
      <trkpt lat="43.13469" lon="2.20204">
        <ele>227.49</ele>
        <time>2015-07-18T10:25:09Z</time>
      </trkpt>
      <trkpt lat="43.13465" lon="2.20206">
        <ele>227.49</ele>
        <time>2015-07-18T10:25:10Z</time>
      </trkpt>
      <trkpt lat="43.13449" lon="2.20221">
        <ele>227.01</ele>
        <time>2015-07-18T10:25:14Z</time>
      </trkpt>
      <trkpt lat="43.13444" lon="2.20223">
        <ele>227.01</ele>
        <time>2015-07-18T10:25:15Z</time>
      </trkpt>
      <trkpt lat="43.1343" lon="2.20225">
        <ele>225.57</ele>
        <time>2015-07-18T10:25:18Z</time>
      </trkpt>
      <trkpt lat="43.13415" lon="2.20222">
        <ele>228.93</ele>
        <time>2015-07-18T10:25:22Z</time>
      </trkpt>
      <trkpt lat="43.13406" lon="2.20219">
        <ele>232.3</ele>
        <time>2015-07-18T10:25:28Z</time>
      </trkpt>
      <trkpt lat="43.13393" lon="2.20211">
        <ele>235.66</ele>
        <time>2015-07-18T10:25:36Z</time>
      </trkpt>
      <trkpt lat="43.13391" lon="2.20209">
        <ele>236.14</ele>
        <time>2015-07-18T10:25:38Z</time>
      </trkpt>
      <trkpt lat="43.13388" lon="2.20202">
        <ele>237.1</ele>
        <time>2015-07-18T10:25:42Z</time>
      </trkpt>
      <trkpt lat="43.13387" lon="2.202">
        <ele>237.58</ele>
        <time>2015-07-18T10:25:43Z</time>
      </trkpt>
      <trkpt lat="43.1337" lon="2.20173">
        <ele>239.51</ele>
        <time>2015-07-18T10:25:58Z</time>
      </trkpt>
      <trkpt lat="43.13349" lon="2.20146">
        <ele>240.95</ele>
        <time>2015-07-18T10:26:12Z</time>
      </trkpt>
      <trkpt lat="43.13344" lon="2.20137">
        <ele>241.43</ele>
        <time>2015-07-18T10:26:16Z</time>
      </trkpt>
      <trkpt lat="43.13329" lon="2.20098">
        <ele>242.87</ele>
        <time>2015-07-18T10:26:30Z</time>
      </trkpt>
      <trkpt lat="43.13307" lon="2.2006">
        <ele>245.27</ele>
        <time>2015-07-18T10:26:45Z</time>
      </trkpt>
      <trkpt lat="43.13281" lon="2.20032">
        <ele>248.16</ele>
        <time>2015-07-18T10:26:59Z</time>
      </trkpt>
      <trkpt lat="43.13267" lon="2.20017">
        <ele>251.04</ele>
        <time>2015-07-18T10:27:07Z</time>
      </trkpt>
      <trkpt lat="43.13251" lon="2.19996">
        <ele>254.89</ele>
        <time>2015-07-18T10:27:18Z</time>
      </trkpt>
      <trkpt lat="43.13237" lon="2.19962">
        <ele>252.96</ele>
        <time>2015-07-18T10:27:26Z</time>
      </trkpt>
      <trkpt lat="43.13235" lon="2.19956">
        <ele>252.96</ele>
        <time>2015-07-18T10:27:27Z</time>
      </trkpt>
      <trkpt lat="43.1322" lon="2.19904">
        <ele>254.41</ele>
        <time>2015-07-18T10:27:39Z</time>
      </trkpt>
      <trkpt lat="43.13249" lon="2.19872">
        <ele>255.37</ele>
        <time>2015-07-18T10:27:50Z</time>
      </trkpt>
      <trkpt lat="43.13279" lon="2.1982">
        <ele>256.33</ele>
        <time>2015-07-18T10:28:05Z</time>
      </trkpt>
      <trkpt lat="43.13318" lon="2.19792">
        <ele>256.81</ele>
        <time>2015-07-18T10:28:19Z</time>
      </trkpt>
      <trkpt lat="43.13353" lon="2.19768">
        <ele>258.73</ele>
        <time>2015-07-18T10:28:32Z</time>
      </trkpt>
      <trkpt lat="43.13399" lon="2.19737">
        <ele>259.69</ele>
        <time>2015-07-18T10:28:47Z</time>
      </trkpt>
      <trkpt lat="43.13441" lon="2.197">
        <ele>261.62</ele>
        <time>2015-07-18T10:29:02Z</time>
      </trkpt>
      <trkpt lat="43.13501" lon="2.19658">
        <ele>262.58</ele>
        <time>2015-07-18T10:29:19Z</time>
      </trkpt>
      <trkpt lat="43.13555" lon="2.19634">
        <ele>264.02</ele>
        <time>2015-07-18T10:29:34Z</time>
      </trkpt>
      <trkpt lat="43.13588" lon="2.19606">
        <ele>264.5</ele>
        <time>2015-07-18T10:29:45Z</time>
      </trkpt>
      <trkpt lat="43.13607" lon="2.19576">
        <ele>260.17</ele>
        <time>2015-07-18T10:29:49Z</time>
      </trkpt>
      <trkpt lat="43.13626" lon="2.19546">
        <ele>256.33</ele>
        <time>2015-07-18T10:29:52Z</time>
      </trkpt>
      <trkpt lat="43.13646" lon="2.19513">
        <ele>252.96</ele>
        <time>2015-07-18T10:29:55Z</time>
      </trkpt>
      <trkpt lat="43.13667" lon="2.19483">
        <ele>251.04</ele>
        <time>2015-07-18T10:29:58Z</time>
      </trkpt>
      <trkpt lat="43.13715" lon="2.19415">
        <ele>247.68</ele>
        <time>2015-07-18T10:30:05Z</time>
      </trkpt>
      <trkpt lat="43.1372" lon="2.19409">
        <ele>247.68</ele>
        <time>2015-07-18T10:30:06Z</time>
      </trkpt>
      <trkpt lat="43.13722" lon="2.19402">
        <ele>247.68</ele>
        <time>2015-07-18T10:30:07Z</time>
      </trkpt>
      <trkpt lat="43.13723" lon="2.19395">
        <ele>247.68</ele>
        <time>2015-07-18T10:30:08Z</time>
      </trkpt>
      <trkpt lat="43.1372" lon="2.19389">
        <ele>247.68</ele>
        <time>2015-07-18T10:30:09Z</time>
      </trkpt>
      <trkpt lat="43.13717" lon="2.19385">
        <ele>247.68</ele>
        <time>2015-07-18T10:30:10Z</time>
      </trkpt>
      <trkpt lat="43.13702" lon="2.19362">
        <ele>247.68</ele>
        <time>2015-07-18T10:30:15Z</time>
      </trkpt>
      <trkpt lat="43.13675" lon="2.19309">
        <ele>250.56</ele>
        <time>2015-07-18T10:30:26Z</time>
      </trkpt>
      <trkpt lat="43.13635" lon="2.19256">
        <ele>252.96</ele>
        <time>2015-07-18T10:30:41Z</time>
      </trkpt>
      <trkpt lat="43.13601" lon="2.19207">
        <ele>253.44</ele>
        <time>2015-07-18T10:30:53Z</time>
      </trkpt>
      <trkpt lat="43.13597" lon="2.19203">
        <ele>253.44</ele>
        <time>2015-07-18T10:30:54Z</time>
      </trkpt>
      <trkpt lat="43.13565" lon="2.19162">
        <ele>256.81</ele>
        <time>2015-07-18T10:31:06Z</time>
      </trkpt>
      <trkpt lat="43.13555" lon="2.19141">
        <ele>259.21</ele>
        <time>2015-07-18T10:31:12Z</time>
      </trkpt>
      <trkpt lat="43.13534" lon="2.19097">
        <ele>262.1</ele>
        <time>2015-07-18T10:31:26Z</time>
      </trkpt>
      <trkpt lat="43.13519" lon="2.19062">
        <ele>259.69</ele>
        <time>2015-07-18T10:31:32Z</time>
      </trkpt>
      <trkpt lat="43.13506" lon="2.19031">
        <ele>254.89</ele>
        <time>2015-07-18T10:31:35Z</time>
      </trkpt>
      <trkpt lat="43.13496" lon="2.19004">
        <ele>251.04</ele>
        <time>2015-07-18T10:31:37Z</time>
      </trkpt>
      <trkpt lat="43.13485" lon="2.18976">
        <ele>246.72</ele>
        <time>2015-07-18T10:31:39Z</time>
      </trkpt>
      <trkpt lat="43.13474" lon="2.18945">
        <ele>242.87</ele>
        <time>2015-07-18T10:31:41Z</time>
      </trkpt>
      <trkpt lat="43.13457" lon="2.18898">
        <ele>240.47</ele>
        <time>2015-07-18T10:31:44Z</time>
      </trkpt>
      <trkpt lat="43.13453" lon="2.18882">
        <ele>239.99</ele>
        <time>2015-07-18T10:31:45Z</time>
      </trkpt>
      <trkpt lat="43.13451" lon="2.18866">
        <ele>239.99</ele>
        <time>2015-07-18T10:31:46Z</time>
      </trkpt>
      <trkpt lat="43.1345" lon="2.18851">
        <ele>239.51</ele>
        <time>2015-07-18T10:31:47Z</time>
      </trkpt>
      <trkpt lat="43.13448" lon="2.18784">
        <ele>241.43</ele>
        <time>2015-07-18T10:31:52Z</time>
      </trkpt>
      <trkpt lat="43.13446" lon="2.18697">
        <ele>243.83</ele>
        <time>2015-07-18T10:32:02Z</time>
      </trkpt>
      <trkpt lat="43.1344" lon="2.18643">
        <ele>245.75</ele>
        <time>2015-07-18T10:32:13Z</time>
      </trkpt>
      <trkpt lat="43.13438" lon="2.18619">
        <ele>244.79</ele>
        <time>2015-07-18T10:32:17Z</time>
      </trkpt>
      <trkpt lat="43.13438" lon="2.18606">
        <ele>244.79</ele>
        <time>2015-07-18T10:32:19Z</time>
      </trkpt>
      <trkpt lat="43.13438" lon="2.186">
        <ele>244.31</ele>
        <time>2015-07-18T10:32:20Z</time>
      </trkpt>
      <trkpt lat="43.13438" lon="2.18594">
        <ele>244.31</ele>
        <time>2015-07-18T10:32:21Z</time>
      </trkpt>
      <trkpt lat="43.13438" lon="2.18575">
        <ele>243.83</ele>
        <time>2015-07-18T10:32:24Z</time>
      </trkpt>
      <trkpt lat="43.13438" lon="2.18568">
        <ele>243.83</ele>
        <time>2015-07-18T10:32:25Z</time>
      </trkpt>
      <trkpt lat="43.13438" lon="2.18562">
        <ele>243.83</ele>
        <time>2015-07-18T10:32:26Z</time>
      </trkpt>
      <trkpt lat="43.13436" lon="2.1849">
        <ele>239.99</ele>
        <time>2015-07-18T10:32:36Z</time>
      </trkpt>
      <trkpt lat="43.13435" lon="2.18471">
        <ele>238.54</ele>
        <time>2015-07-18T10:32:38Z</time>
      </trkpt>
      <trkpt lat="43.13436" lon="2.18461">
        <ele>238.54</ele>
        <time>2015-07-18T10:32:39Z</time>
      </trkpt>
      <trkpt lat="43.13438" lon="2.18451">
        <ele>238.54</ele>
        <time>2015-07-18T10:32:40Z</time>
      </trkpt>
      <trkpt lat="43.13451" lon="2.18372">
        <ele>233.74</ele>
        <time>2015-07-18T10:32:48Z</time>
      </trkpt>
      <trkpt lat="43.13452" lon="2.18344">
        <ele>230.37</ele>
        <time>2015-07-18T10:32:50Z</time>
      </trkpt>
      <trkpt lat="43.13454" lon="2.18313">
        <ele>225.57</ele>
        <time>2015-07-18T10:32:52Z</time>
      </trkpt>
      <trkpt lat="43.13457" lon="2.18267">
        <ele>223.64</ele>
        <time>2015-07-18T10:32:55Z</time>
      </trkpt>
      <trkpt lat="43.13466" lon="2.18212">
        <ele>223.16</ele>
        <time>2015-07-18T10:32:59Z</time>
      </trkpt>
      <trkpt lat="43.13472" lon="2.18203">
        <ele>223.16</ele>
        <time>2015-07-18T10:33:00Z</time>
      </trkpt>
      <trkpt lat="43.13478" lon="2.18195">
        <ele>223.16</ele>
        <time>2015-07-18T10:33:01Z</time>
      </trkpt>
      <trkpt lat="43.13495" lon="2.18177">
        <ele>225.09</ele>
        <time>2015-07-18T10:33:04Z</time>
      </trkpt>
      <trkpt lat="43.1353" lon="2.18118">
        <ele>228.45</ele>
        <time>2015-07-18T10:33:14Z</time>
      </trkpt>
      <trkpt lat="43.13563" lon="2.18064">
        <ele>231.33</ele>
        <time>2015-07-18T10:33:26Z</time>
      </trkpt>
      <trkpt lat="43.13603" lon="2.17983">
        <ele>234.22</ele>
        <time>2015-07-18T10:33:46Z</time>
      </trkpt>
      <trkpt lat="43.13642" lon="2.1789">
        <ele>237.58</ele>
        <time>2015-07-18T10:34:08Z</time>
      </trkpt>
      <trkpt lat="43.13671" lon="2.17824">
        <ele>240.95</ele>
        <time>2015-07-18T10:34:24Z</time>
      </trkpt>
      <trkpt lat="43.13702" lon="2.17743">
        <ele>242.87</ele>
        <time>2015-07-18T10:34:43Z</time>
      </trkpt>
      <trkpt lat="43.13728" lon="2.17696">
        <ele>241.91</ele>
        <time>2015-07-18T10:34:55Z</time>
      </trkpt>
      <trkpt lat="43.13731" lon="2.17691">
        <ele>241.91</ele>
        <time>2015-07-18T10:34:56Z</time>
      </trkpt>
      <trkpt lat="43.13751" lon="2.17652">
        <ele>239.51</ele>
        <time>2015-07-18T10:35:02Z</time>
      </trkpt>
      <trkpt lat="43.13754" lon="2.17643">
        <ele>239.51</ele>
        <time>2015-07-18T10:35:03Z</time>
      </trkpt>
      <trkpt lat="43.13756" lon="2.17634">
        <ele>239.02</ele>
        <time>2015-07-18T10:35:04Z</time>
      </trkpt>
      <trkpt lat="43.13757" lon="2.17624">
        <ele>238.06</ele>
        <time>2015-07-18T10:35:05Z</time>
      </trkpt>
      <trkpt lat="43.13757" lon="2.17613">
        <ele>238.06</ele>
        <time>2015-07-18T10:35:06Z</time>
      </trkpt>
      <trkpt lat="43.13757" lon="2.17603">
        <ele>237.58</ele>
        <time>2015-07-18T10:35:07Z</time>
      </trkpt>
      <trkpt lat="43.13754" lon="2.17561">
        <ele>236.14</ele>
        <time>2015-07-18T10:35:11Z</time>
      </trkpt>
      <trkpt lat="43.13753" lon="2.17551">
        <ele>235.66</ele>
        <time>2015-07-18T10:35:12Z</time>
      </trkpt>
      <trkpt lat="43.13751" lon="2.17542">
        <ele>235.66</ele>
        <time>2015-07-18T10:35:13Z</time>
      </trkpt>
      <trkpt lat="43.13747" lon="2.17533">
        <ele>235.66</ele>
        <time>2015-07-18T10:35:14Z</time>
      </trkpt>
      <trkpt lat="43.13742" lon="2.17525">
        <ele>234.7</ele>
        <time>2015-07-18T10:35:15Z</time>
      </trkpt>
      <trkpt lat="43.13737" lon="2.17519">
        <ele>234.7</ele>
        <time>2015-07-18T10:35:16Z</time>
      </trkpt>
      <trkpt lat="43.13732" lon="2.17513">
        <ele>234.22</ele>
        <time>2015-07-18T10:35:17Z</time>
      </trkpt>
      <trkpt lat="43.13727" lon="2.17508">
        <ele>233.74</ele>
        <time>2015-07-18T10:35:18Z</time>
      </trkpt>
      <trkpt lat="43.13722" lon="2.17504">
        <ele>233.26</ele>
        <time>2015-07-18T10:35:19Z</time>
      </trkpt>
      <trkpt lat="43.13718" lon="2.17499">
        <ele>232.3</ele>
        <time>2015-07-18T10:35:20Z</time>
      </trkpt>
      <trkpt lat="43.13715" lon="2.17492">
        <ele>232.3</ele>
        <time>2015-07-18T10:35:21Z</time>
      </trkpt>
      <trkpt lat="43.13713" lon="2.17485">
        <ele>232.3</ele>
        <time>2015-07-18T10:35:22Z</time>
      </trkpt>
      <trkpt lat="43.13714" lon="2.17478">
        <ele>232.3</ele>
        <time>2015-07-18T10:35:23Z</time>
      </trkpt>
      <trkpt lat="43.13716" lon="2.17471">
        <ele>232.3</ele>
        <time>2015-07-18T10:35:24Z</time>
      </trkpt>
      <trkpt lat="43.13719" lon="2.17464">
        <ele>231.81</ele>
        <time>2015-07-18T10:35:25Z</time>
      </trkpt>
      <trkpt lat="43.13723" lon="2.17458">
        <ele>231.81</ele>
        <time>2015-07-18T10:35:26Z</time>
      </trkpt>
      <trkpt lat="43.13727" lon="2.17452">
        <ele>231.33</ele>
        <time>2015-07-18T10:35:27Z</time>
      </trkpt>
      <trkpt lat="43.13731" lon="2.17446">
        <ele>231.33</ele>
        <time>2015-07-18T10:35:28Z</time>
      </trkpt>
      <trkpt lat="43.13752" lon="2.17416">
        <ele>231.33</ele>
        <time>2015-07-18T10:35:34Z</time>
      </trkpt>
      <trkpt lat="43.13754" lon="2.1741">
        <ele>231.33</ele>
        <time>2015-07-18T10:35:35Z</time>
      </trkpt>
      <trkpt lat="43.13754" lon="2.17404">
        <ele>231.33</ele>
        <time>2015-07-18T10:35:36Z</time>
      </trkpt>
      <trkpt lat="43.13752" lon="2.17398">
        <ele>231.33</ele>
        <time>2015-07-18T10:35:37Z</time>
      </trkpt>
      <trkpt lat="43.13749" lon="2.17393">
        <ele>231.33</ele>
        <time>2015-07-18T10:35:38Z</time>
      </trkpt>
      <trkpt lat="43.13744" lon="2.17383">
        <ele>232.3</ele>
        <time>2015-07-18T10:35:40Z</time>
      </trkpt>
      <trkpt lat="43.1374" lon="2.17371">
        <ele>233.26</ele>
        <time>2015-07-18T10:35:42Z</time>
      </trkpt>
      <trkpt lat="43.13739" lon="2.17365">
        <ele>233.26</ele>
        <time>2015-07-18T10:35:43Z</time>
      </trkpt>
      <trkpt lat="43.13739" lon="2.17359">
        <ele>233.74</ele>
        <time>2015-07-18T10:35:44Z</time>
      </trkpt>
      <trkpt lat="43.13739" lon="2.17352">
        <ele>234.7</ele>
        <time>2015-07-18T10:35:45Z</time>
      </trkpt>
      <trkpt lat="43.1374" lon="2.17346">
        <ele>235.66</ele>
        <time>2015-07-18T10:35:46Z</time>
      </trkpt>
      <trkpt lat="43.13742" lon="2.1734">
        <ele>235.66</ele>
        <time>2015-07-18T10:35:47Z</time>
      </trkpt>
      <trkpt lat="43.13744" lon="2.17333">
        <ele>236.62</ele>
        <time>2015-07-18T10:35:48Z</time>
      </trkpt>
      <trkpt lat="43.13746" lon="2.17327">
        <ele>236.62</ele>
        <time>2015-07-18T10:35:49Z</time>
      </trkpt>
      <trkpt lat="43.13747" lon="2.17321">
        <ele>236.62</ele>
        <time>2015-07-18T10:35:50Z</time>
      </trkpt>
      <trkpt lat="43.13747" lon="2.17309">
        <ele>237.1</ele>
        <time>2015-07-18T10:35:52Z</time>
      </trkpt>
      <trkpt lat="43.13747" lon="2.17304">
        <ele>237.58</ele>
        <time>2015-07-18T10:35:53Z</time>
      </trkpt>
      <trkpt lat="43.13746" lon="2.17299">
        <ele>238.06</ele>
        <time>2015-07-18T10:35:54Z</time>
      </trkpt>
      <trkpt lat="43.13741" lon="2.17219">
        <ele>239.02</ele>
        <time>2015-07-18T10:36:11Z</time>
      </trkpt>
      <trkpt lat="43.13736" lon="2.17148">
        <ele>241.91</ele>
        <time>2015-07-18T10:36:27Z</time>
      </trkpt>
      <trkpt lat="43.13743" lon="2.171">
        <ele>244.31</ele>
        <time>2015-07-18T10:36:40Z</time>
      </trkpt>
      <trkpt lat="43.13779" lon="2.17068">
        <ele>247.68</ele>
        <time>2015-07-18T10:36:56Z</time>
      </trkpt>
      <trkpt lat="43.13808" lon="2.17044">
        <ele>250.08</ele>
        <time>2015-07-18T10:37:08Z</time>
      </trkpt>
      <trkpt lat="43.13829" lon="2.17023">
        <ele>252.96</ele>
        <time>2015-07-18T10:37:17Z</time>
      </trkpt>
      <trkpt lat="43.13861" lon="2.16987">
        <ele>254.41</ele>
        <time>2015-07-18T10:37:30Z</time>
      </trkpt>
      <trkpt lat="43.13877" lon="2.16969">
        <ele>254.41</ele>
        <time>2015-07-18T10:37:35Z</time>
      </trkpt>
      <trkpt lat="43.13887" lon="2.1696">
        <ele>254.41</ele>
        <time>2015-07-18T10:37:38Z</time>
      </trkpt>
      <trkpt lat="43.1389" lon="2.16956">
        <ele>254.41</ele>
        <time>2015-07-18T10:37:39Z</time>
      </trkpt>
      <trkpt lat="43.13934" lon="2.16891">
        <ele>256.81</ele>
        <time>2015-07-18T10:37:57Z</time>
      </trkpt>
      <trkpt lat="43.1394" lon="2.16874">
        <ele>257.29</ele>
        <time>2015-07-18T10:38:02Z</time>
      </trkpt>
      <trkpt lat="43.13939" lon="2.16869">
        <ele>257.29</ele>
        <time>2015-07-18T10:38:03Z</time>
      </trkpt>
      <trkpt lat="43.13938" lon="2.16864">
        <ele>255.37</ele>
        <time>2015-07-18T10:38:04Z</time>
      </trkpt>
      <trkpt lat="43.13904" lon="2.16798">
        <ele>252.48</ele>
        <time>2015-07-18T10:38:15Z</time>
      </trkpt>
      <trkpt lat="43.13888" lon="2.16775">
        <ele>252</ele>
        <time>2015-07-18T10:38:19Z</time>
      </trkpt>
      <trkpt lat="43.13883" lon="2.1677">
        <ele>252</ele>
        <time>2015-07-18T10:38:20Z</time>
      </trkpt>
      <trkpt lat="43.13878" lon="2.16766">
        <ele>252</ele>
        <time>2015-07-18T10:38:21Z</time>
      </trkpt>
      <trkpt lat="43.13873" lon="2.16762">
        <ele>252</ele>
        <time>2015-07-18T10:38:22Z</time>
      </trkpt>
      <trkpt lat="43.13868" lon="2.16759">
        <ele>252</ele>
        <time>2015-07-18T10:38:23Z</time>
      </trkpt>
      <trkpt lat="43.13842" lon="2.16736">
        <ele>253.44</ele>
        <time>2015-07-18T10:38:29Z</time>
      </trkpt>
      <trkpt lat="43.13838" lon="2.16732">
        <ele>253.44</ele>
        <time>2015-07-18T10:38:30Z</time>
      </trkpt>
      <trkpt lat="43.13803" lon="2.16709">
        <ele>255.85</ele>
        <time>2015-07-18T10:38:39Z</time>
      </trkpt>
      <trkpt lat="43.13799" lon="2.16707">
        <ele>255.37</ele>
        <time>2015-07-18T10:38:40Z</time>
      </trkpt>
      <trkpt lat="43.13792" lon="2.16701">
        <ele>255.37</ele>
        <time>2015-07-18T10:38:42Z</time>
      </trkpt>
      <trkpt lat="43.13784" lon="2.16694">
        <ele>254.41</ele>
        <time>2015-07-18T10:38:44Z</time>
      </trkpt>
      <trkpt lat="43.13772" lon="2.1668">
        <ele>253.93</ele>
        <time>2015-07-18T10:38:47Z</time>
      </trkpt>
      <trkpt lat="43.13731" lon="2.16605">
        <ele>251.04</ele>
        <time>2015-07-18T10:38:58Z</time>
      </trkpt>
      <trkpt lat="43.13728" lon="2.16598">
        <ele>250.56</ele>
        <time>2015-07-18T10:38:59Z</time>
      </trkpt>
      <trkpt lat="43.13711" lon="2.1655">
        <ele>249.6</ele>
        <time>2015-07-18T10:39:05Z</time>
      </trkpt>
      <trkpt lat="43.13707" lon="2.16542">
        <ele>249.6</ele>
        <time>2015-07-18T10:39:06Z</time>
      </trkpt>
      <trkpt lat="43.13702" lon="2.16535">
        <ele>249.6</ele>
        <time>2015-07-18T10:39:07Z</time>
      </trkpt>
      <trkpt lat="43.13697" lon="2.16529">
        <ele>248.64</ele>
        <time>2015-07-18T10:39:08Z</time>
      </trkpt>
      <trkpt lat="43.13691" lon="2.16523">
        <ele>247.68</ele>
        <time>2015-07-18T10:39:09Z</time>
      </trkpt>
      <trkpt lat="43.13684" lon="2.16518">
        <ele>247.2</ele>
        <time>2015-07-18T10:39:10Z</time>
      </trkpt>
      <trkpt lat="43.13678" lon="2.16512">
        <ele>247.2</ele>
        <time>2015-07-18T10:39:11Z</time>
      </trkpt>
      <trkpt lat="43.13671" lon="2.16506">
        <ele>246.72</ele>
        <time>2015-07-18T10:39:12Z</time>
      </trkpt>
      <trkpt lat="43.13601" lon="2.16445">
        <ele>246.23</ele>
        <time>2015-07-18T10:39:24Z</time>
      </trkpt>
      <trkpt lat="43.13545" lon="2.16398">
        <ele>246.23</ele>
        <time>2015-07-18T10:39:37Z</time>
      </trkpt>
      <trkpt lat="43.13517" lon="2.16368">
        <ele>247.68</ele>
        <time>2015-07-18T10:39:46Z</time>
      </trkpt>
      <trkpt lat="43.13512" lon="2.16365">
        <ele>247.68</ele>
        <time>2015-07-18T10:39:55Z</time>
      </trkpt>
      <trkpt lat="43.13513" lon="2.16362">
        <ele>247.68</ele>
        <time>2015-07-18T10:40:18Z</time>
      </trkpt>
      <trkpt lat="43.13514" lon="2.16364">
        <ele>247.68</ele>
        <time>2015-07-18T10:40:25Z</time>
      </trkpt>
      <trkpt lat="43.13515" lon="2.16366">
        <ele>247.68</ele>
        <time>2015-07-18T10:40:26Z</time>
      </trkpt>
      <trkpt lat="43.13516" lon="2.16368">
        <ele>247.68</ele>
        <time>2015-07-18T10:40:27Z</time>
      </trkpt>
      <trkpt lat="43.13518" lon="2.1637">
        <ele>247.68</ele>
        <time>2015-07-18T10:40:28Z</time>
      </trkpt>
      <trkpt lat="43.1352" lon="2.16373">
        <ele>247.68</ele>
        <time>2015-07-18T10:40:29Z</time>
      </trkpt>
      <trkpt lat="43.13522" lon="2.16375">
        <ele>247.68</ele>
        <time>2015-07-18T10:40:30Z</time>
      </trkpt>
      <trkpt lat="43.13525" lon="2.16378">
        <ele>247.68</ele>
        <time>2015-07-18T10:40:31Z</time>
      </trkpt>
      <trkpt lat="43.13537" lon="2.16391">
        <ele>246.72</ele>
        <time>2015-07-18T10:40:36Z</time>
      </trkpt>
      <trkpt lat="43.13541" lon="2.16392">
        <ele>246.72</ele>
        <time>2015-07-18T10:40:37Z</time>
      </trkpt>
      <trkpt lat="43.13544" lon="2.16391">
        <ele>246.72</ele>
        <time>2015-07-18T10:40:38Z</time>
      </trkpt>
      <trkpt lat="43.13548" lon="2.16388">
        <ele>246.72</ele>
        <time>2015-07-18T10:40:39Z</time>
      </trkpt>
      <trkpt lat="43.1355" lon="2.16384">
        <ele>248.16</ele>
        <time>2015-07-18T10:40:41Z</time>
      </trkpt>
      <trkpt lat="43.13555" lon="2.16381">
        <ele>248.64</ele>
        <time>2015-07-18T10:40:46Z</time>
      </trkpt>
      <trkpt lat="43.13569" lon="2.16385">
        <ele>246.72</ele>
        <time>2015-07-18T10:40:50Z</time>
      </trkpt>
      <trkpt lat="43.13625" lon="2.16375">
        <ele>246.72</ele>
        <time>2015-07-18T10:41:05Z</time>
      </trkpt>
      <trkpt lat="43.13649" lon="2.16381">
        <ele>248.16</ele>
        <time>2015-07-18T10:41:16Z</time>
      </trkpt>
      <trkpt lat="43.13661" lon="2.16381">
        <ele>246.23</ele>
        <time>2015-07-18T10:41:19Z</time>
      </trkpt>
      <trkpt lat="43.13665" lon="2.16381">
        <ele>245.27</ele>
        <time>2015-07-18T10:41:20Z</time>
      </trkpt>
      <trkpt lat="43.13675" lon="2.16382">
        <ele>244.31</ele>
        <time>2015-07-18T10:41:22Z</time>
      </trkpt>
      <trkpt lat="43.13685" lon="2.16385">
        <ele>243.83</ele>
        <time>2015-07-18T10:41:24Z</time>
      </trkpt>
      <trkpt lat="43.1374" lon="2.16391">
        <ele>244.79</ele>
        <time>2015-07-18T10:41:39Z</time>
      </trkpt>
      <trkpt lat="43.13744" lon="2.1639">
        <ele>245.27</ele>
        <time>2015-07-18T10:41:47Z</time>
      </trkpt>
      <trkpt lat="43.13744" lon="2.1639">
        <ele>245.27</ele>
        <time>2015-07-18T10:41:49Z</time>
      </trkpt>
      <trkpt lat="43.13748" lon="2.1638">
        <ele>245.27</ele>
        <time>2015-07-18T10:41:54Z</time>
      </trkpt>
      <trkpt lat="43.13742" lon="2.16364">
        <ele>243.35</ele>
        <time>2015-07-18T10:41:58Z</time>
      </trkpt>
      <trkpt lat="43.13737" lon="2.16362">
        <ele>242.87</ele>
        <time>2015-07-18T10:41:59Z</time>
      </trkpt>
      <trkpt lat="43.13728" lon="2.16361">
        <ele>242.39</ele>
        <time>2015-07-18T10:42:01Z</time>
      </trkpt>
      <trkpt lat="43.13723" lon="2.1636">
        <ele>241.91</ele>
        <time>2015-07-18T10:42:02Z</time>
      </trkpt>
      <trkpt lat="43.13714" lon="2.16324">
        <ele>239.51</ele>
        <time>2015-07-18T10:42:09Z</time>
      </trkpt>
      <trkpt lat="43.13717" lon="2.163">
        <ele>239.02</ele>
        <time>2015-07-18T10:42:17Z</time>
      </trkpt>
      <trkpt lat="43.13716" lon="2.16285">
        <ele>238.54</ele>
        <time>2015-07-18T10:42:22Z</time>
      </trkpt>
      <trkpt lat="43.1373" lon="2.16247">
        <ele>237.58</ele>
        <time>2015-07-18T10:42:33Z</time>
      </trkpt>
      <trkpt lat="43.13748" lon="2.16199">
        <ele>237.58</ele>
        <time>2015-07-18T10:42:45Z</time>
      </trkpt>
      <trkpt lat="43.13775" lon="2.16189">
        <ele>239.02</ele>
        <time>2015-07-18T10:42:53Z</time>
      </trkpt>
      <trkpt lat="43.13787" lon="2.1619">
        <ele>240.47</ele>
        <time>2015-07-18T10:42:59Z</time>
      </trkpt>
      <trkpt lat="43.13789" lon="2.16185">
        <ele>240.95</ele>
        <time>2015-07-18T10:43:03Z</time>
      </trkpt>
      <trkpt lat="43.13782" lon="2.16187">
        <ele>240.95</ele>
        <time>2015-07-18T10:43:08Z</time>
      </trkpt>
      <trkpt lat="43.13773" lon="2.1619">
        <ele>239.51</ele>
        <time>2015-07-18T10:43:11Z</time>
      </trkpt>
      <trkpt lat="43.13771" lon="2.16187">
        <ele>238.54</ele>
        <time>2015-07-18T10:43:17Z</time>
      </trkpt>
      <trkpt lat="43.13745" lon="2.16193">
        <ele>236.62</ele>
        <time>2015-07-18T10:43:27Z</time>
      </trkpt>
      <trkpt lat="43.13707" lon="2.16202">
        <ele>233.74</ele>
        <time>2015-07-18T10:43:38Z</time>
      </trkpt>
      <trkpt lat="43.13694" lon="2.16196">
        <ele>231.81</ele>
        <time>2015-07-18T10:43:41Z</time>
      </trkpt>
      <trkpt lat="43.13679" lon="2.16181">
        <ele>230.85</ele>
        <time>2015-07-18T10:43:45Z</time>
      </trkpt>
      <trkpt lat="43.13678" lon="2.16178">
        <ele>230.85</ele>
        <time>2015-07-18T10:43:46Z</time>
      </trkpt>
      <trkpt lat="43.13678" lon="2.16173">
        <ele>230.37</ele>
        <time>2015-07-18T10:43:47Z</time>
      </trkpt>
      <trkpt lat="43.13679" lon="2.16168">
        <ele>230.37</ele>
        <time>2015-07-18T10:43:48Z</time>
      </trkpt>
      <trkpt lat="43.1368" lon="2.16163">
        <ele>229.89</ele>
        <time>2015-07-18T10:43:49Z</time>
      </trkpt>
      <trkpt lat="43.1368" lon="2.16156">
        <ele>229.89</ele>
        <time>2015-07-18T10:43:50Z</time>
      </trkpt>
      <trkpt lat="43.1368" lon="2.1615">
        <ele>229.41</ele>
        <time>2015-07-18T10:43:51Z</time>
      </trkpt>
      <trkpt lat="43.13679" lon="2.16143">
        <ele>229.41</ele>
        <time>2015-07-18T10:43:52Z</time>
      </trkpt>
      <trkpt lat="43.13676" lon="2.16112">
        <ele>228.45</ele>
        <time>2015-07-18T10:43:57Z</time>
      </trkpt>
      <trkpt lat="43.13678" lon="2.16107">
        <ele>228.45</ele>
        <time>2015-07-18T10:43:58Z</time>
      </trkpt>
      <trkpt lat="43.13681" lon="2.16104">
        <ele>228.45</ele>
        <time>2015-07-18T10:43:59Z</time>
      </trkpt>
      <trkpt lat="43.13683" lon="2.161">
        <ele>228.93</ele>
        <time>2015-07-18T10:44:00Z</time>
      </trkpt>
      <trkpt lat="43.13684" lon="2.16091">
        <ele>230.37</ele>
        <time>2015-07-18T10:44:02Z</time>
      </trkpt>
      <trkpt lat="43.13683" lon="2.16086">
        <ele>230.37</ele>
        <time>2015-07-18T10:44:03Z</time>
      </trkpt>
      <trkpt lat="43.13678" lon="2.16005">
        <ele>229.89</ele>
        <time>2015-07-18T10:44:17Z</time>
      </trkpt>
      <trkpt lat="43.13676" lon="2.15972">
        <ele>227.49</ele>
        <time>2015-07-18T10:44:21Z</time>
      </trkpt>
      <trkpt lat="43.13675" lon="2.15963">
        <ele>227.49</ele>
        <time>2015-07-18T10:44:22Z</time>
      </trkpt>
      <trkpt lat="43.13698" lon="2.15937">
        <ele>227.01</ele>
        <time>2015-07-18T10:44:28Z</time>
      </trkpt>
      <trkpt lat="43.13713" lon="2.15939">
        <ele>227.01</ele>
        <time>2015-07-18T10:44:31Z</time>
      </trkpt>
      <trkpt lat="43.13736" lon="2.1594">
        <ele>228.93</ele>
        <time>2015-07-18T10:44:36Z</time>
      </trkpt>
      <trkpt lat="43.13742" lon="2.15933">
        <ele>229.89</ele>
        <time>2015-07-18T10:44:44Z</time>
      </trkpt>
      <trkpt lat="43.13742" lon="2.15934">
        <ele>229.89</ele>
        <time>2015-07-18T10:45:11Z</time>
      </trkpt>
      <trkpt lat="43.13742" lon="2.1593">
        <ele>229.89</ele>
        <time>2015-07-18T10:45:28Z</time>
      </trkpt>
      <trkpt lat="43.13739" lon="2.15921">
        <ele>229.89</ele>
        <time>2015-07-18T10:45:31Z</time>
      </trkpt>
      <trkpt lat="43.13729" lon="2.15895">
        <ele>226.05</ele>
        <time>2015-07-18T10:45:35Z</time>
      </trkpt>
      <trkpt lat="43.13734" lon="2.1586">
        <ele>223.16</ele>
        <time>2015-07-18T10:45:42Z</time>
      </trkpt>
      <trkpt lat="43.13751" lon="2.15835">
        <ele>217.88</ele>
        <time>2015-07-18T10:45:47Z</time>
      </trkpt>
      <trkpt lat="43.13749" lon="2.15829">
        <ele>216.43</ele>
        <time>2015-07-18T10:45:48Z</time>
      </trkpt>
      <trkpt lat="43.13741" lon="2.15813">
        <ele>214.99</ele>
        <time>2015-07-18T10:45:50Z</time>
      </trkpt>
      <trkpt lat="43.13742" lon="2.15792">
        <ele>214.51</ele>
        <time>2015-07-18T10:45:54Z</time>
      </trkpt>
      <trkpt lat="43.13748" lon="2.15786">
        <ele>214.51</ele>
        <time>2015-07-18T10:45:56Z</time>
      </trkpt>
      <trkpt lat="43.13761" lon="2.15758">
        <ele>214.51</ele>
        <time>2015-07-18T10:46:02Z</time>
      </trkpt>
      <trkpt lat="43.13766" lon="2.15749">
        <ele>214.51</ele>
        <time>2015-07-18T10:46:04Z</time>
      </trkpt>
      <trkpt lat="43.1377" lon="2.15748">
        <ele>214.51</ele>
        <time>2015-07-18T10:46:05Z</time>
      </trkpt>
      <trkpt lat="43.13774" lon="2.15748">
        <ele>214.51</ele>
        <time>2015-07-18T10:46:06Z</time>
      </trkpt>
      <trkpt lat="43.13778" lon="2.15748">
        <ele>214.51</ele>
        <time>2015-07-18T10:46:07Z</time>
      </trkpt>
      <trkpt lat="43.13782" lon="2.15747">
        <ele>214.51</ele>
        <time>2015-07-18T10:46:08Z</time>
      </trkpt>
      <trkpt lat="43.13786" lon="2.15746">
        <ele>214.51</ele>
        <time>2015-07-18T10:46:09Z</time>
      </trkpt>
      <trkpt lat="43.1379" lon="2.15745">
        <ele>214.51</ele>
        <time>2015-07-18T10:46:10Z</time>
      </trkpt>
      <trkpt lat="43.13793" lon="2.15745">
        <ele>214.51</ele>
        <time>2015-07-18T10:46:11Z</time>
      </trkpt>
      <trkpt lat="43.13796" lon="2.15744">
        <ele>214.51</ele>
        <time>2015-07-18T10:46:12Z</time>
      </trkpt>
      <trkpt lat="43.13799" lon="2.15744">
        <ele>214.51</ele>
        <time>2015-07-18T10:46:13Z</time>
      </trkpt>
      <trkpt lat="43.13802" lon="2.15745">
        <ele>214.51</ele>
        <time>2015-07-18T10:46:14Z</time>
      </trkpt>
      <trkpt lat="43.13813" lon="2.15741">
        <ele>214.51</ele>
        <time>2015-07-18T10:46:18Z</time>
      </trkpt>
      <trkpt lat="43.13813" lon="2.15734">
        <ele>215.47</ele>
        <time>2015-07-18T10:46:25Z</time>
      </trkpt>
      <trkpt lat="43.13814" lon="2.15715">
        <ele>216.43</ele>
        <time>2015-07-18T10:46:53Z</time>
      </trkpt>
      <trkpt lat="43.13826" lon="2.15661">
        <ele>218.84</ele>
        <time>2015-07-18T10:47:07Z</time>
      </trkpt>
      <trkpt lat="43.13832" lon="2.15624">
        <ele>222.2</ele>
        <time>2015-07-18T10:47:17Z</time>
      </trkpt>
      <trkpt lat="43.13839" lon="2.15578">
        <ele>224.12</ele>
        <time>2015-07-18T10:47:31Z</time>
      </trkpt>
      <trkpt lat="43.1386" lon="2.15535">
        <ele>227.01</ele>
        <time>2015-07-18T10:47:46Z</time>
      </trkpt>
      <trkpt lat="43.13888" lon="2.15483">
        <ele>230.37</ele>
        <time>2015-07-18T10:48:05Z</time>
      </trkpt>
      <trkpt lat="43.13908" lon="2.15438">
        <ele>233.74</ele>
        <time>2015-07-18T10:48:21Z</time>
      </trkpt>
      <trkpt lat="43.13926" lon="2.1539">
        <ele>236.62</ele>
        <time>2015-07-18T10:48:38Z</time>
      </trkpt>
      <trkpt lat="43.13931" lon="2.1536">
        <ele>239.99</ele>
        <time>2015-07-18T10:48:48Z</time>
      </trkpt>
      <trkpt lat="43.1394" lon="2.1532">
        <ele>242.39</ele>
        <time>2015-07-18T10:49:01Z</time>
      </trkpt>
      <trkpt lat="43.13952" lon="2.15284">
        <ele>245.27</ele>
        <time>2015-07-18T10:49:13Z</time>
      </trkpt>
      <trkpt lat="43.13986" lon="2.15229">
        <ele>247.2</ele>
        <time>2015-07-18T10:49:32Z</time>
      </trkpt>
      <trkpt lat="43.14019" lon="2.15183">
        <ele>248.64</ele>
        <time>2015-07-18T10:49:47Z</time>
      </trkpt>
      <trkpt lat="43.14069" lon="2.15167">
        <ele>250.56</ele>
        <time>2015-07-18T10:50:01Z</time>
      </trkpt>
      <trkpt lat="43.14129" lon="2.15135">
        <ele>251.52</ele>
        <time>2015-07-18T10:50:16Z</time>
      </trkpt>
      <trkpt lat="43.14154" lon="2.15129">
        <ele>252.48</ele>
        <time>2015-07-18T10:50:22Z</time>
      </trkpt>
      <trkpt lat="43.14171" lon="2.1513">
        <ele>252.48</ele>
        <time>2015-07-18T10:50:26Z</time>
      </trkpt>
      <trkpt lat="43.14199" lon="2.15143">
        <ele>253.44</ele>
        <time>2015-07-18T10:50:33Z</time>
      </trkpt>
      <trkpt lat="43.14202" lon="2.15145">
        <ele>253.44</ele>
        <time>2015-07-18T10:50:34Z</time>
      </trkpt>
      <trkpt lat="43.14257" lon="2.15176">
        <ele>256.33</ele>
        <time>2015-07-18T10:50:49Z</time>
      </trkpt>
      <trkpt lat="43.14314" lon="2.15164">
        <ele>259.69</ele>
        <time>2015-07-18T10:51:04Z</time>
      </trkpt>
      <trkpt lat="43.14364" lon="2.15161">
        <ele>262.58</ele>
        <time>2015-07-18T10:51:17Z</time>
      </trkpt>
      <trkpt lat="43.14385" lon="2.15159">
        <ele>263.54</ele>
        <time>2015-07-18T10:51:23Z</time>
      </trkpt>
      <trkpt lat="43.14387" lon="2.15156">
        <ele>264.02</ele>
        <time>2015-07-18T10:51:24Z</time>
      </trkpt>
      <trkpt lat="43.14389" lon="2.15153">
        <ele>264.5</ele>
        <time>2015-07-18T10:51:25Z</time>
      </trkpt>
      <trkpt lat="43.1439" lon="2.1515">
        <ele>264.5</ele>
        <time>2015-07-18T10:51:26Z</time>
      </trkpt>
      <trkpt lat="43.14403" lon="2.15062">
        <ele>264.98</ele>
        <time>2015-07-18T10:51:44Z</time>
      </trkpt>
      <trkpt lat="43.14409" lon="2.15016">
        <ele>263.06</ele>
        <time>2015-07-18T10:51:51Z</time>
      </trkpt>
      <trkpt lat="43.14415" lon="2.14989">
        <ele>261.62</ele>
        <time>2015-07-18T10:51:54Z</time>
      </trkpt>
      <trkpt lat="43.14421" lon="2.14974">
        <ele>260.65</ele>
        <time>2015-07-18T10:51:56Z</time>
      </trkpt>
      <trkpt lat="43.14425" lon="2.14962">
        <ele>262.58</ele>
        <time>2015-07-18T10:51:58Z</time>
      </trkpt>
      <trkpt lat="43.14427" lon="2.1492">
        <ele>261.14</ele>
        <time>2015-07-18T10:52:04Z</time>
      </trkpt>
      <trkpt lat="43.14428" lon="2.14884">
        <ele>258.73</ele>
        <time>2015-07-18T10:52:08Z</time>
      </trkpt>
      <trkpt lat="43.14426" lon="2.1481">
        <ele>257.29</ele>
        <time>2015-07-18T10:52:16Z</time>
      </trkpt>
      <trkpt lat="43.1444" lon="2.14758">
        <ele>257.29</ele>
        <time>2015-07-18T10:52:23Z</time>
      </trkpt>
      <trkpt lat="43.14436" lon="2.14712">
        <ele>255.85</ele>
        <time>2015-07-18T10:52:28Z</time>
      </trkpt>
      <trkpt lat="43.14419" lon="2.14692">
        <ele>253.44</ele>
        <time>2015-07-18T10:52:32Z</time>
      </trkpt>
      <trkpt lat="43.14391" lon="2.14694">
        <ele>248.16</ele>
        <time>2015-07-18T10:52:35Z</time>
      </trkpt>
      <trkpt lat="43.14382" lon="2.14695">
        <ele>246.72</ele>
        <time>2015-07-18T10:52:36Z</time>
      </trkpt>
      <trkpt lat="43.14346" lon="2.14695">
        <ele>241.43</ele>
        <time>2015-07-18T10:52:41Z</time>
      </trkpt>
      <trkpt lat="43.14344" lon="2.14695">
        <ele>241.43</ele>
        <time>2015-07-18T10:52:42Z</time>
      </trkpt>
      <trkpt lat="43.14342" lon="2.1469">
        <ele>240.95</ele>
        <time>2015-07-18T10:52:45Z</time>
      </trkpt>
      <trkpt lat="43.14342" lon="2.14687">
        <ele>240.95</ele>
        <time>2015-07-18T10:52:46Z</time>
      </trkpt>
      <trkpt lat="43.14342" lon="2.14684">
        <ele>240.95</ele>
        <time>2015-07-18T10:52:47Z</time>
      </trkpt>
      <trkpt lat="43.14342" lon="2.1468">
        <ele>240.95</ele>
        <time>2015-07-18T10:52:48Z</time>
      </trkpt>
      <trkpt lat="43.14343" lon="2.14677">
        <ele>240.95</ele>
        <time>2015-07-18T10:52:49Z</time>
      </trkpt>
      <trkpt lat="43.14344" lon="2.14673">
        <ele>240.95</ele>
        <time>2015-07-18T10:52:50Z</time>
      </trkpt>
      <trkpt lat="43.14345" lon="2.14669">
        <ele>241.43</ele>
        <time>2015-07-18T10:52:51Z</time>
      </trkpt>
      <trkpt lat="43.14345" lon="2.14665">
        <ele>241.43</ele>
        <time>2015-07-18T10:52:52Z</time>
      </trkpt>
      <trkpt lat="43.14345" lon="2.14662">
        <ele>241.43</ele>
        <time>2015-07-18T10:52:53Z</time>
      </trkpt>
      <trkpt lat="43.14345" lon="2.14658">
        <ele>241.43</ele>
        <time>2015-07-18T10:52:54Z</time>
      </trkpt>
      <trkpt lat="43.14344" lon="2.14654">
        <ele>242.87</ele>
        <time>2015-07-18T10:52:55Z</time>
      </trkpt>
      <trkpt lat="43.14343" lon="2.14649">
        <ele>242.87</ele>
        <time>2015-07-18T10:52:56Z</time>
      </trkpt>
      <trkpt lat="43.14331" lon="2.14596">
        <ele>241.43</ele>
        <time>2015-07-18T10:53:06Z</time>
      </trkpt>
      <trkpt lat="43.14328" lon="2.14589">
        <ele>240.47</ele>
        <time>2015-07-18T10:53:07Z</time>
      </trkpt>
      <trkpt lat="43.14314" lon="2.14564">
        <ele>236.62</ele>
        <time>2015-07-18T10:53:10Z</time>
      </trkpt>
      <trkpt lat="43.14296" lon="2.14535">
        <ele>233.26</ele>
        <time>2015-07-18T10:53:13Z</time>
      </trkpt>
      <trkpt lat="43.14271" lon="2.14496">
        <ele>229.89</ele>
        <time>2015-07-18T10:53:17Z</time>
      </trkpt>
      <trkpt lat="43.14264" lon="2.14488">
        <ele>229.89</ele>
        <time>2015-07-18T10:53:18Z</time>
      </trkpt>
      <trkpt lat="43.14257" lon="2.14484">
        <ele>229.89</ele>
        <time>2015-07-18T10:53:19Z</time>
      </trkpt>
      <trkpt lat="43.1425" lon="2.14481">
        <ele>229.41</ele>
        <time>2015-07-18T10:53:20Z</time>
      </trkpt>
      <trkpt lat="43.14242" lon="2.1448">
        <ele>229.41</ele>
        <time>2015-07-18T10:53:21Z</time>
      </trkpt>
      <trkpt lat="43.14237" lon="2.1448">
        <ele>228.93</ele>
        <time>2015-07-18T10:53:22Z</time>
      </trkpt>
      <trkpt lat="43.14234" lon="2.14478">
        <ele>228.93</ele>
        <time>2015-07-18T10:53:23Z</time>
      </trkpt>
      <trkpt lat="43.14234" lon="2.14476">
        <ele>228.93</ele>
        <time>2015-07-18T10:53:24Z</time>
      </trkpt>
      <trkpt lat="43.14235" lon="2.14472">
        <ele>228.93</ele>
        <time>2015-07-18T10:53:25Z</time>
      </trkpt>
      <trkpt lat="43.14237" lon="2.14469">
        <ele>228.93</ele>
        <time>2015-07-18T10:53:26Z</time>
      </trkpt>
      <trkpt lat="43.1424" lon="2.14467">
        <ele>228.93</ele>
        <time>2015-07-18T10:53:27Z</time>
      </trkpt>
      <trkpt lat="43.14243" lon="2.14465">
        <ele>228.93</ele>
        <time>2015-07-18T10:53:28Z</time>
      </trkpt>
      <trkpt lat="43.14284" lon="2.1444">
        <ele>232.78</ele>
        <time>2015-07-18T10:53:40Z</time>
      </trkpt>
      <trkpt lat="43.14317" lon="2.14396">
        <ele>234.7</ele>
        <time>2015-07-18T10:53:52Z</time>
      </trkpt>
      <trkpt lat="43.14365" lon="2.14345">
        <ele>238.06</ele>
        <time>2015-07-18T10:54:08Z</time>
      </trkpt>
      <trkpt lat="43.14404" lon="2.14326">
        <ele>239.99</ele>
        <time>2015-07-18T10:54:20Z</time>
      </trkpt>
      <trkpt lat="43.14417" lon="2.14279">
        <ele>240.95</ele>
        <time>2015-07-18T10:54:31Z</time>
      </trkpt>
      <trkpt lat="43.14438" lon="2.1422">
        <ele>242.87</ele>
        <time>2015-07-18T10:54:45Z</time>
      </trkpt>
      <trkpt lat="43.14446" lon="2.14188">
        <ele>242.87</ele>
        <time>2015-07-18T10:54:51Z</time>
      </trkpt>
      <trkpt lat="43.14448" lon="2.14183">
        <ele>242.87</ele>
        <time>2015-07-18T10:54:52Z</time>
      </trkpt>
      <trkpt lat="43.14455" lon="2.14162">
        <ele>242.87</ele>
        <time>2015-07-18T10:54:56Z</time>
      </trkpt>
      <trkpt lat="43.14457" lon="2.14157">
        <ele>242.87</ele>
        <time>2015-07-18T10:54:57Z</time>
      </trkpt>
      <trkpt lat="43.1446" lon="2.14153">
        <ele>242.87</ele>
        <time>2015-07-18T10:54:58Z</time>
      </trkpt>
      <trkpt lat="43.14463" lon="2.14149">
        <ele>242.87</ele>
        <time>2015-07-18T10:54:59Z</time>
      </trkpt>
      <trkpt lat="43.14466" lon="2.14146">
        <ele>242.87</ele>
        <time>2015-07-18T10:55:00Z</time>
      </trkpt>
      <trkpt lat="43.14499" lon="2.14096">
        <ele>244.31</ele>
        <time>2015-07-18T10:55:13Z</time>
      </trkpt>
      <trkpt lat="43.14515" lon="2.14079">
        <ele>244.79</ele>
        <time>2015-07-18T10:55:18Z</time>
      </trkpt>
      <trkpt lat="43.14518" lon="2.14075">
        <ele>245.27</ele>
        <time>2015-07-18T10:55:19Z</time>
      </trkpt>
      <trkpt lat="43.1452" lon="2.1407">
        <ele>245.27</ele>
        <time>2015-07-18T10:55:20Z</time>
      </trkpt>
      <trkpt lat="43.1454" lon="2.13978">
        <ele>245.75</ele>
        <time>2015-07-18T10:55:35Z</time>
      </trkpt>
      <trkpt lat="43.14558" lon="2.13908">
        <ele>242.39</ele>
        <time>2015-07-18T10:55:45Z</time>
      </trkpt>
      <trkpt lat="43.14564" lon="2.13889">
        <ele>240.95</ele>
        <time>2015-07-18T10:55:47Z</time>
      </trkpt>
      <trkpt lat="43.14565" lon="2.13879">
        <ele>240.47</ele>
        <time>2015-07-18T10:55:48Z</time>
      </trkpt>
      <trkpt lat="43.14565" lon="2.13867">
        <ele>239.51</ele>
        <time>2015-07-18T10:55:49Z</time>
      </trkpt>
      <trkpt lat="43.14563" lon="2.13859">
        <ele>239.51</ele>
        <time>2015-07-18T10:55:50Z</time>
      </trkpt>
      <trkpt lat="43.14561" lon="2.13851">
        <ele>239.51</ele>
        <time>2015-07-18T10:55:51Z</time>
      </trkpt>
      <trkpt lat="43.14562" lon="2.13843">
        <ele>239.02</ele>
        <time>2015-07-18T10:55:52Z</time>
      </trkpt>
      <trkpt lat="43.14566" lon="2.13836">
        <ele>239.02</ele>
        <time>2015-07-18T10:55:53Z</time>
      </trkpt>
      <trkpt lat="43.1457" lon="2.13832">
        <ele>239.02</ele>
        <time>2015-07-18T10:55:54Z</time>
      </trkpt>
      <trkpt lat="43.14575" lon="2.13829">
        <ele>239.02</ele>
        <time>2015-07-18T10:55:55Z</time>
      </trkpt>
      <trkpt lat="43.14579" lon="2.13825">
        <ele>239.02</ele>
        <time>2015-07-18T10:55:56Z</time>
      </trkpt>
      <trkpt lat="43.14583" lon="2.13821">
        <ele>239.02</ele>
        <time>2015-07-18T10:55:57Z</time>
      </trkpt>
      <trkpt lat="43.14591" lon="2.13813">
        <ele>239.99</ele>
        <time>2015-07-18T10:55:59Z</time>
      </trkpt>
      <trkpt lat="43.14598" lon="2.13805">
        <ele>240.95</ele>
        <time>2015-07-18T10:56:01Z</time>
      </trkpt>
      <trkpt lat="43.14602" lon="2.13803">
        <ele>240.95</ele>
        <time>2015-07-18T10:56:02Z</time>
      </trkpt>
      <trkpt lat="43.14606" lon="2.13804">
        <ele>240.95</ele>
        <time>2015-07-18T10:56:03Z</time>
      </trkpt>
      <trkpt lat="43.14609" lon="2.13806">
        <ele>241.91</ele>
        <time>2015-07-18T10:56:04Z</time>
      </trkpt>
      <trkpt lat="43.14612" lon="2.13809">
        <ele>241.91</ele>
        <time>2015-07-18T10:56:05Z</time>
      </trkpt>
      <trkpt lat="43.14614" lon="2.13811">
        <ele>242.39</ele>
        <time>2015-07-18T10:56:06Z</time>
      </trkpt>
      <trkpt lat="43.14616" lon="2.13814">
        <ele>242.87</ele>
        <time>2015-07-18T10:56:07Z</time>
      </trkpt>
      <trkpt lat="43.14618" lon="2.13815">
        <ele>242.87</ele>
        <time>2015-07-18T10:56:08Z</time>
      </trkpt>
      <trkpt lat="43.1462" lon="2.13817">
        <ele>243.35</ele>
        <time>2015-07-18T10:56:09Z</time>
      </trkpt>
      <trkpt lat="43.14638" lon="2.13835">
        <ele>246.23</ele>
        <time>2015-07-18T10:56:18Z</time>
      </trkpt>
      <trkpt lat="43.1466" lon="2.13846">
        <ele>249.6</ele>
        <time>2015-07-18T10:56:28Z</time>
      </trkpt>
      <trkpt lat="43.14675" lon="2.13853">
        <ele>252.96</ele>
        <time>2015-07-18T10:56:36Z</time>
      </trkpt>
      <trkpt lat="43.14678" lon="2.13855">
        <ele>253.93</ele>
        <time>2015-07-18T10:56:38Z</time>
      </trkpt>
      <trkpt lat="43.1468" lon="2.13855">
        <ele>253.93</ele>
        <time>2015-07-18T10:56:39Z</time>
      </trkpt>
      <trkpt lat="43.14682" lon="2.13855">
        <ele>254.41</ele>
        <time>2015-07-18T10:56:40Z</time>
      </trkpt>
      <trkpt lat="43.14683" lon="2.13854">
        <ele>254.89</ele>
        <time>2015-07-18T10:56:41Z</time>
      </trkpt>
      <trkpt lat="43.14685" lon="2.13854">
        <ele>254.89</ele>
        <time>2015-07-18T10:56:42Z</time>
      </trkpt>
      <trkpt lat="43.14686" lon="2.13854">
        <ele>254.89</ele>
        <time>2015-07-18T10:56:43Z</time>
      </trkpt>
      <trkpt lat="43.14688" lon="2.13855">
        <ele>254.89</ele>
        <time>2015-07-18T10:56:44Z</time>
      </trkpt>
      <trkpt lat="43.14689" lon="2.13856">
        <ele>254.89</ele>
        <time>2015-07-18T10:56:45Z</time>
      </trkpt>
      <trkpt lat="43.1469" lon="2.13858">
        <ele>254.89</ele>
        <time>2015-07-18T10:56:46Z</time>
      </trkpt>
      <trkpt lat="43.14707" lon="2.1386">
        <ele>255.85</ele>
        <time>2015-07-18T10:56:56Z</time>
      </trkpt>
      <trkpt lat="43.14711" lon="2.13849">
        <ele>255.85</ele>
        <time>2015-07-18T10:57:00Z</time>
      </trkpt>
      <trkpt lat="43.14713" lon="2.13846">
        <ele>255.85</ele>
        <time>2015-07-18T10:57:01Z</time>
      </trkpt>
      <trkpt lat="43.14716" lon="2.13846">
        <ele>255.85</ele>
        <time>2015-07-18T10:57:02Z</time>
      </trkpt>
      <trkpt lat="43.14719" lon="2.13846">
        <ele>255.85</ele>
        <time>2015-07-18T10:57:03Z</time>
      </trkpt>
      <trkpt lat="43.14721" lon="2.13847">
        <ele>255.85</ele>
        <time>2015-07-18T10:57:04Z</time>
      </trkpt>
      <trkpt lat="43.14747" lon="2.13857">
        <ele>253.44</ele>
        <time>2015-07-18T10:57:13Z</time>
      </trkpt>
      <trkpt lat="43.14751" lon="2.13857">
        <ele>252.96</ele>
        <time>2015-07-18T10:57:14Z</time>
      </trkpt>
      <trkpt lat="43.1476" lon="2.13856">
        <ele>252</ele>
        <time>2015-07-18T10:57:16Z</time>
      </trkpt>
      <trkpt lat="43.1478" lon="2.13852">
        <ele>250.08</ele>
        <time>2015-07-18T10:57:20Z</time>
      </trkpt>
      <trkpt lat="43.14802" lon="2.13846">
        <ele>246.23</ele>
        <time>2015-07-18T10:57:24Z</time>
      </trkpt>
      <trkpt lat="43.14824" lon="2.13837">
        <ele>242.87</ele>
        <time>2015-07-18T10:57:28Z</time>
      </trkpt>
      <trkpt lat="43.14827" lon="2.13835">
        <ele>242.87</ele>
        <time>2015-07-18T10:57:29Z</time>
      </trkpt>
      <trkpt lat="43.14831" lon="2.13832">
        <ele>242.39</ele>
        <time>2015-07-18T10:57:30Z</time>
      </trkpt>
      <trkpt lat="43.14835" lon="2.13828">
        <ele>241.91</ele>
        <time>2015-07-18T10:57:31Z</time>
      </trkpt>
      <trkpt lat="43.14839" lon="2.13826">
        <ele>241.43</ele>
        <time>2015-07-18T10:57:32Z</time>
      </trkpt>
      <trkpt lat="43.14844" lon="2.13823">
        <ele>240.47</ele>
        <time>2015-07-18T10:57:33Z</time>
      </trkpt>
      <trkpt lat="43.14849" lon="2.1382">
        <ele>239.99</ele>
        <time>2015-07-18T10:57:34Z</time>
      </trkpt>
      <trkpt lat="43.14854" lon="2.13816">
        <ele>239.99</ele>
        <time>2015-07-18T10:57:35Z</time>
      </trkpt>
      <trkpt lat="43.14858" lon="2.13813">
        <ele>239.02</ele>
        <time>2015-07-18T10:57:36Z</time>
      </trkpt>
      <trkpt lat="43.14878" lon="2.13794">
        <ele>239.02</ele>
        <time>2015-07-18T10:57:46Z</time>
      </trkpt>
      <trkpt lat="43.14882" lon="2.13786">
        <ele>238.06</ele>
        <time>2015-07-18T10:57:58Z</time>
      </trkpt>
      <trkpt lat="43.14881" lon="2.13785">
        <ele>238.06</ele>
        <time>2015-07-18T10:58:25Z</time>
      </trkpt>
      <trkpt lat="43.14881" lon="2.13786">
        <ele>238.06</ele>
        <time>2015-07-18T10:59:09Z</time>
      </trkpt>
      <trkpt lat="43.14883" lon="2.13788">
        <ele>238.06</ele>
        <time>2015-07-18T10:59:12Z</time>
      </trkpt>
      <trkpt lat="43.14885" lon="2.13789">
        <ele>238.06</ele>
        <time>2015-07-18T10:59:13Z</time>
      </trkpt>
      <trkpt lat="43.14886" lon="2.13789">
        <ele>238.06</ele>
        <time>2015-07-18T10:59:14Z</time>
      </trkpt>
      <trkpt lat="43.14888" lon="2.1379">
        <ele>238.06</ele>
        <time>2015-07-18T10:59:15Z</time>
      </trkpt>
      <trkpt lat="43.14891" lon="2.13791">
        <ele>238.06</ele>
        <time>2015-07-18T10:59:16Z</time>
      </trkpt>
      <trkpt lat="43.14893" lon="2.13792">
        <ele>238.06</ele>
        <time>2015-07-18T10:59:17Z</time>
      </trkpt>
      <trkpt lat="43.14896" lon="2.13793">
        <ele>238.06</ele>
        <time>2015-07-18T10:59:18Z</time>
      </trkpt>
      <trkpt lat="43.14899" lon="2.13794">
        <ele>238.06</ele>
        <time>2015-07-18T10:59:19Z</time>
      </trkpt>
      <trkpt lat="43.14901" lon="2.13796">
        <ele>238.06</ele>
        <time>2015-07-18T10:59:20Z</time>
      </trkpt>
      <trkpt lat="43.14943" lon="2.13812">
        <ele>239.99</ele>
        <time>2015-07-18T10:59:35Z</time>
      </trkpt>
      <trkpt lat="43.14981" lon="2.13828">
        <ele>243.35</ele>
        <time>2015-07-18T10:59:50Z</time>
      </trkpt>
      <trkpt lat="43.15005" lon="2.1384">
        <ele>246.23</ele>
        <time>2015-07-18T11:00:01Z</time>
      </trkpt>
      <trkpt lat="43.15026" lon="2.1385">
        <ele>249.6</ele>
        <time>2015-07-18T11:00:12Z</time>
      </trkpt>
      <trkpt lat="43.15052" lon="2.13865">
        <ele>252.96</ele>
        <time>2015-07-18T11:00:26Z</time>
      </trkpt>
      <trkpt lat="43.15062" lon="2.13894">
        <ele>254.41</ele>
        <time>2015-07-18T11:00:37Z</time>
      </trkpt>
      <trkpt lat="43.15072" lon="2.13944">
        <ele>257.29</ele>
        <time>2015-07-18T11:00:52Z</time>
      </trkpt>
      <trkpt lat="43.15089" lon="2.14021">
        <ele>257.29</ele>
        <time>2015-07-18T11:01:09Z</time>
      </trkpt>
      <trkpt lat="43.15103" lon="2.14096">
        <ele>258.25</ele>
        <time>2015-07-18T11:01:25Z</time>
      </trkpt>
      <trkpt lat="43.15114" lon="2.14168">
        <ele>261.14</ele>
        <time>2015-07-18T11:01:41Z</time>
      </trkpt>
      <trkpt lat="43.15125" lon="2.14235">
        <ele>264.02</ele>
        <time>2015-07-18T11:01:57Z</time>
      </trkpt>
      <trkpt lat="43.15133" lon="2.14326">
        <ele>266.9</ele>
        <time>2015-07-18T11:02:17Z</time>
      </trkpt>
      <trkpt lat="43.15128" lon="2.14384">
        <ele>267.86</ele>
        <time>2015-07-18T11:02:29Z</time>
      </trkpt>
      <trkpt lat="43.1512" lon="2.1447">
        <ele>271.23</ele>
        <time>2015-07-18T11:02:48Z</time>
      </trkpt>
      <trkpt lat="43.15136" lon="2.14513">
        <ele>273.15</ele>
        <time>2015-07-18T11:02:59Z</time>
      </trkpt>
      <trkpt lat="43.15138" lon="2.14571">
        <ele>275.07</ele>
        <time>2015-07-18T11:03:13Z</time>
      </trkpt>
      <trkpt lat="43.15141" lon="2.14639">
        <ele>277</ele>
        <time>2015-07-18T11:03:29Z</time>
      </trkpt>
      <trkpt lat="43.15147" lon="2.14712">
        <ele>278.92</ele>
        <time>2015-07-18T11:03:47Z</time>
      </trkpt>
      <trkpt lat="43.15153" lon="2.14767">
        <ele>282.28</ele>
        <time>2015-07-18T11:04:01Z</time>
      </trkpt>
      <trkpt lat="43.15164" lon="2.14851">
        <ele>285.65</ele>
        <time>2015-07-18T11:04:22Z</time>
      </trkpt>
      <trkpt lat="43.15168" lon="2.14908">
        <ele>289.01</ele>
        <time>2015-07-18T11:04:37Z</time>
      </trkpt>
      <trkpt lat="43.15167" lon="2.14969">
        <ele>290.94</ele>
        <time>2015-07-18T11:04:53Z</time>
      </trkpt>
      <trkpt lat="43.15171" lon="2.15034">
        <ele>293.34</ele>
        <time>2015-07-18T11:05:09Z</time>
      </trkpt>
      <trkpt lat="43.15187" lon="2.15096">
        <ele>294.3</ele>
        <time>2015-07-18T11:05:24Z</time>
      </trkpt>
      <trkpt lat="43.15195" lon="2.15126">
        <ele>297.67</ele>
        <time>2015-07-18T11:05:32Z</time>
      </trkpt>
      <trkpt lat="43.15209" lon="2.15172">
        <ele>300.55</ele>
        <time>2015-07-18T11:05:46Z</time>
      </trkpt>
      <trkpt lat="43.15229" lon="2.15234">
        <ele>301.99</ele>
        <time>2015-07-18T11:06:03Z</time>
      </trkpt>
      <trkpt lat="43.15251" lon="2.153">
        <ele>302.95</ele>
        <time>2015-07-18T11:06:20Z</time>
      </trkpt>
      <trkpt lat="43.15264" lon="2.15323">
        <ele>301.51</ele>
        <time>2015-07-18T11:06:26Z</time>
      </trkpt>
      <trkpt lat="43.15267" lon="2.15327">
        <ele>301.51</ele>
        <time>2015-07-18T11:06:27Z</time>
      </trkpt>
      <trkpt lat="43.1527" lon="2.15331">
        <ele>300.55</ele>
        <time>2015-07-18T11:06:28Z</time>
      </trkpt>
      <trkpt lat="43.1528" lon="2.15344">
        <ele>300.07</ele>
        <time>2015-07-18T11:06:31Z</time>
      </trkpt>
      <trkpt lat="43.15287" lon="2.15357">
        <ele>299.11</ele>
        <time>2015-07-18T11:06:33Z</time>
      </trkpt>
      <trkpt lat="43.15289" lon="2.15363">
        <ele>298.63</ele>
        <time>2015-07-18T11:06:34Z</time>
      </trkpt>
      <trkpt lat="43.15291" lon="2.1537">
        <ele>298.63</ele>
        <time>2015-07-18T11:06:35Z</time>
      </trkpt>
      <trkpt lat="43.15297" lon="2.15396">
        <ele>300.07</ele>
        <time>2015-07-18T11:06:40Z</time>
      </trkpt>
      <trkpt lat="43.15304" lon="2.1543">
        <ele>302.47</ele>
        <time>2015-07-18T11:06:50Z</time>
      </trkpt>
      <trkpt lat="43.15314" lon="2.15475">
        <ele>305.36</ele>
        <time>2015-07-18T11:07:05Z</time>
      </trkpt>
      <trkpt lat="43.15318" lon="2.1553">
        <ele>307.76</ele>
        <time>2015-07-18T11:07:22Z</time>
      </trkpt>
      <trkpt lat="43.15314" lon="2.1557">
        <ele>310.16</ele>
        <time>2015-07-18T11:07:34Z</time>
      </trkpt>
      <trkpt lat="43.1531" lon="2.15605">
        <ele>313.05</ele>
        <time>2015-07-18T11:07:45Z</time>
      </trkpt>
      <trkpt lat="43.15308" lon="2.15628">
        <ele>314.49</ele>
        <time>2015-07-18T11:07:52Z</time>
      </trkpt>
      <trkpt lat="43.15308" lon="2.15631">
        <ele>314.97</ele>
        <time>2015-07-18T11:07:53Z</time>
      </trkpt>
      <trkpt lat="43.15308" lon="2.15634">
        <ele>314.97</ele>
        <time>2015-07-18T11:07:54Z</time>
      </trkpt>
      <trkpt lat="43.15308" lon="2.15638">
        <ele>314.97</ele>
        <time>2015-07-18T11:07:55Z</time>
      </trkpt>
      <trkpt lat="43.15309" lon="2.15642">
        <ele>314.97</ele>
        <time>2015-07-18T11:07:56Z</time>
      </trkpt>
      <trkpt lat="43.15308" lon="2.15645">
        <ele>315.45</ele>
        <time>2015-07-18T11:07:57Z</time>
      </trkpt>
      <trkpt lat="43.15308" lon="2.15648">
        <ele>315.45</ele>
        <time>2015-07-18T11:07:58Z</time>
      </trkpt>
      <trkpt lat="43.15299" lon="2.15704">
        <ele>317.37</ele>
        <time>2015-07-18T11:08:15Z</time>
      </trkpt>
      <trkpt lat="43.15299" lon="2.15718">
        <ele>317.85</ele>
        <time>2015-07-18T11:08:20Z</time>
      </trkpt>
      <trkpt lat="43.15297" lon="2.15732">
        <ele>318.81</ele>
        <time>2015-07-18T11:08:24Z</time>
      </trkpt>
      <trkpt lat="43.15296" lon="2.15735">
        <ele>318.81</ele>
        <time>2015-07-18T11:08:25Z</time>
      </trkpt>
      <trkpt lat="43.15296" lon="2.15739">
        <ele>319.3</ele>
        <time>2015-07-18T11:08:26Z</time>
      </trkpt>
      <trkpt lat="43.15296" lon="2.15743">
        <ele>319.78</ele>
        <time>2015-07-18T11:08:27Z</time>
      </trkpt>
      <trkpt lat="43.15295" lon="2.15747">
        <ele>319.78</ele>
        <time>2015-07-18T11:08:28Z</time>
      </trkpt>
      <trkpt lat="43.15295" lon="2.15751">
        <ele>320.26</ele>
        <time>2015-07-18T11:08:29Z</time>
      </trkpt>
      <trkpt lat="43.15288" lon="2.15787">
        <ele>323.62</ele>
        <time>2015-07-18T11:08:40Z</time>
      </trkpt>
      <trkpt lat="43.15283" lon="2.15826">
        <ele>326.02</ele>
        <time>2015-07-18T11:08:52Z</time>
      </trkpt>
      <trkpt lat="43.15284" lon="2.15829">
        <ele>326.02</ele>
        <time>2015-07-18T11:08:53Z</time>
      </trkpt>
      <trkpt lat="43.15284" lon="2.15833">
        <ele>326.02</ele>
        <time>2015-07-18T11:08:54Z</time>
      </trkpt>
      <trkpt lat="43.15283" lon="2.15836">
        <ele>326.5</ele>
        <time>2015-07-18T11:08:55Z</time>
      </trkpt>
      <trkpt lat="43.15283" lon="2.15839">
        <ele>326.5</ele>
        <time>2015-07-18T11:08:56Z</time>
      </trkpt>
      <trkpt lat="43.15272" lon="2.15876">
        <ele>328.43</ele>
        <time>2015-07-18T11:09:09Z</time>
      </trkpt>
      <trkpt lat="43.15265" lon="2.15922">
        <ele>330.83</ele>
        <time>2015-07-18T11:09:23Z</time>
      </trkpt>
      <trkpt lat="43.15264" lon="2.1597">
        <ele>334.2</ele>
        <time>2015-07-18T11:09:38Z</time>
      </trkpt>
      <trkpt lat="43.15269" lon="2.16017">
        <ele>336.6</ele>
        <time>2015-07-18T11:09:52Z</time>
      </trkpt>
      <trkpt lat="43.15272" lon="2.16058">
        <ele>339.96</ele>
        <time>2015-07-18T11:10:04Z</time>
      </trkpt>
      <trkpt lat="43.15285" lon="2.16109">
        <ele>342.37</ele>
        <time>2015-07-18T11:10:20Z</time>
      </trkpt>
      <trkpt lat="43.15323" lon="2.1617">
        <ele>339.96</ele>
        <time>2015-07-18T11:10:35Z</time>
      </trkpt>
      <trkpt lat="43.1533" lon="2.16178">
        <ele>339</ele>
        <time>2015-07-18T11:10:37Z</time>
      </trkpt>
      <trkpt lat="43.15342" lon="2.16191">
        <ele>338.52</ele>
        <time>2015-07-18T11:10:40Z</time>
      </trkpt>
      <trkpt lat="43.15346" lon="2.16195">
        <ele>337.56</ele>
        <time>2015-07-18T11:10:41Z</time>
      </trkpt>
      <trkpt lat="43.1535" lon="2.16201">
        <ele>337.08</ele>
        <time>2015-07-18T11:10:42Z</time>
      </trkpt>
      <trkpt lat="43.15354" lon="2.16206">
        <ele>337.08</ele>
        <time>2015-07-18T11:10:43Z</time>
      </trkpt>
      <trkpt lat="43.15357" lon="2.16213">
        <ele>336.6</ele>
        <time>2015-07-18T11:10:44Z</time>
      </trkpt>
      <trkpt lat="43.1536" lon="2.16219">
        <ele>336.12</ele>
        <time>2015-07-18T11:10:45Z</time>
      </trkpt>
      <trkpt lat="43.15372" lon="2.16247">
        <ele>335.16</ele>
        <time>2015-07-18T11:10:49Z</time>
      </trkpt>
      <trkpt lat="43.15393" lon="2.16302">
        <ele>331.79</ele>
        <time>2015-07-18T11:10:56Z</time>
      </trkpt>
      <trkpt lat="43.15401" lon="2.16332">
        <ele>329.39</ele>
        <time>2015-07-18T11:10:59Z</time>
      </trkpt>
      <trkpt lat="43.15413" lon="2.16399">
        <ele>332.75</ele>
        <time>2015-07-18T11:11:06Z</time>
      </trkpt>
      <trkpt lat="43.15416" lon="2.16414">
        <ele>333.71</ele>
        <time>2015-07-18T11:11:08Z</time>
      </trkpt>
      <trkpt lat="43.15423" lon="2.16439">
        <ele>336.6</ele>
        <time>2015-07-18T11:11:12Z</time>
      </trkpt>
      <trkpt lat="43.15425" lon="2.16444">
        <ele>336.6</ele>
        <time>2015-07-18T11:11:13Z</time>
      </trkpt>
      <trkpt lat="43.15459" lon="2.16537">
        <ele>337.08</ele>
        <time>2015-07-18T11:11:30Z</time>
      </trkpt>
      <trkpt lat="43.1548" lon="2.16604">
        <ele>337.08</ele>
        <time>2015-07-18T11:11:41Z</time>
      </trkpt>
      <trkpt lat="43.15481" lon="2.1661">
        <ele>337.08</ele>
        <time>2015-07-18T11:11:42Z</time>
      </trkpt>
      <trkpt lat="43.15481" lon="2.16616">
        <ele>337.08</ele>
        <time>2015-07-18T11:11:43Z</time>
      </trkpt>
      <trkpt lat="43.1548" lon="2.16622">
        <ele>337.08</ele>
        <time>2015-07-18T11:11:44Z</time>
      </trkpt>
      <trkpt lat="43.1548" lon="2.16629">
        <ele>337.08</ele>
        <time>2015-07-18T11:11:45Z</time>
      </trkpt>
      <trkpt lat="43.15479" lon="2.16635">
        <ele>337.08</ele>
        <time>2015-07-18T11:11:46Z</time>
      </trkpt>
      <trkpt lat="43.15477" lon="2.16641">
        <ele>337.08</ele>
        <time>2015-07-18T11:11:47Z</time>
      </trkpt>
      <trkpt lat="43.15462" lon="2.1667">
        <ele>333.71</ele>
        <time>2015-07-18T11:11:51Z</time>
      </trkpt>
      <trkpt lat="43.15457" lon="2.16678">
        <ele>332.75</ele>
        <time>2015-07-18T11:11:52Z</time>
      </trkpt>
      <trkpt lat="43.15435" lon="2.16711">
        <ele>329.39</ele>
        <time>2015-07-18T11:11:56Z</time>
      </trkpt>
      <trkpt lat="43.15431" lon="2.16721">
        <ele>329.39</ele>
        <time>2015-07-18T11:11:57Z</time>
      </trkpt>
      <trkpt lat="43.15426" lon="2.16729">
        <ele>329.39</ele>
        <time>2015-07-18T11:11:58Z</time>
      </trkpt>
      <trkpt lat="43.15421" lon="2.16736">
        <ele>329.39</ele>
        <time>2015-07-18T11:11:59Z</time>
      </trkpt>
      <trkpt lat="43.15415" lon="2.16742">
        <ele>329.39</ele>
        <time>2015-07-18T11:12:00Z</time>
      </trkpt>
      <trkpt lat="43.1535" lon="2.16823">
        <ele>329.39</ele>
        <time>2015-07-18T11:12:13Z</time>
      </trkpt>
      <trkpt lat="43.1534" lon="2.16842">
        <ele>329.39</ele>
        <time>2015-07-18T11:12:16Z</time>
      </trkpt>
      <trkpt lat="43.15318" lon="2.16902">
        <ele>326.5</ele>
        <time>2015-07-18T11:12:23Z</time>
      </trkpt>
      <trkpt lat="43.15316" lon="2.16912">
        <ele>326.02</ele>
        <time>2015-07-18T11:12:24Z</time>
      </trkpt>
      <trkpt lat="43.15308" lon="2.16954">
        <ele>324.58</ele>
        <time>2015-07-18T11:12:28Z</time>
      </trkpt>
      <trkpt lat="43.15279" lon="2.17052">
        <ele>321.22</ele>
        <time>2015-07-18T11:12:38Z</time>
      </trkpt>
      <trkpt lat="43.15269" lon="2.17068">
        <ele>320.74</ele>
        <time>2015-07-18T11:12:40Z</time>
      </trkpt>
      <trkpt lat="43.15263" lon="2.17073">
        <ele>320.26</ele>
        <time>2015-07-18T11:12:41Z</time>
      </trkpt>
      <trkpt lat="43.15256" lon="2.17079">
        <ele>320.26</ele>
        <time>2015-07-18T11:12:42Z</time>
      </trkpt>
      <trkpt lat="43.15251" lon="2.17087">
        <ele>320.26</ele>
        <time>2015-07-18T11:12:43Z</time>
      </trkpt>
      <trkpt lat="43.15248" lon="2.17094">
        <ele>320.26</ele>
        <time>2015-07-18T11:12:44Z</time>
      </trkpt>
      <trkpt lat="43.15246" lon="2.17104">
        <ele>320.26</ele>
        <time>2015-07-18T11:12:45Z</time>
      </trkpt>
      <trkpt lat="43.15245" lon="2.17113">
        <ele>319.78</ele>
        <time>2015-07-18T11:12:46Z</time>
      </trkpt>
      <trkpt lat="43.15245" lon="2.17123">
        <ele>319.78</ele>
        <time>2015-07-18T11:12:47Z</time>
      </trkpt>
      <trkpt lat="43.15243" lon="2.1714">
        <ele>320.26</ele>
        <time>2015-07-18T11:12:49Z</time>
      </trkpt>
      <trkpt lat="43.15241" lon="2.17148">
        <ele>320.26</ele>
        <time>2015-07-18T11:12:50Z</time>
      </trkpt>
      <trkpt lat="43.15238" lon="2.17155">
        <ele>321.22</ele>
        <time>2015-07-18T11:12:51Z</time>
      </trkpt>
      <trkpt lat="43.15235" lon="2.17162">
        <ele>321.22</ele>
        <time>2015-07-18T11:12:52Z</time>
      </trkpt>
      <trkpt lat="43.1522" lon="2.17199">
        <ele>324.58</ele>
        <time>2015-07-18T11:12:59Z</time>
      </trkpt>
      <trkpt lat="43.15209" lon="2.17222">
        <ele>324.58</ele>
        <time>2015-07-18T11:13:04Z</time>
      </trkpt>
      <trkpt lat="43.15206" lon="2.17226">
        <ele>324.58</ele>
        <time>2015-07-18T11:13:05Z</time>
      </trkpt>
      <trkpt lat="43.15203" lon="2.1723">
        <ele>325.54</ele>
        <time>2015-07-18T11:13:06Z</time>
      </trkpt>
      <trkpt lat="43.152" lon="2.17233">
        <ele>325.54</ele>
        <time>2015-07-18T11:13:07Z</time>
      </trkpt>
      <trkpt lat="43.15197" lon="2.17237">
        <ele>325.54</ele>
        <time>2015-07-18T11:13:08Z</time>
      </trkpt>
      <trkpt lat="43.15194" lon="2.1724">
        <ele>326.02</ele>
        <time>2015-07-18T11:13:09Z</time>
      </trkpt>
      <trkpt lat="43.15174" lon="2.17281">
        <ele>327.47</ele>
        <time>2015-07-18T11:13:20Z</time>
      </trkpt>
      <trkpt lat="43.15172" lon="2.17303">
        <ele>327.47</ele>
        <time>2015-07-18T11:13:25Z</time>
      </trkpt>
      <trkpt lat="43.1517" lon="2.17309">
        <ele>326.5</ele>
        <time>2015-07-18T11:13:26Z</time>
      </trkpt>
      <trkpt lat="43.15167" lon="2.17326">
        <ele>322.66</ele>
        <time>2015-07-18T11:13:28Z</time>
      </trkpt>
      <trkpt lat="43.15161" lon="2.17354">
        <ele>319.78</ele>
        <time>2015-07-18T11:13:31Z</time>
      </trkpt>
      <trkpt lat="43.15157" lon="2.17364">
        <ele>318.81</ele>
        <time>2015-07-18T11:13:32Z</time>
      </trkpt>
      <trkpt lat="43.15152" lon="2.17374">
        <ele>318.33</ele>
        <time>2015-07-18T11:13:33Z</time>
      </trkpt>
      <trkpt lat="43.15145" lon="2.17383">
        <ele>317.85</ele>
        <time>2015-07-18T11:13:34Z</time>
      </trkpt>
      <trkpt lat="43.15138" lon="2.17392">
        <ele>317.85</ele>
        <time>2015-07-18T11:13:35Z</time>
      </trkpt>
      <trkpt lat="43.15131" lon="2.17402">
        <ele>316.89</ele>
        <time>2015-07-18T11:13:36Z</time>
      </trkpt>
      <trkpt lat="43.15125" lon="2.1741">
        <ele>316.89</ele>
        <time>2015-07-18T11:13:37Z</time>
      </trkpt>
      <trkpt lat="43.15109" lon="2.1743">
        <ele>315.45</ele>
        <time>2015-07-18T11:13:40Z</time>
      </trkpt>
      <trkpt lat="43.15097" lon="2.17448">
        <ele>312.57</ele>
        <time>2015-07-18T11:13:44Z</time>
      </trkpt>
      <trkpt lat="43.15095" lon="2.17455">
        <ele>311.6</ele>
        <time>2015-07-18T11:13:45Z</time>
      </trkpt>
      <trkpt lat="43.15095" lon="2.17463">
        <ele>310.64</ele>
        <time>2015-07-18T11:13:46Z</time>
      </trkpt>
      <trkpt lat="43.15095" lon="2.17468">
        <ele>309.68</ele>
        <time>2015-07-18T11:13:47Z</time>
      </trkpt>
      <trkpt lat="43.15095" lon="2.1747">
        <ele>309.68</ele>
        <time>2015-07-18T11:13:48Z</time>
      </trkpt>
      <trkpt lat="43.1509" lon="2.17472">
        <ele>310.16</ele>
        <time>2015-07-18T11:14:04Z</time>
      </trkpt>
      <trkpt lat="43.15091" lon="2.17478">
        <ele>310.16</ele>
        <time>2015-07-18T11:14:11Z</time>
      </trkpt>
      <trkpt lat="43.15091" lon="2.17482">
        <ele>310.16</ele>
        <time>2015-07-18T11:14:12Z</time>
      </trkpt>
      <trkpt lat="43.15091" lon="2.17487">
        <ele>309.2</ele>
        <time>2015-07-18T11:14:13Z</time>
      </trkpt>
      <trkpt lat="43.15097" lon="2.17507">
        <ele>305.84</ele>
        <time>2015-07-18T11:14:17Z</time>
      </trkpt>
      <trkpt lat="43.15108" lon="2.17533">
        <ele>302.47</ele>
        <time>2015-07-18T11:14:21Z</time>
      </trkpt>
      <trkpt lat="43.15111" lon="2.17542">
        <ele>301.99</ele>
        <time>2015-07-18T11:14:22Z</time>
      </trkpt>
      <trkpt lat="43.15116" lon="2.1756">
        <ele>299.59</ele>
        <time>2015-07-18T11:14:24Z</time>
      </trkpt>
      <trkpt lat="43.15117" lon="2.17568">
        <ele>299.11</ele>
        <time>2015-07-18T11:14:25Z</time>
      </trkpt>
      <trkpt lat="43.15117" lon="2.17574">
        <ele>299.11</ele>
        <time>2015-07-18T11:14:26Z</time>
      </trkpt>
      <trkpt lat="43.15116" lon="2.17579">
        <ele>298.63</ele>
        <time>2015-07-18T11:14:27Z</time>
      </trkpt>
      <trkpt lat="43.15114" lon="2.17582">
        <ele>298.15</ele>
        <time>2015-07-18T11:14:28Z</time>
      </trkpt>
      <trkpt lat="43.15111" lon="2.17584">
        <ele>298.63</ele>
        <time>2015-07-18T11:14:29Z</time>
      </trkpt>
      <trkpt lat="43.15107" lon="2.17586">
        <ele>297.67</ele>
        <time>2015-07-18T11:14:30Z</time>
      </trkpt>
      <trkpt lat="43.15083" lon="2.17595">
        <ele>299.11</ele>
        <time>2015-07-18T11:14:37Z</time>
      </trkpt>
      <trkpt lat="43.15057" lon="2.1761">
        <ele>302.47</ele>
        <time>2015-07-18T11:14:49Z</time>
      </trkpt>
      <trkpt lat="43.1505" lon="2.17642">
        <ele>301.51</ele>
        <time>2015-07-18T11:14:58Z</time>
      </trkpt>
      <trkpt lat="43.15048" lon="2.17648">
        <ele>301.03</ele>
        <time>2015-07-18T11:14:59Z</time>
      </trkpt>
      <trkpt lat="43.15045" lon="2.17653">
        <ele>300.07</ele>
        <time>2015-07-18T11:15:00Z</time>
      </trkpt>
      <trkpt lat="43.15041" lon="2.17657">
        <ele>300.07</ele>
        <time>2015-07-18T11:15:01Z</time>
      </trkpt>
      <trkpt lat="43.15036" lon="2.17661">
        <ele>300.07</ele>
        <time>2015-07-18T11:15:02Z</time>
      </trkpt>
      <trkpt lat="43.1503" lon="2.17663">
        <ele>300.07</ele>
        <time>2015-07-18T11:15:03Z</time>
      </trkpt>
      <trkpt lat="43.15025" lon="2.17663">
        <ele>300.07</ele>
        <time>2015-07-18T11:15:04Z</time>
      </trkpt>
      <trkpt lat="43.15021" lon="2.17663">
        <ele>300.07</ele>
        <time>2015-07-18T11:15:05Z</time>
      </trkpt>
      <trkpt lat="43.14974" lon="2.17672">
        <ele>301.51</ele>
        <time>2015-07-18T11:15:16Z</time>
      </trkpt>
      <trkpt lat="43.14923" lon="2.17697">
        <ele>302.47</ele>
        <time>2015-07-18T11:15:30Z</time>
      </trkpt>
      <trkpt lat="43.14894" lon="2.17728">
        <ele>303.43</ele>
        <time>2015-07-18T11:15:41Z</time>
      </trkpt>
      <trkpt lat="43.14866" lon="2.17759">
        <ele>304.39</ele>
        <time>2015-07-18T11:15:52Z</time>
      </trkpt>
      <trkpt lat="43.14844" lon="2.17791">
        <ele>306.32</ele>
        <time>2015-07-18T11:16:03Z</time>
      </trkpt>
      <trkpt lat="43.14825" lon="2.17817">
        <ele>309.68</ele>
        <time>2015-07-18T11:16:14Z</time>
      </trkpt>
      <trkpt lat="43.14781" lon="2.17865">
        <ele>311.12</ele>
        <time>2015-07-18T11:16:27Z</time>
      </trkpt>
      <trkpt lat="43.14761" lon="2.17901">
        <ele>314.01</ele>
        <time>2015-07-18T11:16:38Z</time>
      </trkpt>
      <trkpt lat="43.14757" lon="2.17904">
        <ele>314.97</ele>
        <time>2015-07-18T11:16:40Z</time>
      </trkpt>
      <trkpt lat="43.14735" lon="2.17926">
        <ele>318.33</ele>
        <time>2015-07-18T11:16:49Z</time>
      </trkpt>
      <trkpt lat="43.1472" lon="2.17942">
        <ele>321.22</ele>
        <time>2015-07-18T11:16:58Z</time>
      </trkpt>
      <trkpt lat="43.1472" lon="2.17945">
        <ele>321.7</ele>
        <time>2015-07-18T11:16:59Z</time>
      </trkpt>
      <trkpt lat="43.14719" lon="2.17947">
        <ele>321.7</ele>
        <time>2015-07-18T11:17:00Z</time>
      </trkpt>
      <trkpt lat="43.14718" lon="2.1795">
        <ele>322.18</ele>
        <time>2015-07-18T11:17:01Z</time>
      </trkpt>
      <trkpt lat="43.14719" lon="2.17954">
        <ele>322.18</ele>
        <time>2015-07-18T11:17:02Z</time>
      </trkpt>
      <trkpt lat="43.1472" lon="2.17957">
        <ele>322.18</ele>
        <time>2015-07-18T11:17:03Z</time>
      </trkpt>
      <trkpt lat="43.14721" lon="2.17961">
        <ele>322.18</ele>
        <time>2015-07-18T11:17:04Z</time>
      </trkpt>
      <trkpt lat="43.14722" lon="2.17964">
        <ele>322.18</ele>
        <time>2015-07-18T11:17:05Z</time>
      </trkpt>
      <trkpt lat="43.14723" lon="2.17968">
        <ele>322.18</ele>
        <time>2015-07-18T11:17:06Z</time>
      </trkpt>
      <trkpt lat="43.14748" lon="2.18015">
        <ele>323.14</ele>
        <time>2015-07-18T11:17:21Z</time>
      </trkpt>
      <trkpt lat="43.14776" lon="2.18066">
        <ele>326.02</ele>
        <time>2015-07-18T11:17:37Z</time>
      </trkpt>
      <trkpt lat="43.1479" lon="2.18109">
        <ele>328.91</ele>
        <time>2015-07-18T11:17:49Z</time>
      </trkpt>
      <trkpt lat="43.14787" lon="2.1815">
        <ele>332.27</ele>
        <time>2015-07-18T11:18:01Z</time>
      </trkpt>
      <trkpt lat="43.14786" lon="2.18159">
        <ele>332.75</ele>
        <time>2015-07-18T11:18:04Z</time>
      </trkpt>
      <trkpt lat="43.14786" lon="2.18163">
        <ele>333.23</ele>
        <time>2015-07-18T11:18:05Z</time>
      </trkpt>
      <trkpt lat="43.14786" lon="2.18166">
        <ele>333.23</ele>
        <time>2015-07-18T11:18:06Z</time>
      </trkpt>
      <trkpt lat="43.14798" lon="2.18193">
        <ele>336.6</ele>
        <time>2015-07-18T11:18:17Z</time>
      </trkpt>
      <trkpt lat="43.14828" lon="2.18191">
        <ele>339</ele>
        <time>2015-07-18T11:18:31Z</time>
      </trkpt>
      <trkpt lat="43.14859" lon="2.18198">
        <ele>340.92</ele>
        <time>2015-07-18T11:18:43Z</time>
      </trkpt>
      <trkpt lat="43.14891" lon="2.18226">
        <ele>343.81</ele>
        <time>2015-07-18T11:18:58Z</time>
      </trkpt>
      <trkpt lat="43.1492" lon="2.18254">
        <ele>347.17</ele>
        <time>2015-07-18T11:19:12Z</time>
      </trkpt>
      <trkpt lat="43.14946" lon="2.18295">
        <ele>350.06</ele>
        <time>2015-07-18T11:19:27Z</time>
      </trkpt>
      <trkpt lat="43.14961" lon="2.18337">
        <ele>352.94</ele>
        <time>2015-07-18T11:19:40Z</time>
      </trkpt>
      <trkpt lat="43.14971" lon="2.18384">
        <ele>356.31</ele>
        <time>2015-07-18T11:19:54Z</time>
      </trkpt>
      <trkpt lat="43.14982" lon="2.18429">
        <ele>359.19</ele>
        <time>2015-07-18T11:20:08Z</time>
      </trkpt>
      <trkpt lat="43.14994" lon="2.18489">
        <ele>363.04</ele>
        <time>2015-07-18T11:20:25Z</time>
      </trkpt>
      <trkpt lat="43.1501" lon="2.18558">
        <ele>363.52</ele>
        <time>2015-07-18T11:20:40Z</time>
      </trkpt>
      <trkpt lat="43.15013" lon="2.18563">
        <ele>363.52</ele>
        <time>2015-07-18T11:20:41Z</time>
      </trkpt>
      <trkpt lat="43.15015" lon="2.18568">
        <ele>363.52</ele>
        <time>2015-07-18T11:20:42Z</time>
      </trkpt>
      <trkpt lat="43.15017" lon="2.18572">
        <ele>363.52</ele>
        <time>2015-07-18T11:20:43Z</time>
      </trkpt>
      <trkpt lat="43.15019" lon="2.18577">
        <ele>363.52</ele>
        <time>2015-07-18T11:20:44Z</time>
      </trkpt>
      <trkpt lat="43.15021" lon="2.18581">
        <ele>363.52</ele>
        <time>2015-07-18T11:20:45Z</time>
      </trkpt>
      <trkpt lat="43.15022" lon="2.18585">
        <ele>363.52</ele>
        <time>2015-07-18T11:20:46Z</time>
      </trkpt>
      <trkpt lat="43.15024" lon="2.18589">
        <ele>363.52</ele>
        <time>2015-07-18T11:20:47Z</time>
      </trkpt>
      <trkpt lat="43.15025" lon="2.18593">
        <ele>363.52</ele>
        <time>2015-07-18T11:20:48Z</time>
      </trkpt>
      <trkpt lat="43.15037" lon="2.18615">
        <ele>363.52</ele>
        <time>2015-07-18T11:20:55Z</time>
      </trkpt>
      <trkpt lat="43.1504" lon="2.18617">
        <ele>363.52</ele>
        <time>2015-07-18T11:20:56Z</time>
      </trkpt>
      <trkpt lat="43.15042" lon="2.1862">
        <ele>363.52</ele>
        <time>2015-07-18T11:20:57Z</time>
      </trkpt>
      <trkpt lat="43.15042" lon="2.18623">
        <ele>363.52</ele>
        <time>2015-07-18T11:20:58Z</time>
      </trkpt>
      <trkpt lat="43.15034" lon="2.1862">
        <ele>362.07</ele>
        <time>2015-07-18T11:21:01Z</time>
      </trkpt>
      <trkpt lat="43.15031" lon="2.18618">
        <ele>362.07</ele>
        <time>2015-07-18T11:21:02Z</time>
      </trkpt>
      <trkpt lat="43.15023" lon="2.1861">
        <ele>360.63</ele>
        <time>2015-07-18T11:21:04Z</time>
      </trkpt>
      <trkpt lat="43.15019" lon="2.18607">
        <ele>360.63</ele>
        <time>2015-07-18T11:21:05Z</time>
      </trkpt>
      <trkpt lat="43.14993" lon="2.18597">
        <ele>357.75</ele>
        <time>2015-07-18T11:21:09Z</time>
      </trkpt>
      <trkpt lat="43.14979" lon="2.18594">
        <ele>356.79</ele>
        <time>2015-07-18T11:21:11Z</time>
      </trkpt>
      <trkpt lat="43.14971" lon="2.18595">
        <ele>355.83</ele>
        <time>2015-07-18T11:21:12Z</time>
      </trkpt>
      <trkpt lat="43.14964" lon="2.18597">
        <ele>354.86</ele>
        <time>2015-07-18T11:21:13Z</time>
      </trkpt>
      <trkpt lat="43.14957" lon="2.18601">
        <ele>354.86</ele>
        <time>2015-07-18T11:21:14Z</time>
      </trkpt>
      <trkpt lat="43.14951" lon="2.18606">
        <ele>354.38</ele>
        <time>2015-07-18T11:21:15Z</time>
      </trkpt>
      <trkpt lat="43.14946" lon="2.18611">
        <ele>354.38</ele>
        <time>2015-07-18T11:21:16Z</time>
      </trkpt>
      <trkpt lat="43.14944" lon="2.18618">
        <ele>354.38</ele>
        <time>2015-07-18T11:21:17Z</time>
      </trkpt>
      <trkpt lat="43.14943" lon="2.18624">
        <ele>355.34</ele>
        <time>2015-07-18T11:21:18Z</time>
      </trkpt>
      <trkpt lat="43.14945" lon="2.1863">
        <ele>355.83</ele>
        <time>2015-07-18T11:21:19Z</time>
      </trkpt>
      <trkpt lat="43.14947" lon="2.18635">
        <ele>355.83</ele>
        <time>2015-07-18T11:21:20Z</time>
      </trkpt>
      <trkpt lat="43.14948" lon="2.18641">
        <ele>355.83</ele>
        <time>2015-07-18T11:21:21Z</time>
      </trkpt>
      <trkpt lat="43.14949" lon="2.18647">
        <ele>354.86</ele>
        <time>2015-07-18T11:21:22Z</time>
      </trkpt>
      <trkpt lat="43.1495" lon="2.1866">
        <ele>354.86</ele>
        <time>2015-07-18T11:21:24Z</time>
      </trkpt>
      <trkpt lat="43.14949" lon="2.18686">
        <ele>354.38</ele>
        <time>2015-07-18T11:21:28Z</time>
      </trkpt>
      <trkpt lat="43.14948" lon="2.18699">
        <ele>354.38</ele>
        <time>2015-07-18T11:21:30Z</time>
      </trkpt>
      <trkpt lat="43.14946" lon="2.18705">
        <ele>353.9</ele>
        <time>2015-07-18T11:21:31Z</time>
      </trkpt>
      <trkpt lat="43.14943" lon="2.18717">
        <ele>353.42</ele>
        <time>2015-07-18T11:21:33Z</time>
      </trkpt>
      <trkpt lat="43.14936" lon="2.1873">
        <ele>351.98</ele>
        <time>2015-07-18T11:21:35Z</time>
      </trkpt>
      <trkpt lat="43.14932" lon="2.18735">
        <ele>351.98</ele>
        <time>2015-07-18T11:21:36Z</time>
      </trkpt>
      <trkpt lat="43.14926" lon="2.18738">
        <ele>351.5</ele>
        <time>2015-07-18T11:21:37Z</time>
      </trkpt>
      <trkpt lat="43.14919" lon="2.18739">
        <ele>350.54</ele>
        <time>2015-07-18T11:21:38Z</time>
      </trkpt>
      <trkpt lat="43.14913" lon="2.18738">
        <ele>349.58</ele>
        <time>2015-07-18T11:21:39Z</time>
      </trkpt>
      <trkpt lat="43.14906" lon="2.18736">
        <ele>348.62</ele>
        <time>2015-07-18T11:21:40Z</time>
      </trkpt>
      <trkpt lat="43.14899" lon="2.18732">
        <ele>348.62</ele>
        <time>2015-07-18T11:21:41Z</time>
      </trkpt>
      <trkpt lat="43.14892" lon="2.18727">
        <ele>348.62</ele>
        <time>2015-07-18T11:21:42Z</time>
      </trkpt>
      <trkpt lat="43.14884" lon="2.18721">
        <ele>347.17</ele>
        <time>2015-07-18T11:21:43Z</time>
      </trkpt>
      <trkpt lat="43.14861" lon="2.18707">
        <ele>345.25</ele>
        <time>2015-07-18T11:21:46Z</time>
      </trkpt>
      <trkpt lat="43.14855" lon="2.18706">
        <ele>343.81</ele>
        <time>2015-07-18T11:21:47Z</time>
      </trkpt>
      <trkpt lat="43.14848" lon="2.18705">
        <ele>343.81</ele>
        <time>2015-07-18T11:21:48Z</time>
      </trkpt>
      <trkpt lat="43.14836" lon="2.18706">
        <ele>343.33</ele>
        <time>2015-07-18T11:21:50Z</time>
      </trkpt>
      <trkpt lat="43.1483" lon="2.18707">
        <ele>343.33</ele>
        <time>2015-07-18T11:21:51Z</time>
      </trkpt>
      <trkpt lat="43.14826" lon="2.18709">
        <ele>343.33</ele>
        <time>2015-07-18T11:21:52Z</time>
      </trkpt>
      <trkpt lat="43.14822" lon="2.18713">
        <ele>342.85</ele>
        <time>2015-07-18T11:21:53Z</time>
      </trkpt>
      <trkpt lat="43.1482" lon="2.18718">
        <ele>342.85</ele>
        <time>2015-07-18T11:21:54Z</time>
      </trkpt>
      <trkpt lat="43.14818" lon="2.18723">
        <ele>342.85</ele>
        <time>2015-07-18T11:21:55Z</time>
      </trkpt>
      <trkpt lat="43.14816" lon="2.18728">
        <ele>342.85</ele>
        <time>2015-07-18T11:21:56Z</time>
      </trkpt>
      <trkpt lat="43.14809" lon="2.18759">
        <ele>342.85</ele>
        <time>2015-07-18T11:22:01Z</time>
      </trkpt>
      <trkpt lat="43.14807" lon="2.18764">
        <ele>342.85</ele>
        <time>2015-07-18T11:22:02Z</time>
      </trkpt>
      <trkpt lat="43.14806" lon="2.18768">
        <ele>342.85</ele>
        <time>2015-07-18T11:22:03Z</time>
      </trkpt>
      <trkpt lat="43.14805" lon="2.18769">
        <ele>342.85</ele>
        <time>2015-07-18T11:22:14Z</time>
      </trkpt>
      <trkpt lat="43.14791" lon="2.18788">
        <ele>340.92</ele>
        <time>2015-07-18T11:22:27Z</time>
      </trkpt>
      <trkpt lat="43.14761" lon="2.18826">
        <ele>337.56</ele>
        <time>2015-07-18T11:22:34Z</time>
      </trkpt>
      <trkpt lat="43.14737" lon="2.18857">
        <ele>334.68</ele>
        <time>2015-07-18T11:22:38Z</time>
      </trkpt>
      <trkpt lat="43.14731" lon="2.18865">
        <ele>334.68</ele>
        <time>2015-07-18T11:22:39Z</time>
      </trkpt>
      <trkpt lat="43.14726" lon="2.18874">
        <ele>334.2</ele>
        <time>2015-07-18T11:22:40Z</time>
      </trkpt>
      <trkpt lat="43.14721" lon="2.18882">
        <ele>333.71</ele>
        <time>2015-07-18T11:22:41Z</time>
      </trkpt>
      <trkpt lat="43.14715" lon="2.18888">
        <ele>333.71</ele>
        <time>2015-07-18T11:22:42Z</time>
      </trkpt>
      <trkpt lat="43.14711" lon="2.18892">
        <ele>333.71</ele>
        <time>2015-07-18T11:22:43Z</time>
      </trkpt>
      <trkpt lat="43.14705" lon="2.18895">
        <ele>333.23</ele>
        <time>2015-07-18T11:22:44Z</time>
      </trkpt>
      <trkpt lat="43.147" lon="2.18897">
        <ele>332.27</ele>
        <time>2015-07-18T11:22:45Z</time>
      </trkpt>
      <trkpt lat="43.14695" lon="2.18901">
        <ele>331.31</ele>
        <time>2015-07-18T11:22:46Z</time>
      </trkpt>
      <trkpt lat="43.14689" lon="2.18904">
        <ele>330.83</ele>
        <time>2015-07-18T11:22:47Z</time>
      </trkpt>
      <trkpt lat="43.14684" lon="2.18907">
        <ele>329.87</ele>
        <time>2015-07-18T11:22:48Z</time>
      </trkpt>
      <trkpt lat="43.14679" lon="2.18911">
        <ele>328.91</ele>
        <time>2015-07-18T11:22:49Z</time>
      </trkpt>
      <trkpt lat="43.14662" lon="2.18919">
        <ele>327.95</ele>
        <time>2015-07-18T11:22:53Z</time>
      </trkpt>
      <trkpt lat="43.14636" lon="2.18935">
        <ele>324.1</ele>
        <time>2015-07-18T11:22:58Z</time>
      </trkpt>
      <trkpt lat="43.14612" lon="2.18949">
        <ele>320.74</ele>
        <time>2015-07-18T11:23:02Z</time>
      </trkpt>
      <trkpt lat="43.146" lon="2.18955">
        <ele>320.26</ele>
        <time>2015-07-18T11:23:04Z</time>
      </trkpt>
      <trkpt lat="43.14524" lon="2.18982">
        <ele>316.41</ele>
        <time>2015-07-18T11:23:16Z</time>
      </trkpt>
      <trkpt lat="43.14484" lon="2.18999">
        <ele>314.97</ele>
        <time>2015-07-18T11:23:22Z</time>
      </trkpt>
      <trkpt lat="43.14462" lon="2.19007">
        <ele>313.05</ele>
        <time>2015-07-18T11:23:25Z</time>
      </trkpt>
      <trkpt lat="43.14455" lon="2.19009">
        <ele>313.05</ele>
        <time>2015-07-18T11:23:26Z</time>
      </trkpt>
      <trkpt lat="43.14418" lon="2.19021">
        <ele>310.64</ele>
        <time>2015-07-18T11:23:31Z</time>
      </trkpt>
      <trkpt lat="43.14411" lon="2.19025">
        <ele>310.16</ele>
        <time>2015-07-18T11:23:32Z</time>
      </trkpt>
      <trkpt lat="43.14404" lon="2.19029">
        <ele>310.16</ele>
        <time>2015-07-18T11:23:33Z</time>
      </trkpt>
      <trkpt lat="43.14398" lon="2.19033">
        <ele>309.2</ele>
        <time>2015-07-18T11:23:34Z</time>
      </trkpt>
      <trkpt lat="43.14392" lon="2.19038">
        <ele>308.24</ele>
        <time>2015-07-18T11:23:35Z</time>
      </trkpt>
      <trkpt lat="43.14387" lon="2.19043">
        <ele>307.76</ele>
        <time>2015-07-18T11:23:36Z</time>
      </trkpt>
      <trkpt lat="43.14376" lon="2.19056">
        <ele>307.28</ele>
        <time>2015-07-18T11:23:38Z</time>
      </trkpt>
      <trkpt lat="43.14371" lon="2.19063">
        <ele>306.32</ele>
        <time>2015-07-18T11:23:39Z</time>
      </trkpt>
      <trkpt lat="43.14365" lon="2.19071">
        <ele>305.36</ele>
        <time>2015-07-18T11:23:40Z</time>
      </trkpt>
      <trkpt lat="43.1436" lon="2.19077">
        <ele>304.88</ele>
        <time>2015-07-18T11:23:41Z</time>
      </trkpt>
      <trkpt lat="43.14353" lon="2.19083">
        <ele>303.91</ele>
        <time>2015-07-18T11:23:42Z</time>
      </trkpt>
      <trkpt lat="43.14348" lon="2.19087">
        <ele>303.91</ele>
        <time>2015-07-18T11:23:43Z</time>
      </trkpt>
      <trkpt lat="43.14343" lon="2.19091">
        <ele>303.91</ele>
        <time>2015-07-18T11:23:44Z</time>
      </trkpt>
      <trkpt lat="43.14338" lon="2.19095">
        <ele>303.43</ele>
        <time>2015-07-18T11:23:45Z</time>
      </trkpt>
      <trkpt lat="43.14335" lon="2.19099">
        <ele>303.43</ele>
        <time>2015-07-18T11:23:46Z</time>
      </trkpt>
      <trkpt lat="43.14333" lon="2.19101">
        <ele>303.43</ele>
        <time>2015-07-18T11:23:47Z</time>
      </trkpt>
      <trkpt lat="43.14332" lon="2.19104">
        <ele>302.95</ele>
        <time>2015-07-18T11:23:56Z</time>
      </trkpt>
      <trkpt lat="43.14332" lon="2.19107">
        <ele>302.95</ele>
        <time>2015-07-18T11:23:57Z</time>
      </trkpt>
      <trkpt lat="43.14333" lon="2.19109">
        <ele>302.47</ele>
        <time>2015-07-18T11:23:58Z</time>
      </trkpt>
      <trkpt lat="43.14334" lon="2.19112">
        <ele>302.47</ele>
        <time>2015-07-18T11:23:59Z</time>
      </trkpt>
      <trkpt lat="43.14334" lon="2.19117">
        <ele>301.51</ele>
        <time>2015-07-18T11:24:00Z</time>
      </trkpt>
      <trkpt lat="43.14335" lon="2.19122">
        <ele>300.55</ele>
        <time>2015-07-18T11:24:01Z</time>
      </trkpt>
      <trkpt lat="43.14336" lon="2.19128">
        <ele>299.59</ele>
        <time>2015-07-18T11:24:02Z</time>
      </trkpt>
      <trkpt lat="43.14336" lon="2.19133">
        <ele>299.11</ele>
        <time>2015-07-18T11:24:03Z</time>
      </trkpt>
      <trkpt lat="43.14337" lon="2.19136">
        <ele>299.11</ele>
        <time>2015-07-18T11:24:04Z</time>
      </trkpt>
      <trkpt lat="43.14337" lon="2.19139">
        <ele>299.11</ele>
        <time>2015-07-18T11:24:05Z</time>
      </trkpt>
      <trkpt lat="43.14338" lon="2.19143">
        <ele>298.63</ele>
        <time>2015-07-18T11:24:06Z</time>
      </trkpt>
      <trkpt lat="43.14338" lon="2.19147">
        <ele>298.15</ele>
        <time>2015-07-18T11:24:07Z</time>
      </trkpt>
      <trkpt lat="43.14338" lon="2.19152">
        <ele>298.15</ele>
        <time>2015-07-18T11:24:08Z</time>
      </trkpt>
      <trkpt lat="43.14338" lon="2.19157">
        <ele>297.67</ele>
        <time>2015-07-18T11:24:09Z</time>
      </trkpt>
      <trkpt lat="43.14337" lon="2.19167">
        <ele>296.7</ele>
        <time>2015-07-18T11:24:11Z</time>
      </trkpt>
      <trkpt lat="43.14334" lon="2.19181">
        <ele>295.74</ele>
        <time>2015-07-18T11:24:13Z</time>
      </trkpt>
      <trkpt lat="43.14332" lon="2.19186">
        <ele>294.78</ele>
        <time>2015-07-18T11:24:14Z</time>
      </trkpt>
      <trkpt lat="43.1433" lon="2.19191">
        <ele>294.78</ele>
        <time>2015-07-18T11:24:15Z</time>
      </trkpt>
      <trkpt lat="43.14329" lon="2.19197">
        <ele>294.3</ele>
        <time>2015-07-18T11:24:16Z</time>
      </trkpt>
      <trkpt lat="43.14328" lon="2.19204">
        <ele>293.82</ele>
        <time>2015-07-18T11:24:17Z</time>
      </trkpt>
      <trkpt lat="43.14327" lon="2.1922">
        <ele>291.42</ele>
        <time>2015-07-18T11:24:19Z</time>
      </trkpt>
      <trkpt lat="43.14326" lon="2.19245">
        <ele>290.46</ele>
        <time>2015-07-18T11:24:22Z</time>
      </trkpt>
      <trkpt lat="43.14327" lon="2.19252">
        <ele>289.97</ele>
        <time>2015-07-18T11:24:23Z</time>
      </trkpt>
      <trkpt lat="43.14328" lon="2.19258">
        <ele>289.01</ele>
        <time>2015-07-18T11:24:24Z</time>
      </trkpt>
      <trkpt lat="43.14329" lon="2.19265">
        <ele>288.05</ele>
        <time>2015-07-18T11:24:25Z</time>
      </trkpt>
      <trkpt lat="43.14331" lon="2.19272">
        <ele>288.05</ele>
        <time>2015-07-18T11:24:26Z</time>
      </trkpt>
      <trkpt lat="43.14333" lon="2.19278">
        <ele>287.57</ele>
        <time>2015-07-18T11:24:27Z</time>
      </trkpt>
      <trkpt lat="43.14336" lon="2.19283">
        <ele>286.61</ele>
        <time>2015-07-18T11:24:28Z</time>
      </trkpt>
      <trkpt lat="43.1434" lon="2.19287">
        <ele>286.61</ele>
        <time>2015-07-18T11:24:29Z</time>
      </trkpt>
      <trkpt lat="43.14344" lon="2.1929">
        <ele>286.13</ele>
        <time>2015-07-18T11:24:30Z</time>
      </trkpt>
      <trkpt lat="43.14348" lon="2.19295">
        <ele>286.13</ele>
        <time>2015-07-18T11:24:31Z</time>
      </trkpt>
      <trkpt lat="43.14367" lon="2.19313">
        <ele>283.73</ele>
        <time>2015-07-18T11:24:35Z</time>
      </trkpt>
      <trkpt lat="43.14371" lon="2.19316">
        <ele>283.25</ele>
        <time>2015-07-18T11:24:36Z</time>
      </trkpt>
      <trkpt lat="43.14376" lon="2.19316">
        <ele>283.25</ele>
        <time>2015-07-18T11:24:37Z</time>
      </trkpt>
      <trkpt lat="43.14382" lon="2.19315">
        <ele>282.28</ele>
        <time>2015-07-18T11:24:38Z</time>
      </trkpt>
      <trkpt lat="43.14388" lon="2.19313">
        <ele>282.28</ele>
        <time>2015-07-18T11:24:39Z</time>
      </trkpt>
      <trkpt lat="43.14394" lon="2.1931">
        <ele>281.32</ele>
        <time>2015-07-18T11:24:40Z</time>
      </trkpt>
      <trkpt lat="43.14399" lon="2.19307">
        <ele>281.32</ele>
        <time>2015-07-18T11:24:41Z</time>
      </trkpt>
      <trkpt lat="43.14403" lon="2.19305">
        <ele>280.84</ele>
        <time>2015-07-18T11:24:42Z</time>
      </trkpt>
      <trkpt lat="43.14407" lon="2.19303">
        <ele>280.36</ele>
        <time>2015-07-18T11:24:43Z</time>
      </trkpt>
      <trkpt lat="43.14411" lon="2.19302">
        <ele>279.88</ele>
        <time>2015-07-18T11:24:44Z</time>
      </trkpt>
      <trkpt lat="43.14415" lon="2.19301">
        <ele>279.4</ele>
        <time>2015-07-18T11:24:45Z</time>
      </trkpt>
      <trkpt lat="43.14451" lon="2.19308">
        <ele>277</ele>
        <time>2015-07-18T11:24:52Z</time>
      </trkpt>
      <trkpt lat="43.14455" lon="2.19311">
        <ele>277</ele>
        <time>2015-07-18T11:24:53Z</time>
      </trkpt>
      <trkpt lat="43.14458" lon="2.19314">
        <ele>276.04</ele>
        <time>2015-07-18T11:24:54Z</time>
      </trkpt>
      <trkpt lat="43.14459" lon="2.19318">
        <ele>276.04</ele>
        <time>2015-07-18T11:24:55Z</time>
      </trkpt>
      <trkpt lat="43.1446" lon="2.19321">
        <ele>276.04</ele>
        <time>2015-07-18T11:24:56Z</time>
      </trkpt>
      <trkpt lat="43.1446" lon="2.19324">
        <ele>276.04</ele>
        <time>2015-07-18T11:24:57Z</time>
      </trkpt>
      <trkpt lat="43.14459" lon="2.19328">
        <ele>276.04</ele>
        <time>2015-07-18T11:24:59Z</time>
      </trkpt>
      <trkpt lat="43.14459" lon="2.19331">
        <ele>276.04</ele>
        <time>2015-07-18T11:25:00Z</time>
      </trkpt>
      <trkpt lat="43.14458" lon="2.19333">
        <ele>276.04</ele>
        <time>2015-07-18T11:25:01Z</time>
      </trkpt>
      <trkpt lat="43.14457" lon="2.19335">
        <ele>276.04</ele>
        <time>2015-07-18T11:25:02Z</time>
      </trkpt>
      <trkpt lat="43.14456" lon="2.19337">
        <ele>276.04</ele>
        <time>2015-07-18T11:25:03Z</time>
      </trkpt>
      <trkpt lat="43.14453" lon="2.19347">
        <ele>279.4</ele>
        <time>2015-07-18T11:25:08Z</time>
      </trkpt>
      <trkpt lat="43.14452" lon="2.19368">
        <ele>283.25</ele>
        <time>2015-07-18T11:25:16Z</time>
      </trkpt>
      <trkpt lat="43.1445" lon="2.19396">
        <ele>286.13</ele>
        <time>2015-07-18T11:25:26Z</time>
      </trkpt>
      <trkpt lat="43.14452" lon="2.19429">
        <ele>288.53</ele>
        <time>2015-07-18T11:25:40Z</time>
      </trkpt>
      <trkpt lat="43.14457" lon="2.19469">
        <ele>291.9</ele>
        <time>2015-07-18T11:25:57Z</time>
      </trkpt>
      <trkpt lat="43.14464" lon="2.1951">
        <ele>293.82</ele>
        <time>2015-07-18T11:26:12Z</time>
      </trkpt>
      <trkpt lat="43.14474" lon="2.19556">
        <ele>295.74</ele>
        <time>2015-07-18T11:26:28Z</time>
      </trkpt>
      <trkpt lat="43.14488" lon="2.19598">
        <ele>296.7</ele>
        <time>2015-07-18T11:26:43Z</time>
      </trkpt>
      <trkpt lat="43.14503" lon="2.19652">
        <ele>299.11</ele>
        <time>2015-07-18T11:27:01Z</time>
      </trkpt>
      <trkpt lat="43.14515" lon="2.19693">
        <ele>301.99</ele>
        <time>2015-07-18T11:27:16Z</time>
      </trkpt>
      <trkpt lat="43.14518" lon="2.19707">
        <ele>301.99</ele>
        <time>2015-07-18T11:27:21Z</time>
      </trkpt>
      <trkpt lat="43.14518" lon="2.1971">
        <ele>302.47</ele>
        <time>2015-07-18T11:27:22Z</time>
      </trkpt>
      <trkpt lat="43.14519" lon="2.19713">
        <ele>302.47</ele>
        <time>2015-07-18T11:27:23Z</time>
      </trkpt>
      <trkpt lat="43.1452" lon="2.19715">
        <ele>302.47</ele>
        <time>2015-07-18T11:27:24Z</time>
      </trkpt>
      <trkpt lat="43.14521" lon="2.19718">
        <ele>303.43</ele>
        <time>2015-07-18T11:27:25Z</time>
      </trkpt>
      <trkpt lat="43.14537" lon="2.19755">
        <ele>305.84</ele>
        <time>2015-07-18T11:27:41Z</time>
      </trkpt>
      <trkpt lat="43.14537" lon="2.19795">
        <ele>307.76</ele>
        <time>2015-07-18T11:27:55Z</time>
      </trkpt>
      <trkpt lat="43.14532" lon="2.19835">
        <ele>310.64</ele>
        <time>2015-07-18T11:28:09Z</time>
      </trkpt>
      <trkpt lat="43.14528" lon="2.19881">
        <ele>313.05</ele>
        <time>2015-07-18T11:28:25Z</time>
      </trkpt>
      <trkpt lat="43.1452" lon="2.19924">
        <ele>311.6</ele>
        <time>2015-07-18T11:28:38Z</time>
      </trkpt>
      <trkpt lat="43.14519" lon="2.19929">
        <ele>310.64</ele>
        <time>2015-07-18T11:28:39Z</time>
      </trkpt>
      <trkpt lat="43.14517" lon="2.19934">
        <ele>310.64</ele>
        <time>2015-07-18T11:28:40Z</time>
      </trkpt>
      <trkpt lat="43.14502" lon="2.19969">
        <ele>307.76</ele>
        <time>2015-07-18T11:28:45Z</time>
      </trkpt>
      <trkpt lat="43.14484" lon="2.20008">
        <ele>303.91</ele>
        <time>2015-07-18T11:28:49Z</time>
      </trkpt>
      <trkpt lat="43.1447" lon="2.20044">
        <ele>300.55</ele>
        <time>2015-07-18T11:28:52Z</time>
      </trkpt>
      <trkpt lat="43.14452" lon="2.20096">
        <ele>296.7</ele>
        <time>2015-07-18T11:28:56Z</time>
      </trkpt>
      <trkpt lat="43.14435" lon="2.2015">
        <ele>294.3</ele>
        <time>2015-07-18T11:29:00Z</time>
      </trkpt>
      <trkpt lat="43.14419" lon="2.20202">
        <ele>290.94</ele>
        <time>2015-07-18T11:29:04Z</time>
      </trkpt>
      <trkpt lat="43.14412" lon="2.20244">
        <ele>287.57</ele>
        <time>2015-07-18T11:29:07Z</time>
      </trkpt>
      <trkpt lat="43.14401" lon="2.20297">
        <ele>283.25</ele>
        <time>2015-07-18T11:29:11Z</time>
      </trkpt>
      <trkpt lat="43.14393" lon="2.20323">
        <ele>281.8</ele>
        <time>2015-07-18T11:29:13Z</time>
      </trkpt>
      <trkpt lat="43.14388" lon="2.20334">
        <ele>281.32</ele>
        <time>2015-07-18T11:29:14Z</time>
      </trkpt>
      <trkpt lat="43.14383" lon="2.20343">
        <ele>281.8</ele>
        <time>2015-07-18T11:29:15Z</time>
      </trkpt>
      <trkpt lat="43.1438" lon="2.20352">
        <ele>283.73</ele>
        <time>2015-07-18T11:29:16Z</time>
      </trkpt>
      <trkpt lat="43.14379" lon="2.2036">
        <ele>284.69</ele>
        <time>2015-07-18T11:29:17Z</time>
      </trkpt>
      <trkpt lat="43.14379" lon="2.20367">
        <ele>285.17</ele>
        <time>2015-07-18T11:29:18Z</time>
      </trkpt>
      <trkpt lat="43.14379" lon="2.20374">
        <ele>286.61</ele>
        <time>2015-07-18T11:29:19Z</time>
      </trkpt>
      <trkpt lat="43.1438" lon="2.20382">
        <ele>286.61</ele>
        <time>2015-07-18T11:29:20Z</time>
      </trkpt>
      <trkpt lat="43.14382" lon="2.20409">
        <ele>282.77</ele>
        <time>2015-07-18T11:29:23Z</time>
      </trkpt>
      <trkpt lat="43.1438" lon="2.20418">
        <ele>282.28</ele>
        <time>2015-07-18T11:29:24Z</time>
      </trkpt>
      <trkpt lat="43.14376" lon="2.20424">
        <ele>282.28</ele>
        <time>2015-07-18T11:29:25Z</time>
      </trkpt>
      <trkpt lat="43.1437" lon="2.20428">
        <ele>282.28</ele>
        <time>2015-07-18T11:29:26Z</time>
      </trkpt>
      <trkpt lat="43.14365" lon="2.2043">
        <ele>283.73</ele>
        <time>2015-07-18T11:29:27Z</time>
      </trkpt>
      <trkpt lat="43.1436" lon="2.20433">
        <ele>284.21</ele>
        <time>2015-07-18T11:29:28Z</time>
      </trkpt>
      <trkpt lat="43.14356" lon="2.20437">
        <ele>284.69</ele>
        <time>2015-07-18T11:29:29Z</time>
      </trkpt>
      <trkpt lat="43.14353" lon="2.20441">
        <ele>285.17</ele>
        <time>2015-07-18T11:29:30Z</time>
      </trkpt>
      <trkpt lat="43.1435" lon="2.20445">
        <ele>286.13</ele>
        <time>2015-07-18T11:29:31Z</time>
      </trkpt>
      <trkpt lat="43.14338" lon="2.20465">
        <ele>289.49</ele>
        <time>2015-07-18T11:29:38Z</time>
      </trkpt>
      <trkpt lat="43.14327" lon="2.2049">
        <ele>292.86</ele>
        <time>2015-07-18T11:29:48Z</time>
      </trkpt>
      <trkpt lat="43.14317" lon="2.20516">
        <ele>296.22</ele>
        <time>2015-07-18T11:29:58Z</time>
      </trkpt>
      <trkpt lat="43.14302" lon="2.20563">
        <ele>295.74</ele>
        <time>2015-07-18T11:30:11Z</time>
      </trkpt>
      <trkpt lat="43.14296" lon="2.20586">
        <ele>294.3</ele>
        <time>2015-07-18T11:30:14Z</time>
      </trkpt>
      <trkpt lat="43.1429" lon="2.2062">
        <ele>293.34</ele>
        <time>2015-07-18T11:30:18Z</time>
      </trkpt>
      <trkpt lat="43.14287" lon="2.20628">
        <ele>293.34</ele>
        <time>2015-07-18T11:30:19Z</time>
      </trkpt>
      <trkpt lat="43.14261" lon="2.2069">
        <ele>289.97</ele>
        <time>2015-07-18T11:30:27Z</time>
      </trkpt>
      <trkpt lat="43.14257" lon="2.20717">
        <ele>289.49</ele>
        <time>2015-07-18T11:30:32Z</time>
      </trkpt>
      <trkpt lat="43.14258" lon="2.20719">
        <ele>289.49</ele>
        <time>2015-07-18T11:30:33Z</time>
      </trkpt>
      <trkpt lat="43.1426" lon="2.2072">
        <ele>289.49</ele>
        <time>2015-07-18T11:30:34Z</time>
      </trkpt>
      <trkpt lat="43.14265" lon="2.20723">
        <ele>290.94</ele>
        <time>2015-07-18T11:30:37Z</time>
      </trkpt>
      <trkpt lat="43.1429" lon="2.20733">
        <ele>294.3</ele>
        <time>2015-07-18T11:30:49Z</time>
      </trkpt>
      <trkpt lat="43.14314" lon="2.20743">
        <ele>297.67</ele>
        <time>2015-07-18T11:31:03Z</time>
      </trkpt>
      <trkpt lat="43.14332" lon="2.20751">
        <ele>301.03</ele>
        <time>2015-07-18T11:31:15Z</time>
      </trkpt>
      <trkpt lat="43.14354" lon="2.2076">
        <ele>304.88</ele>
        <time>2015-07-18T11:31:30Z</time>
      </trkpt>
      <trkpt lat="43.14375" lon="2.20769">
        <ele>308.24</ele>
        <time>2015-07-18T11:31:44Z</time>
      </trkpt>
      <trkpt lat="43.14403" lon="2.20776">
        <ele>311.6</ele>
        <time>2015-07-18T11:32:02Z</time>
      </trkpt>
      <trkpt lat="43.14423" lon="2.20783">
        <ele>314.97</ele>
        <time>2015-07-18T11:32:16Z</time>
      </trkpt>
      <trkpt lat="43.14442" lon="2.20786">
        <ele>317.85</ele>
        <time>2015-07-18T11:32:28Z</time>
      </trkpt>
      <trkpt lat="43.14467" lon="2.20794">
        <ele>321.22</ele>
        <time>2015-07-18T11:32:44Z</time>
      </trkpt>
      <trkpt lat="43.14489" lon="2.208">
        <ele>324.1</ele>
        <time>2015-07-18T11:32:59Z</time>
      </trkpt>
      <trkpt lat="43.14491" lon="2.20799">
        <ele>324.58</ele>
        <time>2015-07-18T11:33:00Z</time>
      </trkpt>
      <trkpt lat="43.14492" lon="2.20799">
        <ele>324.58</ele>
        <time>2015-07-18T11:33:01Z</time>
      </trkpt>
      <trkpt lat="43.14494" lon="2.20798">
        <ele>325.06</ele>
        <time>2015-07-18T11:33:02Z</time>
      </trkpt>
      <trkpt lat="43.14495" lon="2.20798">
        <ele>325.06</ele>
        <time>2015-07-18T11:33:03Z</time>
      </trkpt>
      <trkpt lat="43.14505" lon="2.20799">
        <ele>326.99</ele>
        <time>2015-07-18T11:33:10Z</time>
      </trkpt>
      <trkpt lat="43.14507" lon="2.208">
        <ele>327.47</ele>
        <time>2015-07-18T11:33:11Z</time>
      </trkpt>
      <trkpt lat="43.14508" lon="2.208">
        <ele>327.47</ele>
        <time>2015-07-18T11:33:12Z</time>
      </trkpt>
      <trkpt lat="43.14529" lon="2.20808">
        <ele>330.83</ele>
        <time>2015-07-18T11:33:27Z</time>
      </trkpt>
      <trkpt lat="43.14553" lon="2.20816">
        <ele>333.71</ele>
        <time>2015-07-18T11:33:42Z</time>
      </trkpt>
      <trkpt lat="43.14556" lon="2.20819">
        <ele>334.2</ele>
        <time>2015-07-18T11:33:44Z</time>
      </trkpt>
      <trkpt lat="43.14558" lon="2.2082">
        <ele>334.2</ele>
        <time>2015-07-18T11:33:45Z</time>
      </trkpt>
      <trkpt lat="43.1456" lon="2.20822">
        <ele>334.2</ele>
        <time>2015-07-18T11:33:46Z</time>
      </trkpt>
      <trkpt lat="43.14562" lon="2.20824">
        <ele>334.2</ele>
        <time>2015-07-18T11:33:47Z</time>
      </trkpt>
      <trkpt lat="43.14564" lon="2.20826">
        <ele>334.68</ele>
        <time>2015-07-18T11:33:48Z</time>
      </trkpt>
      <trkpt lat="43.14565" lon="2.20828">
        <ele>334.68</ele>
        <time>2015-07-18T11:33:49Z</time>
      </trkpt>
      <trkpt lat="43.14567" lon="2.20832">
        <ele>334.68</ele>
        <time>2015-07-18T11:33:50Z</time>
      </trkpt>
      <trkpt lat="43.14569" lon="2.20835">
        <ele>334.68</ele>
        <time>2015-07-18T11:33:51Z</time>
      </trkpt>
      <trkpt lat="43.14571" lon="2.20838">
        <ele>334.68</ele>
        <time>2015-07-18T11:33:52Z</time>
      </trkpt>
      <trkpt lat="43.14574" lon="2.20841">
        <ele>334.68</ele>
        <time>2015-07-18T11:33:53Z</time>
      </trkpt>
      <trkpt lat="43.14576" lon="2.20845">
        <ele>334.68</ele>
        <time>2015-07-18T11:33:54Z</time>
      </trkpt>
      <trkpt lat="43.14578" lon="2.20848">
        <ele>333.71</ele>
        <time>2015-07-18T11:33:55Z</time>
      </trkpt>
      <trkpt lat="43.1458" lon="2.20852">
        <ele>333.71</ele>
        <time>2015-07-18T11:33:57Z</time>
      </trkpt>
      <trkpt lat="43.14581" lon="2.20853">
        <ele>333.71</ele>
        <time>2015-07-18T11:33:58Z</time>
      </trkpt>
      <trkpt lat="43.14582" lon="2.20855">
        <ele>333.71</ele>
        <time>2015-07-18T11:33:59Z</time>
      </trkpt>
      <trkpt lat="43.14583" lon="2.20858">
        <ele>333.71</ele>
        <time>2015-07-18T11:34:00Z</time>
      </trkpt>
      <trkpt lat="43.14584" lon="2.2086">
        <ele>333.71</ele>
        <time>2015-07-18T11:34:01Z</time>
      </trkpt>
      <trkpt lat="43.14585" lon="2.20863">
        <ele>333.71</ele>
        <time>2015-07-18T11:34:02Z</time>
      </trkpt>
      <trkpt lat="43.14586" lon="2.20866">
        <ele>333.71</ele>
        <time>2015-07-18T11:34:03Z</time>
      </trkpt>
      <trkpt lat="43.14588" lon="2.20869">
        <ele>333.71</ele>
        <time>2015-07-18T11:34:04Z</time>
      </trkpt>
      <trkpt lat="43.14589" lon="2.20872">
        <ele>333.71</ele>
        <time>2015-07-18T11:34:05Z</time>
      </trkpt>
      <trkpt lat="43.1461" lon="2.20923">
        <ele>333.71</ele>
        <time>2015-07-18T11:34:20Z</time>
      </trkpt>
      <trkpt lat="43.1463" lon="2.20964">
        <ele>335.16</ele>
        <time>2015-07-18T11:34:31Z</time>
      </trkpt>
      <trkpt lat="43.14656" lon="2.20999">
        <ele>337.08</ele>
        <time>2015-07-18T11:34:45Z</time>
      </trkpt>
      <trkpt lat="43.14662" lon="2.21004">
        <ele>336.6</ele>
        <time>2015-07-18T11:34:47Z</time>
      </trkpt>
      <trkpt lat="43.14666" lon="2.21004">
        <ele>336.6</ele>
        <time>2015-07-18T11:34:48Z</time>
      </trkpt>
      <trkpt lat="43.1467" lon="2.21001">
        <ele>336.6</ele>
        <time>2015-07-18T11:34:49Z</time>
      </trkpt>
      <trkpt lat="43.14705" lon="2.20974">
        <ele>337.08</ele>
        <time>2015-07-18T11:35:03Z</time>
      </trkpt>
      <trkpt lat="43.14758" lon="2.2096">
        <ele>337.56</ele>
        <time>2015-07-18T11:35:21Z</time>
      </trkpt>
      <trkpt lat="43.14794" lon="2.20974">
        <ele>339.48</ele>
        <time>2015-07-18T11:35:34Z</time>
      </trkpt>
      <trkpt lat="43.14808" lon="2.20984">
        <ele>338.52</ele>
        <time>2015-07-18T11:35:39Z</time>
      </trkpt>
      <trkpt lat="43.14814" lon="2.20985">
        <ele>337.08</ele>
        <time>2015-07-18T11:35:40Z</time>
      </trkpt>
      <trkpt lat="43.1482" lon="2.20985">
        <ele>335.64</ele>
        <time>2015-07-18T11:35:41Z</time>
      </trkpt>
      <trkpt lat="43.1484" lon="2.20982">
        <ele>331.31</ele>
        <time>2015-07-18T11:35:44Z</time>
      </trkpt>
      <trkpt lat="43.14846" lon="2.20981">
        <ele>330.83</ele>
        <time>2015-07-18T11:35:45Z</time>
      </trkpt>
      <trkpt lat="43.14851" lon="2.20978">
        <ele>330.35</ele>
        <time>2015-07-18T11:35:46Z</time>
      </trkpt>
      <trkpt lat="43.14857" lon="2.20973">
        <ele>330.35</ele>
        <time>2015-07-18T11:35:47Z</time>
      </trkpt>
      <trkpt lat="43.14862" lon="2.20967">
        <ele>329.87</ele>
        <time>2015-07-18T11:35:48Z</time>
      </trkpt>
      <trkpt lat="43.14867" lon="2.20961">
        <ele>328.91</ele>
        <time>2015-07-18T11:35:49Z</time>
      </trkpt>
      <trkpt lat="43.14893" lon="2.20928">
        <ele>326.02</ele>
        <time>2015-07-18T11:35:54Z</time>
      </trkpt>
      <trkpt lat="43.14899" lon="2.20925">
        <ele>325.54</ele>
        <time>2015-07-18T11:35:55Z</time>
      </trkpt>
      <trkpt lat="43.14904" lon="2.20923">
        <ele>325.54</ele>
        <time>2015-07-18T11:35:56Z</time>
      </trkpt>
      <trkpt lat="43.14909" lon="2.20923">
        <ele>325.54</ele>
        <time>2015-07-18T11:35:57Z</time>
      </trkpt>
      <trkpt lat="43.14914" lon="2.20923">
        <ele>326.99</ele>
        <time>2015-07-18T11:35:58Z</time>
      </trkpt>
      <trkpt lat="43.14917" lon="2.20924">
        <ele>327.47</ele>
        <time>2015-07-18T11:35:59Z</time>
      </trkpt>
      <trkpt lat="43.1492" lon="2.20923">
        <ele>327.95</ele>
        <time>2015-07-18T11:36:00Z</time>
      </trkpt>
      <trkpt lat="43.14922" lon="2.20923">
        <ele>328.91</ele>
        <time>2015-07-18T11:36:01Z</time>
      </trkpt>
      <trkpt lat="43.14924" lon="2.20922">
        <ele>328.91</ele>
        <time>2015-07-18T11:36:02Z</time>
      </trkpt>
      <trkpt lat="43.14933" lon="2.20922">
        <ele>332.75</ele>
        <time>2015-07-18T11:36:08Z</time>
      </trkpt>
      <trkpt lat="43.14935" lon="2.20922">
        <ele>332.75</ele>
        <time>2015-07-18T11:36:09Z</time>
      </trkpt>
      <trkpt lat="43.14943" lon="2.20922">
        <ele>334.68</ele>
        <time>2015-07-18T11:36:13Z</time>
      </trkpt>
      <trkpt lat="43.14945" lon="2.20922">
        <ele>335.16</ele>
        <time>2015-07-18T11:36:14Z</time>
      </trkpt>
      <trkpt lat="43.14972" lon="2.20923">
        <ele>338.52</ele>
        <time>2015-07-18T11:36:26Z</time>
      </trkpt>
      <trkpt lat="43.14996" lon="2.20909">
        <ele>340.92</ele>
        <time>2015-07-18T11:36:38Z</time>
      </trkpt>
      <trkpt lat="43.15001" lon="2.20902">
        <ele>341.41</ele>
        <time>2015-07-18T11:36:41Z</time>
      </trkpt>
      <trkpt lat="43.15002" lon="2.209">
        <ele>341.41</ele>
        <time>2015-07-18T11:36:42Z</time>
      </trkpt>
      <trkpt lat="43.15006" lon="2.20895">
        <ele>341.89</ele>
        <time>2015-07-18T11:36:45Z</time>
      </trkpt>
      <trkpt lat="43.15007" lon="2.20893">
        <ele>341.89</ele>
        <time>2015-07-18T11:36:46Z</time>
      </trkpt>
      <trkpt lat="43.15009" lon="2.20887">
        <ele>343.33</ele>
        <time>2015-07-18T11:36:49Z</time>
      </trkpt>
      <trkpt lat="43.15012" lon="2.20881">
        <ele>344.29</ele>
        <time>2015-07-18T11:36:52Z</time>
      </trkpt>
      <trkpt lat="43.15025" lon="2.20866">
        <ele>347.17</ele>
        <time>2015-07-18T11:37:04Z</time>
      </trkpt>
      <trkpt lat="43.15029" lon="2.20863">
        <ele>348.13</ele>
        <time>2015-07-18T11:37:07Z</time>
      </trkpt>
      <trkpt lat="43.1503" lon="2.20862">
        <ele>348.13</ele>
        <time>2015-07-18T11:37:08Z</time>
      </trkpt>
      <trkpt lat="43.15031" lon="2.20861">
        <ele>348.62</ele>
        <time>2015-07-18T11:37:09Z</time>
      </trkpt>
      <trkpt lat="43.15033" lon="2.2086">
        <ele>348.62</ele>
        <time>2015-07-18T11:37:10Z</time>
      </trkpt>
      <trkpt lat="43.15034" lon="2.20859">
        <ele>349.1</ele>
        <time>2015-07-18T11:37:11Z</time>
      </trkpt>
      <trkpt lat="43.15035" lon="2.20858">
        <ele>349.1</ele>
        <time>2015-07-18T11:37:12Z</time>
      </trkpt>
      <trkpt lat="43.15037" lon="2.20857">
        <ele>350.06</ele>
        <time>2015-07-18T11:37:13Z</time>
      </trkpt>
      <trkpt lat="43.15053" lon="2.20846">
        <ele>353.42</ele>
        <time>2015-07-18T11:37:25Z</time>
      </trkpt>
      <trkpt lat="43.15058" lon="2.20843">
        <ele>354.38</ele>
        <time>2015-07-18T11:37:29Z</time>
      </trkpt>
      <trkpt lat="43.15065" lon="2.20838">
        <ele>355.83</ele>
        <time>2015-07-18T11:37:35Z</time>
      </trkpt>
      <trkpt lat="43.15069" lon="2.20835">
        <ele>356.79</ele>
        <time>2015-07-18T11:37:38Z</time>
      </trkpt>
      <trkpt lat="43.1507" lon="2.20834">
        <ele>356.79</ele>
        <time>2015-07-18T11:37:39Z</time>
      </trkpt>
      <trkpt lat="43.15072" lon="2.20833">
        <ele>356.79</ele>
        <time>2015-07-18T11:37:40Z</time>
      </trkpt>
      <trkpt lat="43.15073" lon="2.20832">
        <ele>357.75</ele>
        <time>2015-07-18T11:37:41Z</time>
      </trkpt>
      <trkpt lat="43.15075" lon="2.20831">
        <ele>357.75</ele>
        <time>2015-07-18T11:37:42Z</time>
      </trkpt>
      <trkpt lat="43.15076" lon="2.20831">
        <ele>358.23</ele>
        <time>2015-07-18T11:37:43Z</time>
      </trkpt>
      <trkpt lat="43.15078" lon="2.2083">
        <ele>358.23</ele>
        <time>2015-07-18T11:37:44Z</time>
      </trkpt>
      <trkpt lat="43.15079" lon="2.20828">
        <ele>358.23</ele>
        <time>2015-07-18T11:37:45Z</time>
      </trkpt>
      <trkpt lat="43.15095" lon="2.20818">
        <ele>361.11</ele>
        <time>2015-07-18T11:37:57Z</time>
      </trkpt>
      <trkpt lat="43.15113" lon="2.20806">
        <ele>364</ele>
        <time>2015-07-18T11:38:12Z</time>
      </trkpt>
      <trkpt lat="43.1513" lon="2.208">
        <ele>366.88</ele>
        <time>2015-07-18T11:38:22Z</time>
      </trkpt>
      <trkpt lat="43.15153" lon="2.20801">
        <ele>370.24</ele>
        <time>2015-07-18T11:38:36Z</time>
      </trkpt>
      <trkpt lat="43.15171" lon="2.20801">
        <ele>373.13</ele>
        <time>2015-07-18T11:38:48Z</time>
      </trkpt>
      <trkpt lat="43.15172" lon="2.20802">
        <ele>373.13</ele>
        <time>2015-07-18T11:38:49Z</time>
      </trkpt>
      <trkpt lat="43.15174" lon="2.20802">
        <ele>373.61</ele>
        <time>2015-07-18T11:38:50Z</time>
      </trkpt>
      <trkpt lat="43.15176" lon="2.20802">
        <ele>373.61</ele>
        <time>2015-07-18T11:38:51Z</time>
      </trkpt>
      <trkpt lat="43.15177" lon="2.20801">
        <ele>374.09</ele>
        <time>2015-07-18T11:38:52Z</time>
      </trkpt>
      <trkpt lat="43.15178" lon="2.208">
        <ele>374.09</ele>
        <time>2015-07-18T11:38:53Z</time>
      </trkpt>
      <trkpt lat="43.152" lon="2.20791">
        <ele>376.01</ele>
        <time>2015-07-18T11:39:08Z</time>
      </trkpt>
      <trkpt lat="43.15205" lon="2.20791">
        <ele>376.97</ele>
        <time>2015-07-18T11:39:23Z</time>
      </trkpt>
      <trkpt lat="43.15207" lon="2.20791">
        <ele>376.97</ele>
        <time>2015-07-18T11:39:39Z</time>
      </trkpt>
      <trkpt lat="43.15207" lon="2.20789">
        <ele>377.45</ele>
        <time>2015-07-18T11:40:00Z</time>
      </trkpt>
      <trkpt lat="43.15209" lon="2.20789">
        <ele>377.45</ele>
        <time>2015-07-18T11:40:01Z</time>
      </trkpt>
      <trkpt lat="43.15229" lon="2.20785">
        <ele>379.86</ele>
        <time>2015-07-18T11:40:15Z</time>
      </trkpt>
      <trkpt lat="43.15242" lon="2.20786">
        <ele>382.74</ele>
        <time>2015-07-18T11:40:25Z</time>
      </trkpt>
      <trkpt lat="43.15244" lon="2.20786">
        <ele>382.74</ele>
        <time>2015-07-18T11:40:26Z</time>
      </trkpt>
      <trkpt lat="43.15245" lon="2.20785">
        <ele>383.7</ele>
        <time>2015-07-18T11:40:27Z</time>
      </trkpt>
      <trkpt lat="43.15259" lon="2.20777">
        <ele>386.59</ele>
        <time>2015-07-18T11:40:36Z</time>
      </trkpt>
      <trkpt lat="43.15278" lon="2.2076">
        <ele>390.43</ele>
        <time>2015-07-18T11:40:51Z</time>
      </trkpt>
      <trkpt lat="43.15302" lon="2.20749">
        <ele>393.32</ele>
        <time>2015-07-18T11:41:06Z</time>
      </trkpt>
      <trkpt lat="43.15323" lon="2.20741">
        <ele>393.8</ele>
        <time>2015-07-18T11:41:16Z</time>
      </trkpt>
      <trkpt lat="43.15325" lon="2.20741">
        <ele>393.8</ele>
        <time>2015-07-18T11:41:17Z</time>
      </trkpt>
      <trkpt lat="43.15327" lon="2.20741">
        <ele>393.8</ele>
        <time>2015-07-18T11:41:18Z</time>
      </trkpt>
      <trkpt lat="43.1533" lon="2.2074">
        <ele>393.8</ele>
        <time>2015-07-18T11:41:19Z</time>
      </trkpt>
      <trkpt lat="43.15331" lon="2.20739">
        <ele>393.8</ele>
        <time>2015-07-18T11:41:20Z</time>
      </trkpt>
      <trkpt lat="43.15333" lon="2.20739">
        <ele>393.8</ele>
        <time>2015-07-18T11:41:21Z</time>
      </trkpt>
      <trkpt lat="43.15335" lon="2.20738">
        <ele>393.8</ele>
        <time>2015-07-18T11:41:22Z</time>
      </trkpt>
      <trkpt lat="43.15367" lon="2.20722">
        <ele>392.36</ele>
        <time>2015-07-18T11:41:34Z</time>
      </trkpt>
      <trkpt lat="43.15378" lon="2.20711">
        <ele>392.36</ele>
        <time>2015-07-18T11:41:37Z</time>
      </trkpt>
      <trkpt lat="43.15382" lon="2.20706">
        <ele>391.87</ele>
        <time>2015-07-18T11:41:38Z</time>
      </trkpt>
      <trkpt lat="43.15396" lon="2.20694">
        <ele>391.39</ele>
        <time>2015-07-18T11:41:41Z</time>
      </trkpt>
      <trkpt lat="43.15402" lon="2.20692">
        <ele>390.91</ele>
        <time>2015-07-18T11:41:42Z</time>
      </trkpt>
      <trkpt lat="43.15407" lon="2.20692">
        <ele>390.91</ele>
        <time>2015-07-18T11:41:43Z</time>
      </trkpt>
      <trkpt lat="43.15411" lon="2.20692">
        <ele>390.91</ele>
        <time>2015-07-18T11:41:44Z</time>
      </trkpt>
      <trkpt lat="43.15414" lon="2.20692">
        <ele>390.91</ele>
        <time>2015-07-18T11:41:45Z</time>
      </trkpt>
      <trkpt lat="43.15419" lon="2.20694">
        <ele>392.36</ele>
        <time>2015-07-18T11:41:47Z</time>
      </trkpt>
      <trkpt lat="43.15449" lon="2.20701">
        <ele>393.8</ele>
        <time>2015-07-18T11:41:58Z</time>
      </trkpt>
      <trkpt lat="43.15479" lon="2.20725">
        <ele>395.24</ele>
        <time>2015-07-18T11:42:13Z</time>
      </trkpt>
      <trkpt lat="43.15492" lon="2.20747">
        <ele>398.12</ele>
        <time>2015-07-18T11:42:23Z</time>
      </trkpt>
      <trkpt lat="43.15516" lon="2.20769">
        <ele>401.01</ele>
        <time>2015-07-18T11:42:37Z</time>
      </trkpt>
      <trkpt lat="43.15538" lon="2.20786">
        <ele>404.85</ele>
        <time>2015-07-18T11:42:50Z</time>
      </trkpt>
      <trkpt lat="43.15554" lon="2.2081">
        <ele>405.81</ele>
        <time>2015-07-18T11:43:03Z</time>
      </trkpt>
      <trkpt lat="43.15567" lon="2.20843">
        <ele>406.77</ele>
        <time>2015-07-18T11:43:17Z</time>
      </trkpt>
      <trkpt lat="43.15582" lon="2.20876">
        <ele>410.14</ele>
        <time>2015-07-18T11:43:31Z</time>
      </trkpt>
      <trkpt lat="43.15606" lon="2.20911">
        <ele>412.06</ele>
        <time>2015-07-18T11:43:48Z</time>
      </trkpt>
      <trkpt lat="43.1562" lon="2.20929">
        <ele>415.43</ele>
        <time>2015-07-18T11:43:59Z</time>
      </trkpt>
      <trkpt lat="43.15623" lon="2.2093">
        <ele>416.39</ele>
        <time>2015-07-18T11:44:01Z</time>
      </trkpt>
      <trkpt lat="43.15639" lon="2.20939">
        <ele>417.35</ele>
        <time>2015-07-18T11:44:12Z</time>
      </trkpt>
      <trkpt lat="43.15651" lon="2.20969">
        <ele>420.71</ele>
        <time>2015-07-18T11:44:28Z</time>
      </trkpt>
      <trkpt lat="43.15669" lon="2.20984">
        <ele>424.08</ele>
        <time>2015-07-18T11:44:41Z</time>
      </trkpt>
      <trkpt lat="43.15687" lon="2.20991">
        <ele>427.44</ele>
        <time>2015-07-18T11:44:53Z</time>
      </trkpt>
      <trkpt lat="43.15699" lon="2.21007">
        <ele>430.33</ele>
        <time>2015-07-18T11:45:05Z</time>
      </trkpt>
      <trkpt lat="43.15703" lon="2.21023">
        <ele>433.69</ele>
        <time>2015-07-18T11:45:14Z</time>
      </trkpt>
      <trkpt lat="43.15705" lon="2.21033">
        <ele>435.61</ele>
        <time>2015-07-18T11:45:19Z</time>
      </trkpt>
      <trkpt lat="43.15706" lon="2.21034">
        <ele>435.61</ele>
        <time>2015-07-18T11:45:20Z</time>
      </trkpt>
      <trkpt lat="43.15708" lon="2.21034">
        <ele>436.58</ele>
        <time>2015-07-18T11:45:21Z</time>
      </trkpt>
      <trkpt lat="43.15709" lon="2.21033">
        <ele>436.58</ele>
        <time>2015-07-18T11:45:22Z</time>
      </trkpt>
      <trkpt lat="43.15711" lon="2.21033">
        <ele>436.58</ele>
        <time>2015-07-18T11:45:23Z</time>
      </trkpt>
      <trkpt lat="43.15713" lon="2.21032">
        <ele>436.58</ele>
        <time>2015-07-18T11:45:24Z</time>
      </trkpt>
      <trkpt lat="43.15715" lon="2.21032">
        <ele>436.58</ele>
        <time>2015-07-18T11:45:25Z</time>
      </trkpt>
      <trkpt lat="43.15717" lon="2.21031">
        <ele>436.58</ele>
        <time>2015-07-18T11:45:26Z</time>
      </trkpt>
      <trkpt lat="43.15719" lon="2.21031">
        <ele>436.58</ele>
        <time>2015-07-18T11:45:27Z</time>
      </trkpt>
      <trkpt lat="43.15721" lon="2.2103">
        <ele>436.58</ele>
        <time>2015-07-18T11:45:28Z</time>
      </trkpt>
      <trkpt lat="43.15723" lon="2.21031">
        <ele>436.58</ele>
        <time>2015-07-18T11:45:29Z</time>
      </trkpt>
      <trkpt lat="43.15724" lon="2.21032">
        <ele>436.58</ele>
        <time>2015-07-18T11:45:30Z</time>
      </trkpt>
      <trkpt lat="43.1575" lon="2.21041">
        <ele>431.77</ele>
        <time>2015-07-18T11:45:40Z</time>
      </trkpt>
      <trkpt lat="43.15766" lon="2.21046">
        <ele>427.44</ele>
        <time>2015-07-18T11:45:43Z</time>
      </trkpt>
      <trkpt lat="43.158" lon="2.21055">
        <ele>425.04</ele>
        <time>2015-07-18T11:45:49Z</time>
      </trkpt>
      <trkpt lat="43.15804" lon="2.21055">
        <ele>424.56</ele>
        <time>2015-07-18T11:45:50Z</time>
      </trkpt>
      <trkpt lat="43.15807" lon="2.21058">
        <ele>424.56</ele>
        <time>2015-07-18T11:45:51Z</time>
      </trkpt>
      <trkpt lat="43.15808" lon="2.2106">
        <ele>424.56</ele>
        <time>2015-07-18T11:45:52Z</time>
      </trkpt>
      <trkpt lat="43.15808" lon="2.21063">
        <ele>424.56</ele>
        <time>2015-07-18T11:45:53Z</time>
      </trkpt>
      <trkpt lat="43.15809" lon="2.21065">
        <ele>424.56</ele>
        <time>2015-07-18T11:45:54Z</time>
      </trkpt>
      <trkpt lat="43.15809" lon="2.21068">
        <ele>424.56</ele>
        <time>2015-07-18T11:45:55Z</time>
      </trkpt>
      <trkpt lat="43.15812" lon="2.21086">
        <ele>424.56</ele>
        <time>2015-07-18T11:46:00Z</time>
      </trkpt>
      <trkpt lat="43.15821" lon="2.21144">
        <ele>423.6</ele>
        <time>2015-07-18T11:46:13Z</time>
      </trkpt>
      <trkpt lat="43.15822" lon="2.21151">
        <ele>423.12</ele>
        <time>2015-07-18T11:46:14Z</time>
      </trkpt>
      <trkpt lat="43.15819" lon="2.21197">
        <ele>424.08</ele>
        <time>2015-07-18T11:46:23Z</time>
      </trkpt>
      <trkpt lat="43.15808" lon="2.21241">
        <ele>425.52</ele>
        <time>2015-07-18T11:46:34Z</time>
      </trkpt>
      <trkpt lat="43.158" lon="2.21283">
        <ele>425.52</ele>
        <time>2015-07-18T11:46:44Z</time>
      </trkpt>
      <trkpt lat="43.15798" lon="2.21297">
        <ele>426</ele>
        <time>2015-07-18T11:46:47Z</time>
      </trkpt>
      <trkpt lat="43.15799" lon="2.21301">
        <ele>426</ele>
        <time>2015-07-18T11:46:48Z</time>
      </trkpt>
      <trkpt lat="43.15799" lon="2.21306">
        <ele>426.48</ele>
        <time>2015-07-18T11:46:49Z</time>
      </trkpt>
      <trkpt lat="43.158" lon="2.2131">
        <ele>426.48</ele>
        <time>2015-07-18T11:46:50Z</time>
      </trkpt>
      <trkpt lat="43.15799" lon="2.21313">
        <ele>426.48</ele>
        <time>2015-07-18T11:46:51Z</time>
      </trkpt>
      <trkpt lat="43.15798" lon="2.21316">
        <ele>426.48</ele>
        <time>2015-07-18T11:46:52Z</time>
      </trkpt>
      <trkpt lat="43.15797" lon="2.2132">
        <ele>426.48</ele>
        <time>2015-07-18T11:46:53Z</time>
      </trkpt>
      <trkpt lat="43.1579" lon="2.21332">
        <ele>425.04</ele>
        <time>2015-07-18T11:46:57Z</time>
      </trkpt>
      <trkpt lat="43.15789" lon="2.21333">
        <ele>425.04</ele>
        <time>2015-07-18T11:46:58Z</time>
      </trkpt>
      <trkpt lat="43.15787" lon="2.21335">
        <ele>424.56</ele>
        <time>2015-07-18T11:46:59Z</time>
      </trkpt>
      <trkpt lat="43.15785" lon="2.21338">
        <ele>424.08</ele>
        <time>2015-07-18T11:47:00Z</time>
      </trkpt>
      <trkpt lat="43.15784" lon="2.21341">
        <ele>423.12</ele>
        <time>2015-07-18T11:47:01Z</time>
      </trkpt>
      <trkpt lat="43.15783" lon="2.21345">
        <ele>422.64</ele>
        <time>2015-07-18T11:47:02Z</time>
      </trkpt>
      <trkpt lat="43.1578" lon="2.21356">
        <ele>419.27</ele>
        <time>2015-07-18T11:47:05Z</time>
      </trkpt>
      <trkpt lat="43.15777" lon="2.21365">
        <ele>417.35</ele>
        <time>2015-07-18T11:47:07Z</time>
      </trkpt>
      <trkpt lat="43.15776" lon="2.21371">
        <ele>415.91</ele>
        <time>2015-07-18T11:47:08Z</time>
      </trkpt>
      <trkpt lat="43.15775" lon="2.21375">
        <ele>414.95</ele>
        <time>2015-07-18T11:47:09Z</time>
      </trkpt>
      <trkpt lat="43.15774" lon="2.2138">
        <ele>413.98</ele>
        <time>2015-07-18T11:47:10Z</time>
      </trkpt>
      <trkpt lat="43.15772" lon="2.21384">
        <ele>413.02</ele>
        <time>2015-07-18T11:47:11Z</time>
      </trkpt>
      <trkpt lat="43.15769" lon="2.21389">
        <ele>412.06</ele>
        <time>2015-07-18T11:47:12Z</time>
      </trkpt>
      <trkpt lat="43.15766" lon="2.21394">
        <ele>411.1</ele>
        <time>2015-07-18T11:47:13Z</time>
      </trkpt>
      <trkpt lat="43.15761" lon="2.21407">
        <ele>408.7</ele>
        <time>2015-07-18T11:47:15Z</time>
      </trkpt>
      <trkpt lat="43.15759" lon="2.21412">
        <ele>407.74</ele>
        <time>2015-07-18T11:47:16Z</time>
      </trkpt>
      <trkpt lat="43.15756" lon="2.21419">
        <ele>407.26</ele>
        <time>2015-07-18T11:47:17Z</time>
      </trkpt>
      <trkpt lat="43.15748" lon="2.21438">
        <ele>405.81</ele>
        <time>2015-07-18T11:47:20Z</time>
      </trkpt>
      <trkpt lat="43.15744" lon="2.21443">
        <ele>404.85</ele>
        <time>2015-07-18T11:47:21Z</time>
      </trkpt>
      <trkpt lat="43.15741" lon="2.21449">
        <ele>404.37</ele>
        <time>2015-07-18T11:47:22Z</time>
      </trkpt>
      <trkpt lat="43.15735" lon="2.21463">
        <ele>403.41</ele>
        <time>2015-07-18T11:47:24Z</time>
      </trkpt>
      <trkpt lat="43.15731" lon="2.21468">
        <ele>403.41</ele>
        <time>2015-07-18T11:47:25Z</time>
      </trkpt>
      <trkpt lat="43.15728" lon="2.21474">
        <ele>402.45</ele>
        <time>2015-07-18T11:47:26Z</time>
      </trkpt>
      <trkpt lat="43.15725" lon="2.2148">
        <ele>401.49</ele>
        <time>2015-07-18T11:47:27Z</time>
      </trkpt>
      <trkpt lat="43.15723" lon="2.21486">
        <ele>401.01</ele>
        <time>2015-07-18T11:47:28Z</time>
      </trkpt>
      <trkpt lat="43.15722" lon="2.21492">
        <ele>401.01</ele>
        <time>2015-07-18T11:47:29Z</time>
      </trkpt>
      <trkpt lat="43.1572" lon="2.21496">
        <ele>400.53</ele>
        <time>2015-07-18T11:47:30Z</time>
      </trkpt>
      <trkpt lat="43.15719" lon="2.21501">
        <ele>400.05</ele>
        <time>2015-07-18T11:47:31Z</time>
      </trkpt>
      <trkpt lat="43.15719" lon="2.21507">
        <ele>399.57</ele>
        <time>2015-07-18T11:47:32Z</time>
      </trkpt>
      <trkpt lat="43.15719" lon="2.21514">
        <ele>398.6</ele>
        <time>2015-07-18T11:47:33Z</time>
      </trkpt>
      <trkpt lat="43.1572" lon="2.21535">
        <ele>397.16</ele>
        <time>2015-07-18T11:47:36Z</time>
      </trkpt>
      <trkpt lat="43.15721" lon="2.21545">
        <ele>396.2</ele>
        <time>2015-07-18T11:47:38Z</time>
      </trkpt>
      <trkpt lat="43.15722" lon="2.21552">
        <ele>395.24</ele>
        <time>2015-07-18T11:47:39Z</time>
      </trkpt>
      <trkpt lat="43.15724" lon="2.21577">
        <ele>392.36</ele>
        <time>2015-07-18T11:47:44Z</time>
      </trkpt>
      <trkpt lat="43.15724" lon="2.21584">
        <ele>391.39</ele>
        <time>2015-07-18T11:47:45Z</time>
      </trkpt>
      <trkpt lat="43.15724" lon="2.21591">
        <ele>389.95</ele>
        <time>2015-07-18T11:47:46Z</time>
      </trkpt>
      <trkpt lat="43.15724" lon="2.21608">
        <ele>388.51</ele>
        <time>2015-07-18T11:47:48Z</time>
      </trkpt>
      <trkpt lat="43.15725" lon="2.21616">
        <ele>388.51</ele>
        <time>2015-07-18T11:47:49Z</time>
      </trkpt>
      <trkpt lat="43.15725" lon="2.2163">
        <ele>387.07</ele>
        <time>2015-07-18T11:47:51Z</time>
      </trkpt>
      <trkpt lat="43.15725" lon="2.21637">
        <ele>386.11</ele>
        <time>2015-07-18T11:47:52Z</time>
      </trkpt>
      <trkpt lat="43.15727" lon="2.21682">
        <ele>383.22</ele>
        <time>2015-07-18T11:47:57Z</time>
      </trkpt>
      <trkpt lat="43.15728" lon="2.21691">
        <ele>383.22</ele>
        <time>2015-07-18T11:47:58Z</time>
      </trkpt>
      <trkpt lat="43.15729" lon="2.21698">
        <ele>382.74</ele>
        <time>2015-07-18T11:47:59Z</time>
      </trkpt>
      <trkpt lat="43.1573" lon="2.21702">
        <ele>382.74</ele>
        <time>2015-07-18T11:48:00Z</time>
      </trkpt>
      <trkpt lat="43.15732" lon="2.21705">
        <ele>382.74</ele>
        <time>2015-07-18T11:48:01Z</time>
      </trkpt>
      <trkpt lat="43.15732" lon="2.21709">
        <ele>382.74</ele>
        <time>2015-07-18T11:48:02Z</time>
      </trkpt>
      <trkpt lat="43.15732" lon="2.21711">
        <ele>383.22</ele>
        <time>2015-07-18T11:48:05Z</time>
      </trkpt>
      <trkpt lat="43.15729" lon="2.21713">
        <ele>383.22</ele>
        <time>2015-07-18T11:48:20Z</time>
      </trkpt>
      <trkpt lat="43.15729" lon="2.21714">
        <ele>383.22</ele>
        <time>2015-07-18T11:48:42Z</time>
      </trkpt>
      <trkpt lat="43.1573" lon="2.21716">
        <ele>383.22</ele>
        <time>2015-07-18T11:48:43Z</time>
      </trkpt>
      <trkpt lat="43.15731" lon="2.21718">
        <ele>383.22</ele>
        <time>2015-07-18T11:48:44Z</time>
      </trkpt>
      <trkpt lat="43.15728" lon="2.21766">
        <ele>382.74</ele>
        <time>2015-07-18T11:48:55Z</time>
      </trkpt>
      <trkpt lat="43.15727" lon="2.21828">
        <ele>382.26</ele>
        <time>2015-07-18T11:49:07Z</time>
      </trkpt>
      <trkpt lat="43.15727" lon="2.21871">
        <ele>383.7</ele>
        <time>2015-07-18T11:49:17Z</time>
      </trkpt>
      <trkpt lat="43.15729" lon="2.21929">
        <ele>385.15</ele>
        <time>2015-07-18T11:49:31Z</time>
      </trkpt>
      <trkpt lat="43.15733" lon="2.21979">
        <ele>387.07</ele>
        <time>2015-07-18T11:49:44Z</time>
      </trkpt>
      <trkpt lat="43.15726" lon="2.22022">
        <ele>388.99</ele>
        <time>2015-07-18T11:49:57Z</time>
      </trkpt>
      <trkpt lat="43.1572" lon="2.22057">
        <ele>391.87</ele>
        <time>2015-07-18T11:50:08Z</time>
      </trkpt>
      <trkpt lat="43.15713" lon="2.22079">
        <ele>393.8</ele>
        <time>2015-07-18T11:50:16Z</time>
      </trkpt>
      <trkpt lat="43.15713" lon="2.22082">
        <ele>393.8</ele>
        <time>2015-07-18T11:50:17Z</time>
      </trkpt>
      <trkpt lat="43.15712" lon="2.22084">
        <ele>394.28</ele>
        <time>2015-07-18T11:50:18Z</time>
      </trkpt>
      <trkpt lat="43.15711" lon="2.22087">
        <ele>394.28</ele>
        <time>2015-07-18T11:50:19Z</time>
      </trkpt>
      <trkpt lat="43.1571" lon="2.22089">
        <ele>394.28</ele>
        <time>2015-07-18T11:50:20Z</time>
      </trkpt>
      <trkpt lat="43.1571" lon="2.22092">
        <ele>394.76</ele>
        <time>2015-07-18T11:50:21Z</time>
      </trkpt>
      <trkpt lat="43.15709" lon="2.22096">
        <ele>394.76</ele>
        <time>2015-07-18T11:50:22Z</time>
      </trkpt>
      <trkpt lat="43.15709" lon="2.22099">
        <ele>394.76</ele>
        <time>2015-07-18T11:50:23Z</time>
      </trkpt>
      <trkpt lat="43.15709" lon="2.22102">
        <ele>395.24</ele>
        <time>2015-07-18T11:50:24Z</time>
      </trkpt>
      <trkpt lat="43.15708" lon="2.22105">
        <ele>395.24</ele>
        <time>2015-07-18T11:50:25Z</time>
      </trkpt>
      <trkpt lat="43.15708" lon="2.22107">
        <ele>396.2</ele>
        <time>2015-07-18T11:50:26Z</time>
      </trkpt>
      <trkpt lat="43.15708" lon="2.2211">
        <ele>396.2</ele>
        <time>2015-07-18T11:50:27Z</time>
      </trkpt>
      <trkpt lat="43.15708" lon="2.22113">
        <ele>396.68</ele>
        <time>2015-07-18T11:50:28Z</time>
      </trkpt>
      <trkpt lat="43.15705" lon="2.22147">
        <ele>399.57</ele>
        <time>2015-07-18T11:50:41Z</time>
      </trkpt>
      <trkpt lat="43.15698" lon="2.22183">
        <ele>402.45</ele>
        <time>2015-07-18T11:50:55Z</time>
      </trkpt>
      <trkpt lat="43.15694" lon="2.22223">
        <ele>405.33</ele>
        <time>2015-07-18T11:51:10Z</time>
      </trkpt>
      <trkpt lat="43.15682" lon="2.22264">
        <ele>405.33</ele>
        <time>2015-07-18T11:51:23Z</time>
      </trkpt>
      <trkpt lat="43.15675" lon="2.22306">
        <ele>403.89</ele>
        <time>2015-07-18T11:51:32Z</time>
      </trkpt>
      <trkpt lat="43.15664" lon="2.22355">
        <ele>400.53</ele>
        <time>2015-07-18T11:51:39Z</time>
      </trkpt>
      <trkpt lat="43.15662" lon="2.22363">
        <ele>400.53</ele>
        <time>2015-07-18T11:51:40Z</time>
      </trkpt>
      <trkpt lat="43.15657" lon="2.22381">
        <ele>399.08</ele>
        <time>2015-07-18T11:51:43Z</time>
      </trkpt>
      <trkpt lat="43.15652" lon="2.22412">
        <ele>395.24</ele>
        <time>2015-07-18T11:51:47Z</time>
      </trkpt>
      <trkpt lat="43.1565" lon="2.22425">
        <ele>393.8</ele>
        <time>2015-07-18T11:51:48Z</time>
      </trkpt>
      <trkpt lat="43.15643" lon="2.22464">
        <ele>390.91</ele>
        <time>2015-07-18T11:51:52Z</time>
      </trkpt>
      <trkpt lat="43.15636" lon="2.22527">
        <ele>387.55</ele>
        <time>2015-07-18T11:51:58Z</time>
      </trkpt>
      <trkpt lat="43.15626" lon="2.22535">
        <ele>387.07</ele>
        <time>2015-07-18T11:51:59Z</time>
      </trkpt>
      <trkpt lat="43.15617" lon="2.22545">
        <ele>387.07</ele>
        <time>2015-07-18T11:52:00Z</time>
      </trkpt>
      <trkpt lat="43.15592" lon="2.22619">
        <ele>384.66</ele>
        <time>2015-07-18T11:52:07Z</time>
      </trkpt>
      <trkpt lat="43.15588" lon="2.22629">
        <ele>384.66</ele>
        <time>2015-07-18T11:52:08Z</time>
      </trkpt>
      <trkpt lat="43.15567" lon="2.22683">
        <ele>384.18</ele>
        <time>2015-07-18T11:52:14Z</time>
      </trkpt>
      <trkpt lat="43.15561" lon="2.227">
        <ele>383.7</ele>
        <time>2015-07-18T11:52:16Z</time>
      </trkpt>
      <trkpt lat="43.15554" lon="2.22738">
        <ele>381.3</ele>
        <time>2015-07-18T11:52:20Z</time>
      </trkpt>
      <trkpt lat="43.15553" lon="2.22759">
        <ele>379.86</ele>
        <time>2015-07-18T11:52:22Z</time>
      </trkpt>
      <trkpt lat="43.15554" lon="2.2277">
        <ele>379.38</ele>
        <time>2015-07-18T11:52:23Z</time>
      </trkpt>
      <trkpt lat="43.15557" lon="2.2279">
        <ele>378.9</ele>
        <time>2015-07-18T11:52:25Z</time>
      </trkpt>
      <trkpt lat="43.15565" lon="2.22821">
        <ele>376.49</ele>
        <time>2015-07-18T11:52:28Z</time>
      </trkpt>
      <trkpt lat="43.15572" lon="2.22843">
        <ele>375.53</ele>
        <time>2015-07-18T11:52:30Z</time>
      </trkpt>
      <trkpt lat="43.15581" lon="2.22877">
        <ele>374.09</ele>
        <time>2015-07-18T11:52:33Z</time>
      </trkpt>
      <trkpt lat="43.15583" lon="2.22888">
        <ele>374.09</ele>
        <time>2015-07-18T11:52:34Z</time>
      </trkpt>
      <trkpt lat="43.15592" lon="2.22946">
        <ele>374.09</ele>
        <time>2015-07-18T11:52:40Z</time>
      </trkpt>
      <trkpt lat="43.156" lon="2.2298">
        <ele>377.45</ele>
        <time>2015-07-18T11:52:46Z</time>
      </trkpt>
      <trkpt lat="43.1561" lon="2.23031">
        <ele>381.3</ele>
        <time>2015-07-18T11:52:59Z</time>
      </trkpt>
      <trkpt lat="43.15607" lon="2.23086">
        <ele>383.22</ele>
        <time>2015-07-18T11:53:13Z</time>
      </trkpt>
      <trkpt lat="43.15605" lon="2.23107">
        <ele>383.22</ele>
        <time>2015-07-18T11:53:18Z</time>
      </trkpt>
      <trkpt lat="43.15603" lon="2.23113">
        <ele>381.3</ele>
        <time>2015-07-18T11:53:19Z</time>
      </trkpt>
      <trkpt lat="43.15591" lon="2.23132">
        <ele>378.9</ele>
        <time>2015-07-18T11:53:22Z</time>
      </trkpt>
      <trkpt lat="43.15581" lon="2.23147">
        <ele>375.53</ele>
        <time>2015-07-18T11:53:24Z</time>
      </trkpt>
      <trkpt lat="43.15572" lon="2.23163">
        <ele>373.13</ele>
        <time>2015-07-18T11:53:26Z</time>
      </trkpt>
      <trkpt lat="43.15569" lon="2.23173">
        <ele>372.65</ele>
        <time>2015-07-18T11:53:27Z</time>
      </trkpt>
      <trkpt lat="43.15567" lon="2.23182">
        <ele>371.69</ele>
        <time>2015-07-18T11:53:28Z</time>
      </trkpt>
      <trkpt lat="43.15562" lon="2.23217">
        <ele>367.84</ele>
        <time>2015-07-18T11:53:31Z</time>
      </trkpt>
      <trkpt lat="43.15561" lon="2.23229">
        <ele>367.84</ele>
        <time>2015-07-18T11:53:32Z</time>
      </trkpt>
      <trkpt lat="43.15559" lon="2.23247">
        <ele>369.76</ele>
        <time>2015-07-18T11:53:34Z</time>
      </trkpt>
      <trkpt lat="43.15553" lon="2.23269">
        <ele>371.21</ele>
        <time>2015-07-18T11:53:37Z</time>
      </trkpt>
      <trkpt lat="43.15537" lon="2.23315">
        <ele>372.17</ele>
        <time>2015-07-18T11:53:44Z</time>
      </trkpt>
      <trkpt lat="43.15533" lon="2.23332">
        <ele>373.61</ele>
        <time>2015-07-18T11:53:47Z</time>
      </trkpt>
      <trkpt lat="43.1553" lon="2.23343">
        <ele>374.09</ele>
        <time>2015-07-18T11:53:49Z</time>
      </trkpt>
      <trkpt lat="43.1552" lon="2.23371">
        <ele>372.65</ele>
        <time>2015-07-18T11:53:54Z</time>
      </trkpt>
      <trkpt lat="43.15509" lon="2.23392">
        <ele>372.65</ele>
        <time>2015-07-18T11:53:58Z</time>
      </trkpt>
      <trkpt lat="43.15506" lon="2.23398">
        <ele>372.17</ele>
        <time>2015-07-18T11:53:59Z</time>
      </trkpt>
      <trkpt lat="43.15499" lon="2.2341">
        <ele>372.17</ele>
        <time>2015-07-18T11:54:01Z</time>
      </trkpt>
      <trkpt lat="43.15496" lon="2.23415">
        <ele>372.17</ele>
        <time>2015-07-18T11:54:02Z</time>
      </trkpt>
      <trkpt lat="43.15486" lon="2.23429">
        <ele>372.17</ele>
        <time>2015-07-18T11:54:05Z</time>
      </trkpt>
      <trkpt lat="43.15482" lon="2.23433">
        <ele>372.17</ele>
        <time>2015-07-18T11:54:06Z</time>
      </trkpt>
      <trkpt lat="43.15479" lon="2.23437">
        <ele>372.17</ele>
        <time>2015-07-18T11:54:07Z</time>
      </trkpt>
      <trkpt lat="43.15442" lon="2.23491">
        <ele>372.65</ele>
        <time>2015-07-18T11:54:21Z</time>
      </trkpt>
      <trkpt lat="43.1544" lon="2.23495">
        <ele>372.65</ele>
        <time>2015-07-18T11:54:22Z</time>
      </trkpt>
      <trkpt lat="43.15429" lon="2.23517">
        <ele>374.57</ele>
        <time>2015-07-18T11:54:28Z</time>
      </trkpt>
      <trkpt lat="43.15416" lon="2.23548">
        <ele>377.94</ele>
        <time>2015-07-18T11:54:38Z</time>
      </trkpt>
      <trkpt lat="43.15405" lon="2.23581">
        <ele>381.3</ele>
        <time>2015-07-18T11:54:50Z</time>
      </trkpt>
      <trkpt lat="43.15388" lon="2.23612">
        <ele>381.3</ele>
        <time>2015-07-18T11:55:00Z</time>
      </trkpt>
      <trkpt lat="43.15356" lon="2.23661">
        <ele>380.34</ele>
        <time>2015-07-18T11:55:12Z</time>
      </trkpt>
      <trkpt lat="43.15339" lon="2.23695">
        <ele>378.42</ele>
        <time>2015-07-18T11:55:19Z</time>
      </trkpt>
      <trkpt lat="43.15336" lon="2.23723">
        <ele>378.42</ele>
        <time>2015-07-18T11:55:23Z</time>
      </trkpt>
      <trkpt lat="43.15341" lon="2.2377">
        <ele>376.01</ele>
        <time>2015-07-18T11:55:31Z</time>
      </trkpt>
      <trkpt lat="43.15337" lon="2.23805">
        <ele>372.65</ele>
        <time>2015-07-18T11:55:35Z</time>
      </trkpt>
      <trkpt lat="43.15333" lon="2.23826">
        <ele>372.17</ele>
        <time>2015-07-18T11:55:37Z</time>
      </trkpt>
      <trkpt lat="43.15323" lon="2.23855">
        <ele>372.17</ele>
        <time>2015-07-18T11:55:40Z</time>
      </trkpt>
      <trkpt lat="43.153" lon="2.23885">
        <ele>372.65</ele>
        <time>2015-07-18T11:55:47Z</time>
      </trkpt>
      <trkpt lat="43.15309" lon="2.23894">
        <ele>374.09</ele>
        <time>2015-07-18T11:55:50Z</time>
      </trkpt>
      <trkpt lat="43.1534" lon="2.2394">
        <ele>375.53</ele>
        <time>2015-07-18T11:55:59Z</time>
      </trkpt>
      <trkpt lat="43.1535" lon="2.23991">
        <ele>373.13</ele>
        <time>2015-07-18T11:56:09Z</time>
      </trkpt>
      <trkpt lat="43.1535" lon="2.24001">
        <ele>371.69</ele>
        <time>2015-07-18T11:56:11Z</time>
      </trkpt>
      <trkpt lat="43.15348" lon="2.24016">
        <ele>370.24</ele>
        <time>2015-07-18T11:56:13Z</time>
      </trkpt>
      <trkpt lat="43.1534" lon="2.24077">
        <ele>369.28</ele>
        <time>2015-07-18T11:56:18Z</time>
      </trkpt>
      <trkpt lat="43.15343" lon="2.2412">
        <ele>365.44</ele>
        <time>2015-07-18T11:56:22Z</time>
      </trkpt>
      <trkpt lat="43.15344" lon="2.24145">
        <ele>362.07</ele>
        <time>2015-07-18T11:56:25Z</time>
      </trkpt>
      <trkpt lat="43.15345" lon="2.24175">
        <ele>358.23</ele>
        <time>2015-07-18T11:56:29Z</time>
      </trkpt>
      <trkpt lat="43.15346" lon="2.24208">
        <ele>354.38</ele>
        <time>2015-07-18T11:56:33Z</time>
      </trkpt>
      <trkpt lat="43.15346" lon="2.24237">
        <ele>351.02</ele>
        <time>2015-07-18T11:56:37Z</time>
      </trkpt>
      <trkpt lat="43.15349" lon="2.24256">
        <ele>350.06</ele>
        <time>2015-07-18T11:56:40Z</time>
      </trkpt>
      <trkpt lat="43.15351" lon="2.24291">
        <ele>346.69</ele>
        <time>2015-07-18T11:56:45Z</time>
      </trkpt>
      <trkpt lat="43.15352" lon="2.24336">
        <ele>344.29</ele>
        <time>2015-07-18T11:56:51Z</time>
      </trkpt>
      <trkpt lat="43.15351" lon="2.24342">
        <ele>343.81</ele>
        <time>2015-07-18T11:56:52Z</time>
      </trkpt>
      <trkpt lat="43.15349" lon="2.24357">
        <ele>342.37</ele>
        <time>2015-07-18T11:56:54Z</time>
      </trkpt>
      <trkpt lat="43.15349" lon="2.24364">
        <ele>342.85</ele>
        <time>2015-07-18T11:56:55Z</time>
      </trkpt>
      <trkpt lat="43.15362" lon="2.24434">
        <ele>339.48</ele>
        <time>2015-07-18T11:57:03Z</time>
      </trkpt>
      <trkpt lat="43.15364" lon="2.24444">
        <ele>339.48</ele>
        <time>2015-07-18T11:57:04Z</time>
      </trkpt>
      <trkpt lat="43.15383" lon="2.24543">
        <ele>338.52</ele>
        <time>2015-07-18T11:57:15Z</time>
      </trkpt>
      <trkpt lat="43.1539" lon="2.24571">
        <ele>339.96</ele>
        <time>2015-07-18T11:57:19Z</time>
      </trkpt>
      <trkpt lat="43.15391" lon="2.24577">
        <ele>340.44</ele>
        <time>2015-07-18T11:57:20Z</time>
      </trkpt>
      <trkpt lat="43.15392" lon="2.24584">
        <ele>340.92</ele>
        <time>2015-07-18T11:57:21Z</time>
      </trkpt>
      <trkpt lat="43.15387" lon="2.24685">
        <ele>342.85</ele>
        <time>2015-07-18T11:57:37Z</time>
      </trkpt>
      <trkpt lat="43.15392" lon="2.24739">
        <ele>344.29</ele>
        <time>2015-07-18T11:57:46Z</time>
      </trkpt>
      <trkpt lat="43.15393" lon="2.24745">
        <ele>344.29</ele>
        <time>2015-07-18T11:57:47Z</time>
      </trkpt>
      <trkpt lat="43.15404" lon="2.24774">
        <ele>343.81</ele>
        <time>2015-07-18T11:57:52Z</time>
      </trkpt>
      <trkpt lat="43.15416" lon="2.24796">
        <ele>343.81</ele>
        <time>2015-07-18T11:57:57Z</time>
      </trkpt>
      <trkpt lat="43.15424" lon="2.24817">
        <ele>343.81</ele>
        <time>2015-07-18T11:58:01Z</time>
      </trkpt>
      <trkpt lat="43.15428" lon="2.24835">
        <ele>343.81</ele>
        <time>2015-07-18T11:58:04Z</time>
      </trkpt>
      <trkpt lat="43.1543" lon="2.24849">
        <ele>343.81</ele>
        <time>2015-07-18T11:58:06Z</time>
      </trkpt>
      <trkpt lat="43.15434" lon="2.24863">
        <ele>342.85</ele>
        <time>2015-07-18T11:58:08Z</time>
      </trkpt>
      <trkpt lat="43.15438" lon="2.24894">
        <ele>341.41</ele>
        <time>2015-07-18T11:58:12Z</time>
      </trkpt>
      <trkpt lat="43.15438" lon="2.24909">
        <ele>340.92</ele>
        <time>2015-07-18T11:58:14Z</time>
      </trkpt>
      <trkpt lat="43.15436" lon="2.24916">
        <ele>340.92</ele>
        <time>2015-07-18T11:58:15Z</time>
      </trkpt>
      <trkpt lat="43.15429" lon="2.24957">
        <ele>343.81</ele>
        <time>2015-07-18T11:58:23Z</time>
      </trkpt>
      <trkpt lat="43.15411" lon="2.25002">
        <ele>347.17</ele>
        <time>2015-07-18T11:58:34Z</time>
      </trkpt>
      <trkpt lat="43.15396" lon="2.25034">
        <ele>347.17</ele>
        <time>2015-07-18T11:58:42Z</time>
      </trkpt>
      <trkpt lat="43.15391" lon="2.25059">
        <ele>345.73</ele>
        <time>2015-07-18T11:58:46Z</time>
      </trkpt>
      <trkpt lat="43.1539" lon="2.25066">
        <ele>345.25</ele>
        <time>2015-07-18T11:58:47Z</time>
      </trkpt>
      <trkpt lat="43.15388" lon="2.25073">
        <ele>345.25</ele>
        <time>2015-07-18T11:58:48Z</time>
      </trkpt>
      <trkpt lat="43.15384" lon="2.25118">
        <ele>343.33</ele>
        <time>2015-07-18T11:58:54Z</time>
      </trkpt>
      <trkpt lat="43.15385" lon="2.25134">
        <ele>343.33</ele>
        <time>2015-07-18T11:58:56Z</time>
      </trkpt>
      <trkpt lat="43.15386" lon="2.25142">
        <ele>343.33</ele>
        <time>2015-07-18T11:58:57Z</time>
      </trkpt>
      <trkpt lat="43.15388" lon="2.2515">
        <ele>342.85</ele>
        <time>2015-07-18T11:58:58Z</time>
      </trkpt>
      <trkpt lat="43.1539" lon="2.25157">
        <ele>342.85</ele>
        <time>2015-07-18T11:58:59Z</time>
      </trkpt>
      <trkpt lat="43.15392" lon="2.25165">
        <ele>342.85</ele>
        <time>2015-07-18T11:59:00Z</time>
      </trkpt>
      <trkpt lat="43.15395" lon="2.25172">
        <ele>342.37</ele>
        <time>2015-07-18T11:59:01Z</time>
      </trkpt>
      <trkpt lat="43.15407" lon="2.25261">
        <ele>339</ele>
        <time>2015-07-18T11:59:13Z</time>
      </trkpt>
      <trkpt lat="43.15408" lon="2.25271">
        <ele>338.04</ele>
        <time>2015-07-18T11:59:14Z</time>
      </trkpt>
      <trkpt lat="43.15409" lon="2.25281">
        <ele>338.04</ele>
        <time>2015-07-18T11:59:15Z</time>
      </trkpt>
      <trkpt lat="43.15417" lon="2.25329">
        <ele>337.56</ele>
        <time>2015-07-18T11:59:20Z</time>
      </trkpt>
      <trkpt lat="43.15421" lon="2.25337">
        <ele>337.56</ele>
        <time>2015-07-18T11:59:21Z</time>
      </trkpt>
      <trkpt lat="43.15428" lon="2.25349">
        <ele>337.56</ele>
        <time>2015-07-18T11:59:23Z</time>
      </trkpt>
      <trkpt lat="43.15431" lon="2.25354">
        <ele>337.56</ele>
        <time>2015-07-18T11:59:24Z</time>
      </trkpt>
      <trkpt lat="43.15438" lon="2.25364">
        <ele>337.56</ele>
        <time>2015-07-18T11:59:26Z</time>
      </trkpt>
      <trkpt lat="43.15442" lon="2.25368">
        <ele>337.56</ele>
        <time>2015-07-18T11:59:27Z</time>
      </trkpt>
      <trkpt lat="43.15445" lon="2.25373">
        <ele>337.56</ele>
        <time>2015-07-18T11:59:28Z</time>
      </trkpt>
      <trkpt lat="43.15457" lon="2.25397">
        <ele>337.56</ele>
        <time>2015-07-18T11:59:33Z</time>
      </trkpt>
      <trkpt lat="43.15466" lon="2.25411">
        <ele>337.56</ele>
        <time>2015-07-18T11:59:36Z</time>
      </trkpt>
      <trkpt lat="43.1547" lon="2.25417">
        <ele>336.6</ele>
        <time>2015-07-18T11:59:37Z</time>
      </trkpt>
      <trkpt lat="43.15474" lon="2.25423">
        <ele>336.12</ele>
        <time>2015-07-18T11:59:38Z</time>
      </trkpt>
      <trkpt lat="43.15479" lon="2.25427">
        <ele>335.64</ele>
        <time>2015-07-18T11:59:39Z</time>
      </trkpt>
      <trkpt lat="43.15485" lon="2.25431">
        <ele>334.68</ele>
        <time>2015-07-18T11:59:40Z</time>
      </trkpt>
      <trkpt lat="43.15492" lon="2.25435">
        <ele>333.71</ele>
        <time>2015-07-18T11:59:41Z</time>
      </trkpt>
      <trkpt lat="43.15499" lon="2.25437">
        <ele>332.75</ele>
        <time>2015-07-18T11:59:42Z</time>
      </trkpt>
      <trkpt lat="43.15507" lon="2.25438">
        <ele>331.79</ele>
        <time>2015-07-18T11:59:43Z</time>
      </trkpt>
      <trkpt lat="43.15515" lon="2.25438">
        <ele>331.31</ele>
        <time>2015-07-18T11:59:44Z</time>
      </trkpt>
      <trkpt lat="43.15579" lon="2.25444">
        <ele>327.47</ele>
        <time>2015-07-18T11:59:52Z</time>
      </trkpt>
      <trkpt lat="43.15585" lon="2.25445">
        <ele>327.47</ele>
        <time>2015-07-18T11:59:53Z</time>
      </trkpt>
      <trkpt lat="43.15622" lon="2.25448">
        <ele>324.1</ele>
        <time>2015-07-18T11:59:58Z</time>
      </trkpt>
      <trkpt lat="43.15651" lon="2.25442">
        <ele>320.74</ele>
        <time>2015-07-18T12:00:03Z</time>
      </trkpt>
      <trkpt lat="43.15671" lon="2.25436">
        <ele>316.89</ele>
        <time>2015-07-18T12:00:06Z</time>
      </trkpt>
      <trkpt lat="43.15678" lon="2.25434">
        <ele>315.45</ele>
        <time>2015-07-18T12:00:07Z</time>
      </trkpt>
      <trkpt lat="43.15685" lon="2.25431">
        <ele>314.01</ele>
        <time>2015-07-18T12:00:08Z</time>
      </trkpt>
      <trkpt lat="43.15693" lon="2.25428">
        <ele>312.57</ele>
        <time>2015-07-18T12:00:09Z</time>
      </trkpt>
      <trkpt lat="43.15701" lon="2.25424">
        <ele>312.09</ele>
        <time>2015-07-18T12:00:10Z</time>
      </trkpt>
      <trkpt lat="43.15727" lon="2.25417">
        <ele>310.16</ele>
        <time>2015-07-18T12:00:13Z</time>
      </trkpt>
      <trkpt lat="43.15736" lon="2.25416">
        <ele>309.68</ele>
        <time>2015-07-18T12:00:14Z</time>
      </trkpt>
      <trkpt lat="43.15754" lon="2.25418">
        <ele>308.72</ele>
        <time>2015-07-18T12:00:16Z</time>
      </trkpt>
      <trkpt lat="43.15761" lon="2.25421">
        <ele>308.24</ele>
        <time>2015-07-18T12:00:17Z</time>
      </trkpt>
      <trkpt lat="43.15769" lon="2.25425">
        <ele>308.72</ele>
        <time>2015-07-18T12:00:18Z</time>
      </trkpt>
      <trkpt lat="43.15775" lon="2.25429">
        <ele>308.24</ele>
        <time>2015-07-18T12:00:19Z</time>
      </trkpt>
      <trkpt lat="43.15782" lon="2.25435">
        <ele>308.24</ele>
        <time>2015-07-18T12:00:20Z</time>
      </trkpt>
      <trkpt lat="43.15788" lon="2.2544">
        <ele>308.24</ele>
        <time>2015-07-18T12:00:21Z</time>
      </trkpt>
      <trkpt lat="43.15799" lon="2.25453">
        <ele>308.24</ele>
        <time>2015-07-18T12:00:23Z</time>
      </trkpt>
      <trkpt lat="43.15804" lon="2.25459">
        <ele>308.24</ele>
        <time>2015-07-18T12:00:24Z</time>
      </trkpt>
      <trkpt lat="43.15807" lon="2.25467">
        <ele>308.24</ele>
        <time>2015-07-18T12:00:25Z</time>
      </trkpt>
      <trkpt lat="43.15812" lon="2.25481">
        <ele>308.24</ele>
        <time>2015-07-18T12:00:27Z</time>
      </trkpt>
      <trkpt lat="43.15813" lon="2.25488">
        <ele>308.24</ele>
        <time>2015-07-18T12:00:28Z</time>
      </trkpt>
      <trkpt lat="43.15814" lon="2.25495">
        <ele>309.2</ele>
        <time>2015-07-18T12:00:29Z</time>
      </trkpt>
      <trkpt lat="43.15823" lon="2.25548">
        <ele>310.64</ele>
        <time>2015-07-18T12:00:38Z</time>
      </trkpt>
      <trkpt lat="43.15828" lon="2.2557">
        <ele>311.12</ele>
        <time>2015-07-18T12:00:42Z</time>
      </trkpt>
      <trkpt lat="43.15866" lon="2.25632">
        <ele>314.01</ele>
        <time>2015-07-18T12:00:58Z</time>
      </trkpt>
      <trkpt lat="43.15924" lon="2.25683">
        <ele>314.97</ele>
        <time>2015-07-18T12:01:16Z</time>
      </trkpt>
      <trkpt lat="43.15927" lon="2.25686">
        <ele>314.97</ele>
        <time>2015-07-18T12:01:17Z</time>
      </trkpt>
      <trkpt lat="43.1593" lon="2.2569">
        <ele>315.45</ele>
        <time>2015-07-18T12:01:18Z</time>
      </trkpt>
      <trkpt lat="43.15933" lon="2.25693">
        <ele>315.45</ele>
        <time>2015-07-18T12:01:19Z</time>
      </trkpt>
      <trkpt lat="43.15935" lon="2.25697">
        <ele>315.45</ele>
        <time>2015-07-18T12:01:20Z</time>
      </trkpt>
      <trkpt lat="43.15937" lon="2.25701">
        <ele>315.45</ele>
        <time>2015-07-18T12:01:21Z</time>
      </trkpt>
      <trkpt lat="43.15939" lon="2.25706">
        <ele>315.45</ele>
        <time>2015-07-18T12:01:22Z</time>
      </trkpt>
      <trkpt lat="43.1596" lon="2.25788">
        <ele>315.93</ele>
        <time>2015-07-18T12:01:37Z</time>
      </trkpt>
      <trkpt lat="43.15963" lon="2.25798">
        <ele>315.93</ele>
        <time>2015-07-18T12:01:39Z</time>
      </trkpt>
      <trkpt lat="43.15965" lon="2.25809">
        <ele>315.93</ele>
        <time>2015-07-18T12:01:41Z</time>
      </trkpt>
      <trkpt lat="43.15971" lon="2.25834">
        <ele>315.93</ele>
        <time>2015-07-18T12:01:46Z</time>
      </trkpt>
      <trkpt lat="43.1598" lon="2.25856">
        <ele>315.45</ele>
        <time>2015-07-18T12:01:50Z</time>
      </trkpt>
      <trkpt lat="43.15982" lon="2.2586">
        <ele>315.45</ele>
        <time>2015-07-18T12:01:51Z</time>
      </trkpt>
      <trkpt lat="43.15988" lon="2.25871">
        <ele>314.49</ele>
        <time>2015-07-18T12:01:53Z</time>
      </trkpt>
      <trkpt lat="43.15995" lon="2.25891">
        <ele>313.53</ele>
        <time>2015-07-18T12:01:56Z</time>
      </trkpt>
      <trkpt lat="43.15996" lon="2.25898">
        <ele>313.05</ele>
        <time>2015-07-18T12:01:57Z</time>
      </trkpt>
      <trkpt lat="43.15996" lon="2.25906">
        <ele>312.57</ele>
        <time>2015-07-18T12:01:58Z</time>
      </trkpt>
      <trkpt lat="43.15996" lon="2.25914">
        <ele>312.57</ele>
        <time>2015-07-18T12:01:59Z</time>
      </trkpt>
      <trkpt lat="43.15994" lon="2.25922">
        <ele>311.6</ele>
        <time>2015-07-18T12:02:00Z</time>
      </trkpt>
      <trkpt lat="43.15991" lon="2.25929">
        <ele>311.6</ele>
        <time>2015-07-18T12:02:01Z</time>
      </trkpt>
      <trkpt lat="43.15987" lon="2.25936">
        <ele>310.64</ele>
        <time>2015-07-18T12:02:02Z</time>
      </trkpt>
      <trkpt lat="43.15983" lon="2.25942">
        <ele>310.64</ele>
        <time>2015-07-18T12:02:03Z</time>
      </trkpt>
      <trkpt lat="43.1598" lon="2.2595">
        <ele>310.16</ele>
        <time>2015-07-18T12:02:04Z</time>
      </trkpt>
      <trkpt lat="43.15978" lon="2.25958">
        <ele>310.16</ele>
        <time>2015-07-18T12:02:05Z</time>
      </trkpt>
      <trkpt lat="43.15979" lon="2.25967">
        <ele>310.16</ele>
        <time>2015-07-18T12:02:06Z</time>
      </trkpt>
      <trkpt lat="43.15982" lon="2.25974">
        <ele>309.2</ele>
        <time>2015-07-18T12:02:07Z</time>
      </trkpt>
      <trkpt lat="43.15987" lon="2.25979">
        <ele>309.2</ele>
        <time>2015-07-18T12:02:08Z</time>
      </trkpt>
      <trkpt lat="43.15993" lon="2.25982">
        <ele>309.2</ele>
        <time>2015-07-18T12:02:09Z</time>
      </trkpt>
      <trkpt lat="43.16001" lon="2.25983">
        <ele>308.24</ele>
        <time>2015-07-18T12:02:10Z</time>
      </trkpt>
      <trkpt lat="43.16008" lon="2.25984">
        <ele>307.28</ele>
        <time>2015-07-18T12:02:11Z</time>
      </trkpt>
      <trkpt lat="43.16015" lon="2.25989">
        <ele>306.8</ele>
        <time>2015-07-18T12:02:12Z</time>
      </trkpt>
      <trkpt lat="43.16021" lon="2.25996">
        <ele>306.32</ele>
        <time>2015-07-18T12:02:13Z</time>
      </trkpt>
      <trkpt lat="43.16026" lon="2.26005">
        <ele>306.32</ele>
        <time>2015-07-18T12:02:14Z</time>
      </trkpt>
      <trkpt lat="43.1603" lon="2.26015">
        <ele>305.84</ele>
        <time>2015-07-18T12:02:15Z</time>
      </trkpt>
      <trkpt lat="43.16033" lon="2.26026">
        <ele>305.36</ele>
        <time>2015-07-18T12:02:16Z</time>
      </trkpt>
      <trkpt lat="43.16034" lon="2.26037">
        <ele>304.88</ele>
        <time>2015-07-18T12:02:17Z</time>
      </trkpt>
      <trkpt lat="43.16035" lon="2.2605">
        <ele>304.88</ele>
        <time>2015-07-18T12:02:18Z</time>
      </trkpt>
      <trkpt lat="43.16034" lon="2.26062">
        <ele>303.43</ele>
        <time>2015-07-18T12:02:19Z</time>
      </trkpt>
      <trkpt lat="43.16033" lon="2.26074">
        <ele>302.47</ele>
        <time>2015-07-18T12:02:20Z</time>
      </trkpt>
      <trkpt lat="43.1603" lon="2.26098">
        <ele>301.03</ele>
        <time>2015-07-18T12:02:22Z</time>
      </trkpt>
      <trkpt lat="43.16025" lon="2.26136">
        <ele>299.59</ele>
        <time>2015-07-18T12:02:25Z</time>
      </trkpt>
      <trkpt lat="43.16018" lon="2.26186">
        <ele>295.74</ele>
        <time>2015-07-18T12:02:29Z</time>
      </trkpt>
      <trkpt lat="43.16016" lon="2.26198">
        <ele>295.74</ele>
        <time>2015-07-18T12:02:30Z</time>
      </trkpt>
      <trkpt lat="43.15991" lon="2.26315">
        <ele>294.78</ele>
        <time>2015-07-18T12:02:42Z</time>
      </trkpt>
      <trkpt lat="43.15961" lon="2.26422">
        <ele>292.86</ele>
        <time>2015-07-18T12:02:56Z</time>
      </trkpt>
      <trkpt lat="43.15958" lon="2.26435">
        <ele>292.86</ele>
        <time>2015-07-18T12:02:58Z</time>
      </trkpt>
      <trkpt lat="43.15957" lon="2.26441">
        <ele>292.86</ele>
        <time>2015-07-18T12:02:59Z</time>
      </trkpt>
      <trkpt lat="43.15957" lon="2.26446">
        <ele>292.86</ele>
        <time>2015-07-18T12:03:00Z</time>
      </trkpt>
      <trkpt lat="43.15954" lon="2.26475">
        <ele>292.86</ele>
        <time>2015-07-18T12:03:06Z</time>
      </trkpt>
      <trkpt lat="43.15945" lon="2.26505">
        <ele>290.46</ele>
        <time>2015-07-18T12:03:11Z</time>
      </trkpt>
      <trkpt lat="43.15943" lon="2.2651">
        <ele>290.46</ele>
        <time>2015-07-18T12:03:12Z</time>
      </trkpt>
      <trkpt lat="43.15936" lon="2.26535">
        <ele>288.53</ele>
        <time>2015-07-18T12:03:16Z</time>
      </trkpt>
      <trkpt lat="43.15933" lon="2.26542">
        <ele>287.57</ele>
        <time>2015-07-18T12:03:17Z</time>
      </trkpt>
      <trkpt lat="43.1592" lon="2.26569">
        <ele>286.61</ele>
        <time>2015-07-18T12:03:21Z</time>
      </trkpt>
      <trkpt lat="43.15908" lon="2.26599">
        <ele>285.65</ele>
        <time>2015-07-18T12:03:25Z</time>
      </trkpt>
      <trkpt lat="43.15904" lon="2.26605">
        <ele>285.65</ele>
        <time>2015-07-18T12:03:26Z</time>
      </trkpt>
      <trkpt lat="43.15899" lon="2.26608">
        <ele>285.65</ele>
        <time>2015-07-18T12:03:27Z</time>
      </trkpt>
      <trkpt lat="43.15894" lon="2.26609">
        <ele>285.65</ele>
        <time>2015-07-18T12:03:28Z</time>
      </trkpt>
      <trkpt lat="43.1589" lon="2.26608">
        <ele>285.65</ele>
        <time>2015-07-18T12:03:29Z</time>
      </trkpt>
      <trkpt lat="43.15885" lon="2.26607">
        <ele>285.65</ele>
        <time>2015-07-18T12:03:30Z</time>
      </trkpt>
      <trkpt lat="43.15881" lon="2.26606">
        <ele>285.65</ele>
        <time>2015-07-18T12:03:31Z</time>
      </trkpt>
      <trkpt lat="43.15876" lon="2.26605">
        <ele>285.65</ele>
        <time>2015-07-18T12:03:32Z</time>
      </trkpt>
      <trkpt lat="43.15871" lon="2.26606">
        <ele>285.17</ele>
        <time>2015-07-18T12:03:33Z</time>
      </trkpt>
      <trkpt lat="43.15866" lon="2.26609">
        <ele>284.21</ele>
        <time>2015-07-18T12:03:34Z</time>
      </trkpt>
      <trkpt lat="43.15862" lon="2.26615">
        <ele>283.25</ele>
        <time>2015-07-18T12:03:35Z</time>
      </trkpt>
      <trkpt lat="43.15857" lon="2.26621">
        <ele>283.25</ele>
        <time>2015-07-18T12:03:36Z</time>
      </trkpt>
      <trkpt lat="43.15853" lon="2.26628">
        <ele>282.77</ele>
        <time>2015-07-18T12:03:37Z</time>
      </trkpt>
      <trkpt lat="43.15825" lon="2.26673">
        <ele>284.21</ele>
        <time>2015-07-18T12:03:46Z</time>
      </trkpt>
      <trkpt lat="43.15813" lon="2.2671">
        <ele>283.25</ele>
        <time>2015-07-18T12:03:55Z</time>
      </trkpt>
      <trkpt lat="43.15805" lon="2.26749">
        <ele>280.36</ele>
        <time>2015-07-18T12:04:00Z</time>
      </trkpt>
      <trkpt lat="43.15804" lon="2.26757">
        <ele>280.36</ele>
        <time>2015-07-18T12:04:01Z</time>
      </trkpt>
      <trkpt lat="43.15804" lon="2.26766">
        <ele>279.88</ele>
        <time>2015-07-18T12:04:02Z</time>
      </trkpt>
      <trkpt lat="43.15805" lon="2.26784">
        <ele>278.44</ele>
        <time>2015-07-18T12:04:04Z</time>
      </trkpt>
      <trkpt lat="43.15808" lon="2.26806">
        <ele>274.11</ele>
        <time>2015-07-18T12:04:06Z</time>
      </trkpt>
      <trkpt lat="43.1581" lon="2.26844">
        <ele>271.71</ele>
        <time>2015-07-18T12:04:09Z</time>
      </trkpt>
      <trkpt lat="43.15808" lon="2.26857">
        <ele>271.71</ele>
        <time>2015-07-18T12:04:10Z</time>
      </trkpt>
      <trkpt lat="43.15805" lon="2.26868">
        <ele>271.23</ele>
        <time>2015-07-18T12:04:11Z</time>
      </trkpt>
      <trkpt lat="43.15798" lon="2.2689">
        <ele>271.23</ele>
        <time>2015-07-18T12:04:13Z</time>
      </trkpt>
      <trkpt lat="43.15774" lon="2.26948">
        <ele>270.75</ele>
        <time>2015-07-18T12:04:19Z</time>
      </trkpt>
      <trkpt lat="43.15755" lon="2.27006">
        <ele>272.19</ele>
        <time>2015-07-18T12:04:28Z</time>
      </trkpt>
      <trkpt lat="43.1575" lon="2.27014">
        <ele>272.19</ele>
        <time>2015-07-18T12:04:30Z</time>
      </trkpt>
      <trkpt lat="43.15747" lon="2.27019">
        <ele>272.19</ele>
        <time>2015-07-18T12:04:31Z</time>
      </trkpt>
      <trkpt lat="43.15745" lon="2.27022">
        <ele>272.19</ele>
        <time>2015-07-18T12:04:32Z</time>
      </trkpt>
      <trkpt lat="43.15747" lon="2.27022">
        <ele>272.19</ele>
        <time>2015-07-18T12:04:36Z</time>
      </trkpt>
      <trkpt lat="43.15748" lon="2.27022">
        <ele>272.19</ele>
        <time>2015-07-18T12:04:37Z</time>
      </trkpt>
      <trkpt lat="43.1575" lon="2.27022">
        <ele>272.19</ele>
        <time>2015-07-18T12:04:39Z</time>
      </trkpt>
      <trkpt lat="43.15753" lon="2.27025">
        <ele>271.23</ele>
        <time>2015-07-18T12:04:51Z</time>
      </trkpt>
      <trkpt lat="43.15754" lon="2.27026">
        <ele>270.75</ele>
        <time>2015-07-18T12:04:57Z</time>
      </trkpt>
      <trkpt lat="43.15766" lon="2.27045">
        <ele>267.86</ele>
        <time>2015-07-18T12:05:07Z</time>
      </trkpt>
      <trkpt lat="43.15771" lon="2.27051">
        <ele>266.42</ele>
        <time>2015-07-18T12:05:09Z</time>
      </trkpt>
      <trkpt lat="43.1578" lon="2.27063">
        <ele>264.5</ele>
        <time>2015-07-18T12:05:13Z</time>
      </trkpt>
      <trkpt lat="43.15782" lon="2.27064">
        <ele>263.54</ele>
        <time>2015-07-18T12:05:14Z</time>
      </trkpt>
      <trkpt lat="43.15792" lon="2.2708">
        <ele>260.65</ele>
        <time>2015-07-18T12:05:20Z</time>
      </trkpt>
      <trkpt lat="43.15802" lon="2.27091">
        <ele>257.29</ele>
        <time>2015-07-18T12:05:24Z</time>
      </trkpt>
      <trkpt lat="43.15819" lon="2.27106">
        <ele>254.89</ele>
        <time>2015-07-18T12:05:30Z</time>
      </trkpt>
      <trkpt lat="43.1583" lon="2.27107">
        <ele>256.33</ele>
        <time>2015-07-18T12:05:39Z</time>
      </trkpt>
      <trkpt lat="43.15842" lon="2.27112">
        <ele>257.29</ele>
        <time>2015-07-18T12:05:53Z</time>
      </trkpt>
      <trkpt lat="43.15844" lon="2.27112">
        <ele>257.29</ele>
        <time>2015-07-18T12:05:55Z</time>
      </trkpt>
      <trkpt lat="43.15854" lon="2.27116">
        <ele>257.77</ele>
        <time>2015-07-18T12:06:01Z</time>
      </trkpt>
      <trkpt lat="43.15872" lon="2.27105">
        <ele>258.25</ele>
        <time>2015-07-18T12:06:11Z</time>
      </trkpt>
      <trkpt lat="43.15884" lon="2.27095">
        <ele>258.25</ele>
        <time>2015-07-18T12:06:20Z</time>
      </trkpt>
      <trkpt lat="43.15888" lon="2.27095">
        <ele>256.81</ele>
        <time>2015-07-18T12:06:22Z</time>
      </trkpt>
      <trkpt lat="43.1589" lon="2.27097">
        <ele>256.33</ele>
        <time>2015-07-18T12:06:24Z</time>
      </trkpt>
      <trkpt lat="43.15895" lon="2.27111">
        <ele>252</ele>
        <time>2015-07-18T12:06:37Z</time>
      </trkpt>
      <trkpt lat="43.15895" lon="2.2712">
        <ele>251.04</ele>
        <time>2015-07-18T12:06:40Z</time>
      </trkpt>
      <trkpt lat="43.15902" lon="2.27125">
        <ele>247.68</ele>
        <time>2015-07-18T12:06:44Z</time>
      </trkpt>
      <trkpt lat="43.15909" lon="2.27133">
        <ele>245.27</ele>
        <time>2015-07-18T12:06:49Z</time>
      </trkpt>
      <trkpt lat="43.1592" lon="2.27129">
        <ele>241.43</ele>
        <time>2015-07-18T12:06:55Z</time>
      </trkpt>
      <trkpt lat="43.15922" lon="2.27128">
        <ele>241.43</ele>
        <time>2015-07-18T12:06:56Z</time>
      </trkpt>
      <trkpt lat="43.15926" lon="2.27127">
        <ele>240.47</ele>
        <time>2015-07-18T12:06:58Z</time>
      </trkpt>
      <trkpt lat="43.15933" lon="2.27139">
        <ele>239.51</ele>
        <time>2015-07-18T12:07:04Z</time>
      </trkpt>
      <trkpt lat="43.15935" lon="2.27145">
        <ele>239.02</ele>
        <time>2015-07-18T12:07:08Z</time>
      </trkpt>
      <trkpt lat="43.15939" lon="2.27148">
        <ele>239.02</ele>
        <time>2015-07-18T12:07:11Z</time>
      </trkpt>
      <trkpt lat="43.15941" lon="2.27164">
        <ele>239.02</ele>
        <time>2015-07-18T12:07:19Z</time>
      </trkpt>
      <trkpt lat="43.15944" lon="2.27171">
        <ele>239.02</ele>
        <time>2015-07-18T12:07:22Z</time>
      </trkpt>
      <trkpt lat="43.15945" lon="2.27175">
        <ele>236.62</ele>
        <time>2015-07-18T12:07:23Z</time>
      </trkpt>
      <trkpt lat="43.15945" lon="2.27177">
        <ele>236.62</ele>
        <time>2015-07-18T12:07:24Z</time>
      </trkpt>
      <trkpt lat="43.15946" lon="2.27183">
        <ele>236.62</ele>
        <time>2015-07-18T12:07:33Z</time>
      </trkpt>
      <trkpt lat="43.15945" lon="2.27185">
        <ele>236.62</ele>
        <time>2015-07-18T12:07:34Z</time>
      </trkpt>
      <trkpt lat="43.15945" lon="2.27187">
        <ele>236.62</ele>
        <time>2015-07-18T12:07:35Z</time>
      </trkpt>
      <trkpt lat="43.15944" lon="2.2719">
        <ele>236.62</ele>
        <time>2015-07-18T12:07:36Z</time>
      </trkpt>
      <trkpt lat="43.15944" lon="2.27192">
        <ele>236.62</ele>
        <time>2015-07-18T12:07:37Z</time>
      </trkpt>
      <trkpt lat="43.15942" lon="2.27204">
        <ele>236.62</ele>
        <time>2015-07-18T12:07:42Z</time>
      </trkpt>
      <trkpt lat="43.15942" lon="2.27206">
        <ele>236.62</ele>
        <time>2015-07-18T12:07:43Z</time>
      </trkpt>
      <trkpt lat="43.15942" lon="2.27209">
        <ele>236.62</ele>
        <time>2015-07-18T12:07:44Z</time>
      </trkpt>
      <trkpt lat="43.15939" lon="2.27227">
        <ele>236.62</ele>
        <time>2015-07-18T12:07:50Z</time>
      </trkpt>
      <trkpt lat="43.1594" lon="2.27229">
        <ele>236.62</ele>
        <time>2015-07-18T12:07:51Z</time>
      </trkpt>
      <trkpt lat="43.15957" lon="2.27247">
        <ele>236.62</ele>
        <time>2015-07-18T12:07:59Z</time>
      </trkpt>
      <trkpt lat="43.15976" lon="2.27255">
        <ele>236.62</ele>
        <time>2015-07-18T12:08:10Z</time>
      </trkpt>
      <trkpt lat="43.15997" lon="2.27254">
        <ele>235.66</ele>
        <time>2015-07-18T12:08:19Z</time>
      </trkpt>
      <trkpt lat="43.16005" lon="2.27262">
        <ele>235.18</ele>
        <time>2015-07-18T12:08:22Z</time>
      </trkpt>
      <trkpt lat="43.16011" lon="2.27266">
        <ele>234.22</ele>
        <time>2015-07-18T12:08:24Z</time>
      </trkpt>
      <trkpt lat="43.16024" lon="2.27253">
        <ele>230.85</ele>
        <time>2015-07-18T12:08:29Z</time>
      </trkpt>
      <trkpt lat="43.16031" lon="2.27247">
        <ele>228.45</ele>
        <time>2015-07-18T12:08:31Z</time>
      </trkpt>
      <trkpt lat="43.16042" lon="2.27233">
        <ele>225.09</ele>
        <time>2015-07-18T12:08:36Z</time>
      </trkpt>
      <trkpt lat="43.16051" lon="2.27235">
        <ele>224.61</ele>
        <time>2015-07-18T12:08:40Z</time>
      </trkpt>
      <trkpt lat="43.16074" lon="2.27266">
        <ele>222.68</ele>
        <time>2015-07-18T12:08:53Z</time>
      </trkpt>
      <trkpt lat="43.1608" lon="2.27275">
        <ele>221.72</ele>
        <time>2015-07-18T12:08:55Z</time>
      </trkpt>
      <trkpt lat="43.16084" lon="2.27301">
        <ele>219.32</ele>
        <time>2015-07-18T12:08:59Z</time>
      </trkpt>
      <trkpt lat="43.16086" lon="2.27318">
        <ele>217.88</ele>
        <time>2015-07-18T12:09:01Z</time>
      </trkpt>
      <trkpt lat="43.16101" lon="2.27356">
        <ele>214.03</ele>
        <time>2015-07-18T12:09:08Z</time>
      </trkpt>
      <trkpt lat="43.16109" lon="2.27366">
        <ele>212.59</ele>
        <time>2015-07-18T12:09:10Z</time>
      </trkpt>
      <trkpt lat="43.16105" lon="2.27389">
        <ele>209.22</ele>
        <time>2015-07-18T12:09:16Z</time>
      </trkpt>
      <trkpt lat="43.16103" lon="2.27394">
        <ele>209.22</ele>
        <time>2015-07-18T12:09:17Z</time>
      </trkpt>
      <trkpt lat="43.16102" lon="2.27401">
        <ele>209.22</ele>
        <time>2015-07-18T12:09:18Z</time>
      </trkpt>
      <trkpt lat="43.16102" lon="2.2741">
        <ele>209.22</ele>
        <time>2015-07-18T12:09:19Z</time>
      </trkpt>
      <trkpt lat="43.16102" lon="2.27415">
        <ele>208.26</ele>
        <time>2015-07-18T12:09:20Z</time>
      </trkpt>
      <trkpt lat="43.16101" lon="2.27432">
        <ele>206.82</ele>
        <time>2015-07-18T12:09:23Z</time>
      </trkpt>
      <trkpt lat="43.16101" lon="2.27439">
        <ele>206.34</ele>
        <time>2015-07-18T12:09:24Z</time>
      </trkpt>
      <trkpt lat="43.16099" lon="2.27473">
        <ele>202.98</ele>
        <time>2015-07-18T12:09:28Z</time>
      </trkpt>
      <trkpt lat="43.16095" lon="2.27511">
        <ele>199.61</ele>
        <time>2015-07-18T12:09:33Z</time>
      </trkpt>
      <trkpt lat="43.16091" lon="2.27529">
        <ele>197.21</ele>
        <time>2015-07-18T12:09:35Z</time>
      </trkpt>
      <trkpt lat="43.16086" lon="2.27555">
        <ele>193.84</ele>
        <time>2015-07-18T12:09:38Z</time>
      </trkpt>
      <trkpt lat="43.16081" lon="2.27578">
        <ele>192.4</ele>
        <time>2015-07-18T12:09:41Z</time>
      </trkpt>
      <trkpt lat="43.16081" lon="2.27585">
        <ele>191.44</ele>
        <time>2015-07-18T12:09:42Z</time>
      </trkpt>
      <trkpt lat="43.16081" lon="2.27591">
        <ele>191.44</ele>
        <time>2015-07-18T12:09:43Z</time>
      </trkpt>
      <trkpt lat="43.16083" lon="2.27597">
        <ele>190.48</ele>
        <time>2015-07-18T12:09:44Z</time>
      </trkpt>
      <trkpt lat="43.16087" lon="2.27603">
        <ele>190</ele>
        <time>2015-07-18T12:09:45Z</time>
      </trkpt>
      <trkpt lat="43.16091" lon="2.27609">
        <ele>189.04</ele>
        <time>2015-07-18T12:09:46Z</time>
      </trkpt>
      <trkpt lat="43.16097" lon="2.27615">
        <ele>188.08</ele>
        <time>2015-07-18T12:09:47Z</time>
      </trkpt>
      <trkpt lat="43.16104" lon="2.2762">
        <ele>187.11</ele>
        <time>2015-07-18T12:09:48Z</time>
      </trkpt>
      <trkpt lat="43.16111" lon="2.27625">
        <ele>186.15</ele>
        <time>2015-07-18T12:09:49Z</time>
      </trkpt>
      <trkpt lat="43.16123" lon="2.27633">
        <ele>185.19</ele>
        <time>2015-07-18T12:09:51Z</time>
      </trkpt>
      <trkpt lat="43.16127" lon="2.27638">
        <ele>185.19</ele>
        <time>2015-07-18T12:09:52Z</time>
      </trkpt>
      <trkpt lat="43.16129" lon="2.27644">
        <ele>185.19</ele>
        <time>2015-07-18T12:09:53Z</time>
      </trkpt>
      <trkpt lat="43.16131" lon="2.27651">
        <ele>184.71</ele>
        <time>2015-07-18T12:09:54Z</time>
      </trkpt>
      <trkpt lat="43.16131" lon="2.27658">
        <ele>184.71</ele>
        <time>2015-07-18T12:09:55Z</time>
      </trkpt>
      <trkpt lat="43.16132" lon="2.27666">
        <ele>184.71</ele>
        <time>2015-07-18T12:09:56Z</time>
      </trkpt>
      <trkpt lat="43.16132" lon="2.27674">
        <ele>184.23</ele>
        <time>2015-07-18T12:09:57Z</time>
      </trkpt>
      <trkpt lat="43.1613" lon="2.27681">
        <ele>184.23</ele>
        <time>2015-07-18T12:09:58Z</time>
      </trkpt>
      <trkpt lat="43.16129" lon="2.27686">
        <ele>184.23</ele>
        <time>2015-07-18T12:09:59Z</time>
      </trkpt>
      <trkpt lat="43.1613" lon="2.2769">
        <ele>184.23</ele>
        <time>2015-07-18T12:10:00Z</time>
      </trkpt>
      <trkpt lat="43.16131" lon="2.27693">
        <ele>184.23</ele>
        <time>2015-07-18T12:10:01Z</time>
      </trkpt>
      <trkpt lat="43.16133" lon="2.27695">
        <ele>184.23</ele>
        <time>2015-07-18T12:10:02Z</time>
      </trkpt>
      <trkpt lat="43.16136" lon="2.27696">
        <ele>184.23</ele>
        <time>2015-07-18T12:10:03Z</time>
      </trkpt>
      <trkpt lat="43.16137" lon="2.27695">
        <ele>184.23</ele>
        <time>2015-07-18T12:10:04Z</time>
      </trkpt>
      <trkpt lat="43.16138" lon="2.27694">
        <ele>184.23</ele>
        <time>2015-07-18T12:10:05Z</time>
      </trkpt>
      <trkpt lat="43.16143" lon="2.27687">
        <ele>185.67</ele>
        <time>2015-07-18T12:10:09Z</time>
      </trkpt>
      <trkpt lat="43.16146" lon="2.27684">
        <ele>186.15</ele>
        <time>2015-07-18T12:10:12Z</time>
      </trkpt>
      <trkpt lat="43.16148" lon="2.27684">
        <ele>186.63</ele>
        <time>2015-07-18T12:10:13Z</time>
      </trkpt>
      <trkpt lat="43.16149" lon="2.27683">
        <ele>186.63</ele>
        <time>2015-07-18T12:10:14Z</time>
      </trkpt>
      <trkpt lat="43.16165" lon="2.27668">
        <ele>189.04</ele>
        <time>2015-07-18T12:10:28Z</time>
      </trkpt>
      <trkpt lat="43.16172" lon="2.27639">
        <ele>190</ele>
        <time>2015-07-18T12:10:41Z</time>
      </trkpt>
      <trkpt lat="43.16189" lon="2.27612">
        <ele>189.52</ele>
        <time>2015-07-18T12:10:54Z</time>
      </trkpt>
      <trkpt lat="43.16209" lon="2.27575">
        <ele>192.88</ele>
        <time>2015-07-18T12:11:10Z</time>
      </trkpt>
      <trkpt lat="43.16225" lon="2.27547">
        <ele>195.77</ele>
        <time>2015-07-18T12:11:23Z</time>
      </trkpt>
      <trkpt lat="43.16231" lon="2.27524">
        <ele>198.17</ele>
        <time>2015-07-18T12:11:33Z</time>
      </trkpt>
      <trkpt lat="43.16232" lon="2.27516">
        <ele>198.17</ele>
        <time>2015-07-18T12:11:44Z</time>
      </trkpt>
      <trkpt lat="43.16234" lon="2.27512">
        <ele>196.73</ele>
        <time>2015-07-18T12:12:08Z</time>
      </trkpt>
      <trkpt lat="43.16241" lon="2.27517">
        <ele>196.25</ele>
        <time>2015-07-18T12:12:33Z</time>
      </trkpt>
      <trkpt lat="43.16238" lon="2.27515">
        <ele>196.25</ele>
        <time>2015-07-18T12:12:53Z</time>
      </trkpt>
      <trkpt lat="43.16238" lon="2.27517">
        <ele>196.25</ele>
        <time>2015-07-18T12:13:19Z</time>
      </trkpt>
      <trkpt lat="43.16238" lon="2.27513">
        <ele>197.21</ele>
        <time>2015-07-18T12:13:38Z</time>
      </trkpt>
      <trkpt lat="43.16244" lon="2.27508">
        <ele>198.17</ele>
        <time>2015-07-18T12:13:45Z</time>
      </trkpt>
      <trkpt lat="43.16246" lon="2.27509">
        <ele>198.17</ele>
        <time>2015-07-18T12:13:46Z</time>
      </trkpt>
      <trkpt lat="43.16248" lon="2.27509">
        <ele>198.17</ele>
        <time>2015-07-18T12:13:47Z</time>
      </trkpt>
      <trkpt lat="43.1625" lon="2.2751">
        <ele>198.17</ele>
        <time>2015-07-18T12:13:48Z</time>
      </trkpt>
      <trkpt lat="43.16252" lon="2.2751">
        <ele>198.17</ele>
        <time>2015-07-18T12:13:49Z</time>
      </trkpt>
      <trkpt lat="43.16254" lon="2.27511">
        <ele>199.13</ele>
        <time>2015-07-18T12:13:50Z</time>
      </trkpt>
      <trkpt lat="43.16256" lon="2.27511">
        <ele>199.13</ele>
        <time>2015-07-18T12:13:51Z</time>
      </trkpt>
      <trkpt lat="43.16258" lon="2.27512">
        <ele>199.13</ele>
        <time>2015-07-18T12:13:52Z</time>
      </trkpt>
      <trkpt lat="43.16285" lon="2.27516">
        <ele>201.05</ele>
        <time>2015-07-18T12:14:06Z</time>
      </trkpt>
      <trkpt lat="43.16309" lon="2.2751">
        <ele>203.94</ele>
        <time>2015-07-18T12:14:20Z</time>
      </trkpt>
      <trkpt lat="43.16333" lon="2.275">
        <ele>207.3</ele>
        <time>2015-07-18T12:14:35Z</time>
      </trkpt>
      <trkpt lat="43.16359" lon="2.27489">
        <ele>210.19</ele>
        <time>2015-07-18T12:14:51Z</time>
      </trkpt>
      <trkpt lat="43.1636" lon="2.27487">
        <ele>210.67</ele>
        <time>2015-07-18T12:14:52Z</time>
      </trkpt>
      <trkpt lat="43.16361" lon="2.27485">
        <ele>211.15</ele>
        <time>2015-07-18T12:14:53Z</time>
      </trkpt>
      <trkpt lat="43.16363" lon="2.27482">
        <ele>211.15</ele>
        <time>2015-07-18T12:14:55Z</time>
      </trkpt>
      <trkpt lat="43.16364" lon="2.2748">
        <ele>211.63</ele>
        <time>2015-07-18T12:14:56Z</time>
      </trkpt>
      <trkpt lat="43.16365" lon="2.27479">
        <ele>211.63</ele>
        <time>2015-07-18T12:14:57Z</time>
      </trkpt>
      <trkpt lat="43.16366" lon="2.27477">
        <ele>211.63</ele>
        <time>2015-07-18T12:14:58Z</time>
      </trkpt>
      <trkpt lat="43.16367" lon="2.27476">
        <ele>211.63</ele>
        <time>2015-07-18T12:14:59Z</time>
      </trkpt>
      <trkpt lat="43.16383" lon="2.27446">
        <ele>213.55</ele>
        <time>2015-07-18T12:15:15Z</time>
      </trkpt>
      <trkpt lat="43.16392" lon="2.27424">
        <ele>215.95</ele>
        <time>2015-07-18T12:15:26Z</time>
      </trkpt>
      <trkpt lat="43.16393" lon="2.27423">
        <ele>215.95</ele>
        <time>2015-07-18T12:15:27Z</time>
      </trkpt>
      <trkpt lat="43.16402" lon="2.27399">
        <ele>218.84</ele>
        <time>2015-07-18T12:15:40Z</time>
      </trkpt>
      <trkpt lat="43.16407" lon="2.27385">
        <ele>221.24</ele>
        <time>2015-07-18T12:15:48Z</time>
      </trkpt>
      <trkpt lat="43.16407" lon="2.27383">
        <ele>221.24</ele>
        <time>2015-07-18T12:15:49Z</time>
      </trkpt>
      <trkpt lat="43.16408" lon="2.27381">
        <ele>221.72</ele>
        <time>2015-07-18T12:15:50Z</time>
      </trkpt>
      <trkpt lat="43.16409" lon="2.27379">
        <ele>221.72</ele>
        <time>2015-07-18T12:15:51Z</time>
      </trkpt>
      <trkpt lat="43.1641" lon="2.27377">
        <ele>222.2</ele>
        <time>2015-07-18T12:15:52Z</time>
      </trkpt>
      <trkpt lat="43.1641" lon="2.27375">
        <ele>223.16</ele>
        <time>2015-07-18T12:15:53Z</time>
      </trkpt>
      <trkpt lat="43.16411" lon="2.27373">
        <ele>223.16</ele>
        <time>2015-07-18T12:15:54Z</time>
      </trkpt>
      <trkpt lat="43.16412" lon="2.27372">
        <ele>223.64</ele>
        <time>2015-07-18T12:15:55Z</time>
      </trkpt>
      <trkpt lat="43.16412" lon="2.2737">
        <ele>223.64</ele>
        <time>2015-07-18T12:15:56Z</time>
      </trkpt>
      <trkpt lat="43.16413" lon="2.27368">
        <ele>224.12</ele>
        <time>2015-07-18T12:15:57Z</time>
      </trkpt>
      <trkpt lat="43.16414" lon="2.27366">
        <ele>224.12</ele>
        <time>2015-07-18T12:15:58Z</time>
      </trkpt>
      <trkpt lat="43.16415" lon="2.27365">
        <ele>224.61</ele>
        <time>2015-07-18T12:15:59Z</time>
      </trkpt>
      <trkpt lat="43.16417" lon="2.2736">
        <ele>225.57</ele>
        <time>2015-07-18T12:16:02Z</time>
      </trkpt>
      <trkpt lat="43.16417" lon="2.27358">
        <ele>226.05</ele>
        <time>2015-07-18T12:16:03Z</time>
      </trkpt>
      <trkpt lat="43.16417" lon="2.27356">
        <ele>226.53</ele>
        <time>2015-07-18T12:16:04Z</time>
      </trkpt>
      <trkpt lat="43.16418" lon="2.27354">
        <ele>226.53</ele>
        <time>2015-07-18T12:16:05Z</time>
      </trkpt>
      <trkpt lat="43.16418" lon="2.27352">
        <ele>226.53</ele>
        <time>2015-07-18T12:16:06Z</time>
      </trkpt>
      <trkpt lat="43.16419" lon="2.2735">
        <ele>227.01</ele>
        <time>2015-07-18T12:16:07Z</time>
      </trkpt>
      <trkpt lat="43.1642" lon="2.27349">
        <ele>227.49</ele>
        <time>2015-07-18T12:16:08Z</time>
      </trkpt>
      <trkpt lat="43.16426" lon="2.27325">
        <ele>230.85</ele>
        <time>2015-07-18T12:16:20Z</time>
      </trkpt>
      <trkpt lat="43.16428" lon="2.27289">
        <ele>232.78</ele>
        <time>2015-07-18T12:16:37Z</time>
      </trkpt>
      <trkpt lat="43.16439" lon="2.27268">
        <ele>234.22</ele>
        <time>2015-07-18T12:16:51Z</time>
      </trkpt>
      <trkpt lat="43.16443" lon="2.27263">
        <ele>236.14</ele>
        <time>2015-07-18T12:16:55Z</time>
      </trkpt>
      <trkpt lat="43.16445" lon="2.27262">
        <ele>236.14</ele>
        <time>2015-07-18T12:16:56Z</time>
      </trkpt>
      <trkpt lat="43.16446" lon="2.2726">
        <ele>236.62</ele>
        <time>2015-07-18T12:16:57Z</time>
      </trkpt>
      <trkpt lat="43.16447" lon="2.2726">
        <ele>236.62</ele>
        <time>2015-07-18T12:16:58Z</time>
      </trkpt>
      <trkpt lat="43.16448" lon="2.27259">
        <ele>237.1</ele>
        <time>2015-07-18T12:16:59Z</time>
      </trkpt>
      <trkpt lat="43.16449" lon="2.27259">
        <ele>237.1</ele>
        <time>2015-07-18T12:17:00Z</time>
      </trkpt>
      <trkpt lat="43.1645" lon="2.27258">
        <ele>237.1</ele>
        <time>2015-07-18T12:17:01Z</time>
      </trkpt>
      <trkpt lat="43.16457" lon="2.27231">
        <ele>239.02</ele>
        <time>2015-07-18T12:17:11Z</time>
      </trkpt>
      <trkpt lat="43.16458" lon="2.27213">
        <ele>237.1</ele>
        <time>2015-07-18T12:17:14Z</time>
      </trkpt>
      <trkpt lat="43.16459" lon="2.27206">
        <ele>237.1</ele>
        <time>2015-07-18T12:17:15Z</time>
      </trkpt>
      <trkpt lat="43.16462" lon="2.27171">
        <ele>236.14</ele>
        <time>2015-07-18T12:17:20Z</time>
      </trkpt>
      <trkpt lat="43.16464" lon="2.27166">
        <ele>236.14</ele>
        <time>2015-07-18T12:17:21Z</time>
      </trkpt>
      <trkpt lat="43.16465" lon="2.27161">
        <ele>236.14</ele>
        <time>2015-07-18T12:17:22Z</time>
      </trkpt>
      <trkpt lat="43.16465" lon="2.27156">
        <ele>235.18</ele>
        <time>2015-07-18T12:17:23Z</time>
      </trkpt>
      <trkpt lat="43.16464" lon="2.27152">
        <ele>235.18</ele>
        <time>2015-07-18T12:17:24Z</time>
      </trkpt>
      <trkpt lat="43.16464" lon="2.27147">
        <ele>235.18</ele>
        <time>2015-07-18T12:17:25Z</time>
      </trkpt>
      <trkpt lat="43.16464" lon="2.27143">
        <ele>235.18</ele>
        <time>2015-07-18T12:17:26Z</time>
      </trkpt>
      <trkpt lat="43.16465" lon="2.27139">
        <ele>235.18</ele>
        <time>2015-07-18T12:17:27Z</time>
      </trkpt>
      <trkpt lat="43.16467" lon="2.27135">
        <ele>235.18</ele>
        <time>2015-07-18T12:17:28Z</time>
      </trkpt>
      <trkpt lat="43.1647" lon="2.27132">
        <ele>234.7</ele>
        <time>2015-07-18T12:17:29Z</time>
      </trkpt>
      <trkpt lat="43.16472" lon="2.27128">
        <ele>234.7</ele>
        <time>2015-07-18T12:17:30Z</time>
      </trkpt>
      <trkpt lat="43.16473" lon="2.27123">
        <ele>234.7</ele>
        <time>2015-07-18T12:17:31Z</time>
      </trkpt>
      <trkpt lat="43.16474" lon="2.27119">
        <ele>234.22</ele>
        <time>2015-07-18T12:17:32Z</time>
      </trkpt>
      <trkpt lat="43.16473" lon="2.27111">
        <ele>233.74</ele>
        <time>2015-07-18T12:17:33Z</time>
      </trkpt>
      <trkpt lat="43.16471" lon="2.27106">
        <ele>233.26</ele>
        <time>2015-07-18T12:17:34Z</time>
      </trkpt>
      <trkpt lat="43.16468" lon="2.27099">
        <ele>232.78</ele>
        <time>2015-07-18T12:17:35Z</time>
      </trkpt>
      <trkpt lat="43.16465" lon="2.27093">
        <ele>232.3</ele>
        <time>2015-07-18T12:17:36Z</time>
      </trkpt>
      <trkpt lat="43.16461" lon="2.27086">
        <ele>232.3</ele>
        <time>2015-07-18T12:17:37Z</time>
      </trkpt>
      <trkpt lat="43.1644" lon="2.27059">
        <ele>230.85</ele>
        <time>2015-07-18T12:17:42Z</time>
      </trkpt>
      <trkpt lat="43.16435" lon="2.27058">
        <ele>230.37</ele>
        <time>2015-07-18T12:17:43Z</time>
      </trkpt>
      <trkpt lat="43.16431" lon="2.27062">
        <ele>230.37</ele>
        <time>2015-07-18T12:17:44Z</time>
      </trkpt>
      <trkpt lat="43.16429" lon="2.27066">
        <ele>230.37</ele>
        <time>2015-07-18T12:17:45Z</time>
      </trkpt>
      <trkpt lat="43.16428" lon="2.2707">
        <ele>230.37</ele>
        <time>2015-07-18T12:17:46Z</time>
      </trkpt>
      <trkpt lat="43.16427" lon="2.27074">
        <ele>230.37</ele>
        <time>2015-07-18T12:17:47Z</time>
      </trkpt>
      <trkpt lat="43.16427" lon="2.27077">
        <ele>230.37</ele>
        <time>2015-07-18T12:17:48Z</time>
      </trkpt>
      <trkpt lat="43.16426" lon="2.27081">
        <ele>230.37</ele>
        <time>2015-07-18T12:17:49Z</time>
      </trkpt>
      <trkpt lat="43.16425" lon="2.27085">
        <ele>230.37</ele>
        <time>2015-07-18T12:17:50Z</time>
      </trkpt>
      <trkpt lat="43.16421" lon="2.27114">
        <ele>229.89</ele>
        <time>2015-07-18T12:17:57Z</time>
      </trkpt>
      <trkpt lat="43.16418" lon="2.27118">
        <ele>229.41</ele>
        <time>2015-07-18T12:17:58Z</time>
      </trkpt>
      <trkpt lat="43.16416" lon="2.27122">
        <ele>228.93</ele>
        <time>2015-07-18T12:17:59Z</time>
      </trkpt>
      <trkpt lat="43.16412" lon="2.27127">
        <ele>228.93</ele>
        <time>2015-07-18T12:18:00Z</time>
      </trkpt>
      <trkpt lat="43.16409" lon="2.27131">
        <ele>228.93</ele>
        <time>2015-07-18T12:18:01Z</time>
      </trkpt>
      <trkpt lat="43.16405" lon="2.27136">
        <ele>228.45</ele>
        <time>2015-07-18T12:18:02Z</time>
      </trkpt>
      <trkpt lat="43.16401" lon="2.2714">
        <ele>228.45</ele>
        <time>2015-07-18T12:18:03Z</time>
      </trkpt>
      <trkpt lat="43.16398" lon="2.27145">
        <ele>228.45</ele>
        <time>2015-07-18T12:18:04Z</time>
      </trkpt>
      <trkpt lat="43.16387" lon="2.27157">
        <ele>227.49</ele>
        <time>2015-07-18T12:18:07Z</time>
      </trkpt>
      <trkpt lat="43.16384" lon="2.27161">
        <ele>227.49</ele>
        <time>2015-07-18T12:18:08Z</time>
      </trkpt>
      <trkpt lat="43.16371" lon="2.27175">
        <ele>228.93</ele>
        <time>2015-07-18T12:18:14Z</time>
      </trkpt>
      <trkpt lat="43.1637" lon="2.27173">
        <ele>228.93</ele>
        <time>2015-07-18T12:18:15Z</time>
      </trkpt>
      <trkpt lat="43.1637" lon="2.27172">
        <ele>228.93</ele>
        <time>2015-07-18T12:18:16Z</time>
      </trkpt>
      <trkpt lat="43.1637" lon="2.27171">
        <ele>228.93</ele>
        <time>2015-07-18T12:18:17Z</time>
      </trkpt>
      <trkpt lat="43.16372" lon="2.27171">
        <ele>228.93</ele>
        <time>2015-07-18T12:18:18Z</time>
      </trkpt>
      <trkpt lat="43.16373" lon="2.2717">
        <ele>228.93</ele>
        <time>2015-07-18T12:18:19Z</time>
      </trkpt>
      <trkpt lat="43.16375" lon="2.27169">
        <ele>228.93</ele>
        <time>2015-07-18T12:18:20Z</time>
      </trkpt>
      <trkpt lat="43.16377" lon="2.27168">
        <ele>228.93</ele>
        <time>2015-07-18T12:18:21Z</time>
      </trkpt>
      <trkpt lat="43.16378" lon="2.27166">
        <ele>228.93</ele>
        <time>2015-07-18T12:18:22Z</time>
      </trkpt>
      <trkpt lat="43.1638" lon="2.27164">
        <ele>228.93</ele>
        <time>2015-07-18T12:18:23Z</time>
      </trkpt>
      <trkpt lat="43.16388" lon="2.27153">
        <ele>228.93</ele>
        <time>2015-07-18T12:18:28Z</time>
      </trkpt>
      <trkpt lat="43.1639" lon="2.27153">
        <ele>228.93</ele>
        <time>2015-07-18T12:18:29Z</time>
      </trkpt>
      <trkpt lat="43.16389" lon="2.27156">
        <ele>228.93</ele>
        <time>2015-07-18T12:18:32Z</time>
      </trkpt>
      <trkpt lat="43.16386" lon="2.27158">
        <ele>228.93</ele>
        <time>2015-07-18T12:18:37Z</time>
      </trkpt>
      <trkpt lat="43.16385" lon="2.27159">
        <ele>228.93</ele>
        <time>2015-07-18T12:18:38Z</time>
      </trkpt>
      <trkpt lat="43.16385" lon="2.2716">
        <ele>228.93</ele>
        <time>2015-07-18T12:18:39Z</time>
      </trkpt>
      <trkpt lat="43.16368" lon="2.27177">
        <ele>229.41</ele>
        <time>2015-07-18T12:18:52Z</time>
      </trkpt>
      <trkpt lat="43.16343" lon="2.27208">
        <ele>229.89</ele>
        <time>2015-07-18T12:19:08Z</time>
      </trkpt>
      <trkpt lat="43.16338" lon="2.27216">
        <ele>229.89</ele>
        <time>2015-07-18T12:19:11Z</time>
      </trkpt>
      <trkpt lat="43.16335" lon="2.27217">
        <ele>229.89</ele>
        <time>2015-07-18T12:19:12Z</time>
      </trkpt>
      <trkpt lat="43.16332" lon="2.27216">
        <ele>229.89</ele>
        <time>2015-07-18T12:19:13Z</time>
      </trkpt>
      <trkpt lat="43.1633" lon="2.27212">
        <ele>229.89</ele>
        <time>2015-07-18T12:19:15Z</time>
      </trkpt>
      <trkpt lat="43.16322" lon="2.27194">
        <ele>231.81</ele>
        <time>2015-07-18T12:19:24Z</time>
      </trkpt>
      <trkpt lat="43.16318" lon="2.27191">
        <ele>231.81</ele>
        <time>2015-07-18T12:19:27Z</time>
      </trkpt>
      <trkpt lat="43.16312" lon="2.27203">
        <ele>232.3</ele>
        <time>2015-07-18T12:19:36Z</time>
      </trkpt>
      <trkpt lat="43.16306" lon="2.27205">
        <ele>232.3</ele>
        <time>2015-07-18T12:19:40Z</time>
      </trkpt>
      <trkpt lat="43.16303" lon="2.27211">
        <ele>232.3</ele>
        <time>2015-07-18T12:19:45Z</time>
      </trkpt>
      <trkpt lat="43.16322" lon="2.27219">
        <ele>229.41</ele>
        <time>2015-07-18T12:19:54Z</time>
      </trkpt>
      <trkpt lat="43.16323" lon="2.27217">
        <ele>229.41</ele>
        <time>2015-07-18T12:19:55Z</time>
      </trkpt>
      <trkpt lat="43.1632" lon="2.27215">
        <ele>229.41</ele>
        <time>2015-07-18T12:20:09Z</time>
      </trkpt>
      <trkpt lat="43.1632" lon="2.27215">
        <ele>228.45</ele>
        <time>2015-07-18T12:20:41Z</time>
      </trkpt>
      <trkpt lat="43.16316" lon="2.27216">
        <ele>228.45</ele>
        <time>2015-07-18T12:20:56Z</time>
      </trkpt>
      <trkpt lat="43.16316" lon="2.27215">
        <ele>228.45</ele>
        <time>2015-07-18T12:20:57Z</time>
      </trkpt>
      <trkpt lat="43.1632" lon="2.27211">
        <ele>228.45</ele>
        <time>2015-07-18T12:21:14Z</time>
      </trkpt>
      <trkpt lat="43.16317" lon="2.27217">
        <ele>228.45</ele>
        <time>2015-07-18T12:21:36Z</time>
      </trkpt>
      <trkpt lat="43.16317" lon="2.27219">
        <ele>228.45</ele>
        <time>2015-07-18T12:21:44Z</time>
      </trkpt>
    </trkseg>
  </trk>
  <trk>
    <name><![CDATA[Tracé actuel: 07 JUIL 2015 18:41]]></name>
    <trkseg>
      <trkpt lat="43.16319" lon="2.27202">
        <ele>228.93</ele>
        <time>2015-07-07T17:41:27Z</time>
      </trkpt>
      <trkpt lat="43.16319" lon="2.27202">
        <ele>228.93</ele>
        <time>2015-07-07T17:41:28Z</time>
      </trkpt>
      <trkpt lat="43.16318" lon="2.27202">
        <ele>227.97</ele>
        <time>2015-07-07T17:41:40Z</time>
      </trkpt>
      <trkpt lat="43.16318" lon="2.27203">
        <ele>227.97</ele>
        <time>2015-07-07T17:42:13Z</time>
      </trkpt>
      <trkpt lat="43.16319" lon="2.27203">
        <ele>227.97</ele>
        <time>2015-07-07T17:42:48Z</time>
      </trkpt>
      <trkpt lat="43.16318" lon="2.27203">
        <ele>227.97</ele>
        <time>2015-07-07T17:43:31Z</time>
      </trkpt>
      <trkpt lat="43.16318" lon="2.27203">
        <ele>227.97</ele>
        <time>2015-07-07T17:43:44Z</time>
      </trkpt>
      <trkpt lat="43.16318" lon="2.27204">
        <ele>227.01</ele>
        <time>2015-07-07T17:44:19Z</time>
      </trkpt>
      <trkpt lat="43.16319" lon="2.27208">
        <ele>227.49</ele>
        <time>2015-07-07T17:44:56Z</time>
      </trkpt>
      <trkpt lat="43.16321" lon="2.27207">
        <ele>227.01</ele>
        <time>2015-07-07T17:45:19Z</time>
      </trkpt>
      <trkpt lat="43.16321" lon="2.27204">
        <ele>227.01</ele>
        <time>2015-07-07T17:45:50Z</time>
      </trkpt>
      <trkpt lat="43.16321" lon="2.27204">
        <ele>227.49</ele>
        <time>2015-07-07T17:46:11Z</time>
      </trkpt>
      <trkpt lat="43.16322" lon="2.27201">
        <ele>227.49</ele>
        <time>2015-07-07T17:46:12Z</time>
      </trkpt>
      <trkpt lat="43.16316" lon="2.27208">
        <ele>227.01</ele>
        <time>2015-07-07T17:46:30Z</time>
      </trkpt>
    </trkseg>
  </trk>
</gpx>